GFSNGP_sfc_wetblb_000.txt.gz
Wetbulb
40.62 41.25 40.22 40.00 39.99 40.46 38.92 40.06 35.14 38.92 39.45 43.17 44.17 45.25 46.75 46.14 46.40 46.52 46.33 46.43 45.40 44.97 44.78 45.37 46.70 47.78 47.56 47.64 47.10 46.39 46.27 46.20 46.82 47.43 47.11 46.86 46.60 46.87 47.56 47.89 48.30 48.61 48.58 48.90
35.39 39.63 38.11 36.84 38.94 39.12 39.86 40.53 40.23 40.69 40.01 46.23 46.96 44.41 44.93 43.89 46.08 46.28 45.63 45.06 45.29 45.23 44.68 45.48 45.80 46.10 45.95 45.15 44.62 44.94 43.80 44.15 45.70 45.26 45.08 44.83 44.89 45.25 45.92 46.14 46.48 46.78 46.70 47.40
30.69 36.92 36.47 33.33 37.98 38.87 39.43 40.69 39.76 36.39 41.44 44.76 43.46 45.44 45.42 45.39 44.95 45.78 44.54 43.79 43.94 44.38 45.31 44.80 44.00 44.44 41.69 41.52 42.37 42.58 42.29 42.87 42.51 41.71 41.39 41.97 42.83 42.80 42.78 42.48 42.91 43.71 44.86 45.65
31.38 33.59 25.49 38.64 43.12 43.08 40.94 42.31 42.55 42.85 43.57 44.34 44.21 45.01 45.26 45.72 43.87 44.92 43.67 43.75 44.19 43.49 42.90 42.72 42.81 41.88 39.79 39.54 39.15 39.13 39.13 39.02 39.29 39.32 39.00 39.45 39.65 39.53 39.82 40.57 40.66 41.16 42.43 43.95
30.32 31.13 36.10 39.68 42.37 40.76 38.18 38.92 43.53 42.21 43.50 43.52 44.03 41.97 41.70 45.33 44.33 43.35 43.19 43.24 42.82 41.85 40.97 40.17 39.17 37.91 37.23 36.69 36.57 36.67 36.39 35.80 36.85 37.26 36.77 37.13 36.97 36.88 37.46 38.29 38.89 39.12 40.56 41.40
28.81 26.89 28.10 37.96 42.10 44.47 42.40 33.05 43.54 44.04 43.65 43.71 41.57 35.43 38.02 42.78 44.59 43.69 44.17 43.86 40.64 39.41 39.04 37.31 36.26 35.85 34.40 33.75 32.97 32.74 33.45 33.99 34.86 35.36 35.11 34.62 34.93 35.07 36.00 36.93 37.24 38.41 38.07 40.02
31.98 29.92 34.98 42.65 42.80 43.97 32.25 35.16 43.50 44.36 44.30 43.98 40.06 40.42 42.01 43.68 43.25 42.59 40.83 39.62 39.83 39.09 35.83 33.99 34.09 32.97 31.09 30.41 29.50 31.65 32.83 33.04 33.11 33.54 33.33 33.88 33.94 34.39 34.38 34.36 35.70 35.64 36.17 37.60
33.51 29.83 26.92 43.94 42.57 37.24 41.64 43.91 44.29 44.66 43.16 41.26 41.81 43.81 43.20 42.20 40.74 40.00 39.16 38.46 37.20 34.55 33.25 32.79 32.87 30.65 28.69 28.20 31.15 32.32 32.09 31.96 31.90 32.07 32.64 33.30 31.93 32.46 32.70 32.66 32.43 33.76 34.29 34.70
37.08 35.96 43.61 43.69 42.69 45.03 44.74 44.18 43.70 43.57 43.93 44.05 43.40 42.74 41.82 40.31 39.24 38.99 37.13 34.50 33.68 32.14 31.12 31.26 31.72 30.01 27.96 29.28 30.61 30.91 30.43 30.02 30.54 31.11 31.22 31.51 30.72 30.60 30.39 31.43 31.36 31.87 32.14 32.32
38.36 39.66 41.24 44.11 46.25 42.64 42.80 41.71 42.98 42.62 42.93 42.49 41.35 41.22 40.47 39.48 38.55 37.53 34.52 32.03 31.59 30.41 29.25 28.49 29.69 29.84 29.01 29.31 30.21 29.80 28.65 28.82 29.45 29.19 30.23 30.17 30.84 30.96 30.08 29.61 30.35 30.84 30.36 29.93
38.56 41.92 43.24 44.09 43.67 42.02 40.65 40.08 39.93 40.26 40.79 40.48 39.81 38.17 37.74 37.42 36.59 33.27 32.31 30.60 29.90 28.42 27.98 27.46 27.66 27.70 28.45 29.58 29.64 28.52 28.36 28.35 28.37 29.09 28.58 28.69 29.57 29.24 29.53 31.14 32.63 31.40 31.30 31.45
36.27 41.08 41.14 41.54 42.99 40.29 39.82 39.86 39.57 37.97 35.67 37.50 38.04 37.72 37.46 35.43 33.09 31.44 29.61 29.01 27.93 27.40 26.50 26.40 26.75 27.22 28.44 29.42 28.83 27.59 27.21 27.52 27.59 27.98 27.82 28.11 27.67 28.10 33.25 34.53 35.75 36.24 36.56 35.67
40.63 42.22 42.15 42.56 42.54 40.96 38.14 38.48 37.98 38.37 38.15 37.09 36.25 34.91 33.30 30.96 29.37 30.46 28.58 27.67 27.29 26.07 26.19 26.28 26.41 26.99 28.36 28.93 28.70 27.70 26.44 26.82 27.10 27.75 26.78 26.53 26.86 26.87 26.00 29.88 33.61 34.08 35.21 36.07
42.78 41.83 40.04 40.51 35.90 36.11 36.78 37.25 37.35 36.12 35.57 34.88 33.41 31.92 30.01 27.60 27.79 27.53 26.73 27.13 26.78 26.48 26.19 26.39 26.63 26.95 28.46 28.90 28.28 27.13 26.85 29.96 26.98 26.21 26.25 26.61 26.73 26.95 27.27 26.41 26.13 27.74 32.41 33.23
40.31 39.16 37.24 36.15 34.93 34.33 34.96 34.49 31.79 31.69 30.86 30.33 29.54 27.62 27.48 26.43 25.86 26.29 26.99 27.15 26.62 25.85 25.90 26.26 26.14 26.65 28.49 28.57 27.71 26.55 26.35 26.08 26.32 26.39 26.87 27.88 27.32 26.83 26.97 27.30 27.26 26.96 28.36 30.45
34.57 33.62 32.78 32.45 34.43 33.64 31.64 32.24 31.54 30.41 28.65 27.08 26.68 26.71 26.58 25.86 25.14 25.32 25.63 25.69 23.72 23.36 25.05 25.52 25.70 27.08 28.21 27.95 26.69 25.93 26.02 28.83 28.99 26.66 26.27 26.27 26.29 26.12 26.10 26.01 26.52 27.26 26.37 26.42
32.05 30.02 33.19 32.86 33.13 32.14 31.42 31.31 29.78 26.75 26.99 25.84 24.87 25.35 24.64 24.06 23.68 23.43 24.06 24.96 24.41 24.23 25.31 25.07 25.42 27.49 27.99 26.87 25.87 25.77 25.48 25.71 28.78 26.26 25.39 25.69 25.52 25.08 25.26 25.78 25.41 25.19 25.47 27.98
34.08 33.32 33.61 33.37 32.04 32.46 32.13 28.80 27.40 26.45 24.55 25.30 25.31 24.69 23.47 22.70 22.10 21.99 22.87 23.70 23.48 23.74 25.02 25.59 26.63 26.93 27.32 26.92 26.32 25.84 25.51 25.41 25.46 25.03 25.20 24.86 24.87 25.82 25.99 25.59 25.33 25.49 26.23 27.71
33.23 32.54 31.47 33.03 34.61 32.86 28.87 26.71 25.54 24.87 25.12 24.68 23.42 22.47 22.95 22.71 22.35 22.50 23.20 22.46 22.35 21.77 24.34 26.05 28.72 28.86 25.76 26.59 28.21 26.21 25.12 24.56 24.41 24.34 24.72 26.33 25.13 25.41 25.86 25.68 25.58 25.66 25.73 26.01
28.08 27.31 29.03 30.46 29.89 26.68 24.75 25.38 25.01 24.09 24.46 23.63 22.82 21.93 21.08 21.64 22.10 21.93 21.89 21.56 22.76 23.79 25.69 26.13 26.58 25.79 25.39 25.71 28.42 25.67 24.67 24.13 24.28 24.35 24.48 25.07 24.58 23.68 23.87 25.43 25.14 25.24 25.78 26.40
26.55 25.35 24.77 24.80 24.14 25.01 24.72 24.72 23.85 22.85 23.00 22.77 21.72 20.95 21.06 21.45 21.85 21.93 20.90 20.45 23.63 25.40 26.29 28.42 26.09 25.05 25.27 26.57 26.71 25.89 25.34 24.23 24.25 24.07 23.58 23.23 23.40 23.75 23.61 24.00 24.20 24.26 25.24 25.69
25.85 24.59 24.11 24.08 23.49 23.39 24.05 24.22 23.60 22.70 22.20 21.94 21.84 21.35 20.61 20.26 20.88 20.97 21.83 21.29 24.36 28.25 26.48 24.81 24.64 26.55 26.51 29.11 26.19 25.63 25.07 24.26 23.80 23.81 23.65 23.49 22.96 21.99 21.07 21.31 21.37 22.91 24.36 24.73
25.43 25.06 24.63 23.53 22.88 23.10 23.98 23.24 22.77 22.15 21.20 20.90 20.55 20.37 20.52 21.11 21.40 19.74 19.07 22.75 24.23 25.51 25.27 24.41 26.38 28.18 28.82 26.60 25.40 24.83 24.43 24.06 23.52 23.08 22.19 21.16 20.82 20.39 20.39 20.64 21.22 21.91 22.02 22.23
25.84 24.76 24.46 24.80 23.41 21.49 20.27 21.83 22.00 21.86 21.10 21.79 22.02 21.93 21.38 20.56 21.30 22.56 22.97 25.98 27.10 25.60 24.29 24.99 25.65 28.00 28.76 25.22 23.89 22.97 22.46 22.10 21.45 21.09 21.51 24.35 21.54 21.15 20.86 20.95 21.34 21.87 22.73 22.56
22.61 19.61 18.63 17.80 18.70 21.05 19.97 19.52 18.43 17.37 19.51 19.64 20.25 21.00 21.90 22.07 20.91 22.21 22.24 22.32 25.21 24.51 22.84 25.77 26.86 26.88 23.22 21.89 21.65 21.53 21.42 21.43 21.44 21.91 22.58 22.89 22.56 21.89 22.10 22.14 21.65 20.75 21.16 21.32
22.59 22.46 22.25 22.23 21.54 20.35 19.87 19.70 18.15 18.74 19.01 19.10 19.85 19.98 20.30 21.23 21.33 22.12 21.60 23.22 22.27 23.33 21.71 21.68 21.55 21.84 21.78 21.40 21.37 21.59 21.74 21.85 22.29 22.09 22.60 22.58 22.62 22.17 22.02 21.50 20.77 20.42 20.88 20.39
19.97 23.71 18.53 19.74 20.16 20.18 19.28 19.07 18.23 17.68 18.83 18.22 18.39 20.20 20.64 21.03 20.96 21.66 22.33 20.43 20.26 20.20 20.15 20.52 20.81 21.50 21.41 21.71 21.65 21.56 21.53 21.58 22.84 22.32 22.62 22.91 23.01 22.36 22.15 22.11 20.75 20.34 19.08 20.95

GFSNGP_sfc_wetblb_003.txt.gz
Wetbulb
38.41 39.66 38.93 38.90 38.83 38.93 37.90 37.51 34.39 36.37 37.49 41.13 40.28 40.70 42.25 44.60 43.93 43.96 43.31 42.51 42.61 41.96 42.87 43.46 43.29 42.67 42.09 41.60 41.96 42.39 42.05 41.71 41.78 41.51 41.01 41.09 41.52 42.38 43.15 43.51 44.16 44.76 44.05 43.91
34.11 37.54 37.12 35.69 37.30 37.01 37.97 38.59 37.43 38.08 38.61 44.00 44.19 42.23 43.96 42.98 43.68 43.45 42.03 42.05 42.87 44.56 42.45 40.86 40.07 39.95 39.67 38.79 38.60 39.27 38.28 38.33 39.11 38.69 38.74 38.77 39.06 39.42 40.15 40.52 40.94 41.52 41.31 43.17
29.08 35.21 35.62 33.57 36.54 36.97 36.12 37.35 37.50 33.94 39.03 41.57 41.41 43.78 43.43 43.37 43.84 42.65 40.75 42.73 43.26 41.47 40.79 40.40 39.42 38.12 35.75 35.67 36.51 36.26 36.17 36.61 36.06 36.31 36.23 36.46 36.98 37.22 37.28 37.28 37.91 37.56 39.55 40.02
29.04 31.70 25.67 36.88 40.29 41.25 38.80 40.38 40.08 40.04 40.98 42.27 42.84 42.91 43.23 43.27 42.27 40.38 42.26 41.80 40.85 39.39 38.18 38.05 36.30 35.38 35.10 35.52 34.48 34.12 34.15 33.03 33.71 33.94 33.82 34.50 34.62 34.54 34.63 35.47 35.12 35.83 36.99 37.43
28.75 28.53 33.49 37.66 39.05 38.93 37.36 37.71 39.99 39.13 41.44 42.14 41.54 40.27 38.27 42.19 42.40 41.51 41.05 40.74 39.30 38.51 37.41 35.69 34.68 34.51 33.07 32.10 31.39 31.11 30.98 30.79 31.70 32.03 31.81 32.23 31.94 32.01 33.01 33.42 33.81 34.04 35.06 36.11
24.16 24.03 25.95 35.73 39.60 42.11 40.52 32.41 41.80 41.84 41.29 41.88 40.82 37.06 37.62 41.50 42.55 42.55 42.17 40.74 38.79 37.45 37.15 35.22 33.66 31.52 30.05 29.33 28.15 28.19 29.59 30.46 30.99 31.24 30.97 30.46 30.62 30.80 31.85 32.13 32.59 33.66 33.00 33.68
29.34 27.72 31.78 39.34 41.56 41.84 30.97 32.86 42.86 43.63 43.01 43.17 39.85 40.36 40.04 41.41 41.05 40.11 39.05 38.16 37.74 36.17 32.99 31.22 30.79 29.20 27.71 27.31 26.64 28.62 30.11 30.44 30.48 30.46 29.79 30.24 30.34 30.48 30.52 30.60 30.99 30.42 31.16 32.50
30.51 27.26 25.27 41.17 40.62 36.01 38.76 40.78 41.48 41.81 44.05 43.15 42.58 42.10 41.76 40.18 38.60 38.41 37.51 35.57 35.03 32.81 30.41 30.13 29.68 27.98 26.40 25.40 28.00 28.69 28.97 29.12 29.20 29.22 30.16 31.17 29.01 29.08 29.30 29.18 28.54 28.75 29.17 30.87
34.63 33.06 40.49 41.16 40.70 40.99 41.84 40.54 39.08 39.06 40.85 41.44 41.34 41.79 40.67 38.65 38.29 37.44 35.87 34.29 32.74 29.38 28.79 29.21 28.62 27.21 25.59 26.38 27.49 27.99 27.30 27.55 28.04 28.79 28.97 29.17 28.04 27.95 27.92 28.48 27.69 27.91 29.22 29.17
36.80 38.14 38.43 40.76 39.52 40.65 40.80 39.90 40.44 40.33 40.40 41.62 41.36 40.93 39.55 39.64 37.69 37.59 34.70 31.84 30.56 29.50 28.20 28.28 28.79 27.57 26.14 26.70 27.89 27.46 26.43 26.71 27.35 27.21 28.25 28.27 28.65 28.61 27.53 26.90 27.31 28.30 28.50 28.82
36.13 39.44 39.52 40.11 39.56 39.75 39.50 39.58 39.11 38.35 38.29 37.91 37.82 36.60 36.17 36.34 37.10 34.48 31.89 30.80 29.89 27.71 26.50 27.18 26.45 25.65 26.86 27.93 27.16 26.43 26.03 26.52 26.65 27.18 26.74 26.78 27.60 27.15 27.31 28.63 30.08 29.02 29.32 29.69
33.50 38.94 37.88 38.48 40.93 39.95 39.31 39.17 39.09 37.18 35.29 35.69 35.83 36.34 37.04 36.33 33.22 31.36 29.27 28.78 27.80 27.16 26.75 26.04 25.04 25.00 26.42 26.94 26.81 25.49 25.83 26.36 26.49 26.89 26.41 26.58 25.80 26.06 31.27 32.42 33.29 33.59 33.81 32.85
38.47 39.12 39.70 40.37 38.87 38.53 37.72 37.67 37.07 36.32 35.13 35.64 37.65 36.24 34.55 31.76 29.95 29.87 27.96 27.02 26.30 25.67 25.67 25.37 24.57 25.14 26.78 27.26 26.75 26.01 24.67 25.30 26.00 27.01 25.67 24.99 25.00 24.95 24.48 28.46 32.33 32.45 33.08 33.46
38.70 38.72 36.95 36.86 36.25 35.05 36.01 36.12 37.26 36.54 36.99 37.14 34.82 32.73 30.78 27.28 27.46 26.67 25.60 25.44 25.14 24.73 24.68 24.78 24.76 25.30 26.89 26.76 26.83 25.66 25.70 29.39 26.47 25.54 25.08 25.03 25.35 25.76 25.95 25.27 24.89 26.00 30.54 31.66
37.04 37.18 37.16 35.20 33.71 34.11 35.59 35.48 33.98 33.84 33.12 31.06 30.80 28.80 27.57 25.56 24.28 24.19 25.02 24.94 24.78 24.01 23.84 24.23 23.99 25.34 27.23 26.93 26.19 25.70 25.43 25.10 25.17 25.67 26.00 27.09 26.67 26.05 25.92 25.60 25.20 25.24 26.50 29.00
32.93 30.93 29.21 31.97 33.74 35.73 33.80 32.96 32.13 31.05 30.95 29.80 26.39 24.96 24.94 24.28 23.60 23.42 23.86 23.73 22.44 22.61 23.54 23.73 24.32 25.98 26.80 26.37 25.53 24.87 24.49 28.32 28.29 26.01 25.73 25.61 25.58 25.25 24.92 24.50 24.40 24.61 25.12 25.03
30.42 29.10 31.53 32.98 32.20 35.07 33.19 34.12 34.11 32.56 29.44 25.90 24.12 24.19 23.82 23.17 22.73 22.25 22.62 23.23 23.52 23.61 24.10 23.94 24.41 26.00 26.03 25.68 24.06 25.39 25.15 25.11 28.22 25.81 24.60 25.21 25.10 24.19 24.04 24.54 24.97 25.25 25.12 26.94
31.98 31.08 32.05 33.38 32.84 34.50 33.73 33.55 30.55 27.54 24.56 24.43 23.93 23.02 22.26 21.15 20.45 21.28 21.68 22.32 22.11 22.10 22.82 24.00 24.75 25.29 25.68 25.95 25.38 24.99 25.13 25.00 24.94 24.61 25.05 24.72 24.48 25.11 24.82 24.21 24.42 24.25 24.41 25.95
32.31 31.59 30.30 32.36 32.94 32.45 30.51 26.01 26.01 24.61 24.00 23.52 22.63 21.72 21.48 21.14 21.19 21.27 21.37 20.56 20.07 20.05 22.86 24.53 27.39 27.55 25.05 24.94 27.81 25.76 24.90 24.22 24.02 24.13 24.64 26.04 24.36 24.30 24.77 24.24 23.52 23.78 23.94 24.49
28.72 27.65 28.05 30.17 30.77 28.10 25.52 24.65 23.77 22.63 22.94 22.81 22.23 20.99 20.02 20.20 20.81 20.71 20.74 20.29 21.57 22.49 24.24 24.65 25.23 24.77 24.40 24.48 27.81 25.38 24.71 24.21 24.57 24.93 24.49 24.65 24.12 23.29 23.40 24.80 24.32 23.91 22.87 23.08
27.39 25.83 23.83 23.87 23.47 23.53 23.84 23.08 22.32 21.61 22.52 22.26 21.19 20.49 20.36 20.62 20.71 20.63 19.67 19.60 22.51 24.53 25.33 27.25 24.66 24.18 24.53 25.84 26.58 25.87 25.61 24.78 24.45 24.05 23.70 23.22 23.19 23.45 23.64 23.69 22.81 22.43 22.57 22.89
26.51 24.55 23.28 23.14 22.38 22.01 22.64 22.53 22.09 22.10 21.69 21.25 21.27 20.69 19.66 19.06 19.18 18.62 20.44 20.09 22.96 26.77 25.15 23.92 23.93 25.76 25.85 28.81 26.02 25.03 24.77 24.44 24.29 24.06 23.35 23.04 22.75 21.81 20.75 20.48 19.94 20.88 21.75 21.40
27.00 24.78 23.74 22.37 21.67 21.45 22.15 21.71 21.72 21.66 20.91 20.65 20.10 19.65 19.60 20.31 20.45 18.91 18.52 21.92 23.41 24.79 24.53 23.27 25.50 27.83 28.35 25.89 24.93 24.30 23.28 22.27 21.69 21.53 21.29 20.77 20.49 19.91 19.57 19.76 20.42 21.17 20.44 20.68
26.93 24.96 23.28 23.51 22.07 20.99 20.30 21.28 21.18 21.59 20.63 21.02 21.43 21.50 20.59 19.79 20.44 21.14 21.26 24.81 25.91 24.61 23.68 24.12 24.81 27.50 27.99 23.48 21.69 20.96 20.69 20.62 20.38 20.11 20.42 23.47 20.70 20.41 20.32 20.76 20.98 20.83 21.10 21.53
24.03 19.15 17.19 17.21 19.30 20.91 19.14 18.26 17.13 16.18 18.49 18.61 19.27 19.97 20.83 20.87 19.41 20.93 20.87 21.31 24.31 23.46 21.71 24.69 25.88 25.76 21.61 20.57 20.56 20.43 20.20 19.96 20.20 21.16 21.92 22.15 21.98 21.82 21.91 21.85 21.89 21.73 21.81 21.48
22.58 22.86 22.13 21.43 21.61 21.16 20.34 19.25 17.66 17.95 18.12 17.95 18.60 18.86 18.90 19.61 19.28 21.09 20.34 21.97 21.19 22.27 20.36 20.27 20.32 20.85 20.91 20.42 20.22 20.50 20.73 20.80 21.06 20.70 21.69 21.43 21.49 21.29 21.08 21.10 21.50 20.85 20.04 18.31
20.09 23.36 18.40 20.19 20.02 20.15 19.10 18.47 17.40 17.07 18.04 17.26 17.32 19.11 19.05 19.45 19.59 20.56 21.12 19.05 18.82 18.93 19.04 19.58 19.93 20.58 20.53 20.69 20.75 20.49 20.28 20.01 21.18 20.85 21.37 21.64 21.82 21.80 21.81 21.77 21.80 20.75 19.56 18.34

GFSNGP_sfc_wetblb_006.txt.gz
Wetbulb
36.70 37.96 37.70 38.00 38.19 38.68 36.60 35.09 33.51 33.76 35.61 37.58 40.04 40.78 42.32 42.28 41.97 43.04 41.93 41.26 40.99 42.17 41.12 40.40 39.32 38.23 37.40 37.18 37.32 37.97 37.02 36.94 36.24 36.25 36.02 35.94 35.84 35.89 36.42 36.70 36.75 37.26 36.80 36.93
33.70 36.95 36.53 34.92 36.42 36.51 36.93 37.82 37.48 36.91 37.65 41.53 42.32 40.32 41.27 39.49 41.55 41.70 40.64 40.62 43.18 42.30 39.18 37.89 36.64 35.88 36.04 35.35 35.64 35.82 34.50 34.38 34.26 33.51 33.38 33.23 33.45 33.77 34.04 34.05 34.19 34.85 34.62 35.06
29.59 34.86 35.43 32.50 34.99 34.81 33.93 35.00 35.99 32.62 37.02 40.27 40.40 42.12 41.16 40.95 41.57 40.88 39.47 42.41 41.79 39.58 38.80 37.84 35.56 35.18 33.92 33.79 34.01 32.80 32.98 31.78 31.78 31.83 31.41 31.54 32.05 32.10 31.82 31.66 32.53 32.38 32.77 33.80
29.35 31.13 25.85 34.09 38.36 39.68 37.20 37.88 37.92 38.49 39.81 40.21 40.85 39.95 39.65 40.45 41.70 39.19 41.81 40.86 39.45 37.93 36.62 35.60 34.31 33.67 32.81 32.51 30.77 30.09 30.07 29.81 30.66 30.68 30.22 30.55 30.39 30.12 30.03 30.67 30.46 30.66 31.44 31.93
28.76 28.00 32.88 35.83 38.06 37.93 36.83 35.89 39.49 39.51 39.78 40.77 40.94 38.74 38.37 40.89 40.43 40.19 39.84 39.07 37.78 36.78 35.97 33.91 32.74 31.37 30.22 28.84 28.04 28.49 28.69 28.73 29.63 29.69 29.26 29.36 28.74 28.73 29.35 29.42 29.46 29.95 31.04 30.84
25.14 24.91 26.41 33.87 38.81 40.70 38.73 30.66 39.95 40.55 40.07 40.55 40.18 35.27 37.38 39.88 40.88 40.42 39.26 38.11 36.86 36.25 35.97 32.66 30.15 28.83 27.61 26.75 26.32 26.64 27.77 28.50 28.97 29.14 28.77 28.04 28.07 28.06 29.23 29.10 29.43 30.30 29.79 30.08
29.17 26.79 30.54 37.19 40.03 40.50 30.59 30.53 39.51 40.41 40.01 39.89 38.75 39.37 39.50 40.57 38.88 38.21 37.73 38.09 36.98 34.51 32.89 30.63 28.25 27.29 26.26 25.68 25.14 26.71 27.89 28.18 28.30 28.33 27.78 28.02 28.31 28.46 28.23 27.98 28.44 27.82 28.19 28.87
28.66 25.94 24.22 39.02 39.14 35.31 37.38 39.15 39.03 39.32 39.02 38.71 39.42 40.02 39.44 39.03 38.06 38.02 36.88 34.99 34.29 30.69 31.59 30.71 30.07 27.08 25.15 23.98 26.16 26.61 26.93 27.29 27.36 27.19 28.13 29.26 26.91 27.10 27.30 27.06 26.42 26.42 26.67 27.95
32.47 31.40 38.55 38.82 39.44 40.02 40.99 39.68 38.37 38.67 39.00 39.68 40.17 39.70 39.98 38.73 38.71 38.64 36.00 33.58 32.71 31.51 30.65 30.27 27.79 25.69 24.13 25.05 25.76 26.15 25.39 25.55 26.17 26.95 26.83 27.04 25.74 26.08 25.93 26.41 25.61 25.53 26.51 27.22
35.75 36.60 37.43 38.72 38.65 39.17 39.96 39.98 40.43 39.69 39.09 39.09 38.48 39.59 38.72 37.68 36.66 36.31 34.18 31.62 31.36 30.21 28.88 26.80 26.57 26.10 25.11 25.33 25.89 25.21 24.22 24.78 25.52 25.25 26.61 26.50 26.88 26.87 25.77 24.86 25.20 25.82 26.87 26.83
34.85 37.63 37.76 37.79 38.81 39.13 39.14 39.25 38.38 38.07 38.29 38.62 37.57 36.20 35.04 35.73 36.23 34.49 31.82 31.07 30.09 28.50 25.98 25.07 24.69 24.37 24.88 25.62 25.10 23.81 23.83 24.20 25.15 25.75 25.29 25.47 26.30 25.77 25.57 26.80 28.31 27.86 27.91 28.14
32.94 37.47 37.30 37.05 38.35 39.33 38.21 37.98 38.70 37.68 36.31 34.99 34.75 34.90 35.32 35.05 32.34 30.16 29.85 29.40 26.61 25.13 24.15 23.85 23.55 23.51 24.32 25.27 24.73 23.70 24.14 24.90 25.02 25.52 25.07 25.50 24.78 24.73 29.92 31.14 32.18 32.25 32.25 31.07
37.65 38.34 38.31 37.93 37.55 37.05 36.82 37.10 37.13 35.11 34.05 34.10 37.25 35.99 35.89 31.17 30.07 30.86 25.97 25.29 24.12 23.39 22.98 23.21 22.83 23.36 24.82 25.43 25.21 24.61 23.51 24.31 24.46 26.02 24.83 24.16 23.96 23.73 23.35 27.32 30.99 30.99 31.21 31.63
37.49 38.51 35.90 36.31 35.93 35.98 35.69 35.70 37.03 36.97 37.45 37.75 37.11 34.50 31.77 28.87 26.51 24.95 23.81 23.91 23.63 23.68 23.05 22.98 23.05 23.37 25.26 25.15 24.48 23.80 23.74 28.15 25.33 24.43 24.12 24.14 24.46 24.86 25.10 24.08 23.39 24.24 28.67 29.81
36.71 36.96 36.32 34.85 33.52 32.69 36.06 35.32 33.92 33.31 33.76 33.78 32.11 29.58 26.66 24.51 23.69 23.39 23.31 23.84 23.82 22.99 22.84 23.16 23.09 23.83 25.51 25.29 24.83 24.14 23.97 23.81 23.96 24.49 25.14 26.15 25.62 25.03 24.78 24.39 23.84 23.63 24.69 27.48
33.54 30.85 28.19 31.81 33.00 32.81 34.25 34.16 33.19 33.01 32.02 29.94 27.06 24.77 24.18 23.73 23.13 22.82 22.83 22.80 21.34 21.44 22.56 22.64 23.02 24.79 25.29 24.57 23.91 24.13 23.73 27.40 27.73 25.21 24.73 24.73 24.57 24.26 24.24 23.66 23.33 23.31 24.16 24.05
30.17 27.03 23.04 24.12 31.86 31.53 32.14 33.36 32.47 33.70 32.64 28.51 24.59 23.65 23.38 22.82 22.29 21.58 21.68 21.59 22.28 21.93 22.53 22.79 23.23 24.80 24.59 23.81 22.94 24.15 24.22 24.21 27.42 24.71 23.71 24.14 24.37 23.83 23.52 23.83 23.83 23.26 23.13 25.57
31.27 29.44 30.46 32.17 32.28 32.26 32.38 31.90 33.26 30.89 27.12 24.45 23.41 22.45 21.81 20.43 19.79 20.44 20.79 21.18 20.77 20.71 21.65 22.98 23.41 24.17 24.78 24.63 24.63 24.25 24.01 24.16 24.08 23.62 24.11 23.98 24.06 24.89 24.32 23.02 23.10 23.32 23.36 24.78
33.01 31.62 31.19 31.88 31.76 31.58 31.68 30.90 28.70 25.86 23.79 22.96 21.79 21.12 20.84 20.19 20.45 20.44 20.20 19.58 19.06 18.75 21.49 22.38 26.11 26.31 23.78 24.47 26.75 24.60 23.81 23.22 23.26 23.54 24.09 25.70 24.51 24.21 24.20 23.49 22.92 23.27 23.90 23.40
28.51 28.12 28.90 30.56 30.91 29.68 27.83 25.20 23.90 22.19 22.02 21.89 21.63 20.65 20.04 20.09 20.36 20.06 19.78 18.81 20.22 21.28 22.55 23.22 23.93 23.34 23.21 23.55 26.87 24.49 23.92 23.87 23.83 24.19 24.14 24.42 23.78 23.19 23.29 24.23 23.82 23.48 22.46 22.20
28.34 27.25 25.64 25.79 26.13 25.50 25.19 23.21 21.63 20.71 21.86 22.08 21.44 20.67 20.16 20.19 20.12 19.78 18.41 18.27 20.95 23.15 24.22 26.22 23.48 23.28 23.47 24.93 25.90 25.21 24.15 23.33 23.31 22.87 23.06 22.71 22.56 22.48 22.53 22.67 21.86 21.73 21.89 22.27
27.52 26.70 25.19 23.41 22.30 21.78 22.14 21.46 21.08 21.50 21.52 21.28 21.10 20.34 19.29 18.33 18.41 17.84 19.66 19.23 21.98 26.00 24.43 23.10 22.86 24.57 24.95 28.25 25.09 23.92 23.46 22.89 22.12 21.43 20.53 20.40 20.59 20.24 19.69 19.66 19.47 20.44 21.05 20.98
27.67 27.89 26.08 23.48 22.10 21.26 21.19 20.73 20.96 21.31 20.96 20.66 20.07 19.52 18.95 19.00 19.27 17.90 17.68 20.98 22.55 23.96 23.76 22.50 24.71 27.16 27.57 25.27 23.38 22.08 20.90 20.08 19.79 19.78 19.54 19.38 19.63 19.33 19.45 19.92 20.75 21.74 21.23 21.05
26.62 27.21 26.27 24.16 21.33 19.82 19.48 20.76 20.62 21.18 20.52 20.75 20.87 20.77 19.81 18.65 19.25 20.29 20.50 23.92 25.01 23.77 22.85 23.15 23.78 26.76 27.30 22.11 20.17 19.50 19.42 19.51 19.13 18.63 19.03 22.30 19.87 19.95 20.34 20.93 20.86 21.22 21.34 21.50
23.49 20.59 16.99 15.56 18.58 20.68 18.48 17.41 16.23 15.69 18.37 18.10 18.48 19.08 19.98 20.02 18.42 19.74 19.75 20.15 23.42 22.54 20.63 23.66 24.98 24.91 20.61 19.43 19.50 19.42 19.14 18.79 19.14 20.53 21.28 20.18 19.24 19.49 20.33 20.91 20.97 21.31 21.93 22.09
22.59 24.05 22.94 21.02 21.20 20.95 20.59 19.34 18.22 17.91 17.50 17.24 17.93 18.19 18.20 18.61 18.28 20.12 18.97 20.81 20.10 21.18 19.12 18.98 19.04 19.78 20.02 19.50 19.23 19.50 19.63 19.55 19.78 19.47 20.20 19.63 19.54 19.83 20.26 20.86 20.93 20.93 20.82 20.34
16.94 22.31 17.37 20.18 19.78 19.59 18.72 18.39 16.94 16.86 17.29 16.40 16.27 18.03 18.20 18.29 18.44 19.62 20.10 17.65 17.45 17.59 17.71 18.21 18.64 19.38 19.43 19.66 19.70 19.53 19.39 19.22 20.43 20.07 20.51 20.43 19.78 19.52 19.77 20.18 20.64 21.08 21.40 20.43

GFSNGP_sfc_wetblb_009.txt.gz
Wetbulb
35.09 36.52 37.21 37.08 37.62 36.77 34.74 33.96 32.65 32.57 34.16 36.01 37.16 38.97 40.28 42.44 41.84 42.90 42.77 40.15 41.41 41.73 40.36 38.72 37.34 35.86 34.98 34.77 34.95 34.76 34.18 32.80 32.03 32.11 31.73 31.33 31.16 31.43 31.92 32.00 32.00 32.29 32.36 32.32
31.18 34.90 34.57 32.73 34.85 37.39 36.78 36.37 35.36 35.89 35.44 39.81 40.01 39.70 41.58 41.23 40.06 41.09 40.44 39.73 41.97 41.30 38.04 36.74 35.01 34.14 34.21 33.26 32.99 32.33 31.63 30.27 30.93 30.62 30.29 29.96 30.17 30.34 30.46 30.36 30.33 30.66 30.52 30.67
28.20 32.69 33.00 30.37 33.90 34.02 33.60 34.67 36.19 32.81 36.59 39.84 39.97 40.89 40.06 40.46 40.30 41.27 39.69 40.97 41.55 38.96 38.02 36.67 33.89 33.40 31.84 31.56 30.53 29.65 29.65 29.49 29.68 29.69 29.28 29.14 29.39 29.19 28.74 28.46 28.87 28.72 29.04 29.73
28.57 30.84 26.04 34.03 38.41 38.88 36.59 37.42 38.00 39.80 40.26 41.01 40.80 40.20 39.82 39.96 40.75 40.32 39.95 41.15 38.91 37.44 35.82 33.62 32.71 32.25 31.59 31.75 29.32 28.23 28.08 28.07 28.68 28.58 28.14 28.37 27.92 27.44 27.35 28.05 27.77 27.86 28.32 29.17
30.54 28.94 31.73 34.43 37.40 36.44 36.89 36.35 39.86 39.90 40.54 40.55 39.85 38.27 38.18 40.28 39.78 38.87 39.40 38.87 37.65 36.09 34.53 32.09 31.30 32.47 30.89 27.77 26.67 26.79 26.84 26.78 27.52 27.60 27.30 27.37 26.66 26.47 27.12 27.37 27.16 27.49 28.58 28.35
27.85 26.67 27.78 34.50 38.97 40.91 39.10 32.68 39.28 40.36 39.55 39.23 38.81 34.00 36.62 38.38 39.46 38.84 38.44 37.45 35.84 34.66 33.47 33.69 31.42 28.61 28.09 28.17 25.95 24.99 26.08 26.55 26.88 27.13 26.73 26.09 25.76 26.07 27.20 26.80 27.27 28.12 27.54 27.90
30.44 28.53 31.88 37.39 39.38 40.21 30.94 31.03 38.57 38.76 38.84 37.41 36.63 38.86 39.69 39.83 38.73 38.07 37.04 36.06 34.78 34.39 33.01 30.58 29.85 29.24 27.97 27.31 24.53 25.32 26.22 26.40 26.48 26.38 25.54 25.61 25.78 26.25 26.40 25.93 26.38 25.71 26.14 26.87
29.61 27.81 27.61 38.24 38.56 35.20 36.44 38.35 38.68 38.42 38.18 37.98 39.02 39.11 39.10 38.85 37.66 36.89 34.96 34.34 33.30 30.75 31.13 30.32 30.30 29.24 27.37 24.05 24.92 25.15 25.43 25.38 25.31 24.98 26.16 27.77 24.58 25.03 25.13 25.02 24.38 24.48 24.71 25.99
32.34 31.48 37.44 37.73 38.44 39.18 39.79 38.75 38.56 37.88 38.80 38.83 38.92 38.92 39.27 38.28 37.30 36.70 34.28 31.39 31.41 30.15 29.06 30.03 29.60 27.96 23.62 24.13 24.63 24.61 23.76 23.44 23.87 24.43 24.72 24.91 23.22 24.49 24.08 24.55 23.89 23.55 24.41 25.28
34.73 35.14 36.31 37.57 38.47 39.32 39.65 39.47 39.68 38.83 38.56 38.40 37.19 37.85 38.07 37.32 36.57 34.30 31.75 29.86 29.93 30.20 28.95 28.08 26.82 24.71 23.59 23.80 24.31 23.50 22.26 22.18 23.68 22.72 25.44 25.06 24.62 24.95 24.26 23.22 23.46 24.41 25.39 25.98
34.49 35.12 36.15 37.09 37.59 38.16 38.68 37.84 37.54 37.12 37.10 36.81 35.34 34.99 34.38 35.16 35.34 33.56 32.28 31.38 30.33 28.77 26.91 24.24 23.49 23.14 23.42 24.01 23.59 22.88 22.46 22.82 22.73 23.81 22.72 23.66 24.52 24.50 24.39 25.26 26.81 26.92 26.78 26.94
32.83 36.82 36.25 36.39 38.16 38.24 37.49 37.09 37.28 36.29 35.56 34.67 33.98 33.99 34.27 35.16 35.71 32.30 30.47 29.77 28.05 24.82 22.95 22.83 22.50 22.42 23.24 24.13 23.69 22.27 22.90 23.67 23.65 24.31 23.45 24.20 23.87 23.71 28.91 30.07 31.22 31.42 31.37 29.98
37.14 37.61 37.66 37.95 37.72 36.12 36.21 35.79 35.33 34.52 34.06 32.70 34.25 34.89 35.23 32.67 30.89 31.39 28.00 24.85 23.68 22.95 22.46 21.92 21.93 22.00 23.31 23.99 23.95 23.84 22.26 23.24 23.26 24.64 22.99 22.71 22.88 22.97 22.47 26.33 30.01 30.16 30.34 30.53
36.50 37.94 35.98 35.89 34.50 34.14 34.56 35.71 36.88 35.78 35.15 35.28 36.31 35.87 33.82 30.17 29.08 26.33 23.53 23.50 23.19 23.15 22.29 22.09 22.07 22.19 23.76 23.79 23.66 22.80 22.37 27.27 24.46 23.33 23.26 23.41 23.55 24.01 24.11 23.18 22.70 23.40 27.77 28.69
36.52 36.22 35.45 34.41 33.47 32.60 33.22 35.11 34.47 34.14 34.36 34.29 35.00 32.80 29.28 26.46 24.24 23.16 23.00 23.31 23.35 22.15 21.95 22.29 22.25 23.01 24.00 23.58 23.91 22.85 22.94 22.73 23.25 23.85 24.19 25.57 24.82 24.11 23.80 23.53 23.19 22.80 23.83 26.42
31.51 29.41 30.38 31.61 32.31 31.36 30.29 30.93 32.93 33.09 33.47 32.46 28.86 25.94 24.42 23.68 22.89 22.50 22.18 21.88 20.84 20.55 21.51 21.71 22.00 23.58 23.75 22.94 22.49 22.83 22.66 26.73 26.87 24.66 24.13 23.94 23.62 23.30 23.30 23.06 22.72 23.05 23.10 22.86
30.35 29.33 26.52 22.05 25.55 29.40 29.82 30.94 34.46 33.91 31.12 29.49 27.00 24.67 22.90 22.41 21.96 21.30 21.33 20.96 21.37 21.04 21.42 21.69 22.17 23.91 23.54 22.90 21.74 23.14 23.08 23.30 26.72 24.00 23.00 23.43 23.39 23.00 23.03 23.47 23.56 22.78 22.40 24.61
31.63 28.53 28.92 29.25 30.50 30.48 31.06 31.77 31.31 31.07 29.62 28.62 23.75 21.96 21.33 20.50 20.20 20.44 20.45 20.57 20.00 19.96 20.75 22.05 22.41 23.17 23.73 23.43 23.28 23.06 23.04 23.05 23.09 22.79 23.45 23.39 23.55 24.42 24.39 23.38 23.03 22.71 22.55 24.25
32.23 32.30 29.75 30.09 30.24 30.47 30.61 30.71 30.62 29.46 24.81 23.33 21.55 20.96 20.59 20.03 20.30 20.21 19.82 18.96 18.22 17.84 20.18 21.35 25.27 25.39 22.41 23.20 25.82 23.58 22.92 22.37 22.47 23.01 23.88 25.23 23.88 24.09 23.91 22.86 22.83 22.82 23.18 23.08
30.23 29.12 29.71 29.63 30.02 29.97 29.91 28.84 26.57 23.26 22.39 21.57 21.30 20.39 19.83 19.76 20.03 19.74 19.22 18.15 19.23 20.32 20.83 22.07 22.59 21.71 21.82 22.32 26.11 23.64 23.22 23.18 23.30 22.93 22.84 22.94 22.27 21.70 22.15 22.59 22.05 21.95 21.58 21.94
28.52 28.10 27.09 25.98 27.00 28.26 28.16 26.03 23.23 21.70 21.88 21.38 20.94 20.35 20.10 20.26 19.89 19.31 17.74 17.07 19.85 22.38 23.43 25.87 22.59 22.50 22.55 24.19 24.99 24.10 23.15 22.43 22.17 21.55 21.02 20.13 19.82 19.96 20.24 20.37 20.45 20.63 21.05 21.49
26.36 26.64 26.24 24.88 23.07 22.54 22.50 21.82 21.24 21.17 20.78 20.51 20.68 20.23 19.18 18.27 18.18 17.21 19.17 18.50 20.94 25.33 23.75 22.20 21.87 23.85 24.48 27.81 24.23 23.14 22.25 21.27 20.31 19.68 18.90 18.86 18.95 18.88 18.54 18.74 18.98 19.91 20.65 21.15
25.90 26.52 27.00 25.84 23.75 22.03 21.05 20.23 19.98 20.22 20.05 20.23 20.02 19.43 18.92 18.87 18.80 17.16 16.87 19.95 21.41 23.15 23.21 21.86 24.18 26.73 27.13 24.34 22.51 21.07 19.81 19.08 18.86 18.87 18.54 18.18 18.17 18.22 18.75 19.16 19.92 20.81 20.20 20.27
25.44 26.21 26.28 26.53 23.37 20.02 19.38 20.15 19.70 20.43 20.29 20.83 20.84 20.45 19.46 18.07 18.33 19.54 19.40 22.89 24.34 23.19 22.38 22.50 23.26 26.16 26.80 21.58 19.29 18.58 18.58 18.54 18.20 17.68 18.09 21.55 19.38 19.67 19.52 19.27 19.06 19.79 20.16 20.36
22.20 19.05 17.21 15.81 18.15 20.95 18.27 16.76 15.44 15.20 18.32 18.30 18.26 18.73 19.44 19.27 17.63 18.28 18.50 19.19 22.56 21.89 19.72 22.91 24.32 24.31 19.74 18.31 18.43 18.53 18.40 17.84 17.79 19.28 20.47 19.14 17.94 18.08 18.83 19.18 19.29 19.49 20.57 21.00
22.14 23.66 23.52 22.49 21.35 20.67 20.17 19.45 18.65 17.99 17.45 17.07 17.61 17.49 17.56 18.05 17.72 18.68 17.49 19.80 19.13 20.30 18.05 17.81 17.85 18.76 19.00 18.44 18.17 18.45 18.76 18.81 19.13 18.80 19.75 18.92 18.29 18.56 19.05 19.24 19.02 19.04 19.52 19.86
15.96 21.63 16.33 19.93 19.73 19.83 18.98 18.71 17.82 16.92 16.74 15.92 15.80 17.22 17.32 17.21 17.22 18.68 19.15 16.50 16.27 16.40 16.50 16.96 17.36 18.14 18.25 18.57 18.70 18.59 18.63 18.58 19.88 19.61 20.01 19.41 18.84 18.50 18.55 18.71 18.99 19.55 19.92 20.05

GFSNGP_sfc_wetblb_012.txt.gz
Wetbulb
34.03 36.82 37.09 36.88 36.95 34.77 33.71 34.29 32.73 34.01 33.53 36.36 37.66 38.56 39.53 40.06 40.51 40.99 41.44 40.21 42.11 41.51 38.94 37.09 35.25 33.89 33.03 32.73 31.82 31.99 30.32 29.73 29.38 29.68 29.42 29.06 28.99 28.98 29.09 29.06 29.34 29.54 29.46 29.56
30.35 33.84 33.43 32.97 35.94 35.20 34.52 34.15 32.75 34.06 34.17 38.09 37.89 39.49 40.49 39.28 40.75 40.70 41.46 39.83 41.65 40.52 37.72 35.43 33.32 32.60 32.32 30.98 29.93 30.07 29.41 29.96 29.37 28.96 28.70 28.38 28.25 28.31 28.13 28.05 28.00 28.22 28.06 28.20
28.29 31.91 31.71 29.35 32.92 35.04 34.89 35.17 36.40 33.52 36.44 38.29 39.16 40.80 40.46 40.90 40.46 40.50 40.37 39.10 40.87 38.57 37.20 34.72 32.57 32.17 30.16 28.91 29.10 29.08 29.92 27.91 28.09 28.12 27.71 27.60 27.69 27.19 26.88 26.55 26.54 26.63 26.85 27.38
27.48 29.26 22.89 32.02 35.99 35.89 35.03 35.19 35.80 37.71 38.73 39.88 40.54 39.76 39.31 39.19 39.56 40.32 38.90 40.17 39.22 37.22 34.61 32.47 31.69 30.54 29.37 29.83 30.01 28.65 26.94 26.59 27.17 27.05 26.49 26.64 25.92 25.26 25.04 25.89 25.50 25.78 26.24 27.04
29.11 27.03 30.52 34.35 35.81 35.98 36.14 35.38 39.39 39.11 40.07 39.79 39.15 37.97 37.81 40.04 39.27 37.80 38.37 38.88 37.38 35.61 33.34 30.85 30.12 30.80 30.72 28.87 26.23 26.10 27.94 26.66 25.98 25.93 25.43 25.36 24.62 24.25 24.93 25.14 25.40 25.75 26.76 26.52
28.48 26.88 26.58 32.85 37.90 40.18 39.80 33.11 40.33 40.84 39.66 39.43 38.20 33.63 36.61 39.07 38.76 38.14 38.20 36.89 34.80 33.07 31.98 30.65 28.41 27.45 26.28 25.65 27.66 27.56 27.26 25.20 25.35 25.44 24.74 24.03 23.68 24.08 24.85 24.87 25.81 26.44 25.90 25.99
30.26 28.89 31.60 37.22 39.44 39.98 31.78 32.60 40.06 39.69 39.19 38.95 37.12 38.24 39.16 38.97 37.46 36.98 35.62 34.59 33.48 32.27 29.64 27.78 28.28 29.33 26.16 25.36 26.51 25.94 25.04 25.04 24.97 24.76 23.79 23.83 23.73 23.92 24.73 24.49 24.64 24.00 24.25 25.21
29.33 27.49 27.34 37.48 38.45 35.04 36.69 37.62 39.00 38.76 38.74 37.96 38.15 38.93 39.04 38.37 37.16 35.49 33.81 33.04 31.82 28.98 29.34 30.18 29.80 26.39 25.03 26.42 24.46 24.00 24.03 23.88 23.69 23.39 24.69 26.39 22.87 23.39 23.17 23.13 22.80 23.11 23.30 24.12
32.25 32.10 37.38 37.30 37.89 38.89 39.69 38.58 37.89 38.36 38.55 39.17 38.59 37.63 38.25 37.63 36.38 35.28 33.39 31.17 30.23 29.06 28.20 26.62 26.52 27.49 23.84 23.20 23.32 23.16 22.41 22.22 22.36 23.10 23.33 23.48 21.64 22.99 22.93 23.39 22.85 22.36 23.20 24.01
34.28 35.51 36.36 37.94 38.73 39.46 39.66 39.31 39.27 38.60 38.41 37.81 36.83 36.84 36.01 36.65 35.78 34.36 31.27 29.29 28.87 28.70 28.20 28.09 27.44 24.29 22.58 22.72 23.00 22.32 20.79 21.01 21.97 21.45 23.87 23.23 23.90 23.85 22.31 22.39 21.86 23.60 24.36 25.07
33.65 34.67 36.39 36.91 37.71 38.77 38.63 38.59 38.53 37.76 36.62 36.29 35.19 33.96 33.17 34.45 34.36 32.46 30.64 29.65 29.67 28.66 27.33 26.28 22.58 22.16 22.34 23.03 22.49 21.90 21.42 21.99 21.88 22.84 21.07 22.53 23.63 22.63 22.89 24.01 25.64 25.53 25.91 26.03
32.87 36.56 36.24 35.99 38.17 38.12 38.12 37.01 36.36 35.92 33.96 33.56 33.20 33.76 33.40 33.96 34.11 30.81 29.32 29.59 27.97 26.74 24.34 22.10 21.58 21.37 22.17 22.86 22.51 20.87 21.47 22.93 22.92 23.43 22.19 23.43 22.64 22.52 28.09 29.36 30.44 30.57 30.70 29.33
36.34 36.75 36.53 37.02 37.02 35.83 35.84 34.67 33.95 33.59 32.88 31.62 33.02 34.16 34.25 31.03 29.69 32.19 27.94 26.84 24.91 22.78 22.03 21.39 21.44 21.56 22.49 22.93 22.61 22.79 21.17 22.16 22.50 23.54 21.65 21.43 21.76 22.20 21.68 25.42 29.09 29.35 29.69 30.08
36.88 37.47 35.43 34.03 34.55 33.64 34.39 35.64 36.97 36.08 35.23 34.44 34.71 34.49 33.67 29.81 28.05 26.33 26.19 23.43 22.89 22.72 21.90 21.53 21.44 21.42 22.87 22.35 22.74 21.85 21.28 26.52 23.67 22.23 22.32 22.69 22.91 23.32 23.11 22.00 21.57 22.71 27.20 28.27
34.99 34.60 35.28 33.66 32.71 32.21 32.43 32.30 30.70 31.39 33.62 34.97 35.30 34.07 30.81 26.00 24.80 23.53 22.71 23.07 23.08 21.64 21.38 21.45 21.27 21.67 22.60 22.50 23.15 21.75 22.30 22.20 22.47 23.20 23.48 24.85 24.10 23.22 22.88 22.81 22.64 22.32 23.61 26.23
31.34 30.32 29.14 30.07 32.67 29.18 29.04 28.16 29.25 30.64 33.84 33.93 33.06 30.15 25.88 24.32 22.92 22.23 21.90 21.50 20.48 20.16 20.79 20.85 20.90 22.27 22.84 22.03 21.62 21.93 21.74 25.81 26.04 23.81 23.29 23.09 22.75 22.62 22.59 22.39 22.30 22.77 23.15 22.55
30.24 28.90 26.09 22.04 22.97 28.11 29.61 30.49 31.30 31.62 33.43 30.05 28.66 27.46 23.40 22.18 21.59 20.95 20.86 20.23 20.81 20.53 20.73 20.76 21.16 22.90 22.66 22.13 21.13 22.27 22.06 22.16 25.90 22.90 22.13 22.66 22.80 22.59 22.85 23.17 22.72 22.58 22.44 24.29
32.39 29.95 29.62 30.09 29.10 29.51 29.86 30.31 30.80 30.67 30.15 29.36 27.77 23.66 21.41 20.07 19.95 20.36 20.24 20.03 19.51 19.64 20.24 21.43 21.55 22.33 23.05 22.67 22.17 21.94 21.88 22.17 22.21 22.02 22.74 22.81 23.17 23.88 22.65 22.29 22.46 21.57 22.19 23.57
30.82 31.13 30.24 30.52 29.74 29.69 29.66 29.51 29.77 29.64 28.87 26.38 22.35 21.06 20.23 19.69 20.00 19.98 19.45 18.87 18.19 17.67 19.70 20.72 24.58 24.69 21.55 22.45 25.40 22.93 22.12 21.58 21.69 22.06 23.03 24.32 22.08 22.33 21.63 21.03 21.18 21.01 21.19 21.47
30.47 29.68 29.47 29.63 29.27 29.16 29.31 28.98 26.96 26.94 24.43 22.16 21.41 19.88 18.99 19.15 19.79 19.65 18.90 18.07 18.78 19.37 20.23 21.30 22.23 21.22 21.23 21.70 25.55 23.05 22.43 21.84 21.85 22.01 21.69 21.70 20.54 19.78 20.12 20.99 20.68 20.59 20.33 20.82
28.75 28.16 26.57 26.09 26.04 26.53 28.37 27.22 25.38 23.44 22.98 21.43 20.62 20.05 19.87 19.83 19.59 19.00 17.56 16.79 19.52 21.85 23.10 25.48 22.02 21.97 21.80 23.75 24.51 23.00 21.97 21.50 21.30 20.31 19.71 18.88 18.55 18.61 19.19 19.43 19.22 19.37 19.74 20.26
26.14 26.30 26.38 25.76 24.35 23.88 23.79 23.03 22.97 22.49 21.56 20.27 20.18 19.92 19.12 17.87 17.63 16.54 18.71 18.06 20.09 25.01 23.07 21.32 21.02 23.05 24.00 27.55 23.52 22.15 21.46 20.71 19.66 18.73 17.98 17.99 17.97 17.75 17.69 17.96 18.04 19.14 19.93 20.24
25.48 25.67 26.04 25.66 25.13 24.08 21.91 20.74 20.21 20.28 19.97 19.58 19.29 19.01 18.84 18.70 18.58 17.09 16.50 19.57 20.49 22.39 22.75 21.25 23.75 26.29 26.76 23.67 21.38 20.25 19.14 18.32 18.03 17.95 17.61 17.24 17.41 17.28 17.88 18.35 18.90 19.23 18.21 18.78
24.82 25.19 25.21 25.48 23.52 21.70 21.66 21.80 19.56 19.61 19.36 20.22 20.60 20.24 19.27 17.87 18.38 20.11 19.16 22.34 23.99 22.83 21.81 21.70 22.61 25.74 26.21 20.29 18.28 17.63 17.62 17.56 17.28 16.66 17.14 20.70 18.23 18.75 18.71 17.47 17.35 18.39 18.80 19.20
20.62 17.26 15.63 16.23 19.30 22.59 18.89 16.04 15.13 15.65 18.09 18.32 18.28 18.64 19.41 19.30 17.32 17.61 17.69 18.38 21.97 21.32 18.93 22.09 23.55 23.36 18.59 17.19 17.26 17.39 17.36 16.81 15.91 17.90 19.50 18.34 17.21 17.47 18.13 18.38 18.11 18.49 19.80 19.19
21.29 22.84 22.73 21.92 21.94 20.80 19.66 18.73 17.92 17.45 17.40 17.82 18.33 18.20 17.98 17.57 17.01 17.48 16.33 18.84 18.03 19.35 16.93 16.64 16.54 17.74 17.98 17.20 16.89 17.19 17.53 17.57 18.01 17.88 19.10 18.43 17.96 18.01 18.17 18.10 17.88 17.73 18.04 18.30
15.59 21.33 16.10 19.46 19.00 18.99 18.40 18.32 17.32 16.44 17.35 16.81 16.59 17.21 16.50 16.19 15.89 17.66 18.12 15.16 15.06 15.22 15.24 15.72 16.07 16.89 17.22 17.52 17.56 17.38 17.32 17.32 18.99 19.00 19.45 18.66 17.98 17.47 17.48 17.41 17.18 17.22 17.47 17.68

GFSNGP_sfc_wetblb_015.txt.gz
Wetbulb
33.99 36.62 37.57 36.31 36.05 34.37 34.60 37.06 35.59 35.84 34.61 38.59 40.47 41.49 42.68 43.43 43.34 43.01 42.43 41.93 42.85 42.10 40.46 38.24 36.65 35.74 35.17 34.04 33.55 33.34 32.37 32.06 31.75 32.14 32.14 32.01 31.78 31.64 31.60 31.45 31.31 31.36 30.94 31.10
31.74 34.85 36.24 35.32 36.40 36.66 36.65 34.76 35.40 35.34 35.82 40.02 40.96 41.71 41.98 42.68 42.25 42.24 42.40 41.65 42.99 41.74 39.39 37.13 35.97 35.20 34.16 32.65 31.99 32.41 31.44 30.91 31.28 31.14 31.16 30.97 30.91 30.66 30.44 30.37 30.50 30.26 29.95 29.86
30.49 32.82 33.34 31.29 34.16 35.45 36.65 35.88 38.28 34.57 40.33 39.43 40.33 41.18 41.61 41.79 42.45 42.38 42.35 41.55 42.65 40.89 38.75 36.27 35.30 34.47 32.59 31.27 31.44 30.98 30.53 30.06 30.18 30.20 29.84 29.92 29.93 29.52 29.26 29.09 29.39 29.07 29.24 29.44
28.51 30.31 24.17 34.62 36.35 38.34 37.69 36.14 37.52 37.39 37.63 40.11 40.72 40.84 41.15 41.83 42.08 41.65 41.46 40.84 41.13 39.36 36.74 34.87 33.87 32.65 31.29 31.04 30.57 29.68 29.28 29.14 29.22 29.13 28.80 29.10 28.74 28.34 28.33 28.79 28.45 28.42 28.55 28.92
28.93 27.27 32.05 34.89 35.78 35.23 36.06 35.30 37.52 38.50 39.37 39.84 40.32 40.53 40.51 41.92 41.10 40.52 40.80 41.02 39.82 37.89 34.71 32.95 32.14 31.69 30.57 29.49 29.10 28.98 28.90 28.34 28.28 28.19 27.85 27.85 27.51 27.50 28.05 28.22 28.25 28.23 28.50 28.20
29.47 28.25 27.16 34.47 38.79 40.05 40.53 33.56 40.53 41.03 39.84 39.18 39.78 36.28 38.41 40.45 40.31 38.82 38.95 38.20 36.20 34.16 32.67 31.71 30.09 29.73 29.97 28.66 28.19 27.78 27.80 27.41 27.78 27.83 27.30 26.83 27.18 27.32 27.98 28.06 27.66 28.08 27.46 27.63
30.58 28.83 32.06 37.84 39.70 40.04 32.55 34.81 40.59 40.71 40.19 39.33 37.90 39.19 39.88 40.04 38.56 37.74 36.30 35.07 33.88 33.21 31.73 29.99 30.00 30.58 28.93 27.84 27.21 27.26 27.13 27.16 27.33 27.43 26.56 27.39 27.34 27.38 27.30 26.96 26.84 26.27 26.11 27.05
30.08 28.45 28.01 38.38 38.90 35.81 37.66 38.46 39.54 39.26 39.53 39.36 39.39 39.64 39.62 39.30 37.57 35.88 34.31 33.95 32.25 29.95 29.38 31.08 30.56 29.49 27.34 26.85 26.80 26.43 26.30 26.03 26.36 26.50 26.53 27.40 26.17 26.70 26.52 25.87 25.21 25.00 25.35 26.14
32.81 32.37 37.46 37.83 38.38 39.32 39.93 38.82 38.80 39.25 39.24 39.80 39.24 39.16 38.98 38.19 37.28 35.42 34.13 32.47 31.62 30.73 29.89 28.92 28.66 28.24 26.08 26.22 25.83 25.60 25.10 25.10 25.34 25.97 26.23 26.53 25.77 25.77 25.44 25.39 24.67 24.39 25.07 25.77
33.79 35.13 35.80 37.30 38.46 39.24 39.70 39.33 39.60 39.83 39.45 39.46 38.68 38.50 37.91 37.45 36.43 34.86 32.30 30.23 29.80 29.11 28.76 28.47 28.28 26.97 25.53 25.36 25.38 24.70 24.10 24.46 25.49 25.27 27.03 26.77 25.86 25.88 24.92 24.39 24.20 25.14 25.68 26.02
32.96 34.45 36.28 37.02 37.71 38.37 38.25 38.54 38.24 38.19 37.88 37.49 37.07 36.29 36.02 35.75 35.69 33.66 31.45 30.33 29.88 28.58 28.80 27.37 25.87 24.76 24.72 25.47 24.64 24.38 24.33 24.60 24.85 25.25 24.43 24.72 25.29 25.14 25.33 26.70 27.19 26.63 26.82 26.97
32.90 36.76 36.73 36.81 38.06 38.64 37.82 36.89 37.38 37.20 35.51 35.41 35.55 35.19 35.23 35.04 34.87 31.97 29.76 28.71 27.93 27.85 26.84 24.84 23.88 23.83 24.32 24.77 24.54 23.56 23.68 24.82 24.61 25.44 24.91 24.76 24.06 24.25 27.89 28.98 30.01 30.14 30.26 29.15
36.39 36.79 36.08 36.69 36.72 36.82 35.48 35.01 34.86 34.55 34.73 34.16 34.77 35.42 35.10 33.02 31.93 32.55 28.71 27.03 27.27 25.87 24.46 23.86 23.67 23.65 24.21 24.56 24.61 24.18 23.32 23.58 24.11 25.12 23.26 22.95 23.49 23.55 22.97 26.38 28.56 28.77 29.08 29.62
36.20 37.37 35.34 34.53 35.09 34.80 35.23 36.86 37.18 35.16 35.17 34.78 35.28 35.50 34.50 31.02 31.57 26.48 25.07 25.04 24.41 24.23 23.88 23.50 23.37 23.51 24.47 24.20 24.24 23.60 23.28 26.04 24.88 23.47 23.94 24.20 24.23 24.58 24.42 23.06 22.45 23.55 27.28 28.09
33.60 34.43 36.32 33.70 33.32 32.80 32.75 32.23 31.28 31.48 32.86 33.68 36.14 36.11 32.77 28.00 25.59 24.78 23.76 24.14 24.66 23.32 23.11 23.12 22.88 23.36 24.40 24.17 23.94 23.27 23.52 23.77 24.16 24.71 24.78 25.49 25.19 24.17 23.92 23.65 23.27 23.26 24.65 26.40
30.35 30.57 31.50 32.16 31.90 31.31 29.70 29.21 30.64 31.05 32.01 32.37 33.63 34.26 28.36 26.31 24.73 23.13 22.61 22.60 22.59 22.30 22.43 22.30 22.22 23.48 24.12 23.39 23.12 23.56 23.50 25.62 26.09 24.82 24.12 23.90 23.58 23.36 23.26 23.22 23.30 23.38 22.96 23.11
31.96 28.69 27.62 24.06 27.62 29.07 29.62 30.77 31.37 31.28 31.68 33.00 30.73 29.74 25.40 23.29 22.49 21.89 21.97 21.66 22.25 22.01 22.15 21.89 22.11 23.70 23.66 23.69 23.00 23.46 23.14 22.99 25.63 23.74 22.83 23.48 23.56 23.20 23.63 23.66 22.45 22.42 22.44 23.69
34.97 33.17 32.42 30.63 28.56 29.10 29.75 30.28 30.54 30.69 32.53 31.29 29.30 26.92 23.18 21.38 21.69 21.49 21.35 21.21 20.85 20.80 21.37 22.46 22.80 23.62 24.38 23.87 23.35 23.11 22.92 22.89 22.97 22.83 23.49 23.15 23.49 24.29 23.01 22.51 22.09 21.20 21.79 22.61
30.78 30.60 30.20 30.35 29.92 29.90 29.95 29.70 30.02 30.32 29.57 28.83 26.07 24.08 22.25 21.13 20.94 20.97 20.43 19.88 19.28 19.31 21.33 21.91 24.62 25.06 22.73 23.30 25.73 24.12 23.10 22.59 22.64 22.80 23.18 24.24 22.43 22.89 21.80 21.31 21.15 21.14 21.21 21.21
29.36 28.97 29.18 29.46 29.31 29.11 29.10 29.07 28.43 28.11 27.14 24.82 23.07 20.87 20.00 19.77 20.19 20.17 19.62 19.39 20.27 20.87 21.26 22.21 23.35 22.48 22.24 22.41 25.39 24.22 23.52 22.83 22.31 22.45 22.22 22.19 21.17 20.34 20.94 20.87 20.89 20.27 20.18 20.34
28.64 28.17 28.08 27.46 27.23 27.47 28.55 27.71 26.75 25.68 24.97 22.47 21.59 20.79 20.14 20.11 19.88 19.55 18.63 18.45 20.91 22.31 23.65 25.39 22.54 22.39 22.18 24.04 25.20 24.02 22.90 22.30 21.80 21.13 20.40 19.74 19.21 19.04 19.38 19.37 19.09 19.09 19.31 19.87
26.08 26.46 26.53 25.83 25.05 24.51 24.36 23.92 24.24 23.91 22.87 21.23 20.68 20.09 19.19 18.13 17.91 17.22 19.44 19.20 20.88 24.71 23.38 21.84 21.56 22.98 24.69 27.40 24.26 22.74 21.94 21.15 20.14 19.46 18.74 18.68 18.47 17.99 17.90 18.30 18.32 19.19 19.83 19.89
25.54 25.52 25.99 25.63 25.58 24.74 22.45 21.51 20.89 21.11 20.87 20.16 19.35 18.82 19.02 19.16 19.26 18.12 17.77 20.06 21.08 22.36 22.98 21.16 23.61 25.94 26.46 23.92 21.71 20.53 19.36 18.61 18.29 18.28 18.25 18.19 18.05 17.89 18.28 18.66 19.11 19.26 18.24 18.49
24.91 24.87 24.94 25.03 23.39 22.46 22.67 22.17 19.99 19.58 19.25 19.55 20.06 19.86 19.26 18.33 18.54 19.46 19.32 21.77 23.39 22.84 21.82 21.49 22.70 25.31 25.70 20.40 18.49 17.86 17.82 17.74 17.69 17.47 17.59 20.37 18.67 18.91 18.83 17.97 17.67 18.67 18.92 18.90
19.94 16.80 14.97 16.34 19.94 22.44 17.78 15.06 15.25 15.81 17.57 17.46 17.48 18.30 18.72 18.87 17.74 17.85 17.86 18.01 20.65 21.01 18.55 21.32 22.96 22.83 18.47 17.22 17.15 17.26 17.38 17.13 16.44 16.68 19.01 18.42 17.41 17.71 18.40 18.55 18.50 18.59 19.27 18.72
21.70 22.18 21.62 20.97 21.24 20.44 18.91 18.50 17.21 17.06 17.15 16.80 17.21 17.99 17.45 17.19 16.36 16.26 16.05 18.45 17.29 18.55 16.29 16.28 16.17 17.50 17.85 17.07 16.71 17.06 17.48 17.51 17.71 17.42 18.68 18.41 18.15 18.24 18.32 17.79 17.63 17.57 17.59 17.34
18.36 21.34 16.32 18.42 18.48 18.61 18.08 17.74 16.94 16.01 17.21 16.78 16.36 16.45 15.59 15.22 15.27 16.47 17.03 14.31 14.39 14.54 14.67 15.18 15.64 16.34 17.01 17.40 17.44 17.18 17.04 16.95 18.17 18.43 19.12 18.46 17.71 17.29 17.24 16.87 16.45 16.43 16.61 16.62

GFSNGP_sfc_wetblb_018.txt.gz
Wetbulb
41.83 42.21 43.25 42.02 41.43 41.49 41.51 43.47 40.22 43.31 41.99 45.68 47.96 48.21 49.30 49.56 49.18 48.93 48.66 48.25 48.19 48.38 47.66 46.03 43.86 42.65 41.38 39.81 38.62 37.45 36.73 36.42 35.67 35.81 36.08 36.08 35.80 35.68 35.62 35.38 35.19 35.12 34.45 34.51
38.35 40.07 41.97 39.98 42.31 43.34 43.73 44.49 44.21 44.04 43.56 48.14 48.41 48.52 47.38 49.23 48.81 48.31 48.26 47.79 48.14 48.21 47.48 45.02 43.00 41.40 39.99 38.16 36.58 36.72 35.79 34.95 34.92 34.97 34.78 34.88 35.05 34.70 34.73 34.69 34.74 34.50 34.12 33.82
37.44 38.40 39.00 36.76 41.38 41.51 42.36 44.16 44.05 40.74 46.02 46.54 44.90 45.78 47.21 47.93 48.02 47.97 48.32 48.00 47.50 47.55 46.11 43.35 42.35 41.27 39.35 37.36 36.21 35.46 34.64 34.03 33.81 33.90 33.72 34.00 34.15 33.90 33.79 33.72 34.16 33.76 33.62 33.37
37.59 37.27 30.64 42.41 42.32 45.66 43.82 44.94 45.59 45.61 45.40 46.65 47.25 47.66 47.16 48.38 47.99 47.45 47.22 47.08 47.49 46.63 44.19 42.32 40.94 39.47 37.36 36.19 35.25 34.18 33.83 33.51 33.36 33.15 32.92 33.40 33.35 33.35 33.54 33.68 33.28 33.02 32.84 32.62
34.82 35.11 39.07 39.12 39.71 40.66 41.30 42.50 45.02 44.93 44.48 45.78 45.58 46.22 44.41 45.56 46.08 46.00 46.39 46.90 46.66 45.88 42.81 40.11 39.13 37.96 36.56 34.74 33.09 33.41 32.98 32.61 32.62 32.65 32.20 32.44 32.44 32.58 32.96 32.66 32.52 32.29 32.13 31.65
36.35 32.03 31.91 39.61 42.33 44.49 45.25 38.57 44.47 45.38 44.74 44.08 44.96 42.44 43.98 44.58 44.30 44.02 44.49 44.55 43.04 40.81 39.66 39.42 37.46 36.57 35.26 32.53 31.99 32.59 32.21 31.97 32.48 32.48 32.00 31.79 32.15 32.10 32.53 32.40 31.54 31.65 31.18 31.58
36.46 34.46 38.20 41.61 43.38 44.70 36.75 39.79 44.47 45.70 45.32 44.70 44.08 45.00 44.11 43.20 42.16 42.93 42.38 40.91 39.91 39.13 38.62 37.58 35.97 34.23 32.07 31.24 32.12 32.17 32.05 32.05 32.21 32.41 31.92 32.01 32.09 32.24 31.85 31.28 30.83 30.69 30.31 30.94
36.42 34.40 32.96 43.44 42.46 40.67 43.52 45.07 45.66 45.79 45.66 44.17 43.63 43.41 43.50 42.60 40.78 39.85 38.77 38.18 38.76 37.84 36.52 35.77 34.61 33.06 30.70 31.45 32.15 31.95 31.55 31.37 31.62 31.97 31.70 31.48 31.44 31.53 31.22 30.55 29.52 29.24 29.20 29.65
39.39 39.26 41.34 42.39 42.72 43.80 46.84 44.65 44.01 44.12 44.48 44.28 43.13 42.98 43.02 42.03 40.93 39.78 38.88 37.78 38.01 37.43 35.03 33.05 32.08 32.73 31.89 31.74 31.54 31.08 31.00 31.00 31.21 31.45 31.54 31.83 30.83 30.03 29.55 29.62 28.54 28.10 28.21 28.48
38.37 39.37 40.08 41.47 42.66 44.27 45.52 44.03 44.62 44.79 44.35 44.64 43.25 43.15 42.49 42.33 41.32 40.01 38.78 37.37 36.76 35.74 33.16 31.55 32.47 31.32 31.50 31.24 30.99 30.28 30.15 30.59 31.01 30.65 30.53 30.93 30.55 30.10 28.96 28.38 27.84 27.72 27.85 27.80
37.33 39.15 40.82 41.80 43.64 43.36 42.93 43.55 43.04 43.43 43.46 43.54 43.20 41.97 42.14 41.54 41.15 40.22 38.07 36.63 36.17 35.73 34.68 32.71 31.23 30.60 30.80 30.65 30.27 29.79 30.08 30.39 30.28 30.13 30.14 29.72 29.66 29.22 28.51 29.30 29.04 27.58 28.15 28.21
41.65 43.70 44.25 43.48 43.68 44.00 43.05 42.77 43.27 42.09 40.69 40.87 42.12 41.21 40.90 40.63 40.75 39.09 36.91 35.77 34.68 34.00 32.44 30.46 30.14 30.00 30.13 30.20 29.83 29.06 28.88 29.53 29.40 29.12 29.40 28.63 28.09 28.19 30.32 30.19 30.43 30.31 30.26 29.60
43.50 44.88 42.42 44.61 43.87 43.60 42.36 41.59 41.56 42.04 41.48 39.85 39.44 40.36 40.24 39.43 38.91 37.11 35.58 34.14 33.09 31.86 31.10 30.02 29.37 29.16 29.64 29.75 29.43 28.63 28.09 28.34 28.93 28.79 28.09 27.47 27.38 26.91 25.92 28.70 30.02 29.75 29.71 29.79
42.45 41.83 39.20 41.92 40.90 41.57 41.05 40.40 40.14 39.52 39.53 39.49 39.43 39.67 38.95 37.77 37.17 35.10 32.98 32.57 31.29 30.38 29.63 29.33 28.87 28.82 29.63 29.36 28.91 28.47 28.45 27.98 27.83 27.80 27.81 27.44 27.21 26.96 26.74 25.39 24.77 26.09 29.13 29.27
41.46 39.91 43.56 41.06 39.84 38.58 39.37 38.14 36.60 36.71 37.35 37.60 38.80 38.45 37.07 34.56 33.93 32.61 30.98 30.14 29.55 29.28 28.74 28.21 28.07 28.65 29.24 28.87 27.82 27.83 27.67 27.79 27.77 27.97 27.81 27.52 27.24 26.59 26.34 25.94 25.47 25.62 26.93 27.70
36.31 37.38 38.37 37.86 36.53 35.53 35.61 35.29 35.62 35.42 36.12 36.44 36.35 36.56 36.43 34.90 33.13 30.80 29.62 29.15 28.01 27.88 28.46 27.62 27.83 28.89 28.54 28.02 27.79 27.97 28.04 27.27 27.16 27.04 26.96 26.59 26.23 25.75 25.43 25.33 25.17 25.17 24.71 24.90
34.82 33.39 33.64 32.48 33.55 35.14 35.88 36.40 36.62 36.18 36.12 35.82 35.38 35.88 32.91 30.88 29.79 28.47 27.95 28.38 28.36 28.08 28.10 27.63 27.80 28.30 27.94 28.17 27.65 27.57 27.24 26.85 26.91 26.51 26.14 25.99 25.58 25.12 25.38 25.22 24.15 24.13 24.01 25.17
41.96 40.65 39.69 38.50 36.21 34.52 34.33 35.47 35.77 35.79 35.56 35.46 35.06 34.17 31.91 29.36 29.67 28.53 27.87 27.36 26.91 26.78 27.52 28.14 27.85 27.82 28.53 27.95 27.23 27.11 26.84 26.36 26.14 25.70 25.78 25.24 25.26 25.57 24.86 24.26 23.64 23.21 23.77 24.22
39.51 38.03 36.39 35.77 36.08 35.65 35.25 34.87 35.20 35.58 35.34 34.97 33.83 32.72 31.96 30.33 29.39 28.02 27.21 26.23 26.26 26.27 28.06 27.40 26.15 27.41 27.30 27.23 26.92 27.03 26.61 26.13 25.86 25.64 25.38 25.51 24.71 24.90 23.92 23.53 23.10 22.87 23.04 22.78
34.30 34.92 35.08 33.74 34.34 34.63 34.16 34.49 34.74 34.37 34.06 33.38 32.36 30.15 28.72 27.98 26.97 26.23 26.08 26.07 27.27 28.24 27.26 27.12 27.39 27.11 26.49 26.38 26.52 26.99 26.83 26.10 25.15 24.80 24.30 24.13 23.57 23.06 23.11 22.73 22.46 21.88 21.56 21.23
33.07 33.40 33.15 33.38 33.12 33.27 33.66 33.73 33.40 32.82 31.42 30.05 29.02 28.45 27.42 26.87 25.90 25.63 24.38 25.41 26.94 26.08 26.66 26.54 26.39 26.38 26.06 26.12 27.22 27.52 26.12 25.01 24.08 23.46 22.85 22.45 22.15 22.01 21.73 21.51 20.89 20.47 20.35 20.60
32.17 32.23 31.65 31.28 31.11 30.24 30.67 31.09 31.29 30.01 28.97 27.32 26.59 26.54 25.35 24.40 24.38 24.22 25.26 25.42 26.63 25.06 26.22 26.42 26.15 25.47 26.25 27.52 26.99 25.69 24.46 23.34 22.71 22.61 22.07 21.88 21.26 20.64 20.60 20.56 20.27 20.60 20.83 21.06
31.49 31.03 30.86 30.71 30.62 30.54 28.29 27.94 27.49 27.55 26.89 26.09 25.11 24.47 24.71 25.54 25.80 24.44 24.01 24.38 25.64 25.04 25.91 25.61 25.16 25.73 26.50 26.06 25.06 23.38 22.35 21.80 21.42 21.37 21.34 21.22 20.94 20.80 20.75 20.39 20.69 20.73 20.24 20.46
29.98 29.96 29.75 29.34 28.96 28.41 28.56 25.87 25.22 24.74 24.18 23.46 23.84 24.33 24.41 23.93 23.54 24.48 24.15 23.56 23.22 23.52 24.26 23.91 24.05 24.87 25.15 23.58 22.23 21.60 21.40 21.27 21.20 21.14 20.79 21.76 21.33 20.98 20.63 20.00 19.87 20.25 20.21 20.60
28.59 26.53 25.79 26.45 27.52 26.99 24.56 21.96 21.72 22.46 22.93 22.75 22.48 22.61 22.75 22.84 22.89 22.78 22.51 21.77 21.48 22.02 21.84 22.49 22.76 22.67 21.65 21.40 21.12 20.72 20.69 20.78 21.22 21.00 21.11 20.71 19.83 19.94 20.35 20.26 19.96 19.76 20.28 19.58
26.76 26.81 26.22 26.25 26.63 25.84 24.00 23.93 23.23 22.83 22.63 21.53 21.41 21.69 21.49 21.29 21.09 21.30 20.75 20.50 20.31 20.17 19.85 20.05 20.10 20.79 20.79 20.21 20.09 20.47 20.68 20.58 20.35 20.10 20.36 19.66 20.02 20.08 19.73 19.08 18.72 18.83 18.57 18.68
24.96 24.80 23.30 22.83 23.33 23.56 23.50 23.29 22.69 21.53 21.77 21.63 19.92 19.76 19.50 19.45 19.44 19.41 18.83 18.52 18.51 18.38 18.64 19.28 19.52 19.57 19.83 19.97 19.86 20.08 19.96 19.78 20.18 19.58 19.87 19.90 19.10 18.94 18.34 18.11 18.04 17.92 18.22 18.05

GFSNGP_sfc_wetblb_021.txt.gz
Wetbulb
43.37 44.34 45.08 43.90 43.52 44.24 43.39 45.02 41.40 44.14 43.84 47.17 48.83 49.59 50.52 51.08 51.15 51.00 50.65 50.46 50.38 50.41 50.11 49.17 47.44 46.05 44.85 43.29 41.43 40.30 38.88 38.12 37.27 37.31 37.29 36.94 36.64 36.47 36.47 36.34 36.25 36.28 35.67 35.59
40.45 42.99 43.75 41.92 44.08 45.09 44.95 45.31 45.08 45.29 45.47 51.29 51.34 51.12 50.60 50.84 50.46 50.01 50.11 50.25 50.46 50.70 50.37 48.61 46.71 44.93 43.08 41.15 39.51 39.27 37.65 36.58 36.50 36.20 35.96 35.91 35.85 35.55 35.52 35.57 35.71 35.75 35.34 35.14
37.67 41.64 41.32 37.88 42.66 43.47 44.53 45.81 45.50 42.49 47.17 51.33 47.63 48.21 49.24 50.74 50.51 50.04 50.30 50.37 50.14 50.38 50.04 48.42 46.10 44.49 41.94 40.10 38.81 37.81 36.44 35.67 35.26 35.24 34.86 34.94 35.05 34.82 34.75 34.83 35.26 34.77 34.78 34.56
38.49 39.52 31.86 43.59 45.37 46.78 45.20 46.28 47.86 48.14 48.80 49.29 48.98 49.52 50.26 51.00 50.53 50.55 50.60 50.38 50.17 50.32 49.30 46.83 45.45 43.35 40.80 38.69 37.54 36.10 35.28 34.94 34.78 34.42 33.99 34.27 34.18 34.12 34.48 34.56 34.13 33.84 33.79 33.67
36.43 36.82 41.57 43.81 42.03 42.92 43.39 43.85 48.24 47.39 48.41 48.31 48.63 47.18 45.42 47.90 49.69 49.27 49.66 50.18 50.06 49.57 46.95 44.46 42.07 40.25 38.63 36.87 35.36 34.57 34.47 34.25 34.02 33.81 33.19 33.31 33.08 33.30 33.77 33.54 33.28 33.03 33.10 32.54
38.30 33.98 32.84 41.02 44.04 45.98 47.87 40.02 49.27 49.45 48.29 47.07 46.26 42.63 44.41 46.25 47.11 46.89 47.74 48.06 47.00 45.70 43.15 41.71 40.26 39.26 37.71 35.56 34.21 33.87 33.70 33.37 33.76 33.72 33.13 32.68 32.83 32.84 33.35 33.30 32.65 32.67 32.09 32.44
37.78 36.52 40.73 43.63 44.97 46.62 37.55 40.84 45.96 48.16 48.33 46.74 45.41 46.99 46.39 45.96 45.19 45.77 45.15 43.78 43.05 42.12 41.13 39.50 38.59 38.14 35.75 34.12 33.54 33.37 33.51 33.48 33.44 33.61 33.10 33.07 32.77 33.09 32.79 32.32 31.97 31.51 31.01 31.67
38.26 36.32 34.08 45.51 43.87 40.96 44.53 46.79 47.19 48.02 48.12 46.58 44.93 44.65 44.56 43.67 42.57 42.31 41.01 40.49 41.22 40.17 38.14 38.01 37.42 36.50 33.72 33.05 33.35 33.37 33.14 32.79 32.94 33.15 33.18 32.95 32.50 32.55 32.08 31.44 30.48 29.95 29.83 29.99
42.35 41.60 43.78 45.23 44.99 46.40 48.61 47.42 47.42 47.13 46.86 45.71 44.27 43.51 43.35 42.19 41.58 40.57 40.06 39.79 40.52 39.20 37.09 36.20 35.09 34.87 33.49 32.98 32.91 32.61 32.41 32.34 32.51 32.86 32.90 32.89 31.63 30.99 30.54 30.44 29.35 28.72 28.47 28.43
40.31 41.71 42.95 44.08 44.47 46.48 48.47 47.05 47.20 46.92 46.02 45.77 43.90 43.99 43.26 42.73 41.64 40.71 40.06 39.24 39.97 38.22 35.83 33.74 33.60 32.79 33.08 32.65 32.47 31.92 31.56 31.78 32.23 31.78 31.87 31.87 31.93 31.34 30.07 29.25 28.29 27.84 27.43 27.24
40.46 41.13 42.26 43.44 45.55 46.10 46.04 46.19 45.70 46.23 46.15 45.36 44.70 43.80 43.67 43.08 42.51 41.59 40.34 39.49 39.03 37.97 36.13 34.61 33.62 32.38 32.42 32.11 31.92 30.88 31.07 31.23 31.43 31.46 30.90 30.65 30.86 30.37 29.56 30.09 29.80 27.80 27.89 27.86
41.32 45.41 45.61 44.78 45.76 45.86 44.45 43.97 44.35 43.46 43.16 44.54 44.54 43.10 43.85 43.04 43.16 41.60 39.40 38.40 37.88 37.55 35.94 32.95 32.36 31.96 31.83 31.80 31.22 30.30 29.60 30.33 30.65 30.14 30.38 30.16 29.39 29.27 32.10 32.05 32.17 31.72 31.41 30.07
45.18 47.32 46.66 46.41 45.99 46.76 45.17 44.88 45.16 44.72 43.73 41.98 43.04 43.07 43.25 41.82 41.50 40.58 38.94 37.46 36.17 34.55 33.61 32.05 31.50 30.98 31.46 31.40 30.73 29.74 28.91 29.13 29.45 29.30 29.03 28.52 28.38 27.59 26.20 29.29 31.16 31.24 31.30 31.29
45.60 45.41 43.57 44.37 43.02 45.40 44.26 43.62 43.65 42.82 42.72 42.03 41.64 42.03 41.31 40.56 38.95 37.59 36.03 35.99 34.79 32.75 31.69 31.28 30.69 30.34 31.39 31.07 30.10 29.50 29.34 30.16 29.13 28.87 28.52 28.26 27.83 27.36 27.21 25.93 25.15 26.43 29.81 30.14
44.28 43.68 45.60 45.78 44.27 42.69 42.31 41.10 39.58 39.21 39.72 39.81 40.81 39.84 38.64 37.33 36.23 35.51 34.74 32.88 31.73 31.43 30.51 30.05 29.50 29.85 31.18 30.58 29.07 28.59 28.52 28.71 28.73 28.31 28.12 28.29 27.85 27.28 26.81 26.34 25.81 25.89 26.89 27.95
41.08 42.03 42.15 40.90 39.47 38.95 39.02 39.03 38.27 37.98 38.50 38.24 38.05 37.96 37.66 37.34 36.19 33.57 32.17 31.60 29.78 29.01 29.74 29.16 29.17 30.44 30.34 29.44 28.58 28.72 29.09 29.42 28.85 27.60 27.24 26.96 26.87 26.24 25.70 25.61 25.33 25.18 24.69 24.58
36.65 34.99 34.45 34.37 36.19 37.63 38.45 38.98 38.72 37.87 37.69 37.39 37.02 37.22 35.15 34.35 33.09 31.24 30.40 30.66 30.38 30.10 29.90 29.36 29.22 30.04 29.19 28.86 28.47 28.15 28.12 27.90 28.63 27.26 26.70 26.60 26.08 25.60 25.65 25.10 24.49 24.26 24.06 25.52
44.34 41.99 41.36 39.87 39.47 38.12 37.15 37.43 37.60 37.45 37.08 37.23 36.79 36.37 34.19 32.55 32.31 31.19 30.10 29.50 28.89 28.39 28.68 29.64 29.52 28.79 28.94 29.14 28.21 27.44 27.30 27.15 26.85 26.28 26.42 25.92 25.72 25.86 25.21 24.71 24.09 23.52 23.69 24.43
42.64 42.01 41.62 40.17 38.78 37.62 36.94 36.54 36.93 37.31 36.78 36.57 35.51 34.89 34.96 33.63 33.11 31.69 29.98 28.07 27.57 27.47 29.36 29.04 27.36 27.26 28.23 28.47 27.54 26.89 26.65 26.55 26.53 26.37 26.03 26.16 25.01 25.02 24.34 23.97 23.45 23.15 23.03 22.48
37.96 38.14 37.27 36.27 37.13 36.53 35.74 36.91 37.17 36.58 36.47 35.68 35.25 34.06 32.76 31.97 30.62 28.66 28.16 27.39 28.86 29.32 28.50 28.28 27.68 27.94 27.60 27.41 27.64 26.76 26.90 26.74 25.87 25.26 24.58 24.36 23.80 23.28 23.39 23.57 22.93 22.40 21.79 21.64
35.21 35.34 34.68 34.79 34.73 35.93 36.18 36.47 35.83 34.63 33.42 33.58 32.69 31.98 30.74 30.05 28.57 27.98 26.19 26.11 28.12 27.15 27.37 27.08 27.23 26.99 26.65 26.77 27.49 27.17 26.78 25.73 24.51 23.60 23.07 22.78 22.61 22.46 22.22 22.01 21.74 21.31 21.08 21.17
35.26 34.50 33.95 33.90 33.70 32.78 33.59 34.04 33.55 32.21 30.97 29.90 29.31 29.49 28.17 26.59 26.45 26.27 27.21 26.72 27.31 25.57 26.61 27.10 27.21 26.73 26.10 27.51 26.56 26.07 25.17 23.96 23.03 22.85 22.37 22.23 21.72 21.23 21.11 21.08 20.71 20.98 21.21 20.94
33.87 33.57 33.17 32.77 32.47 31.12 30.82 30.56 29.83 30.28 29.18 28.47 27.57 26.92 26.86 27.41 27.39 25.75 24.98 25.47 26.56 26.15 25.62 26.02 26.55 26.17 26.44 25.53 25.05 24.29 23.09 22.43 22.11 22.01 21.95 21.87 21.53 21.25 21.03 20.82 20.86 20.86 20.22 20.33
32.33 32.67 31.99 31.78 31.76 31.30 29.27 27.40 26.84 27.10 26.12 25.50 25.70 26.38 26.00 25.16 24.71 25.70 25.19 24.60 24.06 24.12 24.13 24.43 24.55 25.25 25.54 23.67 22.97 22.36 22.12 21.95 21.79 21.92 21.51 22.85 21.85 21.68 20.79 20.18 19.96 20.41 20.24 20.16
30.57 29.65 29.76 30.01 30.25 29.08 26.18 24.95 24.19 24.85 24.97 24.37 24.02 24.12 24.40 24.24 24.34 23.67 23.40 22.97 23.08 22.68 22.22 23.85 23.93 23.81 22.12 22.19 22.01 21.51 21.31 21.53 21.56 21.77 21.33 20.77 20.31 20.12 20.09 20.14 20.12 19.69 19.82 19.67
30.33 29.53 29.28 29.47 28.98 27.53 25.99 26.31 25.45 25.18 24.69 23.14 23.02 23.23 22.67 22.38 22.31 22.53 22.04 21.94 21.30 21.44 20.71 21.02 21.21 21.38 21.19 20.96 21.05 21.07 21.09 21.04 20.87 20.44 20.66 19.95 19.82 19.73 19.56 18.85 18.72 18.75 18.57 18.36
27.75 27.56 25.89 25.01 25.68 26.04 26.17 25.60 24.45 23.52 24.24 23.65 21.14 21.01 20.77 20.71 20.87 20.51 20.38 20.16 20.03 19.98 20.05 20.50 20.63 20.83 20.70 20.55 20.31 20.38 20.36 20.37 20.82 20.32 20.17 19.44 18.83 18.52 18.26 18.02 18.09 18.22 17.98 17.80

GFSNGP_sfc_wetblb_024.txt.gz
Wetbulb
40.92 42.20 42.68 41.42 41.61 41.89 40.38 40.64 35.63 38.33 38.72 41.62 43.70 43.81 44.68 45.42 47.21 47.67 47.61 47.54 47.19 46.51 45.14 43.72 42.43 41.18 39.87 38.07 36.98 36.39 35.35 34.56 33.41 33.60 33.30 33.13 32.79 32.94 32.98 32.45 32.37 32.20 32.05 31.85
38.71 42.40 42.50 40.74 42.65 42.87 42.72 42.55 42.05 42.27 40.43 46.66 44.43 46.09 45.15 44.98 46.37 47.21 47.51 47.66 47.13 47.26 45.13 42.87 41.15 39.76 39.11 36.61 35.75 35.63 34.16 33.46 34.01 33.35 32.93 32.67 32.31 32.06 31.29 31.03 30.79 31.10 30.66 30.63
34.38 39.90 38.93 34.44 39.69 42.34 43.59 43.95 43.75 39.79 44.14 46.18 43.76 45.60 45.36 45.30 46.26 46.49 46.68 47.06 47.22 46.42 45.21 43.50 41.09 39.34 36.41 35.05 35.15 33.91 33.38 33.22 33.40 32.92 32.32 31.90 31.38 30.61 29.90 29.38 29.50 29.15 29.03 29.18
36.09 34.99 26.67 39.11 41.40 44.22 42.50 43.43 44.92 44.43 44.91 45.18 44.54 44.49 44.59 46.26 45.97 45.96 46.85 47.13 46.73 46.30 44.10 42.07 40.24 38.45 35.66 34.84 33.82 33.36 32.84 33.74 33.55 32.26 30.97 30.36 29.51 28.86 28.43 28.75 28.07 27.71 27.87 28.11
33.87 32.59 38.03 38.89 39.18 39.30 39.91 40.36 44.57 43.62 45.44 43.85 43.71 42.26 41.01 44.12 45.45 45.05 45.38 45.99 45.77 44.64 42.01 39.48 37.21 35.54 34.42 32.90 32.27 32.33 32.60 31.97 31.46 30.62 29.32 29.10 28.03 27.33 27.77 27.47 27.05 26.75 28.17 27.83
31.16 28.91 28.60 36.66 40.72 43.28 42.90 34.76 42.78 44.95 44.19 42.84 42.66 36.73 38.14 42.65 44.13 44.30 44.83 44.42 42.47 40.79 39.41 37.80 35.22 34.79 33.03 31.76 31.15 31.13 31.05 30.55 30.13 30.01 28.94 27.66 27.19 27.02 27.57 27.33 28.09 29.13 28.58 27.66
34.80 32.47 35.99 40.78 40.85 43.16 33.31 35.89 42.48 43.92 44.41 43.18 39.58 40.55 42.45 43.34 42.51 42.49 41.61 40.27 39.73 38.65 36.78 34.30 34.98 34.59 31.49 30.44 29.75 30.22 30.69 30.45 30.03 29.29 28.14 27.80 27.41 27.18 26.76 26.27 26.79 25.64 26.37 26.34
36.61 33.94 30.81 42.18 40.40 37.22 41.34 42.13 43.06 43.80 43.82 41.48 41.35 41.89 41.50 41.21 40.35 39.47 38.51 38.43 38.29 35.35 34.37 34.24 34.16 32.27 30.24 28.53 29.38 30.00 29.84 29.51 28.69 27.90 29.38 30.27 26.58 26.11 26.05 25.32 24.33 24.07 24.20 25.46
39.28 39.17 42.26 42.88 42.39 42.67 45.04 43.42 43.34 42.48 42.84 42.75 41.25 40.25 40.18 39.02 38.30 38.09 37.80 37.46 36.66 34.75 33.11 31.82 31.76 30.52 28.78 28.02 29.63 29.33 27.99 27.16 27.20 28.03 28.16 27.79 25.81 25.10 24.58 24.60 23.40 23.54 24.45 24.57
38.69 38.48 40.18 41.94 41.45 42.10 44.05 43.52 43.63 43.38 43.08 42.49 40.55 40.58 39.60 38.88 37.75 36.93 36.44 35.87 35.41 33.35 30.74 29.31 29.30 29.47 28.76 29.25 29.14 27.97 26.22 26.08 26.78 26.19 27.53 26.31 26.79 26.02 24.00 23.11 23.48 24.58 24.72 24.52
36.83 38.56 40.16 40.68 42.00 43.20 43.23 43.62 43.20 43.21 42.87 42.09 41.56 40.11 39.62 38.49 37.74 36.88 36.43 36.13 35.17 32.96 30.55 29.04 28.64 28.39 28.29 28.75 27.87 25.49 25.31 25.31 25.78 26.30 25.27 24.81 25.27 24.30 23.41 24.34 26.47 26.52 26.02 25.65
37.68 42.30 41.28 40.26 42.77 43.64 42.38 41.91 42.16 41.83 40.72 41.25 41.03 40.13 40.12 39.10 38.53 37.05 35.00 34.96 34.27 33.01 29.62 28.31 28.43 27.94 27.99 28.04 26.77 25.48 24.13 24.87 24.69 24.45 24.05 24.21 23.25 24.86 30.37 31.48 32.11 32.04 31.91 30.12
41.77 42.95 43.19 43.27 43.08 43.19 41.81 41.58 41.59 40.75 40.67 39.79 40.01 40.02 39.71 38.51 37.53 38.70 34.76 34.08 32.24 29.91 28.42 28.26 27.41 26.72 27.18 27.85 26.70 25.32 22.84 23.65 23.49 24.85 23.07 22.15 23.54 23.26 22.72 26.51 30.51 30.61 30.93 31.10
43.46 43.43 40.36 41.14 39.86 41.78 41.79 41.87 42.22 39.89 39.27 38.95 38.73 38.97 38.43 36.29 36.02 33.54 32.37 31.94 30.05 28.47 27.59 26.85 26.32 26.20 27.13 27.36 25.29 24.20 23.76 29.22 24.43 23.18 22.77 23.01 23.34 23.47 23.43 22.76 22.23 23.29 28.00 29.33
40.52 41.04 41.66 41.68 40.82 39.09 38.42 38.11 36.54 36.31 36.92 36.88 37.24 36.39 36.08 34.26 32.38 31.34 29.69 28.69 28.09 26.95 26.29 25.95 25.22 25.69 27.25 26.72 24.88 23.67 23.65 23.15 23.31 23.31 23.21 24.95 24.14 23.45 23.12 23.01 22.64 22.56 23.70 26.10
37.75 38.54 39.15 38.10 36.86 36.04 35.91 35.21 35.16 34.94 35.17 35.13 34.77 33.96 33.43 32.79 30.52 28.70 27.32 26.72 24.57 23.79 24.78 24.58 24.62 25.65 26.41 25.43 23.82 23.65 23.48 28.48 28.23 23.60 22.86 22.55 22.44 22.87 22.79 22.49 22.13 22.18 21.98 22.05
35.71 34.19 35.24 34.19 34.54 35.28 34.94 35.01 35.24 34.55 34.41 33.65 33.34 32.75 31.69 29.68 27.68 26.05 25.47 25.89 24.78 24.53 24.55 24.19 24.14 25.04 25.38 24.90 23.58 23.40 22.61 22.61 27.80 22.80 22.09 22.46 22.80 22.59 22.59 22.15 21.72 21.69 21.63 23.41
38.92 37.40 37.65 37.41 36.26 34.43 33.80 34.44 34.43 34.24 33.66 33.95 33.87 31.46 29.35 27.90 26.61 24.86 24.22 24.10 23.52 23.23 23.86 24.11 23.98 24.09 24.48 24.62 23.69 22.49 22.22 22.06 22.28 21.94 22.60 22.29 22.37 22.81 22.07 21.91 21.53 20.95 21.24 22.52
40.32 38.83 38.27 36.84 35.39 34.76 34.14 33.68 33.94 34.04 33.91 33.50 32.23 31.22 30.18 29.04 27.46 25.33 23.99 22.82 22.14 22.00 22.96 23.69 27.62 25.01 23.38 24.88 25.90 22.55 22.02 21.82 22.09 21.84 21.96 24.26 21.41 21.57 21.10 21.01 20.96 20.90 20.81 20.95
38.36 37.42 35.88 34.10 34.28 34.25 33.40 34.02 34.05 33.17 32.93 32.22 31.27 29.87 28.03 26.46 24.53 23.65 23.16 22.18 22.05 22.47 23.82 24.08 23.69 22.74 22.89 23.48 27.01 22.80 22.06 21.58 21.14 20.28 19.97 21.33 20.11 20.19 20.59 21.84 21.37 20.88 20.29 20.25
34.14 34.13 33.49 33.27 32.75 33.37 33.32 33.25 32.30 30.95 30.13 30.20 29.27 27.78 26.33 24.07 23.72 23.03 21.85 20.70 21.06 24.26 24.62 26.18 23.06 22.16 21.97 24.23 24.41 22.40 21.62 20.60 19.56 18.31 18.71 19.00 19.17 19.24 19.58 19.73 20.00 19.98 19.80 20.32
33.60 32.79 32.05 31.49 30.91 29.89 29.88 29.79 29.24 27.42 26.63 25.78 25.64 24.64 23.00 21.50 21.05 20.46 21.62 21.14 21.79 27.21 23.68 22.26 22.18 25.30 23.72 27.07 21.98 21.02 20.34 19.36 18.43 17.90 17.42 17.73 18.34 18.12 18.03 18.69 18.78 19.57 20.11 19.54
32.40 31.48 30.23 29.03 27.72 26.53 26.18 26.04 26.59 26.04 24.95 24.32 23.27 22.73 22.40 21.68 22.04 20.85 19.76 21.57 21.73 24.43 21.54 20.84 25.17 26.44 26.87 21.14 20.23 19.54 18.61 18.39 18.41 18.04 16.79 15.78 17.58 17.38 19.42 19.67 19.34 18.99 18.50 19.11
30.53 28.86 28.01 27.35 27.19 25.48 23.49 22.82 23.05 22.59 22.06 23.05 22.86 22.79 22.49 20.87 20.40 20.78 21.68 23.98 24.55 23.50 21.18 21.39 23.18 25.85 26.06 19.05 18.01 17.56 17.69 17.43 16.16 15.45 17.74 22.13 16.78 17.92 18.63 18.65 18.01 18.98 18.95 18.70
27.41 25.84 26.11 26.37 25.63 24.20 22.73 21.20 20.73 20.54 20.70 20.00 20.11 20.68 20.57 20.61 20.33 19.02 18.78 19.35 22.44 20.81 18.43 22.17 24.17 23.98 18.05 17.34 17.28 17.06 16.57 15.45 12.26 15.81 16.12 14.25 17.39 17.29 17.79 18.47 18.51 17.83 18.45 17.10
26.89 26.35 25.34 25.81 24.76 23.37 22.39 22.23 20.92 20.54 20.57 19.41 19.10 18.85 18.20 18.64 18.91 18.15 17.56 19.93 18.10 20.08 16.71 17.14 17.57 18.44 17.84 17.06 17.28 17.08 17.10 16.42 17.25 16.95 19.35 18.39 18.06 17.67 17.01 16.90 16.88 16.78 16.43 16.15
24.82 25.69 22.63 22.41 22.71 22.62 21.90 21.80 20.87 19.78 20.98 19.61 17.67 17.92 17.74 17.66 18.21 17.44 18.98 16.61 16.24 16.34 16.21 16.49 16.61 17.70 17.94 17.77 17.60 16.76 15.95 15.97 18.38 18.54 17.98 15.79 15.38 15.44 15.68 15.58 15.61 16.10 15.83 15.47

GFSNGP_sfc_wetblb_027.txt.gz
Wetbulb
38.73 38.65 40.62 40.53 40.86 40.98 39.36 40.31 37.00 36.04 37.21 39.35 40.28 41.19 42.75 44.83 45.64 45.72 45.76 45.90 45.46 43.98 43.35 42.23 40.47 38.36 36.90 35.48 34.84 34.62 33.57 32.76 32.04 32.03 32.08 31.73 31.73 31.31 31.43 31.18 31.34 31.09 30.50 29.98
38.31 42.18 41.13 39.53 41.78 41.51 41.71 41.66 41.09 40.20 38.19 41.52 41.64 41.97 41.97 44.31 45.74 45.51 45.60 45.77 45.51 44.73 43.12 41.24 39.41 37.52 36.40 34.56 33.96 33.99 32.59 32.13 32.64 32.09 31.79 31.24 31.01 30.54 30.13 30.00 29.39 29.03 28.41 28.19
32.66 39.61 39.67 35.05 39.60 40.55 40.82 41.15 41.72 37.90 41.29 41.66 41.98 43.47 42.99 42.71 46.18 45.98 45.60 45.31 45.62 44.74 43.21 41.20 38.89 37.18 34.56 33.59 33.17 32.23 31.86 31.88 32.43 33.47 31.41 30.89 30.38 29.59 28.56 27.80 27.06 26.72 26.81 26.91
34.27 33.83 27.40 38.58 40.38 43.63 43.07 43.45 43.00 43.38 44.60 42.42 42.07 40.62 41.49 42.08 45.23 45.53 46.16 46.11 45.97 44.21 42.19 39.85 37.52 35.62 33.81 33.13 32.01 31.71 31.48 32.54 33.24 31.68 30.39 29.59 28.52 27.44 26.37 26.46 25.92 25.59 25.88 26.13
30.84 29.95 34.96 37.21 38.35 38.03 38.56 38.62 42.46 44.22 43.27 42.12 41.51 40.92 40.03 42.39 43.37 43.89 45.35 45.92 44.40 42.51 39.34 37.43 35.11 34.41 33.04 31.54 31.49 31.20 31.03 30.53 30.61 30.22 28.80 28.11 26.35 25.55 25.79 25.50 25.09 24.84 25.99 25.37
28.51 27.31 27.45 35.06 39.42 40.76 40.56 33.77 40.28 40.42 41.50 41.57 40.93 36.72 36.92 40.88 42.76 41.75 42.21 41.64 39.00 37.80 35.81 34.29 33.41 33.27 31.82 29.82 29.91 30.20 30.08 30.08 29.75 29.35 27.88 26.15 25.47 25.29 25.71 25.07 25.93 26.53 26.08 25.10
32.80 31.31 33.95 40.20 40.24 41.59 32.04 34.10 40.82 40.92 42.08 41.66 39.05 39.22 40.20 40.97 39.12 39.11 38.62 37.65 37.68 36.05 34.03 33.01 32.44 32.04 30.11 29.09 28.60 29.63 30.01 29.58 29.19 28.19 26.65 26.28 25.62 25.06 24.68 24.42 24.31 22.96 22.70 22.91
34.14 32.88 28.66 40.44 38.57 35.09 38.85 40.21 40.90 40.22 40.15 39.39 39.94 40.47 39.63 38.79 37.74 37.78 36.57 35.75 35.35 33.74 32.94 32.15 31.28 30.74 28.04 26.89 28.27 29.05 29.08 28.73 27.80 26.41 27.85 28.55 24.93 24.46 24.02 23.31 22.09 21.37 20.99 22.51
37.92 37.29 41.64 40.43 40.33 41.72 43.19 41.74 40.11 39.89 40.19 40.36 39.28 38.61 38.18 36.65 36.51 36.27 35.50 34.18 34.36 32.56 30.52 29.41 29.52 28.99 26.99 27.01 28.14 27.89 27.26 25.94 25.85 26.74 26.38 25.81 24.09 23.64 22.76 22.45 21.36 22.56 22.86 23.86
38.47 40.03 39.03 40.51 40.05 41.54 42.38 41.33 41.20 41.43 40.71 40.36 38.00 37.77 36.60 36.70 36.30 35.64 34.43 32.75 32.12 30.56 28.76 27.05 27.76 27.97 27.00 27.43 28.03 26.68 24.90 25.02 25.24 24.57 26.48 24.40 24.55 23.96 21.69 21.09 21.18 24.10 24.55 24.29
36.68 36.79 37.93 39.00 40.23 41.64 41.59 42.03 41.58 41.71 41.32 39.95 39.07 37.73 37.07 35.98 35.17 34.85 34.20 32.68 31.61 29.91 28.16 26.34 26.29 26.35 26.68 27.12 26.47 24.90 24.27 23.77 23.42 24.36 23.23 22.86 23.34 21.92 22.02 22.96 25.97 25.70 25.17 25.19
36.84 40.73 40.07 39.78 41.54 42.47 41.98 41.44 41.39 40.48 39.31 39.74 39.61 38.04 37.33 35.98 35.68 34.97 33.47 32.52 30.64 28.78 27.29 25.91 25.91 25.80 26.15 26.61 25.70 24.17 23.18 23.64 23.26 23.45 22.25 22.54 21.00 22.06 28.66 30.14 31.00 31.00 30.89 29.11
41.29 41.63 41.20 41.38 41.41 41.44 40.71 40.23 40.74 40.47 40.53 39.24 39.22 39.30 38.09 36.10 34.71 36.87 33.12 32.14 29.88 27.31 26.31 25.92 25.80 25.59 26.07 26.34 25.04 24.40 22.07 22.76 22.42 23.12 21.28 20.26 20.92 21.92 21.34 25.02 29.40 29.56 29.73 30.02
42.10 42.69 39.75 40.14 38.95 40.79 40.87 40.47 40.56 38.85 38.86 39.00 38.28 37.77 36.92 35.38 34.48 32.07 31.13 29.60 27.48 26.41 25.68 25.17 25.07 24.67 25.45 25.48 24.27 23.28 22.66 27.86 23.40 21.69 21.69 21.47 21.45 21.82 22.10 21.73 21.16 22.08 26.64 28.02
40.04 40.71 41.28 40.26 39.33 38.34 38.57 38.14 36.72 36.27 36.32 35.78 36.31 35.48 34.26 31.67 30.24 29.17 27.77 27.18 26.64 25.44 24.87 25.09 24.24 23.96 25.43 24.85 24.15 22.87 22.76 22.32 22.51 22.55 22.37 24.49 22.83 22.26 22.08 21.99 21.58 21.33 22.44 24.94
37.29 38.45 38.67 37.45 36.33 35.70 35.58 35.71 35.24 34.47 34.25 33.47 33.54 33.01 31.42 29.72 27.26 26.36 25.73 25.65 24.70 23.74 23.87 23.70 23.49 24.04 24.53 23.85 23.01 22.70 22.24 27.05 27.01 22.73 22.08 21.85 21.96 21.93 21.95 21.57 21.00 20.84 20.76 21.03
36.36 33.64 34.55 34.35 35.09 34.84 34.53 34.68 35.25 35.08 34.60 33.14 31.32 30.28 28.24 26.78 25.41 24.36 24.45 24.53 24.51 23.51 23.50 23.06 22.91 24.08 24.51 24.10 22.66 22.29 21.40 21.53 27.07 21.17 21.47 22.06 21.90 21.74 21.49 20.62 20.37 20.43 20.50 22.51
38.03 37.33 38.09 37.44 35.69 33.47 33.06 33.73 34.98 34.72 33.78 31.83 30.48 29.07 26.86 25.75 24.56 23.51 23.13 22.46 22.08 22.01 22.45 22.50 23.00 23.43 23.70 23.57 22.71 21.79 21.58 21.28 21.60 21.35 22.34 21.75 21.52 21.70 20.51 20.50 20.24 19.82 20.25 21.70
37.93 37.29 36.90 34.64 34.18 33.86 33.36 33.09 33.96 33.50 32.54 31.21 28.92 27.63 27.82 26.71 24.80 23.41 22.40 21.67 21.00 20.88 20.91 23.18 27.93 24.37 22.21 24.45 24.89 21.81 21.53 21.04 20.96 20.94 21.02 22.85 19.70 20.07 19.67 19.85 19.88 19.98 19.94 20.07
38.29 37.40 35.79 34.49 34.42 34.10 33.55 34.07 33.06 32.09 31.20 30.32 28.99 27.19 24.98 23.76 23.11 22.51 22.23 20.37 20.98 21.79 22.96 23.66 22.39 21.45 21.41 23.08 27.29 22.18 21.21 20.47 20.04 19.14 18.79 19.85 18.54 19.08 19.31 20.63 20.22 19.58 19.49 19.64
34.66 34.65 33.94 33.77 32.74 33.48 32.76 32.37 31.85 30.67 29.34 29.42 28.48 26.20 23.76 22.47 22.97 22.37 21.40 20.12 21.39 24.50 24.05 25.48 22.34 20.92 21.71 24.03 22.86 20.92 20.14 19.04 18.17 16.98 17.22 17.58 17.76 17.90 18.49 18.59 18.62 19.28 19.38 19.59
33.83 33.21 32.80 32.58 31.23 29.57 29.80 29.53 28.94 27.03 25.97 25.00 24.05 22.87 22.16 21.04 20.77 20.37 21.47 21.07 22.17 26.58 22.50 20.78 20.99 25.45 23.72 26.01 20.43 19.55 18.93 18.02 17.27 16.84 16.28 16.83 17.05 16.84 16.77 18.05 18.59 18.79 18.71 17.70
32.57 31.74 30.94 29.92 28.74 26.59 26.10 25.63 24.87 24.40 23.24 22.80 22.72 22.39 22.33 21.72 21.95 20.52 19.30 21.50 21.48 24.50 20.30 19.66 24.72 26.50 26.92 19.34 18.61 18.03 17.30 17.10 17.00 16.83 16.26 15.25 16.20 15.35 17.38 17.54 17.70 17.48 16.76 17.66
30.31 28.58 26.84 26.11 25.26 24.06 21.59 20.83 21.73 21.59 21.96 22.58 22.59 22.93 21.88 20.13 19.66 20.29 22.02 24.25 25.07 22.39 20.26 21.60 23.17 25.47 23.72 17.35 16.57 16.10 16.22 16.06 15.04 13.57 15.56 19.99 14.54 15.17 14.93 16.91 16.53 17.33 17.09 17.16
28.00 26.26 25.43 24.26 23.14 21.39 20.75 20.55 19.90 19.70 20.02 19.61 19.42 19.43 19.84 20.21 19.92 18.15 17.87 18.52 22.78 19.83 17.06 21.50 23.12 23.27 16.88 16.06 15.89 15.83 15.26 13.49 11.07 15.53 16.37 15.04 16.07 16.74 16.40 16.32 15.42 15.67 17.15 15.24
27.44 26.10 24.86 24.57 23.34 22.46 21.65 21.73 19.85 20.09 20.18 18.23 17.74 17.90 17.71 18.00 18.34 16.35 16.48 18.93 17.28 19.03 15.37 15.76 16.73 17.60 16.42 15.88 16.43 15.99 15.53 14.75 15.67 15.37 17.51 16.81 15.81 13.99 13.87 14.20 14.29 14.37 14.69 14.89
24.71 25.57 22.64 22.01 22.36 22.11 21.78 21.86 20.92 19.97 19.95 18.38 16.40 16.49 16.30 16.29 17.76 16.22 17.80 15.23 14.82 14.99 14.92 15.18 15.20 16.54 17.02 16.58 15.81 15.09 14.26 14.16 16.31 16.22 15.15 13.13 13.31 13.29 13.57 13.67 14.15 14.65 15.10 15.24

GFSNGP_sfc_wetblb_030.txt.gz
Wetbulb
34.08 35.28 37.15 37.99 37.50 38.03 34.92 35.35 30.97 33.18 35.32 40.04 39.63 39.67 42.06 43.45 44.20 43.94 44.22 44.51 44.14 42.93 41.72 39.34 37.94 36.28 35.17 34.27 33.77 33.41 32.34 31.78 30.99 30.87 30.80 30.68 30.45 30.23 30.02 30.10 29.77 29.42 28.92 28.55
34.64 40.61 38.39 37.64 39.03 39.03 38.70 37.56 34.68 40.58 40.10 42.71 40.40 40.36 41.01 42.37 43.79 43.79 44.35 44.63 44.08 43.10 41.13 39.15 37.30 35.76 34.91 33.37 33.05 33.14 31.84 31.25 31.50 31.00 31.71 31.05 29.92 29.34 28.88 28.48 28.15 27.97 27.02 26.44
34.03 38.77 38.28 34.57 35.43 40.46 37.82 41.94 42.95 39.37 41.36 41.59 40.60 41.38 41.46 42.33 44.57 44.53 44.72 44.59 43.63 42.98 41.87 39.81 36.86 35.64 33.52 32.81 32.59 31.55 31.22 31.00 31.09 32.63 32.02 29.85 29.16 28.42 27.71 26.52 26.38 25.63 25.36 25.25
34.64 33.69 27.20 37.48 39.57 43.76 42.58 43.39 43.90 42.90 41.28 41.25 41.51 39.72 40.67 40.92 44.55 44.56 45.24 45.05 44.24 43.31 40.96 38.54 36.37 34.53 32.82 32.40 31.41 30.84 30.40 31.01 32.70 31.95 29.48 28.63 27.49 26.62 25.66 25.50 24.84 24.33 24.39 24.71
31.56 28.49 33.80 37.10 37.57 37.52 39.83 39.40 42.27 42.82 40.84 40.26 40.53 40.39 39.67 41.20 42.81 43.78 44.69 45.41 44.22 42.32 38.14 35.70 34.02 33.55 32.12 30.79 30.41 30.50 30.29 31.16 30.65 29.35 28.00 26.94 26.04 25.10 24.76 24.46 23.72 23.55 24.36 23.69
29.06 25.87 26.70 34.02 37.67 39.60 38.91 33.15 39.01 40.32 40.05 39.98 39.76 37.88 38.33 38.82 41.25 41.38 41.69 41.17 38.76 36.92 35.47 33.84 32.72 32.63 31.46 29.76 29.20 29.25 30.23 29.18 28.52 28.11 27.18 25.77 24.75 24.48 24.61 23.55 24.08 24.44 23.45 23.03
30.84 29.90 32.97 39.24 38.65 39.79 31.40 32.95 39.37 39.75 40.74 40.95 39.73 38.72 38.90 37.58 36.60 37.40 36.76 35.31 35.53 35.24 33.47 31.69 31.55 31.52 29.38 28.66 28.44 28.71 28.67 28.27 28.06 26.78 25.83 25.44 24.47 23.65 23.22 23.00 23.17 21.54 21.84 21.60
35.32 28.93 26.85 40.08 38.57 34.90 37.86 39.24 39.55 39.17 39.06 38.57 39.17 38.42 37.01 36.64 35.77 35.27 33.86 33.78 33.86 32.16 30.77 30.20 30.98 30.74 27.63 26.44 27.11 27.87 27.90 27.20 26.12 25.52 27.13 26.90 23.52 23.10 22.64 21.72 20.61 20.17 19.92 21.45
35.55 35.41 39.76 39.48 39.32 41.01 41.59 40.44 38.89 38.50 39.74 39.83 38.29 37.11 36.66 35.09 34.12 33.35 33.16 32.54 32.89 31.42 29.29 28.07 28.09 28.67 26.40 25.60 26.95 26.56 25.76 24.92 24.81 24.99 24.75 23.91 22.37 21.92 20.75 20.91 19.94 19.87 22.05 22.83
38.25 40.34 38.55 38.75 40.07 41.54 41.26 39.91 39.47 39.80 39.90 39.68 36.73 36.79 35.22 34.56 33.11 32.13 31.66 30.57 30.90 29.78 27.83 25.77 26.52 26.87 26.09 26.19 26.59 25.54 24.02 23.23 23.37 23.10 24.75 22.74 23.61 22.69 20.18 20.04 19.87 23.76 23.97 23.44
36.56 36.79 37.44 38.57 39.26 40.37 40.21 40.54 39.83 39.55 39.47 38.26 37.17 35.93 35.35 33.86 32.76 31.70 30.55 30.14 30.05 28.46 26.54 24.74 25.17 25.22 25.52 25.83 25.36 23.87 23.06 23.33 22.78 23.68 21.74 21.65 21.99 20.50 20.82 22.00 24.81 24.60 23.91 23.96
37.75 41.09 40.03 39.25 40.81 41.64 40.83 40.12 40.05 38.81 37.64 37.72 37.69 35.94 35.25 33.91 33.45 31.81 30.11 29.37 28.27 26.52 25.48 24.22 24.56 24.37 24.80 25.32 24.35 23.16 23.21 23.42 22.98 22.84 20.81 21.76 20.28 20.05 27.03 29.22 30.13 30.20 30.14 28.25
42.21 41.84 40.38 41.07 41.04 41.22 40.12 39.81 39.95 39.09 38.80 37.19 36.79 36.47 35.49 33.71 32.42 34.59 30.43 28.90 27.63 26.18 24.70 24.29 24.08 24.07 24.49 24.71 24.14 23.80 21.65 22.61 22.13 21.97 20.31 19.23 19.57 20.37 20.06 23.90 28.53 28.75 29.04 29.19
42.12 42.39 39.73 40.02 38.67 40.01 40.28 40.03 40.27 38.80 38.59 38.02 36.62 35.94 35.23 34.20 33.37 30.90 29.46 28.28 26.37 25.19 24.09 24.14 23.71 23.35 24.25 24.18 23.68 22.59 22.10 27.56 22.62 20.92 20.97 20.51 20.75 21.20 20.87 20.80 20.18 21.06 25.58 26.90
40.14 40.06 41.04 39.93 39.37 38.28 39.02 38.71 37.01 36.19 35.98 34.85 35.46 34.59 33.64 31.11 29.91 28.34 26.16 25.58 25.57 24.86 24.30 24.31 23.66 23.00 24.12 23.91 23.73 22.60 22.55 22.21 22.48 22.12 21.87 23.78 21.94 21.43 21.07 20.86 20.61 20.02 20.90 23.55
37.01 37.90 38.71 37.43 36.16 36.16 36.14 36.00 35.49 34.49 34.48 33.90 32.71 31.42 30.02 28.59 26.32 24.73 24.38 25.00 25.13 23.28 23.21 23.41 23.00 23.33 23.78 23.09 22.86 22.40 21.99 26.31 26.46 22.42 21.39 21.23 21.23 21.07 20.79 20.18 19.44 19.33 19.43 20.01
36.13 33.25 34.03 33.85 34.92 34.98 35.21 35.79 35.70 34.34 33.87 34.15 32.10 29.24 26.53 25.02 24.12 23.51 23.89 24.14 23.77 23.17 23.00 22.68 22.55 23.74 23.68 23.57 22.34 22.14 21.41 21.47 26.34 21.26 20.98 21.25 20.95 20.35 20.32 19.45 19.19 19.23 19.32 21.52
39.14 38.41 38.39 37.73 35.43 33.47 33.36 33.67 33.90 34.68 33.75 32.31 29.73 27.30 25.10 24.63 23.78 22.16 21.48 21.66 21.62 21.33 21.75 22.19 22.61 23.17 23.50 23.26 22.81 21.95 21.53 21.48 21.66 20.90 21.35 20.70 20.26 19.86 18.95 19.15 19.01 18.70 19.31 20.57
37.23 36.68 35.82 34.52 34.60 33.79 33.13 32.74 34.06 33.31 32.14 30.55 27.92 25.36 25.43 24.25 23.11 21.88 21.59 21.49 20.71 20.30 20.78 23.05 28.00 23.91 21.84 24.64 24.37 21.99 21.50 20.60 20.21 19.93 19.79 21.37 18.60 18.89 18.74 18.82 18.87 19.05 18.87 19.04
35.41 34.79 34.55 33.89 35.08 34.64 33.06 34.18 33.74 31.82 30.58 28.06 26.64 25.40 23.68 22.87 22.61 21.76 21.40 19.66 20.75 21.23 21.52 23.07 21.67 21.40 21.60 22.96 26.76 21.05 19.96 19.08 18.41 17.51 17.31 18.34 17.57 18.04 18.04 19.56 19.21 18.45 18.50 18.98
33.94 34.54 34.23 33.92 32.99 33.61 33.57 33.75 32.42 30.16 27.78 27.62 26.24 24.09 23.07 21.60 22.00 21.60 20.59 20.02 21.19 24.18 23.65 25.10 21.60 21.22 21.99 23.48 21.21 19.21 18.51 17.33 16.73 15.72 16.06 16.25 16.41 16.60 17.23 17.62 17.65 18.23 18.10 18.23
34.43 33.73 32.82 32.69 31.42 30.11 30.71 30.34 29.31 27.93 26.94 25.04 23.45 22.66 21.66 20.03 19.53 19.92 21.22 20.63 22.35 26.00 21.89 20.90 21.18 24.92 23.79 23.33 18.83 17.95 17.37 16.68 16.09 15.73 15.20 15.56 15.66 15.32 15.60 16.34 16.41 17.04 17.71 16.68
33.01 32.22 32.08 31.18 30.05 26.70 26.11 25.52 24.99 24.99 23.67 22.88 21.88 21.32 21.23 20.91 21.55 20.40 18.61 21.30 22.08 23.63 19.80 19.92 24.83 26.42 24.62 17.58 17.08 16.64 15.95 15.89 15.78 15.57 14.69 13.37 14.38 12.85 13.98 14.76 16.25 16.32 15.69 16.08
30.97 29.18 27.09 26.51 26.33 25.15 22.23 21.16 21.71 21.44 21.72 22.08 21.81 22.16 21.63 20.05 18.78 20.32 22.91 25.29 24.91 21.53 19.77 21.46 22.68 24.87 22.34 16.16 15.38 14.96 15.29 15.12 13.63 11.90 13.60 18.63 12.94 13.79 14.74 15.35 14.80 14.72 14.42 15.60
27.36 25.91 25.13 24.32 23.03 21.00 20.00 19.64 19.29 19.21 19.13 18.80 18.54 19.52 19.92 19.98 19.23 17.48 17.16 18.93 23.05 18.25 16.12 21.67 22.69 22.26 15.54 14.92 14.98 15.12 14.17 12.00 9.81 13.05 14.29 13.21 14.89 13.87 13.65 13.32 13.05 13.88 15.85 14.22
26.46 25.39 23.89 23.55 22.50 21.87 21.12 21.28 19.36 19.36 18.98 17.15 17.12 17.27 17.19 17.62 18.32 15.89 16.25 17.49 16.76 18.28 14.51 14.81 16.24 16.75 15.56 14.97 15.37 14.23 13.72 13.33 14.06 13.81 15.90 13.70 13.09 11.72 12.19 12.74 12.86 13.09 13.80 13.99
24.75 25.15 22.18 21.48 21.94 21.52 20.92 20.90 19.95 19.27 19.21 17.73 15.54 15.69 15.82 16.03 17.14 15.81 16.82 14.28 14.21 14.41 14.18 14.23 14.12 15.82 15.71 15.43 13.98 13.45 12.92 12.68 14.87 14.99 13.63 11.16 11.63 11.83 12.68 12.93 13.42 14.24 14.87 15.08

GFSNGP_sfc_wetblb_033.txt.gz
Wetbulb
34.12 34.90 35.57 35.01 33.01 33.14 30.96 31.57 28.75 31.49 31.66 35.22 39.15 40.43 42.03 43.61 43.53 43.72 43.85 43.15 42.40 40.63 38.54 36.42 35.19 34.28 33.57 32.96 32.73 32.50 31.58 30.77 29.93 29.78 29.90 29.75 30.11 29.80 28.80 28.20 27.78 27.61 27.30 26.96
31.89 36.11 35.42 34.54 35.59 34.27 35.14 33.59 34.60 35.97 34.99 41.47 41.89 43.20 41.36 42.52 43.41 43.53 43.69 43.47 42.85 41.25 37.67 36.11 35.29 33.85 33.64 32.41 32.17 32.49 31.19 30.14 30.30 30.07 30.39 31.08 30.85 28.00 27.38 26.93 26.78 26.30 25.49 25.19
31.37 35.88 36.30 32.43 36.39 34.63 36.23 37.20 35.90 33.36 37.80 41.32 39.93 41.02 41.96 42.63 43.80 43.72 44.06 43.52 42.63 40.70 39.03 37.61 35.35 34.27 32.92 32.42 31.86 31.19 30.62 30.08 30.23 31.08 31.01 30.76 29.05 27.21 26.64 25.27 24.55 24.41 24.38 24.21
33.05 33.72 27.69 36.87 41.82 40.41 38.32 39.50 40.58 40.35 41.31 42.15 43.31 40.80 41.75 42.06 43.86 43.72 44.28 43.79 42.86 41.36 38.99 36.71 35.06 33.74 32.27 32.08 31.15 30.48 29.49 30.06 31.10 31.09 30.31 27.87 26.56 25.02 24.35 24.13 23.75 24.04 23.74 23.37
33.25 27.77 33.23 35.41 38.90 38.18 36.58 36.29 41.42 41.11 42.24 41.77 40.87 41.42 40.27 41.63 43.34 44.01 45.02 44.14 43.07 40.98 37.80 34.92 33.44 32.91 31.90 30.11 29.66 29.58 29.17 29.61 30.96 30.36 27.33 25.84 24.60 23.82 23.78 23.71 23.71 22.66 23.06 22.46
32.66 26.27 26.12 34.10 37.29 40.12 40.31 34.90 42.51 43.47 41.76 39.66 40.23 38.43 40.50 40.67 41.91 42.83 43.42 42.19 38.63 36.51 35.05 33.47 32.33 32.36 31.06 29.14 28.88 28.36 28.93 30.31 29.51 26.96 25.70 24.54 23.77 23.49 23.98 22.76 23.59 23.86 22.92 22.05
30.84 30.77 32.22 37.67 39.62 38.94 30.33 32.47 39.27 39.60 40.21 39.57 39.87 39.70 37.61 37.13 36.72 39.18 38.85 36.44 35.70 35.25 33.59 31.61 31.77 31.78 29.35 28.31 27.68 28.23 28.45 27.65 26.50 25.47 24.75 24.30 23.66 23.44 22.05 21.64 22.06 20.35 21.06 20.48
34.37 29.07 25.32 38.93 38.18 34.22 37.36 38.16 38.58 38.30 38.85 37.38 36.21 35.81 35.33 34.94 34.16 34.67 33.94 33.59 33.02 31.14 29.90 30.47 31.27 30.86 28.09 27.17 27.01 27.11 26.69 26.00 24.81 24.03 26.38 25.87 22.68 21.64 21.20 20.56 19.57 19.37 19.46 21.45
35.19 34.06 39.19 38.89 39.05 40.51 40.99 40.29 37.91 38.12 39.11 37.77 35.90 34.51 33.78 32.16 31.92 31.95 32.03 31.70 31.73 30.30 28.76 28.04 28.41 29.99 27.04 24.74 26.02 25.51 24.65 23.68 23.42 24.17 23.92 23.12 21.29 20.81 19.75 19.87 19.24 19.38 21.66 21.95
37.49 37.44 37.51 38.84 39.97 41.06 40.70 39.11 38.78 39.52 39.16 38.38 34.87 33.94 31.75 31.62 31.35 31.06 31.10 30.31 30.80 30.14 28.18 25.28 25.93 26.16 25.85 25.31 25.53 24.42 22.74 22.32 22.77 22.74 22.72 21.54 23.25 22.27 19.25 19.53 19.67 23.04 23.15 22.73
35.97 37.47 38.99 38.49 38.75 39.88 38.97 39.20 38.90 38.64 38.80 37.38 35.98 34.42 33.03 31.52 30.94 30.26 29.83 29.83 30.15 28.63 26.66 24.02 24.50 24.39 24.62 24.82 24.40 22.97 22.36 22.81 22.37 23.08 20.82 20.69 21.52 19.62 20.24 21.40 23.98 23.97 23.23 23.24
37.71 40.70 39.65 38.50 40.49 40.86 39.89 39.14 38.97 38.09 36.83 37.23 36.90 34.41 33.23 30.97 30.48 29.79 28.29 27.82 26.82 25.48 24.78 23.19 23.75 23.36 23.75 24.18 23.85 22.76 22.58 23.28 23.26 22.20 19.91 21.39 19.60 19.55 26.60 28.63 29.77 29.88 29.83 27.86
42.49 41.57 39.89 39.89 40.40 40.77 39.91 39.27 39.02 37.75 37.67 35.05 34.52 34.15 32.90 30.54 29.21 32.39 27.88 26.87 25.95 24.57 23.81 23.58 22.91 22.73 23.38 23.90 23.70 23.47 21.47 22.67 21.61 21.08 19.34 18.46 19.10 20.40 19.43 23.78 28.07 28.30 28.40 28.66
40.81 41.02 39.20 39.17 38.48 39.89 39.95 39.41 39.05 36.88 36.47 35.84 34.45 34.14 33.10 32.03 30.62 28.24 27.09 25.99 24.95 24.21 23.32 23.06 22.88 22.80 23.46 23.39 23.48 22.21 21.88 27.81 21.78 19.85 20.30 20.25 20.55 20.48 20.22 19.85 19.38 20.12 24.69 26.09
38.99 39.75 40.84 39.78 39.33 38.49 38.85 38.07 36.04 35.05 34.80 33.69 34.03 33.17 32.03 29.65 28.34 26.46 25.17 24.98 24.96 23.75 23.07 23.44 22.95 22.21 22.96 23.46 23.64 22.31 22.36 21.74 21.84 21.70 21.19 23.23 21.36 20.90 20.27 20.03 19.66 18.83 19.53 22.36
36.67 37.52 38.10 37.66 36.83 36.65 36.34 35.91 34.97 33.83 33.51 32.77 31.84 30.47 29.06 27.70 25.40 24.00 23.50 24.21 24.24 22.57 22.79 22.81 22.39 22.72 23.15 22.99 22.55 21.85 21.53 26.14 25.95 21.82 20.82 20.75 20.63 20.06 19.74 19.12 18.03 18.06 18.33 19.12
36.23 33.22 34.16 34.20 35.16 35.14 35.74 35.79 35.73 34.61 33.02 32.08 30.89 29.21 26.53 24.64 23.74 22.85 22.83 23.16 23.45 22.57 22.50 22.81 22.15 23.57 23.20 22.87 21.87 21.26 20.55 20.95 25.67 20.67 20.32 20.44 19.86 19.25 19.10 18.61 18.18 18.20 18.31 20.66
37.83 37.82 37.88 37.91 35.89 33.94 33.18 33.54 34.17 34.42 33.39 31.11 29.49 26.72 24.91 24.42 22.67 21.54 21.06 21.32 21.20 20.85 21.57 22.00 22.49 23.14 23.03 22.59 22.07 20.91 21.06 20.62 20.70 19.78 20.01 19.10 19.01 18.72 17.93 18.16 18.04 17.75 18.50 19.69
37.16 37.32 36.71 35.76 35.78 34.62 33.74 33.08 33.12 32.67 31.15 29.60 26.74 24.40 23.27 22.30 21.75 20.81 20.87 20.79 20.07 19.70 20.21 22.96 27.81 23.06 21.30 25.26 23.10 21.04 20.06 19.17 18.65 18.08 18.06 20.22 17.45 17.86 17.87 17.78 18.00 18.17 17.95 18.07
34.06 34.59 34.49 33.44 34.25 34.00 32.24 32.55 32.57 30.41 29.12 26.92 25.22 23.63 21.80 20.83 21.40 20.91 20.65 19.05 19.95 20.66 21.63 22.52 20.97 20.60 21.23 23.60 25.31 19.42 18.49 17.43 16.64 16.08 16.05 17.15 16.43 17.03 17.09 18.61 18.25 17.36 17.30 17.69
33.04 33.59 33.43 33.23 31.97 32.33 32.06 31.87 30.60 28.35 26.69 26.58 25.39 23.70 22.33 21.25 21.44 20.98 20.16 19.71 21.09 24.01 23.51 24.49 21.10 21.05 21.42 21.79 19.70 17.86 17.06 16.03 15.62 14.73 14.98 15.07 15.27 15.48 16.15 16.20 16.21 16.70 16.73 17.23
32.80 32.19 31.98 32.28 30.77 29.96 30.99 30.45 29.05 27.36 25.40 23.75 23.03 22.40 21.46 20.07 19.72 19.63 20.96 20.75 22.37 25.53 21.26 20.27 20.81 25.13 23.21 21.78 17.55 16.68 16.16 15.65 15.12 14.69 14.15 14.35 14.47 14.09 13.87 14.28 14.13 15.28 16.38 15.39
33.01 32.48 32.11 31.18 29.69 27.81 27.63 27.11 26.31 25.01 23.14 22.67 21.81 21.43 21.24 20.58 21.44 20.68 19.21 21.68 21.24 23.39 19.61 19.90 25.08 26.58 23.63 16.60 16.08 15.67 15.17 15.05 14.66 14.17 13.12 11.65 12.83 10.84 12.60 13.12 14.64 14.78 13.68 13.99
30.71 28.76 28.59 28.43 28.31 27.00 22.92 21.66 22.02 21.78 21.68 21.80 21.55 21.71 21.34 19.95 19.25 20.57 22.80 25.22 25.26 21.56 20.35 21.24 22.90 24.50 21.22 15.16 14.54 14.37 14.47 13.88 12.00 9.99 12.01 17.63 10.59 12.01 13.28 13.65 12.82 12.90 13.01 13.97
27.81 28.01 27.27 25.36 23.35 20.75 19.93 19.74 19.41 19.24 19.35 18.86 19.07 19.72 19.89 19.75 19.15 17.52 18.26 19.87 22.59 17.81 15.71 21.88 22.63 21.52 14.72 14.15 14.27 14.00 12.64 10.14 7.46 11.02 12.18 10.80 11.75 11.56 11.84 11.90 11.54 12.51 15.20 14.66
27.63 25.27 23.82 23.88 22.19 21.42 20.95 21.14 18.99 19.00 19.05 17.07 16.70 16.86 16.71 17.43 18.38 15.20 16.06 17.60 16.21 18.12 13.91 14.13 15.55 16.00 14.55 13.82 14.14 12.81 12.34 11.93 12.78 12.27 14.59 12.22 11.60 10.37 10.87 11.43 11.90 12.32 13.09 13.71
24.16 24.43 21.31 20.63 20.87 20.85 20.40 20.38 19.50 18.56 18.61 17.48 15.17 15.11 15.39 15.76 16.96 15.62 16.62 13.99 13.95 13.96 13.51 13.35 13.01 14.61 14.94 14.71 12.88 12.45 11.74 11.29 13.81 13.91 11.77 9.64 9.93 9.76 11.34 12.17 12.54 13.24 14.22 14.68

GFSNGP_sfc_wetblb_036.txt.gz
Wetbulb
33.89 34.60 34.64 33.81 33.82 33.05 30.82 31.01 25.95 29.14 29.95 34.71 37.30 39.53 37.11 41.44 43.83 44.63 42.15 40.64 39.61 37.35 35.71 34.84 33.25 32.46 32.44 32.00 31.87 31.94 30.97 30.27 28.98 28.76 28.86 28.60 28.53 28.52 28.20 28.08 27.12 26.80 26.16 25.65
31.91 35.68 35.60 32.84 34.99 35.00 33.77 33.58 31.62 31.69 31.01 39.29 41.37 37.72 38.72 39.79 42.57 44.10 42.41 41.78 39.81 38.06 35.20 34.03 33.05 32.36 32.26 31.57 31.27 31.86 30.71 29.35 29.45 29.12 29.01 28.68 28.34 28.50 27.93 26.69 25.82 25.23 24.61 24.22
29.67 35.41 34.99 32.71 34.22 35.45 34.73 35.23 34.09 29.32 34.70 39.22 39.17 41.40 41.23 40.92 43.52 44.31 43.61 42.28 40.19 37.54 36.20 35.15 33.51 33.09 31.84 31.41 31.19 30.70 29.91 29.44 29.46 29.63 28.91 28.29 29.07 28.44 26.42 24.72 23.75 23.48 23.32 23.10
30.91 34.51 27.24 36.43 41.20 39.62 36.25 37.16 37.37 36.93 38.30 41.15 41.91 42.60 42.52 43.67 43.43 43.76 44.03 42.61 40.48 38.19 36.20 34.49 33.53 32.80 31.51 31.62 30.83 29.99 29.10 29.28 29.75 29.13 27.99 28.47 27.94 25.58 24.18 23.25 22.73 22.16 22.37 22.49
32.56 31.15 33.13 35.00 38.48 37.40 34.46 35.25 39.67 39.01 40.31 41.15 42.31 40.07 39.75 41.91 43.75 44.26 44.20 43.13 40.91 39.11 35.99 33.81 32.73 32.39 31.46 30.14 29.43 29.32 28.54 28.48 28.66 28.63 28.63 27.52 25.09 23.28 22.78 22.49 21.87 21.51 22.51 21.44
33.51 29.84 26.25 33.25 36.23 41.58 41.36 35.24 42.26 41.63 41.01 40.77 39.24 35.66 38.46 40.63 42.83 43.22 43.57 42.17 38.70 35.97 34.59 32.85 31.95 32.17 30.92 29.11 28.76 28.04 28.05 28.24 28.31 28.89 27.39 24.39 23.06 22.80 22.32 21.60 23.40 23.59 22.46 21.46
33.77 31.33 32.86 38.18 38.97 40.59 30.32 32.53 39.76 42.67 42.68 42.98 39.57 39.82 38.25 40.06 40.25 41.43 40.20 37.13 35.79 35.15 33.60 31.61 31.82 32.00 29.37 28.47 27.65 27.70 28.13 27.74 27.85 27.06 23.98 23.22 22.38 21.75 21.05 20.89 21.44 19.68 20.84 20.46
33.10 30.87 25.70 39.60 38.14 34.19 36.45 37.34 38.86 38.64 39.21 41.78 36.87 36.18 36.76 36.26 35.55 35.73 34.71 34.89 33.51 31.19 30.10 30.85 31.80 31.06 28.43 26.95 26.33 26.81 26.27 26.77 25.38 23.59 25.91 24.38 21.52 20.62 20.11 19.67 19.16 18.97 19.41 21.48
34.30 33.35 38.82 39.05 39.70 40.81 40.88 39.66 37.33 37.09 37.14 36.87 34.90 33.89 33.69 32.77 32.92 32.35 31.86 31.45 31.52 30.14 28.46 27.94 29.27 31.25 28.34 23.98 26.00 24.97 24.88 23.18 22.94 23.29 22.71 22.76 20.54 19.75 19.23 19.31 18.94 19.10 21.41 21.79
36.21 36.89 38.23 38.45 39.40 39.85 40.07 38.96 38.67 38.36 37.21 36.35 32.82 32.34 30.83 31.17 30.92 30.59 30.72 30.00 30.23 29.79 28.30 25.94 26.27 26.82 26.14 25.20 25.13 24.04 21.92 21.79 22.21 22.94 21.24 20.58 23.20 21.92 19.19 19.21 19.22 22.43 22.59 22.41
36.71 38.41 37.79 39.01 38.64 38.34 38.37 38.88 38.31 37.91 36.85 34.49 33.35 32.08 31.47 30.40 30.04 29.83 29.91 30.49 30.57 28.55 26.11 24.02 25.36 24.67 24.70 24.34 24.03 22.70 21.78 22.27 22.33 22.13 20.14 20.06 21.23 19.22 19.45 20.80 22.95 23.69 23.01 23.22
35.95 41.35 39.45 38.39 39.32 39.09 38.18 37.32 37.25 36.47 35.12 35.06 34.65 32.41 31.73 30.21 30.36 29.55 28.04 28.05 26.70 25.72 24.72 23.61 24.06 23.02 22.86 23.56 23.45 22.24 22.02 23.06 23.44 21.17 19.15 21.06 19.09 18.90 26.21 28.32 29.55 29.62 29.47 27.44
40.77 39.54 39.54 39.55 40.24 40.31 38.48 38.25 37.77 36.49 35.54 33.56 33.78 32.77 31.41 29.19 28.61 31.33 27.32 26.95 25.92 24.03 23.50 23.13 22.59 22.02 22.44 22.94 23.10 22.87 21.09 21.93 21.17 20.39 18.89 18.07 18.36 19.51 18.86 22.98 27.34 27.62 27.78 28.04
39.93 40.39 38.76 39.85 38.70 39.11 38.83 38.23 37.81 35.74 35.20 34.25 32.69 32.32 31.64 29.74 28.90 27.37 25.50 24.42 24.47 23.95 23.00 22.81 22.42 21.66 22.33 22.67 22.80 21.79 23.03 27.77 21.29 19.42 19.71 19.25 19.77 19.89 19.54 18.84 18.40 19.04 23.94 25.48
38.41 39.75 40.60 39.87 39.03 37.48 37.65 37.47 35.17 33.68 33.26 32.30 32.52 30.93 29.89 28.09 26.38 24.15 23.51 24.48 24.53 23.35 22.56 22.91 22.14 21.28 22.32 22.98 23.15 21.79 22.15 21.68 21.17 20.86 20.41 22.66 20.79 20.08 19.33 18.96 18.38 17.58 18.50 21.55
36.72 37.76 38.15 37.88 36.86 36.19 36.14 35.85 33.93 32.68 32.43 31.60 30.39 28.89 27.24 25.89 24.29 23.21 23.11 24.14 23.97 22.02 21.83 22.20 21.63 21.82 22.44 22.42 21.97 21.25 21.16 26.64 25.52 21.09 20.24 20.02 19.63 18.84 18.64 17.74 16.76 17.00 17.39 18.26
36.23 34.38 34.83 34.87 35.55 35.82 35.59 35.41 34.77 33.30 31.80 30.70 29.09 28.39 26.98 24.69 23.58 22.78 21.92 22.12 22.70 21.96 21.93 22.09 21.27 22.73 22.69 22.34 21.37 20.57 20.13 20.50 25.17 19.86 19.19 19.07 18.29 18.06 17.99 17.78 17.24 17.29 17.40 19.79
37.78 38.40 38.79 38.65 36.35 34.62 33.88 33.83 33.52 33.21 32.03 30.49 29.20 27.11 25.38 24.61 22.52 21.27 20.63 21.05 20.91 20.36 20.73 21.52 22.30 22.78 22.56 21.98 21.41 20.70 20.36 19.68 19.59 18.34 18.23 17.57 18.20 17.84 16.93 17.24 17.13 16.92 17.65 18.81
37.10 36.88 36.85 36.48 36.37 35.15 34.25 33.17 31.71 30.87 30.48 29.44 27.24 24.28 23.38 22.56 21.99 20.73 20.28 20.29 19.55 19.25 19.62 23.32 27.30 22.79 21.87 25.18 22.22 19.49 18.79 17.80 16.99 16.47 16.76 19.50 16.56 16.92 16.96 16.91 17.13 17.20 16.91 17.09
34.37 35.15 35.27 34.52 35.15 34.56 32.36 32.04 31.69 30.01 29.24 27.10 25.28 23.50 21.33 20.68 21.23 20.91 20.82 18.73 19.63 21.05 22.48 22.19 20.51 20.58 21.65 24.04 23.35 18.17 17.08 16.01 15.42 15.04 15.07 16.39 15.45 16.28 16.13 17.51 17.11 16.15 16.08 16.50
32.76 33.38 33.06 32.51 31.20 31.47 31.55 31.58 30.11 27.40 26.20 26.18 24.64 22.58 21.36 20.81 21.24 20.97 20.43 20.05 21.41 23.89 23.31 24.12 21.07 20.50 22.07 20.39 18.53 16.67 15.87 15.08 14.78 13.95 14.03 14.06 14.50 14.50 14.99 14.88 14.75 15.23 15.33 15.96
31.96 31.52 31.43 31.26 30.34 29.60 29.92 29.40 28.00 26.67 25.48 23.76 22.83 22.16 21.22 19.98 19.99 20.09 21.12 20.97 22.59 25.47 21.23 20.20 20.74 25.20 22.08 21.02 16.47 15.70 15.38 14.93 14.27 13.74 13.17 13.47 13.43 12.94 12.63 12.94 12.73 13.82 15.09 14.27
32.04 31.99 31.61 30.98 29.19 27.23 27.70 27.31 26.50 25.30 23.60 23.14 22.08 21.61 21.27 20.72 21.43 20.78 19.23 21.55 21.02 23.70 19.78 20.40 25.76 26.22 22.69 15.53 15.24 15.05 14.52 14.07 13.58 13.07 12.20 10.85 11.89 10.19 11.15 11.62 13.35 13.83 12.34 12.72
31.56 30.59 28.86 28.41 27.70 26.79 23.13 22.06 22.54 22.38 21.83 21.73 21.56 21.86 21.43 19.97 19.79 21.11 23.08 25.15 25.79 22.30 20.03 21.21 23.13 23.88 20.47 14.42 13.88 13.71 13.39 12.79 11.07 9.35 11.07 16.79 9.32 10.38 11.26 11.93 11.39 12.07 12.20 13.09
29.02 28.65 28.59 27.86 25.20 21.62 21.01 20.51 20.14 19.76 19.54 19.06 18.81 19.24 19.60 19.22 19.32 17.76 18.40 19.72 22.94 17.67 15.68 22.48 22.82 21.17 14.00 13.28 13.46 13.04 11.54 9.35 7.38 10.28 10.83 9.35 10.11 9.57 10.25 10.69 10.64 11.69 14.83 14.43
28.01 26.58 25.77 25.65 23.60 22.41 21.63 21.95 19.28 19.13 18.86 16.60 15.93 16.20 16.47 17.67 19.00 15.41 15.88 17.30 15.96 17.81 13.24 13.43 14.95 15.37 13.70 12.99 13.65 12.10 11.63 11.17 11.90 11.16 13.60 11.02 10.24 9.25 9.71 10.44 11.14 11.65 12.23 12.86
24.53 25.25 22.26 21.26 21.28 21.05 20.50 20.67 19.98 18.66 18.61 17.45 14.95 14.79 15.22 15.34 16.89 15.32 16.39 13.58 13.44 13.26 12.61 12.40 11.88 13.84 14.29 14.13 12.33 11.85 11.10 10.57 12.84 12.99 9.73 7.88 8.27 7.85 9.70 10.83 11.41 12.08 12.50 13.04

GFSNGP_sfc_wetblb_039.txt.gz
Wetbulb
32.96 33.93 34.21 33.53 33.09 33.30 30.65 30.98 27.88 30.24 29.86 33.63 36.66 38.44 39.45 42.09 43.81 43.44 40.44 39.47 38.63 37.26 36.87 36.09 35.57 35.54 34.95 33.98 33.89 34.43 33.56 33.30 32.20 32.14 32.38 32.17 31.96 31.92 31.90 31.98 31.42 31.10 30.42 29.76
31.97 35.43 35.37 33.13 35.80 34.89 35.11 33.34 32.47 32.43 31.62 38.25 38.51 41.18 40.69 41.34 43.32 43.69 40.92 39.38 37.70 36.87 35.76 34.82 34.76 34.36 34.14 33.62 33.60 34.33 33.13 31.78 31.93 31.79 31.82 31.58 31.32 31.04 30.94 30.46 30.16 29.85 29.11 28.50
28.56 34.96 34.99 33.22 36.16 35.24 35.35 35.61 34.44 30.58 34.93 38.27 37.55 39.65 41.22 42.79 43.68 44.61 41.50 39.21 37.14 36.08 35.59 35.06 34.63 34.47 33.54 33.44 33.81 32.97 31.91 31.71 31.64 31.83 31.14 30.89 30.92 30.67 29.98 29.24 29.20 28.51 28.26 28.05
30.67 33.62 26.35 36.22 40.90 40.53 37.14 37.49 37.91 36.91 37.56 39.42 40.30 41.53 42.65 42.86 43.70 44.76 42.30 39.61 37.82 37.15 35.34 34.53 34.74 34.28 33.37 33.56 32.91 32.11 31.52 31.48 31.72 31.11 30.11 30.21 30.17 29.38 28.82 28.70 28.06 27.89 27.57 27.15
31.62 31.12 33.50 35.22 36.37 37.97 36.25 36.46 39.85 38.21 38.75 39.49 41.05 41.43 40.20 42.89 44.68 45.06 43.17 40.90 39.23 37.76 35.38 34.67 33.91 33.87 33.07 32.33 31.98 31.67 31.03 30.85 30.55 30.37 29.77 29.87 28.52 28.27 27.83 27.77 27.46 26.96 27.05 26.39
32.52 29.80 27.20 33.83 37.71 41.27 40.24 34.94 41.06 40.07 40.03 40.74 41.14 37.08 38.40 40.73 44.19 43.77 42.70 40.46 37.40 36.08 35.34 34.18 33.51 33.83 32.63 31.42 31.53 30.48 30.45 30.06 30.29 30.42 29.97 28.32 27.74 27.40 26.71 26.74 27.14 27.11 26.24 26.87
32.51 31.51 31.84 38.17 38.31 40.97 31.84 35.11 39.87 42.06 42.36 42.13 40.81 39.09 38.54 40.49 40.90 42.00 40.68 37.88 36.98 36.25 34.65 33.09 33.62 33.64 31.61 31.46 30.07 29.76 29.82 29.68 29.51 29.57 28.02 27.49 26.79 26.35 25.79 25.81 25.51 25.02 25.64 26.30
33.77 30.94 26.67 39.45 37.31 34.23 37.61 39.93 40.57 40.79 42.53 43.16 37.40 37.45 36.71 36.59 36.44 36.84 35.85 35.94 35.00 32.76 32.04 33.10 33.74 33.06 31.66 28.94 28.99 29.84 29.13 28.66 28.15 27.83 28.22 26.59 25.85 25.22 24.94 24.69 24.35 24.19 24.77 26.49
33.62 33.19 39.07 39.80 40.23 41.21 40.95 39.52 39.73 39.14 39.80 41.08 36.84 35.62 35.67 34.35 33.82 33.69 33.42 33.15 33.11 31.61 30.25 31.04 32.66 32.94 29.04 27.96 28.95 28.18 28.05 27.17 26.39 26.30 26.02 25.90 25.36 24.68 25.08 24.06 23.71 24.06 25.21 25.33
36.24 37.84 38.52 40.14 39.57 39.93 39.39 39.09 38.34 38.39 37.16 36.61 33.31 33.31 31.94 31.83 31.49 31.49 31.56 30.55 31.04 30.68 29.44 28.48 31.22 30.45 28.67 28.29 28.07 27.28 26.22 25.57 25.77 25.37 24.70 24.70 26.14 25.22 24.15 23.94 24.07 25.17 25.10 24.93
36.95 38.96 38.68 38.93 39.50 38.65 38.33 38.71 36.90 35.94 35.34 33.83 33.14 31.77 31.37 30.12 30.04 30.24 30.47 30.97 31.05 29.34 27.31 25.91 27.12 27.10 27.63 26.95 26.84 25.31 24.95 25.26 25.42 24.68 24.11 24.01 24.48 24.19 25.01 25.48 26.24 26.60 26.26 25.89
36.11 40.53 39.31 38.05 39.89 39.71 38.09 37.00 36.41 35.12 33.78 34.15 33.47 31.08 30.84 29.76 30.37 29.80 28.73 28.82 27.43 26.65 25.94 25.49 25.78 25.06 25.27 25.98 26.45 25.51 24.87 25.47 24.99 24.15 23.32 24.01 23.08 23.26 26.58 28.40 28.98 29.10 28.89 28.04
40.78 39.33 38.85 39.41 40.13 39.71 37.82 36.81 36.38 34.70 33.66 31.84 32.01 31.49 30.60 28.94 28.99 30.99 28.06 27.55 26.45 25.23 24.83 24.73 24.54 23.90 24.45 25.18 25.75 25.07 23.83 24.24 25.36 22.99 22.57 22.33 22.43 22.75 21.55 24.25 26.52 26.87 27.27 27.83
39.92 39.99 38.24 39.69 38.85 38.68 38.00 37.27 36.56 34.41 33.79 32.61 31.86 31.56 30.64 29.04 28.69 27.28 25.70 25.32 25.58 25.05 24.44 24.40 24.04 23.21 23.93 24.90 25.76 25.39 25.87 27.00 23.56 22.89 23.09 23.20 23.12 22.43 21.83 20.81 19.97 20.84 24.33 25.74
38.62 39.74 40.99 39.79 38.79 37.05 37.01 36.35 34.28 32.72 32.30 31.23 31.43 30.18 29.50 27.26 25.38 24.25 25.11 25.58 25.35 24.39 23.75 23.97 23.17 22.26 24.08 24.98 24.43 23.62 24.17 24.09 23.56 23.21 23.17 24.27 22.48 21.59 21.35 20.74 19.87 19.40 20.47 22.52
37.28 38.72 38.83 37.85 36.85 36.52 36.40 35.86 33.36 31.97 31.20 30.48 29.40 27.84 26.56 25.57 24.59 24.10 24.58 25.38 24.87 22.95 22.89 22.98 22.47 22.91 24.03 23.81 23.15 22.94 24.13 27.64 25.70 22.52 21.83 21.33 20.73 20.39 20.13 19.34 18.88 19.14 19.17 19.52
35.91 35.15 35.42 34.89 35.56 35.87 36.08 36.40 34.56 32.67 30.97 29.21 26.98 26.47 25.63 24.67 24.36 23.83 22.88 23.58 23.56 22.71 22.89 23.00 22.08 23.73 23.45 23.23 22.67 22.42 22.20 22.45 24.78 21.10 20.32 19.83 19.80 19.83 19.22 19.10 18.66 18.64 18.67 20.33
37.86 38.83 39.35 39.15 37.00 34.48 33.43 33.47 33.07 32.11 29.99 28.69 27.78 26.49 25.73 25.32 22.89 21.72 21.23 21.84 21.83 21.14 21.59 22.52 23.21 23.37 23.14 22.81 22.70 21.91 21.42 20.77 20.32 19.16 19.05 18.90 20.37 19.14 18.56 18.37 18.19 17.93 18.48 19.12
36.87 37.08 37.21 36.78 36.35 34.82 33.72 32.73 31.56 30.52 29.92 29.03 27.53 24.61 24.01 22.86 22.15 21.20 21.68 21.40 20.67 20.21 20.82 24.35 27.69 24.35 23.65 25.45 21.70 20.54 19.78 18.84 18.14 17.89 17.95 20.00 17.79 18.14 18.03 17.68 17.78 17.78 17.57 17.25
34.45 34.85 35.15 34.81 35.14 33.62 31.18 31.35 31.09 29.67 28.70 26.43 24.91 23.58 21.50 21.10 21.69 21.33 21.52 19.40 20.62 22.08 22.78 22.67 21.61 22.42 22.93 24.02 22.40 19.12 18.12 17.51 17.04 16.73 16.69 17.68 16.59 17.27 16.87 17.42 17.20 16.36 16.33 16.66
32.97 33.55 33.20 32.65 31.32 31.49 31.13 30.84 29.41 27.26 26.58 26.74 25.31 23.05 21.36 20.87 21.57 21.63 20.87 20.40 21.91 23.84 23.20 24.36 21.78 22.22 21.94 20.51 18.76 17.77 17.24 16.71 16.18 15.45 15.16 15.16 15.33 15.25 15.42 15.23 14.84 15.27 15.45 16.06
31.85 31.44 30.72 30.85 30.09 29.09 30.03 30.02 28.63 26.71 24.98 23.24 22.46 21.95 21.11 20.15 20.36 20.38 21.41 21.50 23.21 26.00 21.70 21.25 22.22 24.41 22.03 20.68 17.41 16.93 16.54 15.88 15.31 15.00 14.47 14.49 14.14 13.72 13.55 13.71 13.54 14.30 15.25 15.55
31.19 30.83 30.54 29.93 28.70 26.70 27.05 26.80 26.13 25.54 24.24 23.44 22.15 21.79 21.54 21.15 21.96 21.09 19.29 21.78 21.83 24.39 20.92 21.73 26.55 24.92 22.31 16.16 16.28 16.02 15.30 14.74 14.33 13.92 13.54 13.35 13.50 12.85 12.48 12.64 13.92 15.08 13.74 13.71
31.09 31.14 28.90 28.04 27.06 25.86 22.49 22.78 23.32 23.00 22.42 22.10 21.66 21.84 21.59 20.23 20.03 21.32 23.36 25.39 26.91 22.78 20.83 22.21 23.83 23.31 19.42 15.14 14.88 14.59 14.10 13.66 12.70 11.84 12.75 17.10 12.68 12.20 12.33 12.50 12.35 12.98 13.19 13.93
28.83 28.64 28.32 27.21 24.93 22.65 22.13 21.64 21.26 20.38 20.12 19.52 18.93 19.38 19.88 20.47 20.37 18.55 19.84 21.99 24.61 18.81 17.21 23.49 23.02 20.19 14.34 13.90 14.22 13.77 12.98 12.08 10.99 13.57 13.30 12.11 12.03 11.53 11.50 11.65 11.68 12.24 15.79 15.21
28.93 28.22 27.06 26.73 24.33 23.74 22.98 23.01 19.99 19.82 19.55 17.17 16.46 17.09 17.96 19.46 20.09 16.37 16.88 17.86 16.35 18.02 13.54 14.03 15.31 14.95 14.13 13.78 14.37 12.95 12.71 12.40 12.53 11.68 14.06 12.97 11.76 10.67 10.60 10.91 11.45 12.23 12.99 13.16
25.41 26.14 23.87 22.68 23.24 22.54 21.80 21.48 20.55 19.65 19.39 18.18 15.25 15.17 15.76 16.02 17.38 15.93 16.78 13.72 13.36 13.06 12.54 12.23 11.98 14.51 14.64 14.63 12.72 12.40 11.90 11.65 13.16 13.48 13.37 10.36 9.88 9.36 9.94 10.63 11.19 11.88 12.57 13.02

GFSNGP_sfc_wetblb_042.txt.gz
Wetbulb
34.36 35.39 35.88 35.03 33.99 34.26 31.96 31.94 28.77 33.28 34.25 37.91 40.21 40.03 41.27 42.94 44.76 45.82 44.93 43.24 44.12 44.96 45.57 43.31 39.88 38.32 37.16 36.63 36.70 37.11 36.51 37.44 38.62 38.70 38.19 37.53 37.12 37.35 37.22 37.20 36.48 35.83 34.94 34.49
32.32 36.54 36.36 34.16 36.93 37.26 37.30 36.88 34.41 34.25 33.84 41.60 43.14 43.05 42.59 43.98 43.83 43.93 44.91 41.89 42.32 42.28 40.60 38.18 36.82 35.75 35.60 35.27 35.52 36.37 36.03 35.89 37.29 36.90 36.87 36.48 36.53 36.34 36.20 35.38 35.15 34.77 34.04 33.66
29.80 36.01 35.89 34.76 37.47 37.42 37.60 36.74 36.58 32.58 37.36 41.88 41.15 41.95 41.54 42.96 44.34 45.19 43.89 41.35 40.95 39.12 38.03 36.75 36.27 35.89 34.89 35.40 36.48 35.82 36.87 36.75 36.49 36.46 35.75 35.69 35.87 35.48 34.78 34.21 34.69 33.86 33.25 33.05
31.41 33.94 29.13 38.14 42.49 40.98 38.95 39.18 39.00 39.46 40.61 41.88 41.82 42.30 44.13 44.65 44.87 46.59 44.28 42.14 40.48 37.60 37.15 36.82 37.04 36.73 36.47 36.83 37.96 37.69 36.68 36.27 36.29 35.70 34.73 34.99 34.94 34.14 33.40 33.91 33.56 33.37 33.20 32.67
30.64 30.65 35.38 38.25 39.89 38.76 37.64 37.62 42.98 41.25 42.54 43.24 43.65 44.06 42.24 44.55 47.80 46.47 44.50 42.99 39.98 38.77 38.20 38.40 38.02 38.30 38.64 38.19 37.80 37.01 35.75 35.15 34.83 34.77 34.08 34.31 33.37 32.51 33.05 33.24 33.28 33.25 32.51 31.63
32.60 28.22 28.10 38.57 41.44 42.65 42.75 36.57 41.57 42.82 43.06 42.90 44.27 41.38 40.32 43.55 45.42 43.80 44.00 43.06 40.68 40.20 40.12 39.31 38.83 39.25 37.97 36.90 36.57 34.63 34.52 34.24 34.67 34.84 34.22 33.42 31.95 32.80 32.64 33.10 32.42 32.36 31.55 31.98
30.54 30.31 35.74 42.90 41.80 44.23 34.57 36.81 41.35 42.59 44.42 44.37 43.43 41.45 42.33 44.95 44.68 43.95 41.92 40.82 40.77 40.29 39.33 38.42 38.79 38.26 36.25 35.77 34.24 34.33 33.90 33.26 32.93 33.05 31.83 32.16 33.04 32.92 32.23 32.17 31.75 31.53 30.87 31.94
32.56 32.01 30.16 43.80 43.60 39.49 41.69 43.37 42.79 42.53 44.04 43.75 41.94 40.62 39.86 40.68 40.10 40.15 38.35 37.90 37.04 34.98 35.19 36.05 37.20 36.25 34.36 31.80 31.78 31.91 31.61 30.91 30.59 31.06 31.78 32.70 32.47 31.82 31.32 31.39 31.07 30.44 30.46 31.07
38.42 38.02 44.72 44.42 44.71 45.89 44.18 43.35 42.92 41.79 42.80 43.32 39.93 39.35 39.25 38.02 37.67 37.00 36.35 36.88 38.02 37.08 36.12 37.05 36.57 34.26 30.26 30.09 30.64 30.52 30.41 30.01 31.00 32.00 31.95 32.19 32.06 31.21 31.77 30.86 30.00 29.59 29.29 29.15
40.35 44.39 44.34 45.22 44.59 43.50 41.71 41.94 40.94 40.25 41.53 43.40 40.53 37.51 35.00 34.82 35.06 35.91 36.31 35.76 36.27 35.75 35.15 33.90 32.91 31.45 30.15 30.18 30.88 30.91 30.77 31.25 31.68 31.40 30.97 31.31 31.17 31.17 30.88 30.17 29.40 28.76 28.54 28.16
41.62 44.64 46.11 44.69 43.31 42.60 40.78 39.88 38.85 38.60 38.90 39.10 38.57 37.97 37.22 35.15 34.39 34.34 34.66 35.37 35.96 34.52 33.61 31.37 30.64 29.83 30.35 30.86 32.13 31.88 31.86 31.62 31.33 31.07 30.84 30.41 30.16 30.72 30.65 30.90 29.64 28.34 28.48 28.15
41.90 44.79 44.42 42.69 42.03 41.81 40.66 38.39 37.87 37.41 36.27 37.27 37.68 35.77 35.33 34.05 34.34 33.77 32.87 33.30 32.71 32.31 31.62 30.73 29.86 29.25 30.19 32.59 32.99 31.87 30.71 30.68 30.71 30.46 30.42 29.94 29.59 29.86 27.99 28.27 28.40 28.38 28.42 28.14
44.99 44.21 42.79 42.68 42.37 41.77 39.52 38.21 37.44 36.28 36.22 34.39 35.14 35.02 34.31 32.93 32.94 33.57 32.43 32.13 31.65 30.72 30.31 30.74 30.41 30.10 31.09 31.76 32.39 31.68 30.96 30.19 29.66 29.74 29.33 28.81 28.79 27.63 26.27 28.37 27.71 27.19 27.12 27.70
44.74 44.11 42.09 42.55 41.65 40.98 39.29 37.66 36.39 35.82 35.32 34.54 34.03 34.14 33.32 31.91 32.20 31.56 30.58 30.43 30.79 30.67 30.29 30.17 29.81 28.94 30.46 31.64 31.18 30.64 30.05 28.97 29.34 28.93 28.63 28.50 27.57 26.52 26.15 24.87 24.25 25.44 27.19 26.68
43.24 43.53 43.01 41.27 39.27 37.46 37.94 36.84 35.03 33.53 32.69 32.41 33.61 32.54 32.09 30.56 29.51 28.92 30.14 30.49 30.09 29.54 29.18 29.12 28.31 27.87 30.43 31.08 30.07 29.72 29.51 29.07 28.81 28.12 28.03 26.81 26.25 25.57 25.44 24.77 24.20 24.14 25.08 26.06
40.79 40.99 40.45 38.74 37.07 36.57 36.04 36.42 34.58 33.11 33.17 33.17 32.10 31.27 30.44 29.77 29.20 28.80 29.18 29.53 29.05 27.59 28.17 28.07 27.59 28.57 29.81 29.96 29.44 29.78 29.74 28.15 26.83 26.96 26.25 25.35 24.98 24.50 24.06 23.64 23.47 23.55 23.34 23.18
38.82 37.08 37.11 37.09 36.86 36.43 36.30 35.92 36.08 34.13 32.82 31.44 29.61 29.43 29.06 28.52 28.33 27.87 28.45 29.39 28.85 28.06 28.31 28.42 27.23 28.58 28.80 28.90 28.70 28.19 27.66 27.24 25.15 25.57 24.77 24.06 24.09 23.70 23.29 23.07 22.53 22.42 22.55 23.55
42.04 41.31 41.30 41.65 39.17 38.16 36.36 36.02 34.76 33.70 31.71 30.34 29.98 29.72 29.28 29.51 27.40 26.77 26.63 27.16 26.94 26.91 27.57 27.90 28.14 28.06 27.75 27.87 27.59 26.98 26.30 25.29 24.49 23.62 23.43 23.32 23.82 23.17 22.62 22.03 21.77 21.55 21.97 22.31
40.64 40.76 41.83 40.86 39.50 38.35 36.34 34.88 33.99 32.38 31.22 30.57 30.28 29.54 29.17 27.97 27.19 26.53 27.48 27.08 26.27 24.81 25.33 28.26 27.83 27.95 27.54 26.37 26.00 25.89 24.83 23.81 23.33 23.17 22.54 22.53 22.34 22.34 21.89 21.33 21.22 21.20 21.09 20.44
38.37 39.54 39.72 38.34 37.87 36.88 34.59 33.73 32.78 31.56 31.47 30.28 28.40 27.51 26.21 25.90 26.03 26.04 27.31 26.40 27.47 27.63 28.50 28.08 28.50 28.00 26.88 25.44 24.50 24.47 23.56 23.14 22.42 22.09 21.50 21.81 21.20 21.20 20.81 20.27 19.91 19.66 19.74 19.88
37.01 37.33 36.74 36.24 35.03 34.84 34.04 33.46 32.16 30.18 29.52 30.07 28.71 26.94 25.61 25.57 25.90 25.94 25.22 24.62 25.82 26.94 27.10 26.75 27.19 26.13 25.62 24.49 23.86 23.42 22.78 22.17 21.41 20.92 20.23 20.05 19.96 19.82 19.49 19.24 18.94 18.87 18.77 19.11
36.02 35.56 34.58 34.03 33.55 32.63 33.27 33.14 31.28 29.86 29.30 27.99 26.59 25.55 24.67 23.96 24.50 24.78 26.97 25.60 26.52 27.78 26.43 26.36 26.14 25.21 24.74 22.69 22.86 22.15 21.36 20.71 20.43 20.34 19.91 19.56 19.02 18.66 18.73 18.66 18.39 18.63 19.08 19.61
34.49 34.22 33.69 32.83 31.90 30.32 30.55 30.19 29.73 28.84 27.08 26.40 25.59 25.38 25.37 25.82 26.20 24.49 22.39 26.04 26.66 26.47 26.72 27.02 26.57 24.76 22.60 22.22 21.65 20.90 20.26 19.58 19.19 19.15 19.10 19.30 19.11 18.81 18.16 17.89 18.23 18.87 18.58 18.64
33.04 33.19 31.22 30.42 30.25 29.13 27.06 27.37 27.90 27.85 27.01 26.17 25.72 25.46 25.00 24.06 23.98 26.22 27.05 26.96 27.95 26.47 26.53 27.17 25.46 23.12 20.45 20.96 20.53 20.09 19.55 19.08 18.91 19.10 19.02 19.27 18.60 18.05 17.83 17.54 17.29 17.92 18.04 18.04
30.77 29.82 29.44 29.51 28.79 26.49 25.59 25.41 24.92 24.92 24.55 24.14 24.21 24.78 25.57 26.36 25.24 24.84 25.92 26.16 26.70 24.80 24.73 25.17 23.19 20.43 20.17 19.85 19.54 19.05 18.91 18.99 19.10 19.90 18.79 17.89 17.85 17.40 17.19 17.09 16.88 17.11 18.07 18.93
30.16 29.87 29.10 29.17 27.04 26.72 26.01 26.78 24.63 24.35 23.58 21.82 21.84 22.80 23.35 24.34 24.59 23.02 22.89 22.61 21.74 21.17 19.92 19.84 20.15 19.51 19.06 18.88 19.22 18.27 18.12 18.26 17.71 17.44 17.71 17.49 17.08 16.38 16.17 15.92 15.98 16.43 16.85 17.31
27.97 28.00 26.35 25.88 26.60 26.70 26.25 25.24 24.08 23.49 23.50 22.49 19.84 20.97 21.02 21.04 21.39 20.79 21.01 19.49 19.05 18.37 18.27 18.10 17.92 18.24 18.62 18.42 17.41 17.54 17.55 17.46 17.06 17.01 17.62 16.74 15.97 15.82 15.45 15.38 15.61 15.99 16.35 16.70

GFSNGP_sfc_wetblb_045.txt.gz
Wetbulb
35.24 36.03 36.34 35.76 35.73 36.54 33.58 33.25 29.13 32.85 33.24 38.33 40.86 42.28 43.51 44.50 44.58 44.68 46.43 47.15 46.58 47.15 47.97 48.71 48.87 47.63 44.81 44.28 43.27 41.61 41.38 40.09 38.63 39.42 39.05 39.90 39.24 39.05 38.78 38.55 37.86 37.21 36.23 35.62
31.82 36.53 37.15 35.94 38.42 38.83 37.83 37.57 36.70 36.56 34.81 41.94 43.85 44.66 43.28 43.12 43.69 43.76 44.18 44.19 44.23 45.77 46.02 43.67 41.21 40.22 39.47 38.95 38.44 39.61 39.45 38.21 38.15 38.56 39.10 38.43 38.07 37.87 37.40 36.64 36.20 35.98 35.13 34.77
29.91 36.98 36.95 34.65 38.77 38.72 38.63 39.46 37.98 33.53 39.52 43.10 41.39 41.37 41.95 42.65 43.55 43.87 44.97 42.78 42.60 43.00 40.92 38.73 36.89 37.05 36.51 36.90 37.52 36.82 37.43 36.71 37.60 38.10 37.65 37.54 37.52 36.74 36.01 35.55 35.69 34.91 34.42 34.04
31.28 35.58 28.71 39.36 44.44 42.33 39.67 40.21 42.00 41.35 42.06 42.80 43.17 44.00 44.16 43.70 45.79 44.62 43.05 41.88 41.18 39.78 38.70 36.50 36.57 36.32 37.09 37.82 36.23 36.74 35.90 36.24 36.82 37.40 36.57 36.59 36.27 35.28 34.80 35.07 34.83 34.38 33.75 33.41
30.61 30.93 35.22 39.15 41.76 39.54 38.29 38.46 41.84 42.27 44.43 45.09 45.06 43.86 42.29 45.06 46.52 44.79 43.18 41.27 39.74 38.13 36.50 35.90 35.88 36.84 37.39 36.93 36.36 36.27 35.70 36.12 37.12 36.67 36.07 35.57 34.38 33.89 34.12 34.06 33.82 33.59 32.96 32.69
32.76 28.03 26.14 39.11 42.93 43.74 43.96 36.43 43.94 42.36 43.80 45.26 46.24 38.63 40.12 44.21 44.79 43.00 39.67 38.49 36.86 37.09 36.82 36.79 37.20 38.25 37.37 36.51 36.35 36.12 36.73 36.46 36.59 36.45 35.52 34.04 33.50 33.44 33.77 33.95 32.77 32.64 32.37 32.76
29.75 29.96 34.49 43.17 44.46 45.45 35.36 37.16 43.28 42.62 42.93 45.58 41.82 41.93 43.94 44.11 42.42 42.89 39.48 38.33 38.60 38.04 37.40 37.30 38.62 39.09 38.06 37.99 36.27 36.20 36.39 35.94 35.13 34.46 33.41 33.79 33.75 33.69 33.22 32.58 32.26 32.29 31.68 32.76
33.68 30.91 28.85 45.84 45.34 40.28 43.75 45.02 44.45 43.43 43.19 42.20 42.97 42.35 41.79 42.16 40.54 40.08 39.85 40.71 41.49 40.12 39.78 40.54 41.07 39.41 36.86 34.34 34.40 33.78 32.88 32.27 31.88 32.41 33.46 33.70 32.87 32.57 32.13 31.95 31.78 31.56 31.39 31.25
36.99 37.48 46.08 47.08 45.76 48.04 47.06 44.98 44.72 43.55 44.02 42.21 40.72 39.42 39.85 39.62 38.76 37.43 35.46 35.04 35.78 36.00 35.81 36.20 35.55 34.05 30.64 30.58 31.21 31.01 30.71 30.74 31.71 32.69 33.05 33.45 32.76 31.96 31.83 31.52 30.78 30.31 29.57 29.37
41.27 45.49 46.30 47.94 49.02 46.28 44.53 44.26 43.39 42.09 44.20 44.71 40.72 41.21 40.13 39.04 37.46 37.82 38.96 37.96 37.46 36.87 35.14 32.81 32.43 31.25 30.40 30.73 31.41 31.26 31.06 31.85 32.09 31.76 31.96 32.01 31.55 31.56 31.29 30.63 29.61 28.82 28.45 28.13
42.65 45.71 47.84 45.52 45.10 44.68 42.75 41.90 41.06 40.91 42.26 45.12 40.26 37.91 37.43 36.46 36.75 37.37 37.38 38.02 38.48 36.13 32.24 30.24 30.27 29.93 30.91 31.54 32.53 31.88 32.10 31.70 31.59 31.43 31.63 31.02 30.74 30.95 30.64 31.00 29.10 27.53 27.61 27.05
41.25 46.01 45.98 44.81 44.33 43.99 42.32 39.31 40.03 39.76 40.02 42.25 42.05 39.31 38.74 37.22 37.36 37.07 36.74 36.61 33.78 31.25 29.59 29.27 29.58 29.95 31.60 33.88 34.02 32.52 30.96 31.01 31.32 31.09 31.03 30.69 30.31 30.40 29.41 28.82 28.52 28.99 28.83 27.81
45.98 46.58 45.36 44.32 44.03 43.53 40.76 39.22 39.29 38.98 38.97 37.93 38.67 38.30 37.33 36.00 35.96 36.27 35.15 33.31 31.24 29.49 29.17 29.37 30.00 30.75 32.81 33.79 33.44 32.06 31.36 30.46 29.90 31.07 30.41 29.64 29.15 27.79 26.46 29.08 29.97 29.24 28.26 28.21
48.21 46.13 43.92 43.93 43.05 41.79 39.25 37.63 37.85 37.61 37.79 37.36 36.61 36.57 35.68 34.67 34.67 33.91 32.39 30.76 30.35 30.00 29.94 30.33 30.55 30.33 32.49 33.19 32.13 31.36 30.58 31.56 30.46 29.85 28.92 28.53 27.37 26.67 26.46 25.42 24.45 25.54 28.28 28.21
46.17 46.39 45.34 44.42 42.09 39.92 38.62 37.81 35.92 34.92 34.91 34.57 35.32 34.54 34.39 32.53 31.29 30.90 31.46 31.23 30.80 30.52 30.00 29.80 29.28 29.91 32.45 32.63 31.38 30.82 30.49 29.87 29.35 28.52 27.80 26.70 26.47 26.02 25.90 25.31 24.64 24.62 25.51 26.87
43.74 43.63 42.21 40.48 38.18 36.97 36.76 36.48 34.91 34.44 34.40 33.99 33.85 33.38 32.55 31.60 30.67 30.39 30.63 31.06 29.58 28.00 28.84 29.00 29.04 30.23 31.32 31.37 30.98 30.54 29.00 28.11 28.00 27.21 26.42 25.80 25.61 25.07 24.69 24.12 23.88 23.80 23.51 23.54
40.40 38.10 38.71 37.17 36.67 36.18 36.10 36.68 35.89 34.88 33.90 33.24 31.50 31.31 30.24 29.58 29.73 30.02 30.16 30.29 29.67 29.13 29.46 29.23 28.58 30.07 30.28 30.47 30.02 29.20 28.61 27.19 25.97 26.09 25.28 24.54 24.47 24.36 23.86 23.42 22.84 22.65 22.84 24.33
44.65 44.52 42.12 40.93 38.97 36.88 36.02 36.45 36.48 35.00 32.59 31.82 31.50 30.80 30.07 30.24 28.42 28.12 28.23 28.73 28.68 28.53 28.75 29.09 29.33 29.15 29.14 29.07 28.68 27.89 26.99 25.93 25.11 24.27 24.10 23.93 23.97 23.51 23.14 22.67 22.25 22.03 22.36 23.13
42.78 42.62 42.34 43.11 41.55 40.21 36.78 36.31 35.74 34.21 32.85 32.56 31.95 31.78 31.10 29.63 28.47 27.97 28.66 27.96 26.83 25.60 26.52 28.43 29.46 29.17 27.48 26.69 27.39 26.73 25.66 24.69 24.25 23.95 23.39 23.74 23.40 23.20 22.68 22.19 21.49 21.38 21.37 21.21
40.95 42.69 43.44 42.47 42.30 40.23 37.25 36.15 33.99 32.93 33.09 32.65 30.38 28.98 27.77 27.89 28.39 28.37 29.00 27.81 28.53 27.80 29.06 28.50 29.36 28.00 26.53 25.59 26.07 25.37 24.59 23.96 23.18 22.99 22.52 22.04 22.07 21.56 21.51 21.80 21.07 20.52 20.30 20.49
39.28 40.11 39.71 39.17 38.65 37.94 36.56 35.22 33.57 31.87 30.60 30.88 29.63 27.96 27.02 27.71 28.43 27.54 26.12 24.77 26.64 28.65 28.54 28.98 28.13 26.73 26.12 25.11 25.04 24.36 23.67 22.99 22.44 21.89 21.29 20.99 20.87 20.71 20.42 20.36 20.19 20.05 19.84 19.89
38.49 38.16 37.68 36.80 35.51 34.25 34.67 34.31 32.79 31.02 30.76 29.84 28.82 28.04 26.91 26.29 27.09 27.87 28.65 26.09 27.20 28.97 27.81 27.22 26.66 26.37 24.82 24.28 23.88 23.03 22.17 21.64 21.40 21.29 20.74 20.56 20.15 19.81 19.89 19.87 19.42 19.69 19.82 20.21
37.66 37.05 36.61 35.94 34.64 33.91 33.80 32.51 31.89 30.82 28.81 28.10 27.42 27.04 26.80 26.88 27.28 25.23 23.35 27.43 27.50 27.93 27.61 27.35 26.62 25.43 23.80 23.44 22.60 21.85 21.29 20.73 20.39 20.21 20.24 20.41 20.23 20.31 19.61 18.92 19.06 19.23 19.08 19.20
35.80 35.61 35.05 34.00 32.87 31.46 29.72 30.00 29.93 29.49 28.65 28.22 28.22 28.02 27.27 25.77 26.18 28.36 28.30 28.59 28.68 28.21 27.83 26.54 25.14 23.46 22.29 21.96 21.45 20.98 20.60 20.23 20.21 20.51 20.27 21.70 20.33 19.60 19.24 18.69 18.08 18.45 18.45 18.71
33.17 31.72 31.43 30.91 30.77 29.25 28.26 27.95 27.16 27.04 26.84 26.35 26.64 27.40 28.09 28.58 26.99 26.58 27.23 27.30 28.48 26.91 25.74 26.02 23.83 21.34 21.24 20.88 20.52 20.07 19.80 20.21 20.37 20.14 19.36 19.09 19.01 18.74 18.49 18.08 17.60 17.62 18.19 18.45
31.31 31.35 31.62 31.86 29.06 28.66 27.98 28.38 26.52 26.51 25.98 24.61 24.71 25.28 25.54 26.54 27.04 26.22 25.95 25.63 23.95 23.98 21.87 21.20 21.10 20.50 20.11 19.88 19.97 19.38 19.20 19.35 19.22 18.65 19.14 18.60 18.57 17.84 17.33 17.07 16.74 16.85 17.19 17.38
30.36 30.07 28.24 27.72 28.05 28.44 28.82 27.28 25.96 25.39 25.50 24.43 22.68 24.07 24.30 24.05 24.13 23.00 23.04 21.46 20.57 19.91 19.56 19.26 19.19 19.28 19.15 19.04 18.57 18.56 18.91 19.01 19.35 18.59 18.23 17.53 17.04 16.88 16.71 16.60 16.48 16.63 16.70 16.71

GFSNGP_sfc_wetblb_048.txt.gz
Wetbulb
33.59 34.87 34.59 33.16 33.00 33.75 32.35 31.86 28.55 30.89 32.69 36.99 40.08 40.41 41.13 42.74 43.55 43.33 43.48 44.98 44.33 44.26 45.85 47.73 48.00 46.38 44.02 42.31 39.99 38.64 38.25 38.66 38.24 38.63 38.61 38.40 37.72 37.46 36.46 37.03 35.16 34.48 33.00 33.19
27.80 34.14 34.37 32.01 34.58 35.07 35.84 36.15 36.22 37.00 36.50 41.63 43.19 41.83 41.92 42.20 43.09 43.02 43.13 43.04 43.00 44.20 45.81 43.18 41.97 41.41 41.01 39.01 38.25 38.53 38.74 38.82 38.38 37.55 37.41 36.93 36.49 35.87 35.00 33.34 33.05 33.64 32.08 32.93
28.27 34.14 34.35 31.16 35.52 36.66 37.98 40.03 39.00 35.08 38.89 42.23 41.16 42.58 41.65 42.15 43.18 43.68 43.61 43.08 43.68 43.04 39.46 38.15 38.27 38.29 38.00 37.32 38.94 39.02 37.74 37.51 37.17 36.72 36.17 35.85 35.39 34.66 32.98 32.74 31.95 32.14 31.42 30.90
27.05 30.89 24.97 35.47 42.31 41.70 38.56 40.51 41.76 41.16 42.52 43.79 43.50 42.53 42.76 44.29 44.34 42.39 43.27 43.28 42.15 38.99 37.08 36.53 36.92 36.90 37.02 37.23 37.43 36.98 36.86 36.27 36.30 35.89 34.96 34.58 33.91 32.82 31.96 32.73 31.16 30.03 31.13 31.73
28.62 28.43 32.30 36.82 39.85 37.67 36.93 38.49 42.03 40.60 42.86 44.41 44.30 44.07 41.35 42.91 42.11 41.64 40.32 39.67 37.81 36.77 35.95 35.66 35.72 36.67 36.74 36.38 36.00 35.49 35.00 35.01 35.24 35.14 34.10 33.57 32.34 31.65 30.69 29.75 31.61 31.12 31.44 30.41
30.46 26.02 23.80 35.01 40.21 42.39 42.70 35.14 43.25 42.53 42.36 42.95 41.28 39.72 39.40 41.15 38.24 37.20 36.71 36.27 35.04 35.53 36.13 36.21 36.61 36.97 35.90 35.11 34.95 34.25 34.42 34.81 35.26 34.43 33.20 31.13 29.60 30.17 32.02 31.66 30.86 30.76 28.97 28.21
30.42 28.56 30.96 38.97 42.10 43.67 34.82 35.79 42.65 42.98 42.80 41.11 38.67 41.54 42.20 39.64 37.96 37.74 37.29 36.58 37.32 37.11 36.83 37.58 38.65 38.25 36.06 35.70 34.42 35.21 35.45 34.43 32.98 31.99 31.11 31.64 32.00 31.60 30.84 29.30 28.51 27.30 26.93 27.42
31.07 28.70 25.21 41.96 41.36 38.22 41.26 43.47 44.49 43.35 42.92 41.44 41.01 40.50 39.87 38.88 37.55 37.21 37.15 37.36 37.67 36.62 37.11 39.05 39.36 37.43 33.91 32.36 32.79 31.91 31.12 31.08 31.60 32.26 33.01 32.20 30.02 28.62 27.83 27.49 26.52 26.03 25.83 25.33
33.65 32.93 40.51 42.65 42.49 44.05 44.00 42.13 42.32 41.65 42.76 42.10 40.19 39.53 38.18 36.36 35.20 34.59 34.73 35.85 36.84 34.57 32.66 34.03 34.44 32.67 28.73 28.31 30.83 30.94 30.86 30.66 31.09 31.26 30.30 29.57 27.86 27.06 26.55 26.90 25.62 24.69 24.62 23.58
37.50 40.77 41.36 42.75 44.03 42.70 41.43 40.35 41.16 39.85 42.68 43.16 40.60 40.21 37.67 37.89 37.03 35.82 35.39 34.96 34.98 33.31 31.52 30.22 30.97 30.97 30.52 30.86 31.48 31.31 30.37 29.54 28.84 28.40 27.73 27.44 27.44 27.42 26.19 25.11 23.94 23.31 22.70 21.78
38.37 41.09 41.90 42.83 41.96 41.50 40.53 39.78 39.79 39.15 41.32 43.43 40.68 38.45 37.04 36.86 36.97 37.62 36.33 35.77 33.80 31.52 29.48 28.58 29.71 29.92 31.02 31.82 32.22 30.45 28.85 27.35 27.38 27.69 26.93 25.95 25.79 24.47 23.58 24.35 24.77 22.92 22.50 22.54
37.72 42.17 41.90 39.48 40.61 41.57 39.91 38.17 39.43 39.14 39.59 40.11 39.20 37.70 37.33 35.95 36.42 36.22 34.06 31.54 30.49 29.64 28.97 29.02 29.93 30.59 31.78 32.64 31.59 29.25 27.47 26.94 26.36 25.50 25.24 24.74 23.83 23.41 29.98 29.26 29.22 29.04 28.83 26.52
41.95 42.80 41.98 41.30 40.83 40.34 38.48 37.48 38.49 38.14 38.37 37.75 38.15 37.56 36.95 35.57 34.11 34.46 31.38 30.52 29.65 28.76 29.21 30.07 30.59 30.76 31.87 31.21 29.48 27.75 25.29 24.98 25.49 25.49 23.64 22.93 22.38 21.38 20.12 24.00 30.64 30.44 29.73 29.34
44.59 43.44 40.76 41.12 38.32 37.64 36.92 36.48 37.58 36.97 36.76 35.52 35.32 35.46 34.58 33.99 32.80 30.83 29.91 29.53 29.59 29.53 29.56 29.81 29.81 29.40 29.86 29.55 27.46 26.34 26.23 30.99 23.68 23.06 22.80 22.07 21.25 20.76 20.50 20.07 19.19 19.72 26.22 28.01
43.60 43.30 42.16 40.28 38.30 36.33 35.79 35.36 33.70 33.04 33.11 32.94 34.31 33.73 33.09 30.52 28.38 28.74 29.84 30.18 29.92 29.32 28.82 28.85 27.84 27.01 29.19 28.62 26.46 25.26 24.36 23.24 22.63 22.35 21.70 22.76 21.34 21.09 20.54 20.08 19.42 18.86 19.77 23.59
40.99 40.65 39.42 37.68 35.72 35.15 34.93 35.43 33.47 32.86 32.16 32.32 31.98 31.26 30.25 29.54 29.12 29.43 29.55 29.78 28.05 25.95 26.66 26.38 25.82 26.49 27.92 27.29 25.44 24.24 24.02 28.60 25.73 21.63 21.13 20.77 20.58 20.55 19.92 19.29 18.74 18.69 18.78 19.50
37.98 34.56 35.25 33.54 34.90 34.91 35.35 35.67 34.92 33.92 33.27 31.85 29.95 29.47 28.81 27.98 28.05 26.94 27.15 27.76 27.12 26.05 25.75 25.71 24.83 25.80 26.19 25.59 24.68 23.60 22.31 21.99 26.35 21.06 20.10 20.08 20.02 19.67 19.44 19.31 18.89 18.75 18.78 21.66
41.39 40.05 39.68 38.79 37.13 36.25 35.43 35.26 34.43 33.65 31.09 30.28 29.58 29.17 28.41 27.33 25.39 24.90 25.26 25.91 25.52 24.69 24.60 24.60 24.91 25.32 24.91 24.19 23.24 21.96 21.34 20.63 20.77 19.55 20.08 20.20 19.91 19.71 19.00 19.41 18.99 18.26 18.46 20.89
40.05 41.35 41.88 40.71 39.37 37.84 36.50 35.04 33.84 32.08 31.07 30.62 29.94 28.61 27.97 26.60 25.31 25.22 25.86 24.92 23.80 22.85 23.13 25.86 29.62 24.56 22.38 25.45 23.12 20.89 20.34 20.01 19.68 19.35 19.63 21.58 18.96 19.08 18.85 18.66 18.38 18.15 17.86 19.32
39.56 41.69 42.77 40.83 39.83 37.11 35.54 34.70 32.24 31.27 31.33 31.07 28.63 27.28 25.51 25.63 26.30 25.90 25.83 23.79 23.31 24.11 25.81 26.29 23.86 21.99 21.71 23.99 25.07 19.87 19.41 18.83 18.46 18.10 18.37 18.03 17.69 18.05 17.96 20.15 19.52 18.89 18.13 19.19
38.11 39.13 39.23 38.48 37.48 36.13 33.99 32.89 31.98 30.73 29.54 29.53 27.65 26.25 25.84 26.17 25.80 25.23 23.74 22.92 24.03 27.00 26.58 27.11 22.72 21.47 21.36 21.86 20.86 18.97 18.48 17.79 17.57 16.38 16.82 16.46 16.94 17.09 17.31 17.82 18.33 18.82 18.78 18.86
36.77 36.63 36.32 35.56 34.67 33.21 33.07 32.41 30.85 29.52 28.72 27.59 26.80 26.22 25.11 24.31 24.05 23.44 23.98 23.62 24.67 29.13 24.31 22.59 21.96 24.55 22.25 24.24 18.95 18.26 17.91 17.67 16.90 16.17 15.57 15.93 16.43 15.46 14.62 14.59 14.14 17.11 17.32 16.18
35.32 35.08 34.53 33.08 32.01 31.44 31.70 30.66 30.43 29.48 27.93 27.18 26.10 25.32 25.51 25.55 24.82 22.48 20.92 23.79 23.89 27.15 22.87 22.17 26.01 26.33 25.47 18.06 18.02 17.85 17.40 16.95 16.56 16.07 14.31 12.46 13.47 11.23 11.43 12.71 13.97 14.40 13.46 14.87
33.50 33.14 32.41 31.48 31.01 29.57 28.29 27.83 27.84 27.72 27.35 27.10 26.49 26.62 25.98 24.35 22.95 23.91 26.10 28.19 29.35 26.74 23.64 23.63 24.16 24.87 23.09 17.05 16.62 16.11 16.00 15.81 13.47 11.27 13.83 19.48 10.79 11.09 11.66 12.43 12.50 13.48 13.95 15.67
27.68 27.09 26.86 26.79 26.81 26.43 26.97 26.82 25.65 25.08 24.65 24.40 24.65 25.16 25.52 25.14 23.73 23.53 24.28 25.82 29.55 24.90 22.48 26.69 24.60 23.14 16.71 16.03 16.11 15.62 13.87 11.28 8.29 10.82 12.06 10.23 10.02 10.18 10.75 11.91 11.89 13.32 14.73 13.38
28.58 28.38 27.96 28.03 25.86 26.44 26.99 26.90 24.64 25.00 24.77 23.61 23.76 24.25 24.17 25.05 25.87 24.39 24.13 24.30 23.16 24.74 19.34 18.50 17.69 17.26 16.48 15.80 15.81 15.09 14.14 13.17 13.82 13.18 14.30 11.12 11.11 10.51 10.97 12.13 12.43 13.48 14.21 13.46
25.66 27.91 24.63 25.04 25.69 25.89 26.86 26.78 25.41 24.93 25.58 24.57 22.68 23.70 23.79 23.39 23.73 22.40 22.93 19.52 18.23 17.74 16.59 16.20 16.08 17.12 15.91 15.85 14.75 14.33 12.82 12.50 16.26 13.97 10.84 8.88 9.09 8.97 11.52 12.28 12.49 13.75 14.00 14.20

GFSNGP_sfc_wetblb_051.txt.gz
Wetbulb
31.53 33.29 33.52 31.89 30.70 31.81 26.18 30.32 27.63 30.19 30.96 34.76 38.72 40.61 42.78 44.17 42.08 44.15 44.57 44.64 45.54 44.62 43.54 44.43 41.49 41.23 40.27 39.96 39.46 39.53 39.06 39.27 38.68 39.86 39.57 38.85 38.35 38.29 37.40 37.27 35.93 35.17 34.26 33.77
25.97 32.74 33.41 30.56 32.87 33.02 33.33 33.25 33.25 33.46 33.24 40.84 43.35 43.56 43.48 42.16 43.17 43.37 44.10 44.28 44.44 43.03 41.55 39.59 39.42 39.66 39.29 40.23 40.13 40.13 37.92 37.63 38.81 38.02 37.71 37.39 36.55 36.17 35.21 34.31 33.84 33.58 32.95 32.51
23.54 32.12 31.92 26.60 32.71 33.64 33.65 36.02 36.86 33.89 38.88 43.49 42.90 42.68 41.16 41.84 42.51 42.49 42.99 44.40 42.98 36.41 35.87 36.13 37.67 38.31 37.68 38.66 39.12 37.99 37.39 36.97 36.64 36.55 35.73 35.24 35.07 34.44 33.42 32.80 32.61 31.55 31.22 30.33
24.28 28.44 23.26 33.55 38.96 39.67 36.75 38.96 41.48 41.80 42.61 42.98 43.59 42.29 41.62 39.67 40.51 39.29 38.95 40.70 37.15 35.57 35.24 35.61 36.19 37.03 37.67 37.53 37.09 36.43 35.68 35.51 35.64 34.86 34.23 34.27 33.82 32.94 32.44 32.30 31.24 30.99 30.99 31.02
27.03 27.33 29.43 36.14 38.73 37.00 35.48 36.65 42.98 41.64 42.37 43.94 42.18 43.13 40.02 37.71 36.63 35.26 35.22 35.10 34.90 35.31 35.18 35.69 36.00 36.37 36.00 35.09 35.16 34.63 34.06 34.15 33.68 34.17 33.51 33.07 32.11 31.57 31.53 31.39 31.28 31.19 31.28 30.03
28.92 22.74 22.32 35.82 38.89 40.94 41.46 35.19 42.66 42.85 42.69 41.73 39.99 39.69 38.53 37.59 35.92 34.72 34.76 34.92 34.61 35.39 35.61 35.58 35.75 36.04 34.94 34.23 33.68 32.67 33.51 32.92 33.91 33.55 32.92 32.02 31.90 31.56 31.58 31.42 30.95 30.41 29.24 28.63
28.36 26.14 29.62 36.96 40.36 42.57 32.12 33.08 41.66 43.18 43.82 41.04 39.77 40.21 37.82 38.04 36.22 36.10 36.07 36.21 37.20 36.91 35.91 35.83 36.32 35.75 34.38 34.14 33.04 33.69 35.06 34.87 34.45 34.11 32.81 31.95 31.19 31.37 30.74 29.77 28.79 26.90 25.61 26.14
30.75 28.30 22.35 39.40 40.22 36.21 39.70 40.93 42.53 42.87 42.59 40.25 40.05 38.22 37.18 37.30 36.98 36.84 35.95 35.99 36.19 34.99 33.97 37.04 37.34 36.24 33.74 33.56 33.11 34.25 34.08 33.33 32.14 31.61 32.37 31.98 30.11 28.58 27.64 26.89 24.92 25.04 25.31 24.70
31.55 30.72 37.88 39.42 40.75 41.00 41.72 40.27 39.49 41.76 41.74 40.82 39.26 36.20 35.35 35.03 36.27 36.77 36.77 35.70 35.32 34.84 35.72 36.58 35.66 35.61 33.30 31.88 32.34 31.31 30.61 30.83 30.98 31.20 29.96 28.48 26.27 25.46 25.23 25.85 25.00 23.32 23.48 22.25
36.11 40.31 39.62 41.14 40.20 40.65 39.65 38.16 38.12 39.84 42.10 42.71 39.58 38.26 36.29 35.09 34.16 34.18 34.17 33.06 33.62 32.90 30.89 29.57 30.64 30.90 30.47 30.82 31.48 31.11 30.13 29.70 28.58 26.98 26.31 26.30 26.86 26.18 24.80 23.89 22.47 22.37 22.03 20.56
37.49 40.33 39.03 39.52 40.54 39.44 38.37 38.09 37.73 38.11 40.94 42.51 40.36 38.05 37.55 36.67 35.36 34.97 34.52 34.02 33.42 31.66 30.07 29.29 30.27 30.27 31.34 31.85 31.72 29.84 28.58 26.61 26.59 26.44 25.29 24.22 24.43 23.39 23.02 23.25 23.77 22.00 21.89 22.29
36.57 42.65 41.24 39.14 39.08 39.33 37.57 36.84 37.26 39.08 38.86 40.69 38.92 37.65 37.88 37.39 37.51 35.77 33.77 32.06 30.57 29.68 29.01 29.18 30.01 30.40 31.13 31.85 31.05 28.46 25.86 25.61 25.13 24.21 23.68 22.93 22.13 22.18 30.31 29.91 30.25 29.57 29.05 26.35
41.18 41.71 40.96 39.67 38.25 37.87 36.65 36.51 37.61 38.29 38.66 37.31 38.59 37.91 37.33 34.12 32.18 33.78 31.31 30.31 29.37 28.87 29.46 30.33 30.61 30.44 31.09 30.60 28.37 26.65 24.97 24.88 25.17 23.43 21.81 21.23 20.27 19.60 19.05 22.69 28.79 29.54 29.83 29.97
44.25 42.81 38.89 38.53 37.03 36.22 36.14 36.55 37.18 35.61 36.20 35.85 35.54 36.17 35.27 32.75 32.14 30.61 29.71 29.60 29.83 30.02 30.09 30.15 29.76 28.71 28.23 28.39 26.63 25.76 25.94 28.89 22.72 21.62 21.04 19.85 19.56 19.53 19.46 19.09 18.15 18.66 24.87 27.43
41.38 41.44 40.96 38.05 35.42 34.84 34.82 33.99 32.76 32.49 32.58 32.22 33.77 33.43 31.82 30.45 29.32 28.73 29.62 30.13 30.08 29.67 29.21 29.02 27.58 26.02 27.81 27.43 25.78 24.19 23.34 22.12 21.14 20.61 20.99 21.85 20.39 20.27 19.38 18.98 18.33 17.70 18.63 22.41
39.19 38.59 37.45 35.62 34.08 33.52 33.06 32.61 31.21 31.58 31.30 30.89 30.44 29.59 29.09 29.35 28.79 29.21 29.42 29.55 28.19 26.95 27.48 26.61 25.60 25.72 26.56 25.36 23.76 23.25 24.02 27.86 23.96 20.26 20.01 19.82 19.84 19.68 19.00 18.32 17.68 17.72 17.78 18.52
39.65 36.98 34.13 31.72 32.99 33.18 33.50 33.87 34.08 32.85 31.66 30.46 29.20 29.28 28.60 28.63 28.41 27.77 27.63 28.17 27.51 26.05 24.75 25.30 24.55 25.42 25.50 24.75 23.00 21.64 21.03 22.22 25.66 19.86 19.26 19.47 19.34 18.86 18.48 18.42 17.93 17.67 17.52 20.48
40.25 41.49 39.66 37.46 35.26 34.51 34.80 34.73 34.22 33.15 30.56 29.76 29.27 28.75 27.17 26.67 25.74 25.52 25.36 25.61 24.71 23.66 23.84 23.76 23.85 23.67 23.30 23.05 22.06 20.52 20.13 19.69 20.02 18.86 19.03 19.45 19.42 18.59 18.13 18.35 17.80 17.15 17.30 19.62
40.38 40.74 40.27 38.96 37.73 36.59 35.27 33.97 32.78 31.33 30.29 29.84 28.80 27.09 26.39 25.87 25.35 24.57 25.10 24.15 23.13 22.47 22.45 25.19 28.26 23.94 22.52 24.64 21.66 19.70 19.45 19.20 18.57 18.32 18.62 20.73 17.74 18.00 17.72 17.58 17.39 17.14 16.95 18.57
38.83 41.73 40.97 39.41 38.96 37.17 35.21 33.89 31.67 30.50 30.16 29.80 27.61 26.20 25.23 25.18 25.50 24.80 24.42 22.57 23.02 24.04 25.15 24.12 21.68 21.14 21.83 24.26 24.06 18.99 18.42 17.83 17.36 17.02 17.92 16.30 16.64 16.87 16.71 19.13 18.90 18.20 17.49 18.49
37.33 39.58 40.49 38.51 36.82 36.14 34.21 32.49 31.02 29.65 29.34 28.83 27.51 26.00 25.14 25.19 24.98 24.25 23.38 22.28 23.33 26.75 24.68 24.95 20.59 20.01 21.14 22.32 19.68 17.99 17.42 16.81 16.38 15.07 15.77 15.26 15.90 16.33 16.65 17.03 17.13 17.66 17.65 17.94
36.86 36.48 36.27 34.92 33.67 32.16 32.24 32.04 31.59 29.71 28.63 27.59 27.17 26.28 24.93 23.80 23.49 22.47 23.52 23.63 24.80 29.22 23.10 21.06 20.44 23.86 22.78 23.57 18.01 17.32 16.89 16.58 15.69 15.12 14.69 15.09 15.34 14.04 12.33 12.42 12.54 15.72 16.15 14.60
34.80 34.72 33.80 32.81 32.07 31.10 31.29 30.21 29.61 28.67 27.11 26.44 25.79 25.42 25.50 25.05 24.78 23.25 21.29 23.61 24.81 26.38 21.14 21.18 26.18 27.62 26.02 17.21 17.24 16.89 16.38 15.85 15.64 15.48 13.12 10.83 11.48 8.76 9.23 10.40 12.41 13.04 11.92 12.87
32.54 32.57 32.04 30.57 29.68 28.98 27.66 28.61 29.02 28.45 27.34 26.74 26.31 26.54 25.48 23.96 23.08 23.76 25.84 28.32 28.53 26.31 22.46 24.50 25.58 26.58 22.37 16.69 16.09 15.11 14.97 14.97 12.12 9.45 12.11 18.24 8.54 8.31 8.98 10.74 11.14 12.01 12.31 13.69
27.49 26.27 25.35 26.12 26.09 25.61 25.30 25.50 26.27 26.12 25.75 25.12 24.77 24.97 25.70 25.74 24.48 24.41 25.49 26.24 29.19 25.14 23.15 27.48 26.56 24.71 16.47 15.96 15.31 14.64 12.82 9.52 6.02 7.84 10.40 8.09 7.44 6.72 8.70 10.15 10.52 11.53 11.79 11.13
28.40 28.08 27.48 27.26 26.06 25.52 25.57 26.31 25.38 25.33 25.36 24.08 24.05 24.13 24.26 25.09 25.68 24.94 25.16 26.27 24.71 25.54 21.10 19.51 18.07 17.08 16.06 15.25 14.88 14.07 12.86 11.76 12.88 12.13 13.04 9.63 8.67 8.01 9.12 10.57 10.84 11.20 12.29 11.53
25.02 27.43 23.97 24.95 25.27 25.69 26.43 25.98 25.22 25.03 26.07 25.02 23.37 23.97 24.72 24.53 24.82 24.71 25.56 22.99 21.30 19.18 17.41 17.25 17.38 17.36 15.67 15.03 14.05 13.31 11.36 11.02 14.95 12.63 9.23 7.09 7.27 6.80 9.69 10.70 10.57 11.14 12.03 12.83

GFSNGP_sfc_wetblb_054.txt.gz
Wetbulb
30.18 32.31 32.25 31.29 29.76 30.22 27.47 30.05 22.83 27.24 28.34 33.41 37.37 39.28 41.86 45.08 43.57 44.08 44.54 45.40 45.67 45.67 46.01 44.26 39.08 36.36 36.69 37.37 38.42 39.69 39.48 38.68 37.90 38.96 40.20 38.98 38.72 38.19 37.96 37.08 35.82 35.10 34.41 34.60
25.52 31.36 32.13 29.63 32.26 31.73 31.42 31.40 31.07 31.59 30.94 38.98 41.39 44.59 43.91 41.82 41.60 42.02 41.77 42.59 45.00 43.53 41.16 38.15 33.72 35.28 37.41 38.51 39.52 40.19 39.62 38.35 38.78 38.44 37.36 37.55 36.85 36.12 34.88 34.54 34.30 33.96 33.14 33.06
22.86 30.48 30.15 25.21 30.99 32.21 32.14 33.20 34.61 30.66 35.86 41.59 42.80 43.44 40.57 37.38 38.53 38.33 36.82 42.29 39.42 35.41 35.26 35.35 34.07 36.12 35.70 36.73 38.15 37.36 37.08 36.97 37.15 36.34 34.82 34.63 34.73 34.26 33.55 32.83 32.94 32.27 31.99 32.09
24.19 27.21 21.87 31.62 37.21 36.89 34.01 35.72 37.77 39.66 42.22 43.66 43.62 40.66 37.45 36.39 35.42 35.06 34.91 34.85 34.75 34.37 34.60 35.79 36.80 36.58 36.78 36.39 35.60 35.12 34.63 34.88 35.53 35.05 34.49 34.52 33.94 32.64 32.44 32.50 32.30 32.33 31.98 32.03
27.44 24.45 27.83 34.58 37.71 36.55 35.37 35.77 41.13 41.72 43.22 43.51 43.48 40.24 37.24 37.85 35.55 34.06 33.96 34.35 34.51 35.37 35.56 35.61 35.32 35.62 34.72 34.17 34.27 34.08 33.84 34.20 34.48 34.27 33.29 33.00 32.01 31.49 31.31 31.12 31.15 31.04 31.13 30.19
29.67 20.93 21.24 32.91 37.52 40.85 40.43 32.63 41.46 43.35 42.44 41.78 40.64 39.25 39.59 37.13 35.48 34.02 34.66 35.00 34.60 35.29 35.44 35.13 35.04 35.16 33.98 33.39 33.32 32.75 33.48 33.54 33.60 33.16 32.21 31.51 32.12 32.52 32.59 32.22 31.15 31.19 29.47 27.94
28.83 27.06 27.70 35.19 37.19 41.38 29.44 31.81 40.88 41.77 41.51 39.72 38.53 39.88 38.19 37.32 35.24 35.85 36.42 36.25 36.52 35.82 34.65 35.16 36.02 36.04 34.61 33.99 32.25 32.59 33.96 33.02 32.91 33.79 33.84 33.49 32.59 31.99 31.21 30.17 28.51 26.65 26.11 24.71
30.03 27.39 22.36 37.90 39.46 35.97 38.63 40.75 41.17 40.76 42.53 38.94 37.95 37.80 37.61 37.20 35.86 35.68 35.57 35.50 35.67 34.61 34.12 36.69 36.55 35.33 32.76 31.56 32.50 33.27 34.04 34.04 33.91 33.79 34.76 33.38 31.35 29.84 27.97 26.62 23.40 23.32 23.37 22.60
30.66 29.92 36.83 37.82 38.88 42.76 41.04 39.58 38.92 38.71 40.04 39.36 36.61 36.87 36.84 36.27 36.72 35.96 34.72 34.77 36.05 35.24 35.13 34.88 36.55 34.92 32.18 32.72 33.91 33.32 33.18 31.93 31.46 31.21 30.26 28.84 26.48 24.72 23.59 23.93 23.56 22.14 22.83 21.15
34.74 38.72 37.68 39.57 39.94 40.23 38.76 37.83 37.83 37.94 40.12 39.72 36.86 36.10 35.17 34.96 36.12 36.20 35.91 36.06 36.44 35.25 32.98 31.59 33.07 34.29 33.29 33.29 32.42 31.48 30.44 29.73 28.16 25.93 25.36 25.33 25.62 25.31 23.83 22.42 21.45 22.00 21.92 20.22
35.09 39.52 40.24 39.06 39.66 38.86 38.21 37.03 37.76 37.84 40.72 40.26 38.05 36.01 35.22 34.58 34.50 33.87 33.65 33.33 32.54 30.28 29.47 28.84 30.32 30.43 31.17 31.48 32.60 31.52 28.10 25.24 25.46 25.97 24.29 23.17 23.74 22.94 22.28 22.03 23.40 21.79 21.38 21.95
34.79 41.39 42.27 41.70 39.39 39.15 37.53 36.25 37.00 38.59 39.65 41.27 40.21 37.27 36.36 35.35 35.36 34.40 33.49 33.14 31.26 30.02 29.36 29.55 30.28 30.41 30.86 31.15 30.07 26.97 24.74 24.80 24.58 23.52 22.44 22.15 21.44 21.25 30.66 30.15 30.46 29.80 29.44 26.33
39.19 41.55 40.65 39.19 38.47 37.30 36.72 35.87 36.67 38.75 39.13 37.53 39.14 38.96 38.20 36.44 35.61 34.99 32.19 31.02 29.79 29.10 29.53 29.99 30.12 29.90 29.58 28.49 27.41 26.19 24.65 24.33 24.53 22.30 20.37 19.39 18.79 19.10 18.91 22.16 28.27 29.09 29.42 29.34
43.83 42.39 39.25 39.18 38.49 36.54 35.95 36.48 37.26 36.42 38.34 38.43 37.87 38.14 34.70 34.37 34.13 30.99 30.18 30.08 29.86 30.01 29.97 29.94 28.87 27.99 27.34 27.41 25.90 24.67 24.59 28.23 21.37 19.69 19.38 18.37 18.68 19.06 18.93 18.46 17.51 18.10 23.82 26.32
39.61 39.68 38.70 36.26 34.90 34.03 33.79 33.92 33.08 32.36 32.61 33.39 35.36 34.32 33.27 31.23 31.39 30.26 29.76 30.21 30.36 29.88 29.41 29.10 27.02 25.08 26.77 26.64 25.29 23.34 22.28 20.80 20.05 19.96 19.95 20.81 20.03 19.51 18.73 18.44 17.51 16.78 17.81 21.47
40.71 38.70 36.25 34.85 33.93 33.07 32.49 32.02 31.33 30.45 30.59 30.64 30.64 31.37 32.24 31.84 29.72 29.28 29.67 29.97 28.41 27.60 28.15 27.44 26.43 25.07 25.43 24.38 22.81 21.93 22.38 25.73 22.66 19.80 19.74 19.41 19.22 18.71 18.17 17.51 16.83 16.84 16.76 17.42
37.61 38.30 36.90 34.49 33.22 32.46 31.77 32.09 32.60 31.87 29.94 29.21 28.49 29.64 29.75 28.94 28.41 28.13 28.77 29.46 28.73 27.50 27.23 27.04 24.43 24.95 24.58 23.70 22.61 21.78 21.49 22.10 24.71 19.41 18.79 18.92 18.61 17.93 17.69 17.61 16.96 16.63 16.52 19.28
37.06 38.32 40.31 39.81 35.14 34.08 33.94 34.16 33.81 32.45 30.34 29.99 29.68 29.36 28.54 27.87 26.89 26.57 26.54 26.61 26.08 25.64 25.65 24.18 24.30 23.95 23.57 22.50 21.50 20.08 19.82 19.21 19.28 17.98 18.59 19.00 17.83 17.69 17.32 17.36 16.85 16.27 16.37 18.59
37.51 38.31 40.41 40.60 38.41 36.71 35.24 34.13 33.30 31.49 30.28 29.92 28.97 28.00 28.43 27.76 26.77 26.13 26.56 25.85 24.57 23.29 22.61 24.05 28.53 23.80 21.52 23.21 21.35 19.30 19.07 18.50 17.80 17.58 18.39 20.04 17.05 17.24 16.70 17.06 16.91 16.65 16.44 17.79
36.86 40.15 39.69 38.39 37.94 36.38 34.14 32.98 31.43 30.30 30.41 29.93 28.20 26.41 25.48 25.71 25.82 25.69 26.06 24.65 25.03 24.10 24.48 25.18 22.79 22.02 22.04 24.35 24.25 18.39 17.74 17.12 16.75 16.40 17.04 15.51 16.21 16.16 16.36 18.57 18.18 17.38 16.63 17.60
37.02 38.48 40.34 38.39 36.79 35.42 34.76 32.73 31.36 29.79 29.47 28.30 27.02 25.66 24.91 25.17 25.73 25.03 23.61 22.66 22.60 26.90 23.76 25.75 21.43 20.60 21.33 22.84 19.61 17.44 16.81 16.25 15.80 14.68 15.24 14.69 15.41 15.66 15.82 16.07 15.98 16.61 16.84 17.00
35.58 35.89 37.19 35.99 35.20 33.44 32.57 32.66 30.38 28.61 27.33 26.71 26.51 25.74 24.60 23.51 23.67 22.98 23.81 23.59 24.71 29.30 23.49 20.90 20.22 23.84 22.30 24.22 17.62 16.94 16.28 16.00 15.06 14.48 14.32 14.65 14.85 13.17 10.87 10.88 10.67 14.63 14.88 13.29
33.61 34.35 34.73 33.95 32.10 30.89 31.63 30.87 29.87 29.01 27.38 26.83 25.83 25.14 25.16 25.01 25.14 23.84 21.72 24.19 26.31 26.47 21.11 20.24 24.77 28.17 27.01 17.18 17.18 16.70 15.89 15.32 15.15 15.01 12.23 9.82 10.60 7.81 8.03 8.39 10.49 11.48 10.13 11.87
30.73 31.18 31.75 30.32 29.38 28.53 27.38 28.97 29.33 28.81 27.53 26.47 26.13 26.70 25.53 23.82 23.07 24.50 26.40 28.74 28.50 27.09 21.30 23.34 27.26 28.13 23.28 16.63 15.86 15.06 14.73 14.57 11.88 8.64 10.77 17.19 7.09 6.87 7.37 8.45 9.28 10.61 10.99 13.04
28.47 27.81 26.17 25.90 26.45 26.68 26.39 26.76 27.04 26.35 25.88 25.30 25.44 25.76 26.00 25.84 25.07 24.12 26.12 26.34 29.59 25.10 22.81 29.26 28.82 26.40 16.69 16.13 15.32 14.29 12.68 8.74 5.08 7.32 9.55 7.28 6.60 5.52 6.63 8.11 8.72 9.77 11.07 10.59
27.16 28.14 27.72 27.28 26.85 25.86 25.51 26.03 25.31 25.81 25.55 24.51 24.59 24.82 24.32 24.60 25.67 25.47 25.54 27.11 25.56 25.90 21.66 21.91 19.97 17.68 16.23 15.73 15.08 13.97 12.50 11.07 12.28 11.35 11.78 8.75 6.99 6.16 7.12 8.79 9.18 9.77 11.39 10.61
27.02 30.52 27.09 26.30 25.59 25.30 24.99 24.89 24.64 25.06 26.88 25.71 24.39 24.32 24.39 25.08 25.52 25.63 26.84 24.70 23.80 21.40 19.16 18.26 18.48 18.10 16.07 16.09 14.79 13.43 10.77 10.35 14.09 11.68 8.53 6.03 5.62 4.81 8.15 8.98 8.78 9.77 11.02 11.64

GFSNGP_sfc_wetblb_057.txt.gz
Wetbulb
29.39 31.49 31.54 29.82 29.50 30.01 26.84 28.14 20.96 24.92 27.14 32.06 36.21 37.31 39.86 42.35 42.11 41.66 42.21 40.25 40.68 44.27 45.20 38.97 38.38 37.83 37.28 37.97 38.13 38.80 38.67 39.61 40.56 41.00 40.69 40.38 39.67 38.89 37.83 36.54 35.26 35.04 34.62 34.66
24.97 30.80 31.32 29.31 31.51 30.89 31.03 31.44 30.72 31.55 30.67 38.54 40.11 41.22 43.49 40.89 38.86 39.21 38.30 36.35 41.33 38.54 37.07 35.41 35.34 34.32 35.54 35.55 37.05 37.85 38.03 37.52 38.20 37.89 37.23 36.11 35.43 34.68 34.82 34.51 34.47 34.83 34.84 35.14
20.38 29.17 29.32 24.91 30.02 31.16 31.33 31.58 33.27 29.31 34.66 40.12 40.55 43.16 42.24 37.89 36.91 36.39 36.19 35.52 34.18 33.98 34.82 35.33 35.05 34.28 34.09 34.85 36.28 36.07 35.43 35.17 35.21 35.47 34.97 35.12 35.05 34.83 34.39 34.07 34.60 33.95 33.52 33.75
25.35 26.40 22.63 30.12 34.42 35.53 33.33 34.52 35.78 37.29 38.94 40.58 43.11 42.73 38.09 37.14 34.74 34.46 33.94 34.32 34.27 34.79 35.33 36.08 36.64 36.01 36.04 36.26 35.76 35.45 34.79 34.84 35.47 35.46 34.58 34.41 33.76 33.05 32.95 33.08 32.58 32.13 32.09 32.30
27.40 24.79 26.67 32.51 36.22 33.56 32.65 34.82 38.06 37.63 40.47 43.65 42.96 39.49 39.50 37.80 34.44 33.86 33.56 34.23 34.59 35.32 35.22 35.54 35.47 35.81 35.37 35.04 35.22 35.01 33.91 33.76 34.50 35.08 33.99 33.53 32.46 32.17 32.24 31.96 31.92 31.76 31.79 31.48
29.44 22.92 20.42 30.00 36.64 39.73 39.59 32.51 40.67 42.37 42.77 39.60 39.68 37.80 39.14 35.69 33.69 33.86 34.82 34.91 34.49 35.08 35.23 34.59 34.70 35.17 34.30 33.90 33.99 33.56 34.14 34.09 34.21 34.09 33.42 32.36 32.06 31.84 32.02 32.39 31.99 31.75 30.14 29.64
28.24 26.39 26.56 33.58 36.47 41.10 29.75 31.99 41.82 40.38 41.07 42.14 39.95 39.61 36.98 35.38 33.89 35.03 36.01 35.33 35.76 35.81 35.09 35.64 36.38 35.50 33.55 32.86 31.47 33.14 34.33 34.16 34.04 34.16 33.13 32.81 32.02 31.98 32.01 31.85 30.48 27.98 25.72 25.39
30.90 26.94 21.87 36.13 38.49 35.07 39.17 41.31 42.13 40.52 41.37 41.48 39.08 38.22 37.32 35.30 35.21 35.37 35.27 35.13 35.75 35.25 35.11 36.08 35.84 34.39 32.59 31.34 32.65 32.58 33.07 32.90 32.83 32.99 34.88 34.10 32.28 31.31 29.22 25.76 24.38 24.74 24.13 23.63
29.74 28.86 35.17 38.43 39.34 41.94 42.46 40.59 39.71 39.41 39.95 39.08 37.24 37.04 37.18 36.62 36.15 34.40 34.59 34.75 35.62 35.24 35.13 36.12 35.68 34.45 32.16 32.69 35.05 33.91 33.30 33.20 33.19 33.17 31.59 28.03 25.02 23.25 22.21 22.88 22.04 21.40 23.07 21.11
33.17 37.66 37.55 39.30 39.27 39.32 41.16 38.50 37.07 38.31 40.83 38.56 36.92 37.68 36.46 36.72 35.97 34.85 34.96 34.59 35.80 34.73 33.44 33.36 34.69 34.31 34.09 34.46 34.35 32.64 31.09 29.54 26.03 23.94 23.52 23.37 24.08 23.34 22.07 21.05 20.72 22.19 21.85 20.65
35.84 37.01 39.71 40.56 40.40 41.72 39.76 37.23 36.71 37.69 39.96 38.57 37.41 36.60 36.01 35.59 34.28 35.07 35.42 35.08 32.20 32.11 30.30 31.48 33.54 33.12 32.60 32.53 32.56 29.52 25.33 24.72 24.33 23.70 22.10 21.84 22.69 21.09 20.80 21.09 23.38 21.93 21.24 21.64
32.21 38.57 40.12 39.92 41.78 41.11 38.03 37.03 36.95 37.87 39.42 39.03 38.85 36.89 36.43 35.58 34.82 33.78 31.28 31.23 29.92 30.43 30.05 30.16 30.61 30.41 31.16 32.23 30.30 25.67 24.15 23.75 23.09 22.22 21.94 22.62 21.99 21.59 31.25 30.63 30.92 30.44 29.50 26.29
37.76 39.47 40.36 41.20 39.84 37.95 37.25 36.21 36.66 38.27 40.55 39.44 39.06 37.98 36.93 35.92 34.93 35.75 33.34 31.55 29.25 29.70 30.06 30.19 29.66 27.34 27.71 27.94 26.97 25.47 23.26 23.37 23.34 20.98 18.95 17.93 17.69 18.77 18.48 22.13 28.47 29.33 29.11 28.57
42.63 42.31 39.76 38.22 38.55 36.72 35.37 36.03 37.85 36.95 37.97 38.36 39.41 38.47 37.19 35.75 35.50 32.10 31.12 30.87 29.87 29.37 29.62 28.25 27.25 26.64 26.77 26.84 25.71 24.45 24.04 27.52 20.59 18.52 18.49 17.85 18.56 18.73 18.49 17.93 16.99 17.44 23.26 25.82
39.75 39.30 38.36 36.58 34.09 33.68 33.45 33.58 33.72 34.20 34.47 34.42 37.15 35.84 36.13 34.57 31.26 31.22 30.56 30.50 30.46 30.08 29.30 28.83 25.84 24.84 25.91 25.80 24.80 23.15 21.87 20.26 19.44 19.26 19.37 20.67 19.40 18.68 18.12 17.83 16.76 15.97 16.96 20.71
38.07 39.50 38.86 37.36 35.42 33.08 32.13 32.15 32.01 31.12 31.91 31.39 32.58 33.90 33.98 33.39 31.53 29.87 29.96 30.26 28.85 28.03 28.41 27.69 25.08 25.00 25.40 24.29 22.69 21.65 22.15 26.01 22.94 19.83 19.43 18.87 18.50 18.01 17.49 16.81 16.00 15.96 15.94 16.57
35.11 34.68 38.27 37.02 36.34 35.06 32.08 32.36 32.41 31.08 30.24 29.85 30.00 31.25 31.51 30.68 29.41 28.52 29.02 30.17 29.56 28.45 28.03 27.48 25.13 24.92 24.15 23.22 22.45 21.70 21.59 21.96 24.52 19.00 18.43 18.30 17.71 17.16 17.02 16.80 16.19 15.93 15.76 18.36
35.33 35.85 36.71 37.46 38.47 37.21 34.71 34.10 33.08 31.29 31.20 30.82 30.35 30.09 29.68 29.16 27.95 27.59 27.19 27.06 26.74 26.37 26.73 26.34 24.56 24.06 23.45 22.68 21.94 20.76 20.48 19.14 18.67 17.51 18.16 18.20 17.00 17.05 16.59 16.73 16.29 15.71 15.80 17.91
37.68 36.99 37.07 37.93 39.03 38.76 36.07 34.29 33.45 32.44 30.72 30.29 29.86 29.26 29.78 29.53 28.25 27.00 27.01 26.55 25.99 25.10 24.26 24.58 28.91 24.19 21.58 22.99 21.55 19.13 18.73 18.15 17.33 17.23 18.03 19.96 16.77 16.63 16.24 16.65 16.59 16.20 15.88 17.10
36.57 37.44 38.64 37.13 37.39 35.24 34.28 33.60 31.70 30.48 30.54 30.37 29.92 29.10 27.95 27.70 27.24 26.50 26.93 26.06 26.99 26.54 23.93 25.81 22.05 21.00 21.18 24.65 24.72 18.12 17.37 16.75 16.30 16.14 16.04 15.04 15.80 15.70 15.90 18.07 17.66 16.70 15.95 16.97
35.12 35.98 39.01 38.13 35.84 34.36 32.88 32.10 31.33 30.12 30.35 30.15 28.64 27.77 26.82 26.27 26.78 26.74 24.63 23.39 22.91 26.97 24.83 26.48 21.42 20.85 21.17 23.19 20.18 17.02 16.44 15.94 15.58 14.70 15.16 14.48 15.04 15.13 15.33 15.55 15.47 16.00 16.23 16.52
33.59 34.00 35.34 35.69 35.15 33.37 33.24 32.83 32.08 30.58 29.39 27.87 26.94 25.66 24.43 23.84 24.30 23.76 24.29 24.75 24.35 29.62 24.76 21.58 21.06 23.89 21.98 25.96 16.97 16.32 15.97 15.78 14.90 14.09 13.87 14.23 14.65 13.42 10.88 10.40 10.18 13.91 14.32 12.44
31.66 31.98 33.87 34.95 33.23 32.68 32.23 31.15 28.37 27.31 25.90 26.10 25.58 24.53 24.49 24.32 24.62 23.38 22.36 23.92 26.02 27.20 21.67 20.48 24.39 28.19 28.62 16.97 16.94 16.49 15.77 15.13 14.70 14.25 11.79 9.41 10.33 7.64 7.62 7.77 9.54 11.41 9.24 10.69
29.95 29.61 29.15 29.87 31.10 30.18 29.23 29.64 29.64 29.50 27.25 26.57 25.86 25.97 25.16 23.61 22.96 24.58 26.43 28.45 29.08 27.51 20.61 22.25 26.86 29.50 27.45 16.71 16.01 15.41 14.86 14.33 11.61 8.88 10.37 17.16 7.02 6.35 6.61 8.59 8.88 9.71 9.90 12.19
28.21 28.28 26.92 26.92 27.04 27.26 26.40 26.86 27.72 27.35 27.03 26.32 25.77 25.53 25.73 26.65 25.95 24.46 25.84 26.99 29.96 25.44 21.99 28.57 30.12 29.67 16.67 15.30 15.08 14.64 13.13 9.85 4.92 7.32 9.35 7.39 6.68 5.54 7.42 8.29 8.31 8.88 9.28 9.85
27.14 27.41 27.23 27.23 26.33 26.49 26.29 26.35 25.46 25.21 25.90 24.95 25.17 25.46 25.24 25.25 25.79 26.11 25.98 27.56 26.84 25.41 22.89 24.66 23.44 19.94 15.79 14.99 14.96 14.83 13.71 11.71 13.08 11.89 11.59 9.11 7.27 6.82 7.76 8.67 8.73 8.98 10.32 9.42
28.21 30.15 26.68 27.19 27.47 26.09 25.45 25.47 24.45 23.97 26.90 25.90 24.67 25.09 25.28 25.50 26.12 25.41 27.33 26.06 24.54 23.13 21.73 21.08 21.66 19.88 16.26 16.12 15.12 14.16 12.17 11.65 14.66 12.14 10.30 6.28 5.43 5.36 8.36 8.82 9.05 9.26 9.66 10.54

GFSNGP_sfc_wetblb_060.txt.gz
Wetbulb
29.07 30.92 30.62 29.24 29.56 28.93 24.60 25.88 21.39 24.12 25.16 30.68 34.21 36.25 37.64 40.87 40.88 38.82 38.33 35.11 35.01 35.72 34.46 34.19 35.62 36.86 37.42 36.13 36.16 37.79 37.49 38.61 39.77 40.53 40.79 39.80 38.61 37.98 38.16 37.96 37.35 36.09 35.21 35.31
24.62 30.37 30.69 29.04 30.69 30.19 30.15 30.48 28.69 29.78 29.96 38.33 39.95 40.17 39.79 41.14 37.87 36.49 35.78 35.62 35.30 33.77 35.42 34.73 35.12 33.67 33.39 33.64 34.44 34.56 35.00 35.93 36.59 36.19 36.43 37.13 36.74 36.21 36.87 35.72 35.24 36.08 35.79 36.48
19.94 28.23 29.02 24.68 29.32 30.60 30.25 30.86 31.83 27.27 34.16 39.24 39.00 40.45 42.22 38.59 36.40 34.71 34.91 34.96 34.28 33.50 35.11 35.31 35.22 35.40 34.45 34.61 36.13 35.67 35.10 35.37 35.69 35.78 35.88 35.57 35.93 35.28 34.84 34.55 35.01 34.95 35.45 35.92
25.46 26.11 21.08 29.17 33.35 34.92 32.59 33.16 33.99 35.15 37.88 39.44 40.27 42.50 38.56 36.81 34.03 32.25 33.43 34.06 34.17 34.68 35.41 36.04 36.07 35.82 36.38 36.69 36.04 35.69 35.25 35.33 35.46 35.10 34.49 34.75 34.45 34.06 34.05 34.18 33.78 33.73 33.75 34.05
26.26 24.30 26.93 32.00 34.19 32.45 32.14 33.19 36.34 35.96 38.66 40.09 42.72 40.93 37.93 35.91 34.60 31.41 31.86 34.19 34.32 34.82 34.78 35.07 35.14 35.91 35.67 35.21 35.53 35.15 34.52 34.91 35.14 34.78 34.19 33.79 32.81 32.69 33.40 33.06 32.53 32.32 32.17 32.42
28.10 22.95 20.29 28.55 35.86 37.85 38.35 34.75 40.64 39.69 39.44 40.73 40.91 37.30 38.72 35.71 33.49 32.23 33.11 34.85 34.52 34.84 34.87 34.48 34.76 35.29 34.49 33.80 33.77 33.21 33.93 34.04 34.51 34.31 33.39 32.42 32.64 32.02 31.98 32.30 31.71 31.52 31.11 31.83
27.24 26.70 25.49 32.35 36.59 38.83 31.75 32.14 41.06 41.32 40.01 42.11 39.44 39.49 37.20 35.06 34.14 34.27 35.49 34.96 36.02 35.94 35.21 35.35 35.77 34.84 33.13 33.06 32.11 33.64 34.87 34.70 34.17 34.14 33.22 32.88 32.28 32.05 31.98 31.66 30.12 27.73 26.29 26.17
30.11 26.32 21.39 34.54 38.30 35.68 39.46 40.54 40.64 38.84 40.06 42.08 37.87 37.63 36.77 35.16 35.05 34.36 34.99 35.21 36.08 35.24 35.04 35.58 35.46 34.33 32.79 31.65 33.19 33.74 34.14 33.32 32.66 33.12 33.94 33.24 31.97 31.05 29.40 26.65 24.72 23.46 22.80 22.76
29.69 28.93 34.21 38.24 39.56 41.82 41.72 40.85 39.23 37.65 38.44 40.52 38.08 37.49 36.93 34.84 35.32 33.24 33.76 34.36 35.74 35.71 35.14 35.33 34.95 34.19 32.22 33.17 35.24 34.26 33.80 33.09 33.48 33.37 30.91 27.78 24.88 23.02 22.11 22.73 21.76 21.40 22.39 20.01
32.18 36.60 35.42 38.67 39.59 39.27 39.67 39.16 37.99 36.85 38.75 38.60 37.81 37.80 37.20 36.08 34.22 33.89 33.97 34.08 34.99 34.89 34.27 33.48 34.54 34.87 34.82 35.28 34.75 33.75 31.38 28.01 24.21 22.76 22.66 22.58 23.65 22.47 21.03 20.73 20.33 21.65 21.21 20.16
33.69 35.87 38.30 39.24 41.26 41.83 40.76 39.27 37.13 37.11 39.20 38.92 37.99 37.46 37.17 36.26 34.76 34.81 35.11 35.82 34.86 33.26 33.45 33.34 34.03 33.61 33.95 33.51 32.13 27.97 24.11 23.97 23.14 22.73 21.41 21.27 21.68 20.17 19.81 19.55 22.36 20.77 20.29 21.12
31.26 36.80 37.58 38.22 41.73 41.60 39.75 38.06 37.19 36.37 38.23 38.36 38.72 37.07 37.17 35.95 35.91 33.93 32.77 30.08 31.50 31.44 31.74 32.34 31.68 30.90 31.96 31.75 27.33 24.48 23.20 23.02 22.40 21.93 21.57 22.20 21.71 21.62 31.54 30.87 31.43 30.64 29.28 26.16
37.74 37.20 38.84 39.94 39.94 38.37 37.38 37.46 36.44 36.44 38.51 38.52 38.66 37.87 37.49 35.13 34.66 34.29 32.16 29.55 31.49 31.53 31.25 30.93 30.32 29.53 30.29 27.81 26.16 24.87 22.41 22.43 22.45 20.08 18.08 17.48 17.33 18.62 17.79 22.24 29.05 28.97 28.95 28.51
39.91 40.56 40.09 39.62 37.53 37.48 36.31 35.78 37.38 35.93 37.39 38.09 37.61 38.56 37.71 35.53 36.31 33.73 31.57 31.28 28.96 29.50 30.36 29.51 27.88 25.99 26.83 26.13 25.26 24.08 23.56 27.06 20.16 17.89 17.99 17.27 17.89 18.03 17.79 17.39 16.48 16.81 22.72 25.53
36.17 38.19 38.47 37.40 35.28 34.04 33.63 33.79 33.40 34.74 34.77 34.98 36.55 36.57 36.73 35.00 33.64 32.75 31.69 30.48 29.28 29.16 27.55 27.34 25.85 25.07 25.79 25.54 25.10 23.40 21.87 19.85 18.97 18.68 18.85 19.93 18.61 17.99 17.58 17.22 16.07 15.28 16.18 20.10
36.36 37.39 38.26 37.64 37.70 36.10 34.13 33.70 32.35 32.66 32.84 32.65 33.23 34.49 36.00 35.20 33.16 31.83 30.75 30.38 28.93 27.59 27.45 27.01 25.59 25.14 25.20 24.54 23.14 21.72 21.78 25.04 22.46 19.73 19.02 18.21 17.79 17.39 16.90 16.20 15.31 15.32 15.34 15.90
34.35 34.98 36.13 35.92 37.35 37.11 34.96 34.79 34.24 32.47 32.01 31.65 32.21 31.95 32.66 32.10 30.94 29.85 29.53 30.43 30.34 29.26 29.02 28.02 25.49 25.18 24.70 24.12 23.02 22.09 21.90 22.20 24.40 18.63 17.96 17.68 17.09 16.64 16.46 16.18 15.58 15.36 15.24 17.74
35.95 35.93 35.11 34.91 34.99 36.03 37.91 36.16 34.70 33.77 32.26 32.51 32.58 32.19 31.17 30.59 30.38 29.62 29.18 28.69 27.89 27.18 27.61 27.29 25.72 24.74 24.44 23.58 22.72 21.12 20.63 19.13 18.32 17.31 17.82 17.55 16.53 16.56 16.05 16.24 15.86 15.37 15.41 17.27
36.60 36.36 37.15 37.62 36.80 36.58 37.42 37.04 34.62 33.78 31.78 31.18 31.20 30.47 31.33 31.39 29.82 28.79 28.85 28.39 27.67 25.89 25.44 26.20 29.04 25.38 22.97 24.05 22.33 19.76 18.81 17.90 16.99 17.07 17.51 20.15 16.82 16.18 15.86 16.28 16.17 15.85 15.35 16.54
35.49 35.84 36.86 38.72 35.21 35.17 34.95 34.01 32.62 30.71 30.10 31.00 30.78 29.95 29.32 28.92 28.77 28.28 28.69 27.68 28.59 28.20 25.93 27.31 24.63 22.95 22.46 25.91 25.31 18.29 17.37 16.67 16.13 15.92 15.74 14.74 15.33 15.27 15.50 17.91 17.62 16.33 15.47 16.43
34.24 34.47 35.15 36.37 35.10 33.30 32.81 32.23 31.17 30.12 30.42 30.85 30.09 29.41 28.82 28.40 28.42 28.25 27.12 26.79 25.52 27.92 26.82 28.27 23.60 22.24 22.38 24.36 19.96 16.96 16.34 15.79 15.48 14.90 15.81 14.38 14.66 15.03 14.94 15.20 15.29 15.58 15.68 16.07
32.90 32.38 32.83 35.06 35.06 33.45 32.82 32.50 32.03 31.02 30.12 29.27 29.21 28.57 27.66 26.40 27.21 26.47 25.94 26.12 25.06 30.30 27.00 23.23 22.91 24.79 23.20 26.70 16.96 16.30 15.81 15.56 14.74 13.89 13.47 13.73 14.16 13.39 11.28 10.47 10.62 13.50 13.88 12.13
30.82 30.97 31.11 31.73 33.19 32.24 32.51 31.27 30.60 30.46 29.08 28.61 27.55 26.55 26.06 25.47 25.42 24.23 23.48 24.34 26.55 28.29 23.29 22.27 25.59 28.89 29.42 16.39 16.46 16.16 15.68 14.96 14.50 13.74 11.40 9.56 10.55 8.11 8.14 8.61 9.38 11.09 9.70 10.54
29.30 29.11 29.02 29.00 30.34 31.54 30.26 30.50 29.14 28.46 27.43 25.83 25.42 24.89 24.36 23.05 22.79 24.31 26.14 28.23 29.49 28.46 21.85 23.67 27.81 30.09 28.73 16.40 15.51 14.80 14.52 14.27 11.26 8.89 10.61 17.57 7.60 6.97 7.22 9.11 9.00 10.23 9.61 11.57
28.00 28.06 28.42 27.83 27.07 26.71 25.94 27.97 28.98 28.77 27.73 26.60 25.63 25.62 25.09 25.40 24.92 24.11 25.64 27.10 30.32 26.00 22.13 29.11 30.28 30.61 17.39 15.38 14.92 14.40 13.13 10.80 8.04 10.10 10.09 7.51 7.13 6.82 8.67 8.92 8.67 9.24 8.77 9.45
27.34 28.25 27.43 27.43 26.64 26.37 26.20 26.33 25.57 25.69 26.79 26.61 26.73 26.86 26.43 26.11 25.70 25.71 25.62 27.27 27.48 25.42 21.97 24.93 25.62 22.98 17.94 16.18 15.49 14.59 13.33 12.46 15.02 14.39 12.79 10.57 8.98 9.33 9.19 9.08 8.79 9.10 10.18 9.32
25.22 28.45 26.89 26.50 27.53 27.27 26.15 25.80 25.04 24.98 26.38 25.55 25.48 25.70 25.84 25.72 26.47 26.04 27.27 26.36 25.79 23.67 23.07 24.43 25.53 22.44 18.11 17.59 16.64 15.88 14.55 13.65 16.24 13.66 10.99 9.30 9.74 8.73 8.91 8.82 8.46 9.45 9.50 9.97

GFSNGP_sfc_wetblb_063.txt.gz
Wetbulb
29.76 31.74 31.19 29.99 30.36 28.70 24.98 26.69 24.86 26.87 26.11 31.23 34.08 35.42 37.72 39.66 41.17 40.01 37.71 36.47 36.42 35.70 35.87 36.12 36.17 35.38 35.71 36.06 36.37 37.61 37.56 37.79 38.12 39.27 38.76 37.90 37.26 37.42 37.60 37.00 36.67 36.82 36.37 36.25
26.12 30.93 30.84 29.51 31.02 30.89 30.12 30.52 28.79 29.10 29.71 37.87 39.54 40.72 40.11 40.76 39.43 37.76 36.66 36.31 36.01 35.21 35.55 35.44 35.43 34.65 34.97 35.64 35.83 36.67 36.46 36.22 37.07 37.05 36.83 36.66 36.79 36.35 36.57 37.11 37.56 37.53 37.93 37.68
22.18 29.03 29.49 25.48 29.63 30.54 30.92 31.54 32.59 28.47 33.80 38.88 38.51 39.92 41.89 39.59 37.88 36.09 34.30 35.44 34.93 35.19 35.20 35.15 35.12 36.09 35.65 36.04 36.97 36.48 35.95 35.85 36.11 36.22 35.59 35.79 36.07 36.09 35.37 34.94 36.22 36.10 36.75 36.91
25.03 26.64 21.58 29.64 33.83 34.72 32.62 33.05 34.06 34.83 37.48 39.27 39.80 41.78 38.61 37.68 35.99 34.00 33.64 33.73 34.44 35.23 35.49 35.60 36.22 36.37 36.80 36.79 36.30 36.18 35.49 35.26 35.61 35.31 34.87 35.21 34.49 33.41 32.70 33.56 33.72 32.97 32.19 32.93
25.36 24.31 26.54 32.82 33.69 32.18 32.23 34.09 36.05 35.74 38.07 39.67 41.16 41.97 38.99 36.09 35.05 33.05 33.15 33.91 34.79 35.18 35.15 35.56 36.01 36.53 36.09 35.70 35.76 35.16 34.60 34.77 35.07 35.05 34.38 34.11 33.01 33.09 33.72 32.80 32.19 32.24 32.93 33.68
25.06 20.60 20.44 29.15 37.56 37.91 37.80 34.55 41.44 39.05 40.02 39.91 42.05 38.92 40.50 35.48 34.01 33.37 34.13 35.12 34.88 35.17 35.28 35.17 35.38 35.86 35.01 34.35 34.23 33.46 33.94 34.21 34.79 34.85 34.02 32.87 33.01 32.22 31.88 32.07 31.80 32.69 32.00 33.10
26.32 22.38 26.54 32.95 37.02 37.62 31.27 34.51 41.37 41.89 41.48 41.72 40.13 40.45 36.98 35.02 34.68 35.38 35.38 35.49 36.32 36.18 35.13 35.24 35.58 35.12 33.62 33.70 32.81 34.22 35.26 34.91 34.28 34.23 33.60 33.51 32.57 32.37 32.02 30.73 29.78 28.15 27.50 27.85
29.84 23.78 20.83 34.61 37.52 35.87 40.42 39.83 40.89 39.88 40.89 41.86 39.93 37.29 35.55 35.26 34.63 34.72 34.79 35.61 36.08 35.19 34.98 35.13 35.30 34.36 33.35 31.97 33.96 34.29 34.13 33.49 33.09 33.34 34.55 33.91 31.91 30.17 28.72 27.60 26.23 25.25 25.14 25.25
29.29 28.78 35.27 38.20 38.02 41.57 40.89 38.99 38.74 39.32 39.18 41.14 38.72 37.66 35.99 34.39 34.29 33.50 34.04 35.12 36.06 35.45 34.77 34.99 34.65 34.58 33.55 33.82 35.68 35.15 34.54 33.90 32.85 30.98 29.23 28.09 26.52 25.84 25.53 25.72 25.08 24.54 24.53 23.75
32.24 36.61 34.80 38.58 39.73 39.73 40.92 40.62 38.64 38.19 38.63 39.45 38.91 38.34 36.87 35.65 33.88 33.97 34.32 34.18 35.03 35.06 33.99 33.50 34.95 35.30 35.23 35.29 35.36 33.99 31.14 26.86 26.06 25.57 24.96 25.28 25.98 25.46 24.59 24.14 23.95 24.12 23.91 23.25
32.40 35.07 37.38 38.93 39.93 41.86 42.52 40.78 39.27 38.22 38.98 39.74 38.45 37.62 37.14 35.28 34.38 34.51 34.77 35.14 35.57 34.91 34.04 32.56 34.75 34.87 35.45 34.71 32.30 27.85 26.25 26.03 25.39 24.72 23.80 23.90 24.43 24.75 24.81 24.21 25.72 24.31 23.99 24.42
30.81 36.36 36.81 37.69 40.01 42.23 41.55 40.71 39.79 37.31 37.71 39.02 39.12 38.29 38.04 36.19 35.47 35.58 35.54 34.51 33.32 34.43 33.99 34.03 33.89 33.30 32.98 31.74 28.66 26.49 25.06 24.88 24.78 24.76 25.34 25.85 25.94 26.06 32.07 31.66 31.50 30.65 29.29 27.50
37.06 39.84 37.96 38.87 39.49 38.80 38.67 38.42 37.57 37.01 37.78 38.63 38.24 38.32 38.44 36.75 35.84 36.62 33.14 32.79 32.79 33.10 33.85 32.96 32.06 31.88 31.09 28.51 27.65 26.38 24.68 24.56 25.48 23.28 23.18 23.18 22.61 22.98 22.82 25.57 29.09 28.84 28.78 28.44
37.08 37.98 37.73 39.16 38.01 37.96 36.57 36.68 37.86 37.06 37.93 38.80 37.06 37.83 37.26 36.29 36.48 34.57 32.66 32.57 33.47 32.80 32.32 31.62 30.67 28.94 28.55 27.83 26.96 25.69 25.13 27.44 22.93 21.76 21.54 21.19 21.75 21.37 21.41 20.91 20.32 20.44 23.28 26.07
35.01 35.81 36.15 36.99 37.34 36.91 34.90 34.29 34.20 35.29 35.81 36.01 36.44 36.64 37.00 35.39 35.12 33.84 33.77 32.27 32.14 32.50 31.10 30.41 27.43 26.74 27.42 27.17 26.38 25.17 24.46 22.71 21.77 21.69 21.72 22.14 21.19 20.65 20.62 20.15 19.21 18.75 19.56 21.61
34.13 35.77 37.36 37.40 37.95 38.10 35.94 35.14 34.04 34.43 34.15 34.29 34.91 35.16 36.21 36.85 35.53 34.07 32.55 31.27 29.99 29.57 30.00 28.64 27.10 26.88 26.80 26.59 25.63 24.32 24.06 25.25 23.19 22.43 22.08 20.57 20.31 19.98 19.63 19.11 18.46 18.50 18.39 18.70
33.03 33.61 35.22 34.28 36.02 36.61 37.24 36.78 35.79 35.50 34.79 34.48 34.41 34.00 35.36 34.56 33.43 31.83 30.57 31.10 31.62 30.99 29.91 28.60 27.65 26.63 26.23 25.96 24.85 24.08 24.08 25.35 24.70 20.86 20.41 20.07 19.72 19.34 19.11 18.80 18.30 18.13 18.02 19.24
34.47 35.59 36.14 35.86 34.94 34.31 35.02 37.36 38.03 36.00 34.52 34.98 34.66 34.29 33.37 32.61 32.39 31.56 30.55 30.64 29.66 28.40 29.02 28.69 27.21 26.17 25.86 24.96 24.39 23.98 23.20 21.96 20.34 19.82 19.86 19.33 19.02 19.10 18.73 18.46 18.18 17.84 18.06 18.57
36.11 35.62 35.88 36.10 37.11 37.92 37.09 36.11 37.03 36.67 34.39 33.63 32.97 32.36 32.88 32.97 32.56 31.21 30.66 30.13 28.91 27.22 26.83 27.77 29.90 27.33 25.19 25.70 24.72 23.11 21.79 20.02 19.15 19.25 19.50 21.66 19.58 18.57 18.17 18.30 18.14 18.06 17.71 17.94
34.66 35.43 35.51 36.32 37.22 34.06 32.89 35.01 34.58 32.24 32.08 32.24 31.90 31.14 30.96 30.76 30.58 29.90 30.30 29.43 30.27 31.17 27.80 28.01 28.08 25.23 24.53 27.26 27.05 21.82 20.17 19.05 18.61 18.52 18.26 17.60 17.71 17.48 17.58 19.19 19.35 18.11 17.33 17.65
32.96 33.44 33.78 34.84 35.53 34.02 32.57 31.79 30.05 30.24 30.65 31.25 30.79 30.24 29.88 29.55 29.84 29.99 29.09 28.33 29.13 31.00 29.05 30.14 25.64 24.37 25.39 27.29 23.81 19.93 18.99 18.12 17.80 17.44 17.81 17.29 16.91 17.68 16.91 17.00 16.98 16.92 16.77 17.00
31.49 31.30 31.49 32.80 33.60 33.88 33.60 32.57 32.07 31.13 30.53 30.17 30.37 29.99 28.84 28.04 28.52 28.60 29.75 30.27 28.39 32.15 29.54 26.82 25.35 26.05 25.78 28.14 19.61 18.90 17.98 17.59 17.08 16.39 16.12 16.11 16.23 16.43 16.44 15.88 15.44 15.96 15.98 15.52
30.58 30.33 30.39 29.95 30.26 31.88 32.65 31.56 31.33 31.37 29.88 29.67 29.07 28.69 28.81 28.66 29.12 26.94 25.62 27.08 28.81 31.03 26.52 24.87 26.64 29.50 30.57 19.22 18.72 18.04 17.64 16.90 16.38 15.96 15.44 15.39 15.71 15.18 15.11 14.81 14.18 14.67 14.45 14.37
28.89 29.51 29.42 29.37 29.51 29.32 28.82 30.04 29.84 28.83 28.70 28.70 28.72 28.66 27.33 25.49 25.11 26.07 27.59 29.18 30.10 30.20 24.35 25.61 29.11 31.04 29.61 18.84 17.97 17.78 17.03 16.46 15.44 14.59 14.79 18.96 14.51 14.00 13.19 13.35 13.20 13.82 13.38 14.03
27.04 27.77 28.15 27.79 27.20 26.52 26.20 26.39 28.71 29.49 28.92 27.34 26.49 25.70 25.79 26.09 25.54 24.90 26.03 27.51 30.88 28.17 24.13 30.13 31.36 31.74 20.10 18.60 18.06 17.42 16.82 15.26 13.41 13.55 14.50 15.13 14.92 13.95 13.21 12.87 12.76 13.03 12.85 12.60
25.43 26.84 27.12 26.96 26.70 26.68 26.63 26.41 25.88 26.11 26.87 27.58 27.79 27.54 27.07 27.05 26.41 26.03 25.95 27.86 28.59 26.68 23.50 27.17 28.31 26.37 20.54 18.89 18.36 17.75 16.45 15.83 18.37 19.00 16.10 15.42 14.74 13.56 13.13 13.20 12.96 12.60 12.78 12.36
22.38 24.53 22.92 23.05 24.81 25.63 27.36 28.25 26.12 25.54 26.24 25.59 25.25 26.75 27.10 27.20 27.25 26.45 27.04 26.96 27.23 24.75 23.44 25.33 27.10 24.48 20.84 19.81 18.56 18.01 17.45 17.23 18.30 17.38 17.34 16.27 15.34 14.56 13.97 13.13 12.12 11.92 11.88 11.81

GFSNGP_sfc_wetblb_066.txt.gz
Wetbulb
33.09 34.08 33.97 33.20 33.19 32.55 30.76 33.37 32.59 33.11 33.39 38.23 39.88 41.52 43.67 45.21 45.08 44.00 42.09 41.83 41.22 40.38 41.56 41.81 41.20 41.09 41.29 41.00 41.46 42.44 42.26 42.22 41.41 40.95 40.62 39.56 38.68 38.43 38.85 38.40 37.70 37.74 37.27 37.36
30.39 33.25 33.47 31.78 33.79 34.12 33.44 34.46 33.57 34.07 34.27 42.00 43.84 43.73 43.02 44.75 42.97 41.39 39.39 39.62 39.69 38.63 39.22 40.52 40.18 39.89 40.11 40.10 40.38 41.38 40.75 40.20 40.40 39.40 38.81 37.89 37.87 37.79 37.97 38.30 38.31 38.20 38.08 38.39
28.61 31.70 32.09 29.76 33.02 33.81 34.22 35.62 35.84 32.26 38.24 42.17 41.41 41.73 42.44 43.46 41.43 39.45 38.20 39.57 38.44 38.19 38.12 39.00 39.77 40.01 39.48 39.89 40.37 39.42 38.15 38.79 38.57 38.74 38.02 37.52 37.12 36.95 35.09 34.81 35.26 35.11 36.18 37.26
30.37 31.08 24.58 33.33 37.70 37.73 35.68 36.75 38.05 38.58 39.90 41.05 41.62 42.74 42.01 41.24 41.02 37.94 37.00 38.33 38.46 38.00 37.75 38.88 40.15 40.15 40.26 39.92 39.42 38.49 37.69 37.84 37.32 37.20 36.18 35.85 35.42 34.45 33.33 33.65 32.99 32.63 32.04 32.06
29.18 28.67 31.52 35.31 35.81 35.61 35.48 37.84 40.49 39.08 40.28 41.39 42.50 42.78 42.16 39.90 38.35 36.71 37.22 38.61 38.41 38.29 37.69 38.04 38.59 39.14 38.56 38.19 38.33 37.63 36.28 36.09 36.46 36.24 35.55 35.40 34.35 33.68 34.32 33.75 32.82 32.44 32.95 32.99
30.86 24.91 24.12 34.19 39.82 42.18 41.15 35.44 42.99 40.86 41.50 41.62 43.19 41.13 44.59 38.71 35.56 35.69 37.59 38.71 37.33 37.07 37.50 37.61 37.57 38.32 37.65 36.39 35.67 34.91 35.35 35.54 35.99 35.36 35.37 33.79 34.49 33.57 32.70 33.67 32.88 33.96 33.15 34.60
30.76 28.91 32.13 37.51 39.09 41.03 33.31 37.11 44.03 43.63 43.51 43.30 42.10 42.80 40.68 36.63 36.22 38.13 38.35 37.17 37.33 37.32 37.15 37.24 37.01 36.36 35.19 34.77 34.00 35.51 36.14 36.33 35.80 35.82 34.78 33.72 32.86 32.80 33.09 33.26 32.78 32.39 32.28 33.07
31.49 27.90 25.94 39.91 40.16 37.10 42.40 44.04 43.19 43.41 44.27 44.16 43.62 38.25 37.25 36.89 37.21 37.35 37.39 37.41 37.04 36.46 36.16 36.89 37.13 36.00 34.59 33.71 35.15 35.25 35.26 34.46 34.49 34.94 35.00 34.55 32.88 32.67 32.19 31.37 30.56 30.10 29.94 29.75
34.72 34.78 39.58 41.59 42.79 44.91 44.58 42.35 42.86 43.35 44.05 44.11 41.66 38.53 37.41 36.77 37.54 36.59 36.93 36.64 36.66 36.38 35.93 35.94 35.74 36.46 33.96 35.17 36.22 36.18 35.54 34.81 34.77 34.91 33.66 32.90 32.00 31.06 30.73 30.95 30.29 29.59 28.76 28.75
36.35 39.97 40.35 42.55 44.58 44.25 44.37 43.90 43.33 43.48 43.25 43.41 42.38 41.45 38.05 37.25 36.36 35.73 36.31 36.45 36.21 35.65 34.74 33.84 35.96 36.57 36.12 36.37 36.91 36.41 34.27 33.74 32.62 31.62 31.17 31.24 31.35 31.73 31.10 30.45 29.92 28.93 28.36 28.14
37.74 40.68 42.47 43.13 44.42 45.20 44.69 44.40 42.95 42.83 42.93 43.47 43.55 41.06 38.97 37.02 36.97 36.88 36.54 36.41 36.35 36.00 34.65 34.77 36.12 36.18 36.57 37.09 37.60 34.90 32.57 31.80 31.37 30.59 30.23 29.99 30.40 31.05 30.52 30.25 30.40 29.15 28.83 28.85
36.07 41.91 41.94 43.01 44.62 43.59 43.13 44.01 43.87 42.80 42.19 43.45 43.57 42.08 40.13 37.06 37.80 37.48 37.17 37.20 36.85 36.86 35.15 35.45 36.82 36.96 37.01 35.77 35.62 32.78 31.05 30.29 30.03 29.92 30.81 31.50 31.63 31.55 32.60 32.20 31.62 30.69 29.51 29.49
41.29 42.73 42.58 43.88 44.33 42.58 41.68 42.14 41.96 42.08 42.50 42.97 43.00 43.32 41.66 38.20 36.78 38.45 38.29 37.28 37.53 37.10 37.63 36.95 36.95 36.69 36.10 35.71 33.55 31.88 30.64 30.07 29.79 30.08 30.61 30.67 30.27 29.77 28.35 29.07 29.34 29.14 28.59 28.48
41.73 41.44 41.77 42.57 42.08 41.82 41.31 40.96 40.26 41.21 42.09 42.54 43.19 42.58 42.22 39.55 38.21 37.26 35.45 37.02 38.14 38.02 37.63 36.71 36.39 36.32 35.31 34.00 31.94 30.70 30.34 30.06 29.36 29.51 29.95 29.11 28.37 27.47 27.58 26.51 25.88 25.87 25.24 26.72
39.41 39.08 39.37 40.33 40.75 41.05 40.83 38.29 37.79 39.30 40.62 41.07 41.43 41.00 40.85 39.62 38.10 36.37 36.18 36.57 36.51 37.49 37.00 36.35 35.79 34.95 33.26 32.43 30.89 30.17 30.11 29.09 28.69 28.54 28.10 27.63 27.00 26.37 26.50 25.63 25.14 24.87 25.17 24.79
37.31 37.02 37.61 38.56 39.25 39.29 40.02 38.73 36.66 37.36 38.64 39.67 40.07 39.95 40.65 40.82 38.98 35.99 35.10 34.04 34.17 34.91 35.93 35.38 34.72 34.51 32.63 31.34 30.59 30.14 29.83 28.59 28.18 27.93 27.68 26.46 26.00 25.51 25.20 24.76 24.39 24.27 23.85 23.57
34.10 35.50 36.36 36.00 37.15 37.95 38.41 39.10 39.67 39.06 37.28 36.93 37.93 39.37 39.31 39.07 37.01 34.88 33.89 33.35 34.05 34.59 34.73 35.58 34.89 32.61 31.62 31.27 30.43 30.23 29.83 28.82 28.43 27.46 26.58 26.12 25.86 25.20 24.86 24.29 23.74 23.42 23.16 23.29
34.72 36.10 36.70 36.63 36.53 36.80 37.57 38.95 39.36 40.05 38.37 38.09 37.82 37.18 36.94 35.53 34.83 34.18 33.06 32.23 31.60 30.84 31.18 32.09 32.76 31.36 30.88 30.67 30.08 29.53 29.33 29.10 27.37 26.43 25.92 24.94 25.21 24.97 24.31 23.52 23.13 22.83 23.25 22.71
36.45 36.05 36.46 36.26 36.63 36.71 37.76 38.53 39.61 40.14 40.87 39.70 37.40 36.27 36.42 35.96 35.77 34.59 32.37 31.03 30.78 30.14 29.23 29.75 31.71 30.76 30.02 29.84 29.68 28.98 28.14 26.48 25.17 25.28 25.48 25.27 24.84 23.97 23.32 23.17 23.02 22.85 22.77 21.97
34.08 34.64 34.88 35.44 36.56 35.79 32.89 34.03 35.70 38.29 39.53 37.37 36.56 35.23 34.17 34.54 33.98 32.41 32.18 31.18 32.05 32.51 30.53 30.36 30.45 29.10 29.32 29.64 29.87 27.97 27.06 25.83 25.16 24.95 24.86 25.29 24.58 23.58 23.10 22.17 22.85 22.38 22.06 21.70
33.23 33.85 33.40 33.43 34.04 35.40 34.49 33.33 33.44 33.61 33.53 34.62 34.40 33.23 32.98 32.95 32.21 31.85 30.49 30.33 31.32 32.50 30.93 31.33 29.05 28.39 28.64 30.18 29.17 27.07 25.70 24.94 24.45 24.34 23.93 24.59 23.42 23.14 22.39 22.16 21.64 21.35 20.96 20.93
32.32 31.82 31.79 31.87 32.42 33.41 34.16 33.43 32.69 31.84 31.54 31.15 31.38 31.66 30.62 29.99 30.06 30.58 31.45 31.69 30.96 34.59 31.82 30.76 29.53 28.88 28.30 31.15 26.17 25.39 24.58 23.99 24.08 23.79 23.63 23.65 22.73 22.02 22.13 22.45 22.06 21.98 21.18 21.25
31.23 31.54 32.07 31.32 31.05 31.79 33.10 32.83 31.31 32.05 30.98 30.39 30.16 29.93 29.80 29.74 29.98 28.71 27.52 29.88 31.32 32.97 31.17 30.13 30.28 30.81 30.88 28.16 24.59 23.86 23.30 22.92 22.89 22.56 23.26 23.33 22.68 22.72 22.47 22.50 22.08 21.33 21.15 21.00
29.19 30.24 30.20 30.73 30.98 30.49 28.76 28.69 30.83 30.38 28.54 29.33 30.41 30.63 30.00 28.30 28.36 29.82 29.23 31.79 32.15 33.01 29.02 29.20 31.31 31.28 31.92 24.06 23.65 23.51 23.39 22.95 23.13 23.37 22.74 22.87 22.29 21.72 21.09 20.90 20.66 20.92 20.33 19.64
27.87 28.96 28.81 28.56 29.03 28.23 28.52 28.55 29.33 30.21 30.41 29.53 28.80 27.79 28.42 29.36 29.13 28.69 28.06 29.87 32.87 32.24 28.08 31.16 31.81 32.00 29.63 23.97 23.34 23.17 23.07 23.42 24.05 23.17 21.97 21.87 22.06 21.14 20.97 20.70 19.71 19.82 19.94 19.74
25.34 25.95 25.80 25.78 27.50 27.29 28.55 29.92 28.55 28.65 28.62 28.20 28.83 28.48 27.29 27.39 27.65 28.44 28.30 29.34 30.17 31.01 26.94 29.10 30.68 30.93 25.41 23.76 23.35 23.04 22.69 22.61 23.07 22.76 21.83 21.56 21.40 20.61 20.43 19.76 19.16 19.04 19.08 19.17
24.19 24.93 24.74 24.20 24.97 25.88 27.24 29.21 28.23 28.25 28.73 28.00 27.33 28.58 28.78 28.42 28.45 27.60 27.40 28.03 29.06 28.55 26.56 28.71 30.24 30.03 26.11 23.95 22.92 22.74 22.46 22.41 23.06 22.81 23.19 21.90 20.96 20.67 19.85 19.43 19.28 19.15 18.70 18.27

GFSNGP_sfc_wetblb_069.txt.gz
Wetbulb
35.33 35.90 35.80 34.81 34.42 34.91 31.41 34.38 33.99 34.97 35.83 38.51 41.17 42.43 44.23 46.47 47.05 47.22 45.73 44.72 44.47 44.42 44.49 44.28 43.56 43.51 43.49 43.06 43.46 44.25 43.95 43.45 42.33 42.14 41.45 40.88 39.99 39.71 39.31 39.22 39.13 38.92 38.11 38.32
31.93 35.17 35.11 32.90 35.39 35.94 35.06 35.52 35.76 36.25 35.61 42.68 44.24 45.59 44.89 46.29 46.60 44.98 43.87 42.72 42.46 42.07 42.48 42.83 42.92 42.48 42.46 42.24 42.20 42.84 42.14 41.60 41.65 41.37 40.79 39.69 39.57 39.52 39.43 39.19 39.33 39.44 38.89 38.87
30.52 33.48 33.67 30.84 34.55 35.49 36.17 37.34 37.40 32.92 38.56 43.37 42.35 43.32 43.90 45.05 44.72 43.75 41.77 42.14 41.75 41.71 41.51 41.51 42.10 42.41 41.63 41.81 42.00 40.97 40.46 40.32 40.34 39.89 38.66 38.22 38.11 37.52 36.34 35.82 36.14 34.96 34.85 34.56
31.69 32.34 25.62 34.58 39.48 39.35 37.37 38.22 39.59 39.87 41.24 42.49 43.19 44.66 45.00 44.88 44.99 42.53 40.81 40.59 41.06 41.42 40.81 41.22 42.25 42.29 42.06 41.76 40.78 39.88 39.38 38.86 39.28 38.43 36.88 36.45 35.57 34.63 34.25 34.43 33.90 33.51 32.74 33.00
30.10 30.13 33.84 35.84 37.01 36.72 36.24 37.28 40.93 39.73 41.64 43.52 44.42 43.52 43.54 44.36 43.63 41.40 39.54 41.01 41.59 41.74 40.95 40.42 40.74 41.08 40.09 39.75 39.56 38.90 37.27 36.87 37.59 36.61 35.51 35.05 34.36 34.15 34.63 33.66 32.96 32.89 33.73 33.27
31.78 26.88 25.16 36.44 40.95 43.29 42.60 35.39 43.32 42.77 42.87 43.02 43.82 40.60 44.27 41.86 39.23 37.49 40.23 41.16 40.00 39.33 39.14 39.00 39.18 39.58 38.47 37.76 37.44 36.28 36.15 36.26 36.28 35.72 34.44 34.11 34.28 33.28 33.27 34.11 33.60 33.82 34.80 35.54
31.37 29.64 33.20 39.71 40.54 42.37 33.39 36.14 43.68 43.88 44.28 43.51 43.10 43.82 43.06 39.38 37.36 40.01 40.75 39.33 38.82 38.06 37.93 37.90 38.32 38.40 36.53 35.96 34.41 36.07 36.61 36.15 35.56 35.74 34.02 34.33 33.54 33.74 34.38 34.24 34.22 33.72 33.51 34.63
31.98 28.97 26.73 42.89 41.35 36.77 42.46 45.36 45.20 45.13 45.51 45.18 44.61 41.01 39.29 38.23 38.15 39.48 38.87 38.30 38.34 37.10 37.18 37.93 37.93 36.71 34.89 34.09 35.41 35.64 36.15 35.37 35.07 35.71 35.72 35.56 34.73 34.25 33.21 32.59 31.64 31.23 30.82 30.55
35.45 34.86 41.81 43.59 44.14 45.17 45.42 44.41 44.66 44.72 45.57 44.77 44.14 39.86 39.22 38.10 38.88 39.55 39.40 38.39 37.90 36.70 37.10 36.48 36.22 36.00 34.67 35.12 36.11 36.32 35.98 35.87 36.18 36.31 34.98 34.29 33.11 32.42 31.90 32.13 31.24 30.04 29.04 28.96
37.25 41.11 41.82 43.50 45.48 46.58 45.64 45.19 44.82 45.34 44.66 44.49 44.14 43.19 40.45 39.45 38.66 38.76 38.83 37.92 38.42 37.51 35.20 34.36 35.53 36.17 36.43 36.75 37.38 37.51 36.65 36.09 34.16 32.55 32.43 32.57 32.65 32.85 31.86 31.03 30.08 28.95 28.31 28.21
39.04 41.96 43.43 44.63 45.73 46.55 44.98 45.64 44.07 44.41 44.79 44.67 45.14 43.86 41.06 39.61 38.96 38.94 38.39 38.22 37.48 36.44 35.14 34.55 35.71 36.07 37.54 38.08 38.12 36.92 34.63 32.68 32.31 32.05 31.82 30.91 31.16 31.69 30.68 30.35 30.66 29.29 28.84 28.46
37.27 42.60 42.89 44.01 46.31 45.46 44.48 44.12 44.56 43.98 44.65 44.76 45.30 45.19 42.92 40.06 39.56 39.80 38.66 38.10 36.75 37.23 35.68 35.27 36.89 36.99 37.75 38.88 38.50 34.65 32.17 31.66 31.26 30.76 31.61 31.73 30.92 30.33 32.77 32.15 31.63 31.01 30.44 29.64
41.59 44.31 44.13 45.09 45.81 44.87 43.61 43.79 43.88 43.03 44.19 44.08 45.42 45.82 43.90 40.97 39.51 40.00 39.68 38.65 38.18 37.56 37.33 37.13 37.22 37.52 38.64 38.13 36.56 33.62 31.92 31.01 30.67 31.44 31.37 31.27 31.07 30.71 27.97 28.68 29.70 29.28 28.67 28.81
44.61 43.55 42.51 44.64 43.81 43.89 43.60 43.54 43.30 42.65 43.12 43.82 45.12 45.39 44.71 41.78 39.81 38.82 38.36 38.94 39.94 39.20 38.52 38.85 38.52 38.01 38.44 37.36 34.25 32.64 32.03 32.47 30.52 30.98 30.85 30.29 29.41 28.41 28.20 27.09 26.11 25.84 25.96 26.68
42.48 42.08 41.79 42.15 42.38 42.88 43.21 42.64 40.55 40.74 42.18 42.63 44.19 43.91 43.79 42.10 39.97 39.62 38.27 38.01 39.46 39.30 38.94 38.57 38.39 37.97 37.72 35.55 32.25 31.39 30.63 30.14 30.11 29.45 29.25 28.99 27.95 27.24 27.11 26.19 25.64 25.33 25.24 25.27
41.27 40.42 39.61 39.10 40.30 41.09 41.20 41.03 40.71 41.00 40.58 41.02 41.96 42.43 42.98 43.15 42.21 40.21 37.34 36.76 36.22 36.76 38.02 38.19 38.02 37.26 35.41 33.69 31.94 31.27 30.96 30.79 30.34 28.82 28.02 27.33 26.86 26.28 25.94 25.45 25.02 24.73 24.30 24.27
35.66 36.46 37.66 37.65 38.18 39.11 39.36 40.42 40.67 40.78 41.30 39.71 39.19 41.18 41.51 41.41 40.94 38.43 36.68 35.63 36.10 36.75 37.33 37.58 37.43 35.58 34.11 32.92 31.52 30.74 29.98 29.03 29.78 28.25 27.85 27.11 26.55 25.87 25.53 24.95 24.43 24.12 23.93 24.70
35.71 36.32 37.31 37.81 37.24 37.55 38.36 39.66 40.25 40.96 40.80 42.12 41.18 39.25 38.82 38.48 38.01 36.56 35.79 34.99 34.23 34.01 34.58 35.10 36.88 33.86 32.91 32.09 31.41 31.12 30.20 29.23 28.39 27.46 27.00 25.69 25.63 25.77 25.25 24.54 24.15 23.67 23.91 24.25
37.10 36.29 36.52 36.47 36.91 36.57 36.83 37.11 37.23 37.87 39.63 41.55 41.66 38.89 38.58 39.03 38.44 37.20 35.53 33.01 32.84 32.67 32.85 32.57 34.25 32.56 31.79 32.30 31.61 30.22 29.70 28.83 27.52 26.62 26.11 26.61 25.64 24.83 24.15 23.85 23.74 23.69 23.53 23.28
34.86 34.86 34.78 34.92 35.62 35.86 35.67 34.50 33.87 34.12 36.48 40.10 41.41 39.92 38.58 38.65 37.78 35.59 34.28 33.14 33.92 35.22 32.93 32.26 31.83 30.06 30.62 31.39 32.10 29.65 28.88 27.75 26.50 25.90 25.37 25.10 25.13 24.24 23.60 24.13 23.66 23.31 23.16 22.96
32.61 32.94 33.68 33.47 33.67 34.89 35.07 34.87 33.41 33.23 34.23 35.24 36.34 36.91 36.61 36.74 36.16 34.80 32.32 31.67 33.10 33.62 31.87 32.85 31.95 30.69 30.22 30.49 30.95 28.38 27.42 26.90 26.04 25.21 24.45 24.95 24.28 23.65 22.82 22.46 22.45 22.47 22.17 22.15
32.15 32.98 33.44 33.51 32.86 33.13 34.10 33.98 33.44 32.80 31.97 31.91 32.54 33.55 33.47 32.71 32.73 32.72 33.93 33.20 32.06 34.76 32.98 32.19 31.84 31.73 30.46 32.44 29.31 26.82 26.28 26.15 25.38 25.22 24.25 24.51 23.30 22.66 22.35 22.41 22.37 23.02 22.49 21.99
31.73 31.93 32.38 32.36 32.07 32.29 33.22 31.64 32.02 30.93 30.31 31.13 30.74 30.79 30.55 30.66 30.73 29.68 28.81 31.03 31.92 34.05 32.05 31.55 32.11 33.69 33.44 30.72 26.88 25.74 25.31 24.90 24.52 24.17 24.05 24.21 24.05 23.76 23.38 23.04 23.15 23.01 22.33 21.81
29.81 30.63 30.34 31.20 31.99 31.60 30.16 30.47 30.81 31.34 30.39 29.93 30.08 30.66 30.62 29.50 29.49 30.99 30.90 32.33 33.36 33.93 32.17 32.38 33.19 34.71 34.14 29.74 26.40 25.01 24.79 24.28 23.95 23.99 23.27 25.53 24.19 23.39 22.59 22.15 21.63 21.86 21.31 21.28
28.00 29.09 28.40 27.51 29.18 28.71 29.42 30.37 30.72 30.35 30.59 30.87 30.53 29.71 29.41 30.56 29.74 29.28 30.00 30.08 33.45 33.06 31.12 34.03 34.65 34.84 31.51 27.62 25.43 24.55 24.31 24.18 24.38 24.37 23.31 23.76 23.22 22.60 22.06 21.53 21.03 20.97 20.73 20.73
26.16 26.12 26.11 25.98 26.53 26.70 28.51 29.71 29.19 29.99 30.07 28.76 29.55 29.97 29.29 28.26 27.70 28.47 27.86 29.31 30.43 32.44 29.24 31.06 32.19 32.29 30.57 27.60 25.68 24.24 23.91 23.85 24.49 24.44 23.78 23.29 22.91 22.55 21.82 21.36 20.84 20.46 20.20 20.19
25.61 25.61 26.21 25.59 25.53 25.63 26.72 27.33 27.49 27.76 28.99 28.89 28.55 29.48 29.32 29.53 29.27 29.31 28.32 27.81 28.90 30.68 27.75 28.03 30.71 32.01 30.15 26.67 24.79 24.22 23.91 23.97 24.70 24.08 24.10 23.31 22.69 22.48 21.38 20.62 20.57 20.31 20.02 19.19

GFSNGP_sfc_wetblb_072.txt.gz
Wetbulb
33.35 34.74 34.89 33.99 32.69 32.84 25.91 30.48 24.13 30.70 32.57 35.44 38.40 38.37 39.44 42.68 43.63 44.41 43.59 42.88 42.72 41.98 41.09 40.52 39.84 39.49 39.54 39.43 39.95 40.72 40.25 39.33 38.56 38.74 38.30 37.71 37.59 37.89 37.65 37.37 37.40 38.47 38.44 38.29
27.45 34.22 34.07 30.50 34.33 34.28 33.20 33.07 32.56 33.59 33.15 38.98 40.61 41.02 41.71 41.16 43.86 43.86 42.98 42.12 41.19 40.97 40.19 39.19 38.54 38.69 39.48 38.82 38.89 39.25 38.69 38.47 39.07 38.41 38.05 38.03 38.30 37.52 37.72 37.74 37.87 37.42 37.53 38.47
24.09 31.61 31.67 26.30 32.29 33.62 34.26 35.03 34.70 29.64 34.89 39.58 39.44 41.30 40.85 41.60 43.25 42.87 41.69 41.96 41.04 39.62 39.41 39.25 39.00 39.42 37.91 37.90 38.49 37.87 37.49 37.96 37.87 37.65 36.93 36.45 36.58 35.81 35.19 33.71 34.21 34.02 34.18 35.31
25.44 27.87 21.08 31.63 36.88 38.19 35.71 37.14 37.39 37.64 38.41 40.14 39.63 40.16 40.21 41.47 42.01 41.00 40.14 41.35 40.73 40.58 38.37 38.55 39.92 39.38 38.64 38.55 37.56 37.32 36.43 37.07 38.07 36.78 36.01 35.37 34.88 34.14 33.63 33.91 32.99 32.22 32.09 33.19
24.80 25.25 30.38 33.15 35.27 34.84 33.84 34.16 38.54 37.29 38.71 40.08 41.80 40.12 39.40 42.42 41.04 39.54 39.36 39.70 40.51 38.83 38.13 38.11 40.05 39.93 37.59 37.58 37.03 36.08 35.44 36.62 36.62 36.14 35.29 34.64 33.95 33.62 33.77 32.66 31.72 32.48 32.72 32.45
29.93 23.61 23.19 34.78 38.71 40.62 40.90 34.35 39.55 39.58 39.74 40.41 41.22 36.82 39.16 38.26 37.08 37.91 39.80 39.00 37.17 36.80 39.05 38.61 38.71 39.00 37.98 37.44 36.60 35.80 36.00 35.95 35.45 35.31 35.07 33.46 33.77 32.24 32.79 33.84 33.04 33.61 31.94 30.82
28.28 25.73 29.96 38.78 40.27 40.57 32.61 34.97 42.22 41.41 41.59 41.49 39.90 40.38 39.29 37.40 37.05 38.65 39.30 37.02 36.71 36.21 37.70 37.54 38.40 38.21 36.27 35.52 34.28 35.83 36.31 35.27 34.69 34.80 34.43 33.99 32.88 32.31 31.34 29.08 27.03 25.97 28.97 29.07
30.67 26.52 22.71 40.15 38.29 34.40 40.75 43.03 43.51 43.31 42.82 42.77 40.56 39.61 38.42 37.83 37.68 38.92 36.61 36.44 36.48 36.60 36.88 37.87 38.03 36.64 35.04 33.42 35.17 35.62 35.75 35.02 34.68 34.71 34.96 33.90 31.00 29.03 29.32 28.22 26.14 25.27 25.23 24.83
30.83 30.63 38.83 41.33 40.97 41.95 42.17 41.88 41.59 42.18 42.44 42.54 41.42 39.81 38.66 37.62 38.35 38.34 36.74 35.94 36.19 36.41 36.35 36.56 36.19 36.30 34.03 34.44 36.01 35.93 35.48 35.19 34.95 34.04 33.77 33.01 28.00 26.63 25.74 25.80 24.44 23.24 23.38 22.34
33.97 37.16 38.04 40.42 42.31 42.81 42.56 41.91 42.06 42.93 41.80 42.72 41.45 40.50 39.35 38.63 38.38 38.32 36.93 35.53 35.76 34.77 34.57 33.81 35.27 35.66 35.86 36.17 36.55 36.13 35.60 35.30 32.28 27.51 27.06 26.95 27.81 27.20 25.73 24.70 23.87 23.15 23.06 22.52
34.76 37.55 38.63 39.99 41.52 42.77 42.28 42.60 41.76 42.99 42.72 42.42 42.93 41.96 40.14 38.95 38.51 38.15 36.48 35.94 35.61 34.54 34.94 33.92 35.37 35.78 36.68 36.87 37.33 36.43 32.95 28.35 27.22 27.43 26.14 24.93 27.08 25.45 24.49 25.77 26.73 23.26 22.69 23.16
32.31 37.94 38.24 39.81 41.82 43.09 41.48 41.02 40.79 40.96 41.75 42.77 43.28 42.70 40.33 38.74 39.08 38.62 36.42 35.71 35.14 36.17 35.16 34.49 35.50 35.96 37.05 37.98 37.49 31.32 27.40 26.20 25.49 24.83 25.04 26.02 26.07 26.32 32.74 31.58 31.94 31.66 31.07 27.46
37.70 40.56 41.06 41.75 42.56 41.90 40.38 40.25 40.61 40.02 40.51 40.83 43.22 43.09 41.25 38.66 38.23 39.50 38.39 36.15 35.85 36.47 35.62 35.30 36.56 36.61 37.60 38.04 34.34 29.54 26.47 25.38 25.57 26.82 26.26 26.54 26.74 25.64 23.65 26.66 30.14 29.61 28.97 29.13
41.49 41.06 38.89 40.49 38.71 40.05 40.12 40.50 40.72 39.61 40.15 40.76 41.42 43.20 42.20 39.17 38.34 37.38 36.68 37.71 37.98 36.24 36.18 35.86 36.78 36.64 37.85 35.30 31.50 27.81 26.13 31.40 25.32 26.03 26.39 26.07 24.75 24.03 23.52 22.95 21.15 20.87 26.45 26.41
40.13 40.01 38.75 38.50 38.66 38.95 39.69 39.74 38.15 38.01 38.61 39.23 41.06 41.78 41.50 38.80 37.10 36.65 38.53 38.32 38.94 37.46 36.24 36.44 36.79 36.58 36.08 33.50 28.65 26.61 25.67 25.28 24.92 24.93 24.57 24.82 23.15 22.72 22.05 21.61 20.80 19.98 20.03 24.32
39.06 38.48 37.43 37.60 37.64 38.29 37.91 37.82 37.22 37.66 38.26 37.76 38.14 40.17 40.71 40.80 38.76 37.73 37.69 37.86 37.36 36.65 37.48 37.07 36.37 35.92 34.26 30.24 27.19 25.75 25.74 29.26 27.50 24.24 23.95 22.73 22.12 21.78 21.31 20.85 20.14 19.79 19.86 20.36
33.72 32.96 34.59 36.69 37.32 37.20 35.80 36.85 37.32 37.48 37.79 38.78 38.33 38.22 40.62 40.47 40.19 38.51 36.86 36.99 37.77 37.90 38.47 37.98 36.84 34.04 32.33 29.48 27.32 26.26 25.89 26.31 29.62 24.07 22.78 22.18 21.77 21.38 21.18 20.66 20.28 20.05 20.02 22.70
35.28 35.85 36.29 36.67 36.40 36.20 35.78 37.51 38.18 38.28 38.04 38.84 39.09 38.18 37.39 38.37 38.18 37.71 36.60 35.72 35.18 35.43 36.48 37.41 36.47 33.94 32.55 30.12 28.35 27.37 26.21 25.69 24.94 23.17 23.21 22.42 21.56 21.46 20.86 20.94 20.65 19.87 19.87 22.40
36.32 35.51 35.57 35.45 35.74 35.82 36.00 36.47 36.58 35.49 34.95 35.25 35.62 36.92 36.29 37.13 37.93 37.16 35.94 34.14 33.49 33.39 34.76 35.13 35.88 33.48 31.26 30.81 30.35 28.19 26.75 25.78 25.05 23.72 23.25 25.10 23.25 21.62 21.09 20.86 20.24 19.83 19.73 21.29
33.82 34.27 34.34 34.27 34.73 34.84 34.49 35.70 35.22 34.00 34.20 34.90 36.23 38.30 38.52 35.51 36.74 35.54 34.42 32.34 33.71 35.24 35.35 34.58 34.24 32.02 31.24 31.55 32.90 28.32 27.52 26.38 24.66 23.76 22.64 21.79 21.67 21.17 20.13 22.96 20.77 20.66 20.38 21.17
33.12 33.16 33.34 33.21 33.49 34.67 34.87 34.76 34.06 33.25 33.53 32.99 33.16 34.22 34.55 35.50 33.40 32.04 29.64 30.91 33.06 34.51 33.34 34.23 33.57 31.81 31.29 31.92 32.15 27.72 26.99 25.80 24.63 23.75 23.55 22.38 22.19 21.55 20.00 19.51 20.30 20.85 20.71 20.59
32.61 32.12 32.33 33.48 33.60 33.33 33.30 32.42 32.45 31.86 32.53 31.90 31.06 31.19 31.73 31.93 30.45 28.54 29.48 30.27 29.70 35.81 33.50 33.04 33.37 33.21 31.21 33.61 31.05 27.99 26.51 25.62 24.85 23.97 22.91 22.42 22.33 20.83 18.89 17.71 18.23 19.95 19.76 18.59
31.47 31.28 31.48 31.28 31.03 31.37 32.95 31.74 30.82 30.84 29.99 30.01 30.21 30.66 30.58 30.52 30.59 29.98 29.51 31.70 31.89 34.53 32.78 32.41 33.86 34.82 34.69 32.43 30.42 28.26 27.01 25.24 24.25 23.87 23.09 22.39 22.16 20.42 19.38 18.91 18.87 20.15 18.86 18.93
28.28 28.43 28.38 28.94 29.77 30.50 28.40 29.26 30.38 31.27 30.76 30.79 30.23 30.11 29.83 29.52 29.69 30.69 31.33 32.80 34.21 33.82 32.52 32.06 33.87 35.55 35.89 30.39 28.56 27.24 26.35 24.83 23.75 23.06 22.64 25.76 22.21 20.94 19.85 18.95 19.67 19.75 18.78 20.49
25.67 25.40 24.46 22.94 24.30 24.48 25.96 28.14 29.29 29.48 29.60 29.38 30.36 30.60 29.93 30.07 29.25 29.54 29.35 30.16 32.54 32.76 31.30 34.29 35.05 35.30 32.65 29.25 27.94 26.75 25.78 24.64 24.23 23.31 22.11 23.04 23.04 21.28 20.18 19.68 19.19 18.55 17.20 16.34
23.01 23.08 23.02 23.41 23.60 23.38 24.69 25.54 26.09 27.46 28.56 27.68 28.54 28.84 28.77 29.00 28.70 28.91 28.55 29.32 29.90 31.56 29.73 30.83 32.27 32.81 30.95 28.12 27.54 26.81 25.79 24.92 25.47 24.59 23.11 22.82 22.31 20.97 20.52 19.92 19.44 19.06 17.65 16.38
20.03 24.22 19.80 21.52 22.25 22.30 23.29 24.80 23.82 23.76 24.22 25.17 27.13 29.27 28.20 27.45 28.30 29.46 29.76 28.27 28.65 29.73 29.00 29.07 30.92 32.62 30.37 27.67 26.74 25.79 25.16 24.84 25.61 24.09 23.74 22.76 22.60 22.40 21.50 20.42 19.58 18.92 17.84 16.07

GFSNGP_sfc_wetblb_075.txt.gz
Wetbulb
31.74 33.86 33.91 32.07 31.80 31.11 24.20 29.57 24.43 30.25 30.72 34.83 36.93 36.83 37.27 39.00 40.66 42.57 42.43 42.48 41.93 40.43 39.13 38.66 38.50 38.38 38.53 38.89 39.60 39.78 38.87 38.08 37.31 37.31 37.22 36.95 36.56 36.71 37.26 37.02 37.42 37.77 37.43 37.63
24.91 32.69 32.47 29.54 33.01 32.93 32.10 32.34 31.30 32.08 31.91 37.72 40.35 39.50 39.04 39.55 41.40 42.22 41.55 41.66 41.42 40.71 39.26 37.95 37.61 37.97 38.57 38.04 38.20 38.86 38.09 37.41 37.69 37.27 38.27 37.59 37.14 36.87 36.50 36.42 36.50 37.06 37.83 37.75
21.34 30.49 29.98 24.93 30.50 32.11 32.33 33.13 32.83 28.56 34.00 37.70 38.12 39.96 40.45 40.54 42.36 42.56 41.60 40.48 40.36 39.34 38.46 38.34 37.82 38.21 36.83 36.87 37.50 36.99 36.77 36.81 36.80 37.33 36.53 36.06 36.23 35.12 34.77 34.15 34.43 34.30 35.54 36.52
23.23 25.93 19.39 29.91 35.22 36.91 34.54 35.33 35.42 35.82 36.93 39.18 39.70 39.82 40.46 41.80 42.30 41.81 40.59 39.99 39.67 39.73 39.34 39.50 38.23 37.73 37.38 37.44 36.60 36.48 35.95 36.48 37.14 36.63 35.68 35.57 34.34 33.85 33.49 33.31 32.52 32.93 32.76 33.57
23.55 22.60 27.41 31.58 33.71 33.57 32.69 32.53 37.33 36.07 37.62 39.00 40.50 39.94 38.91 40.53 40.14 40.25 38.85 39.46 39.51 40.21 38.23 37.69 38.09 39.24 38.12 35.52 35.20 35.29 34.84 36.08 36.47 36.18 35.04 34.92 33.56 33.23 32.97 32.63 32.07 32.44 31.44 29.10
27.97 20.81 21.95 32.68 35.62 38.36 38.46 32.87 38.19 38.11 37.93 38.21 40.00 34.96 38.48 36.70 36.66 37.48 38.31 38.97 38.24 36.94 37.35 37.07 38.28 38.90 37.30 35.62 35.79 35.34 35.24 35.60 35.99 35.89 34.90 33.67 33.34 32.77 32.89 33.02 31.67 29.23 26.43 27.97
25.16 22.55 28.23 36.51 38.56 39.32 32.42 32.03 39.65 40.21 40.11 40.44 38.81 39.30 39.17 36.21 35.71 37.46 37.70 37.47 36.39 36.24 36.08 37.83 38.71 38.15 36.06 35.74 34.63 35.87 35.72 35.21 35.38 35.39 34.42 33.99 33.17 33.06 30.72 24.82 24.81 24.16 27.33 27.32
29.83 27.01 21.53 37.99 37.73 34.71 38.90 41.97 43.06 42.61 41.13 41.04 39.73 37.36 36.61 36.70 37.09 37.85 36.63 35.96 35.62 35.27 36.64 38.02 38.25 36.99 35.21 34.02 35.56 35.50 35.21 34.38 34.14 34.56 34.92 33.53 30.78 27.94 28.13 26.71 24.59 23.84 23.98 24.15
29.66 29.09 36.41 39.89 39.03 40.73 42.52 41.03 40.73 41.31 41.27 42.57 40.45 38.90 38.22 37.21 37.86 37.32 36.65 35.19 35.56 35.19 36.30 36.78 36.93 36.83 34.36 34.71 35.99 35.53 34.94 34.26 34.63 35.02 32.44 31.30 28.13 26.86 25.54 24.34 22.92 21.81 22.72 22.04
32.81 35.20 35.93 39.58 40.61 41.30 41.48 41.01 41.37 41.61 41.89 42.46 41.83 39.96 38.51 38.22 38.05 37.52 36.58 34.64 35.01 34.37 32.76 33.18 35.08 35.98 35.91 36.11 36.51 35.92 35.03 34.68 32.42 30.89 30.12 28.77 26.41 25.29 23.54 22.42 21.70 22.30 22.84 22.08
33.06 35.74 36.27 38.42 40.96 41.57 41.71 41.89 41.05 41.30 41.36 41.44 41.70 40.29 38.48 38.02 37.57 38.19 36.49 35.04 34.74 33.60 32.85 33.92 34.61 35.56 36.31 36.73 36.69 35.80 35.33 33.25 28.76 26.09 24.72 24.54 25.35 22.15 22.60 24.31 24.20 22.18 22.67 23.15
31.86 37.54 38.10 37.93 40.15 41.19 40.75 40.12 39.59 39.40 40.21 42.83 42.63 42.20 39.82 37.78 38.18 38.03 36.72 35.73 34.07 33.91 33.76 34.43 35.18 35.59 36.50 37.19 37.08 34.57 31.09 25.87 25.01 24.28 22.77 24.79 25.15 25.33 32.16 31.80 32.81 32.28 31.07 26.66
37.11 39.60 40.00 40.82 40.73 40.61 39.86 39.50 39.54 38.70 38.96 38.88 40.95 42.15 40.91 38.31 37.79 39.07 37.35 36.26 34.66 34.66 34.92 34.94 35.52 35.40 37.10 37.54 37.38 31.47 26.74 24.94 25.47 24.59 23.02 23.49 23.86 24.16 23.60 26.90 30.71 30.29 30.11 30.11
40.77 40.71 38.42 39.07 38.41 38.79 39.52 39.22 39.61 38.23 38.74 39.32 39.90 41.82 41.18 39.18 38.33 37.00 35.94 36.42 36.58 36.07 35.66 35.41 36.27 36.11 37.61 37.86 34.24 28.20 26.34 30.91 24.11 23.73 24.26 24.29 24.48 24.97 23.70 22.77 21.47 21.41 27.59 27.27
38.60 38.94 38.82 38.65 38.50 38.73 38.40 38.43 36.48 36.91 37.53 37.55 39.31 40.37 40.55 38.76 37.29 36.68 36.29 37.42 37.02 36.33 35.91 35.69 36.22 35.93 37.58 36.63 30.98 26.88 25.25 25.36 23.97 23.90 24.23 25.39 23.53 22.70 22.08 21.85 20.29 19.35 19.61 25.06
36.87 36.73 36.72 36.44 36.82 36.93 36.19 36.12 34.87 35.45 36.23 36.68 36.87 37.53 39.63 39.74 38.39 37.51 37.17 37.90 36.74 35.39 36.03 35.91 36.04 36.48 36.15 34.17 28.96 25.95 25.18 29.25 27.29 23.78 23.83 23.18 22.61 22.15 21.00 20.43 19.64 19.23 19.17 19.71
34.28 32.01 33.22 33.57 34.70 35.74 36.33 36.54 36.13 35.70 35.70 35.88 36.26 37.47 37.57 39.45 39.93 38.21 37.59 37.88 38.30 37.84 37.43 37.03 36.72 37.42 35.60 33.50 28.65 26.79 25.40 26.85 30.26 23.54 22.57 22.19 21.99 21.60 20.86 20.36 19.95 19.51 19.31 22.12
35.69 35.62 35.78 34.77 35.76 35.76 36.10 36.68 36.54 37.44 37.64 37.96 37.73 36.52 36.42 37.40 37.54 38.10 37.19 36.89 36.19 36.41 37.44 38.04 38.15 36.74 35.36 32.81 29.93 27.83 26.97 26.97 27.12 23.85 22.79 22.58 21.95 21.04 20.73 20.59 20.21 19.37 19.32 21.51
35.67 34.85 34.71 34.62 34.15 34.17 34.56 35.75 36.33 36.00 35.21 34.66 32.95 32.08 33.19 34.98 35.79 37.45 37.28 35.62 34.77 34.38 36.10 36.73 37.37 35.97 34.02 32.51 31.32 29.04 27.81 26.72 26.60 24.30 23.65 25.75 24.97 21.92 21.04 20.29 19.93 19.72 19.64 20.79
32.71 33.51 34.20 33.98 34.50 34.55 34.31 35.14 34.79 34.52 34.85 33.99 33.16 33.22 34.33 37.47 36.78 34.78 34.11 34.78 35.20 35.07 35.51 34.66 36.04 34.94 33.69 31.82 34.06 29.28 28.11 26.92 26.31 25.52 23.77 23.53 23.28 22.99 21.46 23.46 21.25 21.00 20.55 21.13
32.85 33.11 33.33 33.05 33.19 34.01 34.19 33.62 32.48 32.06 32.69 34.02 32.40 31.40 31.68 33.74 35.34 34.79 32.40 30.22 32.62 32.86 32.47 34.90 35.43 34.90 33.29 32.73 33.92 29.15 28.36 27.11 26.48 25.19 24.61 25.10 23.61 23.22 22.27 21.45 21.76 21.81 21.14 20.86
33.21 31.45 31.42 31.93 31.94 31.77 32.56 32.57 31.13 30.79 30.93 30.80 31.32 31.54 30.94 30.57 31.50 31.57 32.11 30.92 29.01 35.61 31.28 32.17 34.77 35.17 33.26 34.90 33.08 29.41 28.90 28.38 27.30 25.63 24.42 24.56 23.58 23.28 22.64 21.92 21.32 21.47 20.66 19.27
31.29 30.87 30.84 29.72 28.87 29.78 31.39 30.67 30.09 30.21 29.26 29.83 29.78 29.63 29.59 30.46 30.74 29.61 29.60 31.13 29.07 31.74 29.57 30.98 34.13 35.55 35.57 34.09 32.41 30.41 29.67 28.85 28.07 26.61 25.20 24.33 24.41 24.09 23.44 22.49 21.67 21.09 19.69 19.68
27.39 27.87 27.62 26.80 26.81 26.82 25.42 26.67 27.47 28.26 28.44 30.06 30.08 30.16 29.35 28.62 29.58 30.58 30.89 32.97 34.22 34.08 32.66 32.20 34.33 36.21 37.02 33.00 31.50 30.18 29.37 28.66 27.95 26.94 25.90 26.62 24.63 24.23 23.22 22.15 22.02 20.30 20.37 22.19
24.63 23.36 22.40 21.39 22.90 23.41 23.84 24.99 25.65 26.29 26.46 27.11 28.29 29.51 30.11 30.26 28.72 29.49 29.51 29.57 31.50 32.27 31.27 34.13 35.27 35.54 34.15 31.89 30.16 29.22 28.80 28.37 27.65 26.11 24.84 25.37 24.95 23.76 23.12 22.43 21.80 21.52 21.21 20.30
22.33 22.22 22.36 22.81 22.46 22.24 23.10 24.19 23.56 24.47 23.97 23.72 25.84 27.93 28.16 27.90 28.54 29.01 29.04 29.76 29.62 30.63 30.55 30.63 31.63 32.18 31.46 29.60 28.73 28.18 27.63 27.09 27.46 26.51 25.52 25.19 25.01 24.00 22.94 22.24 21.65 21.89 21.11 20.45
19.57 23.95 18.20 20.03 21.05 20.92 21.28 23.91 23.03 22.77 23.15 22.46 23.94 25.90 25.90 25.59 26.00 27.83 29.60 28.90 28.79 29.15 29.54 29.62 30.38 32.18 30.67 29.20 28.29 27.30 26.91 26.77 27.88 26.96 26.48 24.92 24.31 23.73 22.73 22.15 21.03 20.35 19.91 19.22

GFSNGP_sfc_wetblb_078.txt.gz
Wetbulb
31.03 33.46 32.24 30.50 30.81 30.40 25.89 28.27 24.78 28.58 29.88 34.46 37.16 36.74 38.65 39.34 41.56 41.77 41.60 42.64 41.73 40.12 38.72 38.18 37.81 37.44 37.90 38.40 38.85 38.65 37.86 37.11 36.56 36.85 36.75 36.48 36.58 36.55 36.53 36.83 36.57 36.64 36.34 36.22
24.52 31.35 31.00 29.03 32.05 31.61 30.75 31.34 30.57 30.99 30.96 38.76 39.27 38.43 37.26 36.95 39.34 41.38 41.49 41.70 41.57 40.69 38.82 37.33 36.60 37.02 37.58 37.69 38.13 38.36 37.52 36.88 37.37 38.18 37.76 37.19 36.77 36.45 36.58 36.60 36.98 37.75 37.54 36.32
20.86 28.95 29.12 24.37 29.65 31.21 31.24 32.55 32.98 28.54 33.30 35.69 37.69 38.49 38.49 38.46 40.03 41.57 41.60 41.38 40.99 40.38 39.32 37.70 37.30 37.50 36.56 36.62 37.45 37.03 36.52 36.43 36.93 37.46 36.55 36.16 35.81 35.36 34.72 34.42 35.31 35.23 36.17 37.05
22.31 24.94 19.29 28.34 33.93 35.28 33.57 34.46 34.85 34.93 35.97 37.38 38.57 39.41 39.49 40.42 40.94 41.40 41.44 40.44 40.03 38.66 37.92 38.39 38.76 37.87 36.87 36.94 36.41 36.36 35.50 35.86 37.23 36.60 35.84 35.04 34.77 33.91 33.40 33.53 33.53 34.03 33.45 34.09
23.32 22.11 25.75 29.61 32.89 32.76 31.80 31.52 36.08 35.14 36.40 37.86 38.86 39.10 38.12 40.54 40.76 42.17 41.49 40.23 39.45 39.39 39.01 38.73 37.07 37.02 36.69 36.76 36.31 35.46 34.97 36.37 36.70 36.21 35.08 34.42 33.38 32.77 33.28 32.77 32.65 32.47 32.28 30.15
23.62 20.19 20.91 29.59 34.52 36.80 37.51 29.87 36.94 36.95 36.65 38.07 38.71 33.08 36.24 37.47 37.26 37.92 38.49 38.96 38.90 38.93 38.54 37.49 36.75 37.17 36.04 35.57 35.15 34.46 35.55 36.24 36.13 35.95 35.14 33.68 33.39 32.90 32.49 29.64 26.87 27.56 26.33 26.46
24.53 20.93 26.61 33.05 37.14 38.78 29.66 29.53 37.90 37.19 37.11 38.36 37.51 37.83 39.04 36.63 35.73 37.07 37.58 37.04 37.17 37.54 36.30 36.89 37.88 37.91 36.43 35.99 34.73 36.09 36.21 36.03 35.86 35.53 34.66 33.82 33.25 33.19 31.14 24.22 25.44 22.90 26.25 25.93
26.09 24.50 19.37 37.21 35.93 35.37 37.52 41.75 41.61 40.33 40.20 40.08 39.16 37.19 36.30 36.25 36.10 36.68 36.20 37.13 36.04 35.16 35.58 37.18 38.58 37.46 35.81 34.84 35.86 35.65 35.35 35.16 34.73 34.48 34.72 34.06 32.96 27.31 27.44 26.19 24.65 23.85 24.23 24.67
28.98 27.91 35.10 38.06 37.84 39.93 43.11 40.95 40.61 42.13 41.49 41.94 39.11 37.89 37.11 36.26 37.36 37.19 36.69 36.02 35.87 34.51 34.98 36.67 37.58 37.16 35.24 35.30 35.68 35.28 34.51 34.03 34.52 34.85 33.56 32.79 27.94 26.71 25.43 23.91 22.73 21.81 23.53 22.68
32.14 33.45 35.56 38.48 39.40 40.84 40.80 40.86 40.71 41.43 41.74 43.17 41.48 40.42 38.52 37.77 37.65 36.96 36.73 35.66 35.12 34.44 33.41 32.88 35.35 36.71 36.37 36.10 35.99 35.41 33.89 33.99 34.42 32.83 31.40 28.26 28.02 26.37 23.48 22.11 20.86 21.75 22.04 21.67
31.95 34.26 35.53 36.91 39.27 40.88 40.80 41.14 41.20 41.45 40.97 40.82 41.33 41.13 38.68 37.99 37.24 37.05 36.70 35.94 34.96 33.87 32.80 32.17 33.30 34.25 36.57 36.68 36.51 35.33 34.85 33.91 32.44 30.22 29.05 26.11 24.22 22.46 20.90 21.48 23.33 21.64 21.72 22.41
31.43 36.27 36.15 37.08 39.50 41.09 40.40 39.58 39.36 39.25 39.01 41.29 42.32 41.92 40.20 38.22 37.44 37.06 35.95 34.98 34.87 33.68 32.86 32.64 33.62 35.36 36.28 37.05 36.69 35.71 34.42 31.52 29.28 25.14 22.55 24.02 22.69 23.86 30.95 31.79 32.92 31.69 30.67 26.26
36.72 38.24 39.05 40.07 40.33 39.70 39.65 39.20 39.13 38.26 38.18 37.74 39.09 40.49 39.64 38.23 37.79 38.62 36.39 35.96 35.61 34.30 34.07 33.87 35.01 35.44 36.54 37.13 36.85 35.28 33.46 27.05 25.90 24.07 23.11 23.57 23.99 24.37 23.79 27.36 31.58 31.70 31.82 31.60
38.81 40.15 38.14 39.26 37.97 38.50 39.00 38.78 39.38 36.93 37.54 37.86 38.25 39.90 40.08 38.63 37.94 37.17 35.81 36.27 36.34 35.66 35.11 34.50 35.28 35.06 36.86 37.34 36.70 32.68 28.44 31.54 25.37 23.15 23.32 23.67 23.83 24.04 23.60 23.09 21.86 21.35 28.56 28.75
37.38 37.86 37.91 38.26 37.89 37.54 36.91 37.55 35.11 35.65 35.90 36.34 37.05 37.86 38.98 38.12 37.65 38.12 37.01 36.15 36.48 35.60 35.09 35.26 35.28 35.58 36.78 37.40 36.14 31.08 27.36 26.48 24.57 24.09 24.20 25.74 24.45 24.35 23.58 23.02 21.83 19.60 19.52 25.10
36.13 36.12 36.40 36.07 36.51 36.08 34.70 34.26 33.08 34.25 34.80 35.04 35.34 36.14 36.70 37.69 37.73 37.49 37.38 37.08 35.83 35.12 35.62 35.59 35.48 36.83 36.61 36.92 33.86 28.58 26.86 30.04 28.22 25.00 24.52 24.51 22.82 23.01 22.15 21.49 20.32 19.28 18.53 19.27
33.57 31.76 33.30 32.52 33.78 32.84 33.09 35.82 36.65 36.19 34.59 34.49 34.81 35.67 35.97 36.28 36.45 36.78 37.66 37.52 37.49 37.42 37.09 36.51 36.05 37.44 36.82 35.30 32.71 30.09 26.61 27.81 31.26 24.96 24.25 24.33 23.32 22.39 21.62 20.37 19.75 19.14 19.05 21.54
35.03 36.04 36.31 36.01 35.56 35.33 35.63 36.33 36.75 37.01 36.41 35.73 35.50 34.90 32.79 32.59 33.80 35.36 37.04 37.55 36.80 36.84 37.23 37.41 37.32 37.27 36.85 36.29 34.37 30.80 28.36 27.72 28.98 26.24 24.90 24.12 23.28 22.86 21.97 21.12 20.13 19.44 19.23 20.84
34.98 34.32 34.13 34.20 33.96 34.21 34.71 35.03 35.70 35.83 35.68 35.29 33.85 32.53 31.08 31.22 32.25 33.82 35.90 34.75 35.17 34.41 36.34 36.72 37.46 37.06 36.61 36.49 34.87 31.91 30.07 28.04 27.94 27.18 25.33 27.12 25.93 23.39 22.08 21.36 21.04 20.27 19.83 20.51
32.32 33.00 33.47 33.73 34.37 34.24 33.80 34.16 33.65 33.47 34.00 33.95 34.13 32.87 32.22 32.95 34.24 35.52 35.66 33.32 34.51 35.31 36.97 36.83 37.25 36.69 36.20 35.65 36.48 32.37 30.36 29.08 27.92 27.54 25.56 25.13 24.72 23.87 22.78 24.18 22.08 22.29 21.42 21.10
32.92 33.18 33.17 33.17 33.11 33.26 32.32 31.74 30.84 30.85 31.42 31.92 31.86 31.92 31.55 31.59 32.31 33.13 32.43 33.15 34.09 33.78 32.14 34.91 35.39 35.82 35.51 34.67 35.18 32.18 30.52 29.00 28.01 27.15 25.98 26.23 24.90 24.57 23.27 22.78 22.93 22.56 21.81 21.62
32.69 30.99 30.84 30.91 30.04 29.83 31.30 31.50 28.66 28.87 29.73 29.81 30.50 30.55 30.23 30.42 30.77 30.77 32.00 32.26 32.15 34.81 33.26 27.39 29.93 34.04 34.12 35.99 33.65 33.01 30.44 29.25 29.15 28.51 26.42 26.33 25.14 24.66 23.77 23.24 22.75 22.95 22.50 22.13
31.21 30.68 30.40 29.04 27.37 27.26 28.72 29.18 28.96 29.52 28.92 28.72 29.19 28.84 28.59 29.31 30.10 29.17 29.01 31.77 31.93 32.74 32.44 28.45 31.95 35.68 37.12 34.87 33.18 33.15 30.51 29.40 29.66 29.24 28.33 27.79 26.77 25.60 24.88 24.15 24.06 23.83 23.16 22.54
27.62 26.93 26.50 25.29 26.07 25.02 23.65 24.84 24.41 27.28 27.43 27.83 28.19 28.20 28.51 27.59 28.34 30.33 30.52 31.56 32.50 32.61 32.42 32.65 34.08 36.08 36.87 34.50 32.91 32.53 31.20 30.38 30.03 29.59 28.81 30.01 27.50 26.82 26.15 25.18 25.07 24.07 23.24 23.74
24.17 22.58 21.60 20.78 22.00 22.23 22.10 23.35 24.37 24.88 23.85 23.45 24.75 26.91 27.63 28.81 28.51 28.94 29.70 29.68 31.01 31.37 30.68 33.37 34.98 35.53 33.61 32.85 31.88 31.37 30.45 30.29 30.16 29.34 28.19 28.04 26.94 26.18 26.65 26.69 25.29 24.09 22.95 22.12
23.37 22.22 21.77 22.03 21.78 21.66 21.49 22.91 23.03 23.54 23.89 21.95 23.36 25.09 26.09 26.08 25.45 26.70 27.89 30.21 30.07 30.67 29.60 30.30 31.05 31.64 31.33 31.15 30.68 30.21 29.62 29.23 29.84 29.76 27.85 27.16 27.09 27.22 27.14 26.15 24.82 24.02 23.69 21.86
21.61 23.92 17.83 19.70 20.06 20.15 19.77 21.52 21.94 21.94 22.77 21.49 22.01 24.39 23.90 24.94 24.86 25.69 26.64 25.98 27.29 28.30 28.83 29.64 29.72 30.22 30.79 29.89 29.47 28.88 28.45 28.05 28.91 27.90 27.34 26.49 27.04 27.29 26.55 25.67 24.44 23.04 21.54 21.30

GFSNGP_sfc_wetblb_081.txt.gz
Wetbulb
29.88 32.32 31.67 30.69 30.68 33.20 31.45 31.14 25.14 27.79 27.84 33.25 34.19 35.40 37.26 40.34 41.99 41.39 41.57 41.91 40.96 39.49 38.71 38.11 37.75 37.45 38.01 39.00 38.42 37.93 37.08 36.52 35.96 36.10 36.19 35.85 35.75 35.92 36.17 36.08 35.79 35.77 35.52 35.62
25.26 31.43 31.18 29.66 31.31 33.12 33.58 32.88 30.59 30.18 30.10 35.87 37.73 36.86 37.13 38.02 40.45 41.01 41.70 42.62 41.35 40.00 38.27 37.45 37.10 36.59 37.68 38.14 37.77 37.86 36.78 36.34 37.03 37.46 37.56 36.31 36.76 36.82 36.89 37.02 37.08 35.82 35.41 36.33
19.34 28.70 28.42 23.51 28.97 30.60 31.72 31.55 32.99 28.83 34.06 35.38 35.27 37.75 37.46 37.15 40.22 41.57 41.52 41.47 42.11 41.04 39.60 37.58 37.40 37.55 36.70 37.29 37.77 36.77 36.22 36.12 36.81 37.66 36.81 36.22 36.08 35.73 35.17 35.34 36.22 36.14 36.69 36.87
22.34 23.88 17.37 26.50 32.76 34.05 33.23 33.42 33.71 34.08 35.40 36.94 36.52 38.52 38.34 38.09 39.73 40.32 41.59 41.11 40.85 39.94 38.52 38.14 37.68 37.26 36.34 36.88 36.67 36.25 35.36 35.57 36.71 36.76 35.71 35.46 34.72 34.25 33.87 34.34 34.30 34.58 33.66 34.26
22.96 20.95 24.74 27.52 31.67 31.72 30.91 30.88 35.90 35.13 35.92 36.98 37.48 38.03 37.47 41.14 41.15 40.92 42.06 41.95 40.82 39.32 38.35 37.51 37.74 37.43 36.93 36.06 35.76 35.64 34.81 35.36 36.56 36.46 35.16 34.51 33.37 33.20 33.50 33.42 32.76 32.51 32.51 29.92
22.59 19.17 19.39 27.78 34.04 35.86 35.72 27.31 36.29 36.26 36.06 37.08 36.90 32.53 35.55 39.60 38.57 39.22 39.40 39.27 38.66 37.96 37.59 36.90 36.68 37.68 35.98 35.36 35.57 35.50 35.67 35.82 36.49 36.11 34.93 33.70 33.30 32.90 32.52 32.56 31.14 28.80 27.23 26.55
24.77 20.28 25.50 31.35 36.21 36.81 25.86 27.63 36.86 36.21 36.20 37.39 36.61 36.39 37.92 36.85 36.66 36.78 37.55 37.65 37.18 37.02 37.12 37.66 37.28 35.83 34.52 35.18 35.29 36.17 36.77 36.38 36.04 35.80 34.61 34.11 33.28 32.96 29.60 26.81 25.68 22.55 25.46 24.92
26.90 25.98 18.81 35.25 35.11 31.77 35.44 39.75 39.52 37.44 37.39 38.41 38.57 37.43 36.22 36.22 36.15 37.00 36.58 36.97 36.45 36.15 36.46 36.57 36.83 36.33 35.86 35.15 36.08 36.05 36.01 35.62 35.03 34.91 34.75 34.22 32.65 30.91 27.16 26.22 24.71 23.52 23.85 24.77
27.61 27.01 33.62 35.85 36.31 37.78 42.69 41.35 39.82 42.01 40.60 40.48 38.29 38.01 37.06 36.24 36.19 36.79 37.20 36.72 36.70 36.53 35.65 35.82 36.50 37.47 35.86 35.83 35.89 35.36 35.18 34.57 34.43 34.45 33.99 33.67 30.07 26.95 25.26 24.70 23.46 22.48 24.32 23.39
31.83 33.08 33.71 36.27 38.37 39.52 40.06 40.57 39.74 40.60 41.60 43.10 41.56 40.38 39.43 37.97 37.09 37.12 36.17 35.52 35.74 35.27 33.24 32.85 34.62 36.58 36.65 36.28 36.00 35.10 34.25 34.27 34.48 32.99 32.52 31.28 29.24 27.26 24.30 22.39 21.17 22.36 22.32 21.76
31.63 34.24 34.86 36.26 38.54 39.90 39.93 40.73 40.43 41.06 40.43 40.65 41.92 41.93 40.47 38.50 37.40 37.10 35.66 36.01 35.24 34.77 32.86 32.86 33.35 35.18 36.61 36.49 36.18 34.84 34.26 33.89 33.74 32.95 32.41 29.44 26.60 24.31 21.95 21.85 23.50 21.46 21.47 22.25
31.04 36.14 35.93 35.75 37.94 40.63 40.18 39.54 39.46 39.37 39.22 40.21 40.82 41.49 40.84 38.83 37.95 36.63 35.47 35.30 35.10 33.99 33.45 33.00 33.44 34.01 35.73 36.91 36.55 35.35 34.09 33.56 33.07 32.01 28.94 26.22 22.94 21.30 30.10 29.61 31.80 31.91 30.56 25.85
36.62 37.44 38.43 38.82 39.70 39.75 39.28 38.91 38.73 38.39 38.12 37.56 38.52 39.07 39.46 39.03 37.87 38.31 36.26 35.33 35.96 35.51 34.88 33.54 33.45 34.24 36.43 37.16 36.73 35.59 34.29 32.72 32.64 28.83 23.87 22.27 21.27 22.40 23.77 28.07 32.56 32.96 32.68 32.08
37.40 39.84 38.14 38.96 38.21 38.84 38.82 38.57 39.21 36.77 37.12 37.24 37.27 38.75 39.38 38.27 37.40 36.90 36.00 36.42 35.92 36.09 35.46 34.92 34.45 34.65 36.43 37.14 36.49 35.35 33.76 34.31 28.63 24.51 22.93 22.73 22.85 23.65 23.83 23.69 22.93 22.45 29.36 30.30
37.43 36.81 37.21 37.86 37.52 37.02 36.61 37.13 34.85 34.92 34.79 35.23 35.84 35.83 36.41 36.54 36.49 37.66 38.01 36.16 36.08 35.28 34.89 35.09 35.06 34.79 36.70 37.03 36.10 34.36 32.64 31.74 26.24 23.96 23.06 25.05 24.63 24.36 23.97 23.48 21.94 20.30 19.89 25.55
35.65 36.16 36.50 36.08 36.14 35.86 35.02 34.04 32.27 33.18 33.75 33.75 34.10 34.81 35.31 35.62 35.56 36.12 36.54 36.64 35.81 34.98 35.37 35.13 35.15 36.13 36.49 36.79 35.80 34.11 31.88 31.82 28.39 24.73 23.41 23.87 23.53 23.77 23.55 22.69 21.85 20.80 19.38 20.08
32.87 31.15 32.57 32.44 34.05 33.19 32.86 34.20 34.50 35.65 36.01 35.74 35.27 34.21 34.39 34.30 34.03 34.58 35.47 35.84 36.09 36.88 37.03 36.38 35.91 36.96 36.62 36.67 35.90 34.58 31.36 29.74 32.87 25.91 24.67 24.79 23.96 23.53 23.50 22.89 21.68 20.78 20.51 21.75
35.28 36.04 35.92 35.79 35.45 35.14 35.21 35.79 36.31 36.40 35.64 35.45 34.97 33.21 32.58 31.36 30.29 31.18 32.79 34.89 34.86 34.79 35.90 37.09 36.99 36.79 36.89 36.76 35.96 35.04 30.66 29.49 29.90 26.91 25.64 24.48 24.78 23.98 22.65 22.81 22.01 20.97 20.39 21.29
34.55 33.92 33.96 33.72 33.96 34.30 34.73 34.80 34.80 34.95 34.86 34.57 34.12 33.10 32.83 32.42 31.58 31.22 32.44 32.65 32.77 32.42 35.08 36.86 37.23 36.64 36.48 36.81 36.40 35.35 31.76 29.75 28.97 28.36 26.29 27.90 26.82 24.82 24.08 23.38 22.82 22.03 21.34 21.41
32.96 33.54 33.65 33.74 34.17 33.69 32.91 32.77 32.07 32.29 32.64 32.35 32.84 33.03 32.67 32.37 32.36 31.49 33.23 33.72 34.82 34.94 33.79 35.32 36.22 36.48 35.86 36.27 37.98 34.83 32.48 31.63 30.73 29.87 28.09 26.47 25.86 25.70 24.73 25.87 23.77 22.84 21.95 21.98
32.66 32.71 31.49 30.62 30.93 31.79 31.90 32.21 29.97 29.63 29.57 30.83 30.75 30.62 30.61 31.35 32.00 31.21 29.91 31.67 32.65 33.66 34.33 35.05 32.95 34.93 36.23 36.52 37.20 35.80 32.98 32.08 31.32 30.48 28.94 28.43 26.35 25.91 24.38 23.98 23.92 23.32 22.59 22.56
31.82 31.19 30.21 29.10 27.88 27.63 28.77 28.76 27.75 27.86 28.24 27.68 28.18 29.03 28.88 28.92 29.41 30.16 31.45 30.73 32.03 34.64 33.57 32.29 32.23 34.46 34.81 37.46 35.05 35.13 33.10 31.80 31.22 30.66 29.83 28.70 27.96 26.37 25.23 24.49 23.86 23.85 23.32 22.91
31.28 30.52 30.07 28.16 26.33 27.26 27.79 26.89 25.61 25.52 25.73 26.07 26.77 27.29 27.27 27.73 28.38 27.87 27.62 30.66 31.82 32.80 32.77 32.30 33.90 35.21 36.05 35.76 33.58 33.48 33.17 31.61 30.80 30.46 30.48 29.39 28.96 28.19 27.64 26.63 25.94 24.94 24.30 23.70
28.00 26.83 26.39 24.99 24.14 23.81 20.64 21.69 22.32 24.12 25.31 25.15 25.31 25.91 25.49 26.09 26.55 27.80 29.12 30.86 31.88 32.23 31.82 32.35 33.86 35.60 36.50 33.50 33.29 32.65 32.72 31.87 31.04 30.96 30.54 31.65 29.87 29.63 28.86 28.44 27.60 26.27 25.13 25.66
26.33 23.65 21.62 20.28 21.41 21.86 21.28 22.39 22.83 22.80 23.05 21.01 22.68 24.86 25.44 25.21 24.18 25.70 26.51 27.96 30.71 31.43 30.29 32.30 33.86 34.59 32.71 31.90 32.10 32.03 32.10 31.79 31.43 30.93 30.26 29.74 29.55 29.02 28.73 28.33 28.29 28.15 26.52 25.26
24.35 22.77 21.66 21.63 21.18 20.93 20.55 20.63 21.66 22.79 23.44 21.70 21.82 23.28 24.00 24.36 24.41 24.70 24.91 27.11 27.14 29.01 28.45 29.45 30.16 31.10 31.08 31.15 31.35 31.43 31.36 30.89 31.22 31.62 29.99 29.21 29.33 28.55 28.28 28.08 28.11 29.30 28.83 26.46
22.75 25.64 20.74 20.47 19.74 19.73 19.18 19.76 20.05 19.64 21.47 20.02 20.26 23.27 22.32 22.76 23.25 23.86 24.91 24.38 24.42 25.04 25.92 27.05 28.19 29.28 29.80 29.96 30.29 30.11 29.88 29.69 30.56 29.66 30.03 28.82 28.31 28.22 27.84 27.86 27.93 27.40 26.97 25.81

GFSNGP_sfc_wetblb_084.txt.gz
Wetbulb
29.20 31.17 31.62 30.24 30.54 31.69 27.73 29.31 24.69 25.39 27.87 32.82 34.23 33.87 35.19 39.43 40.65 40.53 40.42 40.72 40.24 39.23 38.09 37.35 37.04 37.68 39.04 38.53 37.57 37.23 36.63 36.07 35.29 35.60 35.31 35.29 35.46 35.43 35.46 35.50 35.04 35.30 35.01 35.11
25.36 30.71 30.20 29.27 30.62 32.22 32.56 32.32 30.09 30.40 29.10 34.38 35.66 33.42 35.31 38.20 40.36 40.89 41.39 41.88 40.94 40.13 38.21 36.84 36.40 36.37 38.04 37.93 37.81 37.57 36.24 35.68 36.13 35.92 36.05 35.84 36.47 36.62 36.24 35.85 35.54 35.49 35.50 36.56
20.32 28.24 27.97 23.83 28.60 30.92 32.27 32.63 33.45 28.50 34.34 36.05 33.87 35.97 36.74 37.39 40.53 41.93 41.45 42.17 42.05 41.03 39.43 37.56 36.72 36.73 37.03 37.33 37.27 36.72 36.40 36.37 36.72 37.52 37.04 36.58 36.48 36.28 35.99 36.13 36.48 36.50 36.64 36.97
23.47 24.20 17.71 27.33 31.98 33.28 32.61 33.07 34.24 33.64 33.87 35.52 35.64 36.28 37.63 38.03 39.86 40.80 41.76 41.91 42.20 41.57 39.39 38.27 37.12 36.86 36.80 37.53 36.57 35.89 35.32 35.54 36.36 36.77 35.93 35.67 35.36 34.76 34.76 35.37 35.05 34.96 33.91 34.62
22.11 20.86 24.77 28.14 30.68 31.03 30.22 30.16 34.99 34.27 36.22 35.76 36.14 35.17 36.68 38.84 39.24 40.18 40.55 41.85 42.15 41.86 39.72 37.81 37.78 37.10 35.99 35.68 35.96 35.64 34.70 35.49 35.90 36.71 35.50 35.01 33.88 33.74 34.22 33.94 32.98 32.73 32.86 31.72
23.06 18.66 18.43 26.34 33.38 34.91 34.09 27.07 35.04 35.43 35.83 35.36 36.52 31.36 34.95 38.69 39.47 40.04 40.87 41.33 39.80 38.70 37.81 37.13 36.11 36.51 35.80 35.23 35.79 34.09 35.19 36.46 36.64 36.32 35.31 34.03 33.79 33.20 32.68 33.16 31.77 30.98 28.17 28.42
27.19 22.21 24.94 30.19 33.11 35.67 26.04 27.09 36.95 35.07 35.12 35.92 35.28 35.43 36.65 36.52 37.12 37.46 37.85 37.61 37.85 37.72 37.48 37.01 36.84 36.52 35.92 35.58 34.74 35.88 36.93 36.83 36.46 35.97 34.97 34.25 33.45 33.01 32.03 30.88 28.29 25.38 26.59 26.29
28.35 26.16 18.89 32.48 33.85 30.52 34.48 40.24 40.10 36.32 35.01 36.62 36.81 36.46 35.93 35.84 36.11 36.75 36.24 37.01 36.97 36.22 35.76 36.08 36.15 35.67 34.37 33.73 35.92 36.66 36.50 35.95 35.47 35.01 35.25 34.38 33.00 30.98 30.25 27.48 25.71 24.68 25.18 25.78
27.32 26.97 32.56 34.02 36.05 37.33 41.26 41.34 39.97 41.40 38.28 39.19 37.72 36.42 36.25 35.88 35.47 36.04 36.38 36.30 36.82 36.11 35.57 35.50 35.61 35.31 33.76 34.57 36.34 35.95 35.72 35.03 34.86 34.81 34.36 33.44 31.34 29.26 26.82 26.02 24.93 23.73 25.45 24.30
30.48 32.15 32.70 34.39 36.58 38.19 38.74 40.97 39.08 40.12 41.25 41.68 40.09 39.32 39.08 38.08 36.18 36.80 36.19 34.93 35.40 35.10 35.55 35.26 34.84 35.81 35.90 36.17 36.20 35.57 34.91 34.64 34.37 33.41 33.03 31.98 31.29 29.15 26.10 24.68 23.52 24.43 24.12 23.20
30.84 33.24 33.87 35.48 37.01 38.59 38.72 40.72 39.96 40.21 40.16 40.37 41.33 41.80 40.83 40.22 38.88 37.26 36.01 35.11 34.97 35.48 34.55 34.85 33.62 34.03 35.10 36.52 36.11 34.93 34.72 34.38 33.64 32.98 32.55 30.88 28.89 27.10 24.83 24.03 25.29 22.82 22.37 22.51
30.40 35.29 34.84 34.96 36.75 39.42 39.58 38.92 38.54 38.90 38.75 39.61 39.93 40.02 40.66 39.59 38.87 37.72 36.20 35.45 34.50 35.49 35.06 33.63 33.28 34.89 36.41 36.46 36.13 35.13 33.86 33.45 33.30 32.78 31.37 30.84 27.23 24.35 31.50 30.27 31.49 32.08 30.87 25.65
35.96 36.43 37.24 36.66 38.11 38.80 38.99 38.50 38.47 37.73 37.96 37.52 37.95 38.55 39.15 38.48 37.88 38.60 36.60 35.48 34.89 35.98 35.81 34.92 34.49 34.01 35.87 36.70 36.56 35.45 34.06 33.53 33.57 32.81 30.65 28.96 25.03 22.46 22.00 27.42 33.58 34.15 33.78 32.83
36.80 38.58 37.65 37.07 36.77 37.87 38.35 37.59 38.57 36.41 36.43 36.37 36.38 37.28 37.55 37.27 37.22 36.64 36.17 36.09 35.43 36.20 36.13 35.48 34.78 34.55 35.62 36.87 36.57 35.59 34.53 35.57 33.22 31.57 30.26 26.36 23.26 22.94 23.04 24.09 23.85 23.68 30.09 31.52
36.56 36.31 36.70 37.42 37.11 36.62 36.53 36.99 35.03 34.40 34.27 34.76 35.41 35.39 35.49 34.88 34.74 35.36 36.50 37.20 36.46 35.68 36.00 35.64 35.05 34.95 36.32 36.56 36.09 35.14 33.94 33.78 32.03 28.91 28.37 27.32 24.34 23.05 23.08 23.17 22.49 20.97 19.93 25.60
34.50 35.02 35.77 35.56 35.59 35.14 34.48 33.97 32.62 32.80 33.05 33.05 33.29 33.74 34.07 34.18 33.87 34.00 34.73 35.35 34.25 35.02 36.06 35.75 35.16 36.23 36.50 36.31 35.48 34.90 33.96 34.18 31.82 28.65 26.00 25.03 23.42 23.31 22.80 22.44 21.69 21.44 20.53 20.69
31.99 31.20 32.27 32.33 33.76 32.99 33.01 33.72 33.94 33.93 34.43 35.26 34.81 34.73 34.02 32.67 32.27 32.18 32.06 33.30 34.77 34.95 36.66 36.70 36.14 36.79 36.19 36.28 35.62 35.20 33.60 33.64 34.50 28.64 25.61 24.99 24.40 23.51 23.60 22.98 22.83 22.56 22.62 23.04
33.80 34.65 35.38 35.32 34.59 34.93 34.45 34.74 35.72 35.57 35.11 35.28 35.04 33.98 31.74 30.07 29.81 29.87 30.47 31.59 32.22 33.16 35.68 36.93 36.87 36.24 36.43 36.12 35.91 35.86 34.06 32.49 33.26 29.68 27.04 25.14 24.80 24.73 23.91 23.95 24.12 23.46 22.29 22.00
34.41 33.76 33.81 33.82 34.11 34.37 34.70 34.12 33.16 33.23 33.70 32.65 32.14 32.29 33.44 32.97 32.28 32.27 32.17 30.33 30.58 30.30 32.50 35.60 37.09 36.29 35.53 36.15 36.66 35.87 33.72 31.92 31.16 31.15 28.35 28.88 27.50 25.26 24.30 24.20 24.19 23.65 22.91 22.09
33.29 33.79 33.76 33.73 33.76 33.32 32.61 31.90 30.42 29.79 30.17 30.26 31.34 31.51 31.11 31.46 31.97 31.96 31.93 29.72 32.46 33.89 34.44 34.51 34.93 34.50 34.33 35.80 38.00 35.47 34.15 32.67 31.54 31.17 29.69 28.57 27.62 26.10 24.95 26.32 24.25 24.06 23.21 23.02
32.09 31.55 30.57 29.96 30.12 30.69 30.17 30.43 29.07 28.50 27.66 27.69 27.58 28.70 28.89 30.01 30.65 30.40 29.87 29.74 31.32 32.29 33.63 34.10 33.59 33.84 34.54 35.63 36.84 36.12 34.25 32.98 32.26 31.72 30.94 30.62 29.58 29.22 27.02 25.52 25.13 24.35 23.56 23.40
32.59 31.48 30.78 28.87 26.83 27.48 28.31 26.84 24.91 25.74 26.16 26.02 26.20 26.09 25.94 25.55 26.19 27.67 29.16 30.11 30.99 33.34 32.92 32.40 32.45 33.68 34.28 36.55 35.55 35.65 35.07 33.50 32.84 32.59 32.14 31.71 31.04 29.80 29.02 27.63 26.59 26.04 24.58 24.30
31.49 30.63 29.75 27.30 24.39 23.80 25.09 24.18 23.64 23.90 23.76 24.09 24.31 25.93 26.30 25.16 25.17 26.12 25.66 27.65 30.00 31.26 31.58 31.19 33.14 35.02 36.14 35.31 34.34 34.16 34.30 33.53 32.78 32.39 32.24 32.12 31.50 31.00 29.96 29.10 28.13 27.75 26.86 24.94
28.70 26.55 25.72 25.10 24.26 24.59 21.80 21.65 22.04 23.67 23.40 23.51 22.89 22.63 22.49 22.91 23.91 23.74 24.48 27.45 29.55 30.84 30.75 30.98 32.51 34.02 35.22 33.11 33.00 32.91 32.89 32.94 32.44 32.20 31.81 33.48 31.45 30.90 30.47 29.93 29.48 28.55 27.85 28.27
26.45 24.58 23.36 22.21 22.07 21.57 20.88 21.08 21.43 22.16 22.18 21.69 20.78 22.09 23.72 22.78 21.84 23.77 24.54 24.52 27.90 27.52 26.00 29.70 31.90 32.52 31.28 31.18 31.44 31.70 31.93 31.99 32.20 31.85 31.58 31.16 30.94 30.57 30.53 30.37 29.98 29.83 28.79 28.21
24.63 23.31 22.28 22.36 21.97 21.14 20.79 20.15 19.11 21.09 21.99 20.94 20.56 21.76 22.70 21.94 22.42 22.82 22.80 24.58 24.54 26.19 24.43 25.33 27.33 28.69 29.24 29.39 30.11 30.78 31.33 31.60 32.03 32.02 31.80 30.63 30.39 30.28 29.88 29.61 29.22 29.53 29.99 28.81
21.63 26.92 22.52 21.48 20.52 19.86 19.60 19.48 19.22 18.36 19.87 19.87 18.84 21.28 20.33 20.01 21.02 21.76 22.62 21.58 22.25 23.27 23.53 24.46 23.79 25.35 26.24 27.04 27.10 28.01 29.33 29.99 31.05 30.30 30.47 30.54 29.68 29.63 29.10 28.87 28.88 28.85 28.99 29.37

GFSNGP_sfc_wetblb_087.txt.gz
Wetbulb
30.51 31.73 32.57 31.86 31.79 31.51 25.68 28.60 25.88 28.49 28.90 34.89 35.45 36.12 36.06 38.59 40.66 40.67 41.42 41.78 41.65 40.93 40.41 39.95 39.79 40.34 41.11 40.53 39.87 39.80 39.00 38.35 37.57 37.63 37.82 37.76 37.64 37.50 37.54 37.76 37.46 37.66 37.63 37.47
27.07 31.53 31.42 30.33 31.58 31.83 32.07 31.93 30.80 30.59 30.17 35.26 36.92 37.03 36.96 38.67 40.51 40.75 41.68 42.63 42.07 41.57 40.48 39.51 39.35 39.36 40.21 39.87 39.27 39.41 38.56 37.66 37.49 37.38 37.68 37.57 37.84 37.70 37.44 37.37 37.58 37.91 38.06 38.72
22.32 29.02 28.86 23.90 28.57 30.67 32.22 32.50 33.19 29.55 34.61 36.49 36.12 36.81 37.95 37.61 40.63 41.85 42.47 43.03 42.87 42.52 41.76 40.50 39.59 39.61 39.44 39.43 39.21 38.63 38.07 37.47 37.58 38.02 37.65 37.80 38.03 37.82 37.38 37.35 38.02 37.79 37.97 38.19
25.02 25.30 17.84 27.15 32.01 33.22 32.65 33.35 34.99 35.12 35.38 37.15 37.83 38.13 38.46 38.90 40.33 41.96 43.00 43.05 43.82 43.57 42.39 41.57 40.19 39.02 39.21 39.07 38.42 38.06 37.53 37.42 38.06 38.10 37.48 36.99 36.55 36.09 36.29 36.69 36.38 36.48 34.79 36.16
24.45 22.59 25.81 28.86 31.28 31.03 30.28 30.99 34.90 35.47 37.25 36.38 37.57 37.21 37.67 39.26 39.81 42.46 43.29 43.74 44.22 44.83 43.44 40.93 39.95 39.40 38.87 37.89 37.79 37.28 36.78 36.96 37.49 37.49 36.78 35.98 35.11 34.90 35.45 34.87 33.93 33.92 35.04 35.09
25.08 20.87 19.58 27.10 34.39 35.44 34.90 28.52 35.53 35.81 35.65 34.93 36.64 32.70 35.67 38.95 39.56 40.62 41.76 42.39 42.63 42.21 40.65 40.36 39.14 38.53 37.89 37.10 37.00 36.58 36.97 37.33 37.81 37.67 36.57 35.27 34.83 34.26 33.46 34.54 32.92 32.55 31.58 32.42
26.27 23.86 25.79 30.65 32.81 35.93 27.06 28.84 37.21 36.84 35.96 35.24 35.37 36.50 37.32 37.98 38.26 39.19 39.49 39.97 39.88 39.36 39.33 38.92 37.98 38.13 37.26 36.88 36.42 37.54 37.34 37.82 37.52 37.03 36.08 35.20 34.23 33.76 33.19 32.33 31.15 30.20 30.41 30.63
27.46 24.41 18.95 32.83 34.40 31.07 35.13 40.44 41.27 39.61 36.44 36.77 37.81 37.84 37.16 37.24 37.41 37.95 38.24 38.20 38.15 38.03 37.87 37.74 38.18 37.93 36.55 35.86 36.85 37.21 37.60 37.15 36.50 35.98 35.93 34.99 33.77 32.84 32.00 30.19 28.82 28.75 28.92 28.99
27.43 27.00 32.77 33.60 36.47 37.50 39.83 41.37 41.28 42.14 39.52 39.27 38.57 37.92 37.55 37.12 37.15 37.34 37.63 37.31 37.40 37.26 36.71 36.88 37.20 37.54 35.95 36.16 36.77 36.88 36.70 36.05 35.66 35.51 35.16 34.34 32.70 31.18 29.90 28.72 28.18 27.36 28.42 28.09
29.77 31.45 32.44 34.39 35.46 37.13 39.23 41.47 40.99 40.86 41.18 41.11 39.87 39.21 38.55 38.20 38.27 37.27 37.48 36.97 36.98 36.50 35.84 35.62 36.39 36.49 36.83 36.23 36.92 36.59 35.96 35.46 35.28 34.26 33.70 32.91 32.40 31.16 29.74 28.49 27.29 27.40 27.50 26.77
30.23 32.81 34.27 35.33 36.05 38.38 39.91 41.53 40.82 40.60 40.51 40.57 41.61 41.31 41.14 40.39 39.34 38.40 37.35 36.52 36.54 36.22 36.40 36.77 36.52 36.37 36.88 36.94 36.98 35.99 35.77 35.05 34.40 33.97 33.73 31.52 31.57 30.65 29.69 29.43 29.53 27.93 27.66 27.22
30.25 34.19 34.20 34.62 37.92 39.34 39.57 39.65 39.40 39.40 38.99 39.19 39.59 39.55 40.40 39.83 39.61 38.89 37.53 36.68 35.57 35.79 36.58 36.32 35.82 35.61 36.16 36.88 36.76 35.94 34.90 34.30 33.54 33.21 32.22 31.55 30.29 29.27 33.29 32.29 33.14 32.85 31.56 28.32
34.64 35.58 36.52 37.14 37.98 39.74 39.14 38.79 38.16 37.64 37.93 37.70 38.27 38.77 39.20 38.84 38.50 39.33 37.79 36.47 35.71 35.80 36.52 36.55 35.65 35.34 36.86 37.00 36.50 35.78 35.06 34.13 34.17 33.50 31.92 30.90 29.88 28.79 27.59 30.11 33.77 33.41 33.96 33.73
36.65 36.22 36.96 37.84 36.58 37.08 38.40 37.90 38.19 36.20 36.26 36.34 36.80 37.14 37.57 36.96 36.91 36.76 36.82 37.25 36.86 36.22 36.27 36.64 35.73 35.49 36.52 37.11 36.87 36.17 35.23 35.76 33.95 33.28 32.18 31.35 30.53 29.16 27.22 26.25 26.69 27.70 32.52 34.06
35.36 36.56 36.44 36.91 36.72 36.38 36.51 36.47 35.13 34.59 34.78 35.07 35.48 35.44 35.54 35.04 35.08 35.16 35.69 36.52 36.76 36.27 36.73 36.45 35.93 35.64 36.64 36.95 36.15 35.70 34.76 34.72 34.08 32.86 32.05 31.84 29.97 27.94 26.64 25.93 26.17 25.55 24.73 28.78
33.85 34.50 35.49 35.52 35.38 35.19 34.88 34.40 33.50 33.56 33.82 33.79 33.78 34.19 34.42 34.30 33.76 33.61 33.93 34.36 35.02 35.18 36.77 36.59 36.34 36.91 36.60 36.76 36.14 35.65 34.87 35.51 34.60 31.84 31.26 30.77 28.65 27.53 26.01 25.02 24.68 24.70 24.01 24.02
31.35 30.35 31.94 32.59 34.05 33.40 33.11 33.63 33.86 33.79 34.10 34.00 34.33 34.83 34.26 33.56 33.18 32.47 31.42 31.90 32.49 33.33 35.12 37.21 37.00 37.37 36.79 36.35 35.78 35.40 34.68 34.57 36.13 31.62 29.98 30.30 28.95 27.54 26.58 25.33 24.74 24.71 25.03 25.61
34.15 33.90 33.97 34.76 34.55 34.34 34.12 34.93 34.93 34.32 33.51 33.75 33.48 33.34 32.43 31.42 30.38 30.99 31.78 32.09 31.51 31.98 33.43 35.54 37.39 37.21 36.65 36.70 36.17 35.82 34.66 34.16 34.44 31.77 30.41 28.62 28.03 27.95 26.30 25.62 25.57 25.14 25.41 25.04
33.82 33.18 33.51 33.40 34.43 34.73 33.89 32.08 31.61 32.31 31.68 30.96 30.74 31.12 32.37 32.28 31.91 31.96 32.48 31.98 31.64 31.71 33.52 34.16 35.41 36.15 36.17 36.33 36.51 36.12 35.04 33.73 33.05 33.73 31.29 31.40 30.37 27.85 26.67 26.15 26.06 25.97 25.96 25.00
34.68 34.73 34.04 33.09 33.03 32.68 31.53 31.07 29.74 28.64 28.57 28.39 28.49 29.02 28.35 28.97 30.71 30.56 30.90 30.64 32.10 31.93 33.83 33.95 34.39 34.46 34.76 35.34 37.63 35.93 35.10 33.81 32.85 32.44 32.05 30.72 30.56 29.75 27.71 28.41 26.93 26.40 25.76 25.31
31.73 31.30 29.44 28.65 28.88 29.77 30.03 28.71 26.68 26.45 27.30 27.28 26.96 27.45 26.56 26.22 26.28 26.81 28.60 29.31 30.72 31.74 32.81 33.43 32.96 32.73 33.65 35.33 36.12 36.04 34.85 34.03 33.18 32.55 31.95 32.19 30.99 31.16 29.74 28.32 28.16 27.18 25.86 25.41
32.56 31.45 30.83 29.42 26.97 27.80 27.97 25.90 25.21 26.28 26.31 25.20 25.04 25.92 26.03 25.67 25.07 25.81 27.40 28.38 27.27 31.06 31.68 31.45 31.55 33.03 33.97 36.11 34.72 34.59 35.09 34.46 33.90 33.35 32.70 32.35 31.82 31.32 31.24 30.23 28.80 28.77 28.48 27.73
31.65 31.03 29.95 27.68 25.23 25.33 25.44 24.54 23.45 24.09 23.57 22.36 21.93 22.86 24.05 24.19 23.81 23.90 24.66 25.45 26.56 28.26 29.99 29.92 31.65 33.49 34.23 33.73 33.36 33.41 33.60 34.04 33.79 33.12 32.92 32.79 32.47 32.36 32.17 31.71 30.99 30.04 29.38 28.75
30.54 28.50 26.50 26.49 24.96 24.91 22.98 23.83 23.15 23.66 22.85 23.32 22.97 23.22 23.23 21.66 22.09 24.04 23.32 26.05 27.44 28.83 27.55 27.97 30.50 31.95 32.73 31.15 31.10 31.45 32.07 32.40 32.74 32.76 32.58 34.42 32.47 32.57 32.31 32.14 31.66 31.18 30.33 30.57
29.69 26.56 24.28 22.43 22.23 22.64 22.56 22.84 21.81 21.98 22.28 21.71 21.15 21.29 22.30 22.80 21.95 22.48 22.18 22.61 25.82 25.57 23.90 26.74 29.05 29.51 27.87 28.25 28.79 29.89 30.70 31.60 32.09 32.18 32.23 32.23 32.05 32.22 31.94 31.77 31.48 31.27 30.93 30.01
25.25 24.13 23.05 22.60 22.20 21.68 20.99 20.63 19.58 20.60 21.47 20.84 20.96 20.97 21.58 20.40 20.04 21.19 20.95 22.97 22.26 24.00 22.07 23.31 23.69 25.02 24.50 25.24 26.80 26.47 27.89 28.97 30.50 31.30 32.00 31.79 31.85 31.72 31.47 31.03 30.96 31.26 31.74 31.10
20.98 25.06 21.26 23.44 21.88 20.34 19.53 19.54 18.43 19.38 19.67 19.61 19.30 20.39 20.56 19.07 19.27 20.97 21.43 19.30 19.86 20.19 20.71 22.02 22.30 22.85 23.49 24.04 24.42 24.29 24.42 26.19 27.84 28.80 29.92 30.31 31.02 30.97 30.56 30.34 30.40 30.38 30.20 30.06

GFSNGP_sfc_wetblb_090.txt.gz
Wetbulb
34.23 34.97 35.46 34.82 35.15 34.79 32.98 35.27 33.22 35.00 34.12 39.92 42.84 42.71 43.68 43.90 45.09 45.73 46.14 46.95 47.39 47.93 48.23 48.17 47.54 47.72 47.76 47.06 46.31 45.99 44.72 44.17 43.29 42.91 42.76 42.73 42.53 42.56 42.74 43.11 42.82 42.86 42.45 42.30
30.86 34.60 34.94 33.35 35.29 36.21 36.12 36.63 35.54 34.73 34.65 41.02 43.24 44.71 43.24 44.54 44.57 44.85 45.99 46.86 47.78 47.86 48.25 47.89 47.77 47.27 46.96 46.32 45.49 45.15 44.39 43.28 42.73 42.30 41.99 42.01 42.18 41.68 41.65 41.68 41.87 42.18 41.59 41.76
29.03 32.26 32.48 29.49 32.87 34.95 35.56 36.73 37.17 33.04 38.56 41.93 40.96 41.10 42.91 44.93 44.39 45.60 46.53 47.62 47.61 48.07 48.19 48.30 47.90 47.56 46.27 46.12 45.45 44.35 43.84 42.87 42.00 42.04 41.71 41.79 41.71 41.42 40.83 40.87 41.30 40.56 40.40 40.46
29.82 30.73 22.90 31.76 37.10 36.89 35.88 36.91 38.85 39.02 39.89 41.95 42.61 44.46 44.85 45.32 44.92 46.30 47.79 48.10 49.04 49.51 49.43 49.06 48.40 46.77 46.78 45.86 44.39 43.68 43.08 42.45 42.33 42.15 41.64 41.02 40.35 39.46 38.77 38.85 38.85 38.59 37.37 39.09
28.75 28.18 30.76 33.72 36.03 35.49 34.47 34.79 39.23 39.10 40.80 41.99 42.99 43.11 43.61 45.41 44.95 46.03 48.82 50.23 50.68 51.30 50.75 49.79 47.97 46.82 45.13 44.00 43.52 42.85 42.35 41.86 41.79 41.86 40.87 40.09 38.53 37.86 37.51 36.74 35.81 36.16 37.65 38.19
30.64 25.15 23.07 33.50 38.11 39.93 39.28 33.71 40.76 40.66 40.80 40.46 40.48 36.94 41.64 43.32 44.21 43.96 46.52 49.03 49.66 50.24 49.57 48.70 47.88 46.50 44.34 43.19 42.59 41.81 42.15 42.08 42.18 41.27 39.99 39.27 38.36 36.64 34.92 36.36 34.88 35.17 34.81 36.71
30.22 28.01 30.79 36.63 38.58 40.05 31.35 34.47 41.87 42.14 40.91 39.59 39.45 41.83 41.95 42.70 42.90 43.55 44.12 44.12 45.28 46.50 46.89 47.16 46.19 44.49 43.33 43.02 41.59 42.19 41.97 41.52 41.02 40.35 39.36 38.51 36.41 35.26 34.68 34.38 33.63 33.16 33.23 35.36
31.22 27.53 24.09 37.82 39.18 34.96 39.89 42.96 43.82 43.27 40.88 40.92 42.19 42.09 41.68 41.42 41.66 42.20 42.48 42.67 43.06 43.96 43.66 43.56 43.80 43.35 42.36 41.20 41.95 41.58 41.28 40.40 40.07 39.63 38.46 36.67 35.02 34.33 33.96 32.65 31.70 31.35 32.90 33.18
33.80 33.52 38.65 39.66 41.55 43.20 43.07 43.29 44.51 44.57 42.39 42.65 42.40 42.22 42.00 42.03 41.95 41.76 41.90 42.03 42.31 42.76 41.97 42.05 42.30 42.40 40.61 41.76 40.97 40.54 40.03 39.66 39.27 38.30 37.00 36.01 34.41 33.17 31.59 31.25 30.40 31.05 32.34 32.02
34.67 37.38 38.85 40.59 41.85 41.88 43.75 44.80 44.21 45.33 45.13 44.49 43.34 43.30 42.96 43.14 42.84 42.54 42.36 42.04 41.66 41.55 40.89 40.64 41.27 41.53 42.78 41.18 40.61 40.09 39.50 39.06 38.13 36.28 35.52 34.90 34.08 33.03 31.75 30.28 30.02 31.52 31.31 30.95
36.50 38.80 41.01 40.99 41.75 42.67 44.16 44.01 43.88 44.44 44.36 44.44 45.02 43.67 43.94 42.73 42.00 41.26 40.70 40.36 40.30 41.52 41.65 41.37 40.93 40.34 39.99 40.98 40.65 39.48 39.38 38.30 36.67 35.74 35.79 33.73 33.18 32.52 32.23 32.43 32.80 32.30 31.65 31.66
35.54 39.05 39.13 40.45 42.54 43.04 43.15 43.21 43.25 43.22 42.20 42.33 43.53 42.83 43.60 42.76 42.70 42.43 41.86 40.76 40.04 39.10 40.21 40.67 39.28 38.89 38.91 39.27 39.62 39.77 38.34 37.28 36.19 35.00 34.71 33.10 32.13 31.27 35.42 35.41 35.28 34.39 33.66 32.85
38.40 41.23 40.88 41.93 42.61 43.02 42.32 41.74 41.32 41.43 41.59 41.09 41.11 41.92 41.74 41.52 41.54 41.14 41.20 40.63 40.09 40.31 40.85 41.07 39.63 38.03 38.35 38.06 38.38 38.77 38.61 37.42 36.25 35.31 33.79 32.41 31.64 30.95 30.55 33.64 34.55 34.64 34.77 33.87
40.68 40.08 39.75 41.61 41.38 41.16 41.59 40.63 40.25 39.66 39.64 39.56 39.89 40.34 40.09 39.57 39.80 39.45 39.09 39.56 40.43 40.34 39.98 40.22 39.24 37.99 37.75 38.19 37.63 37.19 37.54 37.51 36.58 36.08 34.22 32.99 32.05 31.57 32.44 32.12 31.10 31.58 34.47 34.77
38.54 39.75 40.29 40.30 40.03 39.28 39.76 39.57 38.40 37.87 38.04 37.95 38.52 38.13 38.13 37.41 37.47 37.45 38.07 38.20 39.24 39.70 39.89 39.59 38.73 37.28 38.25 37.60 37.03 36.61 36.15 35.42 36.14 35.32 34.04 33.52 32.36 31.61 31.70 31.78 30.82 30.91 30.81 31.93
36.23 38.37 39.14 39.07 38.40 38.16 37.90 37.73 37.42 36.52 36.97 36.60 36.79 36.87 36.92 37.07 36.58 36.62 36.60 36.22 35.87 36.72 37.83 38.86 38.98 38.94 38.47 37.39 36.39 36.41 36.38 36.17 36.09 34.17 33.31 32.77 31.49 30.84 30.07 30.18 29.85 29.51 29.01 29.58
34.33 36.54 36.86 36.56 37.06 36.65 36.48 36.97 37.02 36.48 36.18 35.60 35.17 35.59 35.72 35.52 35.75 35.18 35.22 35.75 35.52 35.83 36.94 37.68 38.03 39.57 38.54 37.66 37.11 36.13 35.50 35.15 37.16 33.86 32.33 32.33 31.36 30.50 30.54 30.42 30.27 29.31 29.01 30.36
36.02 35.77 35.84 37.02 37.41 36.59 36.10 35.95 35.41 34.80 33.70 33.56 34.03 34.12 33.90 33.45 32.57 32.71 32.97 33.50 33.68 34.34 35.82 36.77 37.31 37.25 38.67 37.86 37.46 36.76 36.48 35.12 34.87 34.49 32.24 31.45 31.78 31.88 31.61 30.76 30.96 30.17 29.86 29.48
34.96 35.03 35.25 35.42 36.19 35.79 34.58 33.28 32.65 32.75 32.29 32.16 32.16 31.87 32.34 32.16 32.11 32.07 32.17 32.29 32.43 32.27 32.73 34.49 34.89 35.98 36.82 37.82 37.74 36.94 35.38 34.73 34.34 34.45 33.01 32.96 32.05 31.38 31.11 30.82 30.74 30.71 30.19 28.88
34.19 34.56 34.69 33.60 33.36 33.41 31.93 31.18 30.62 30.46 30.74 30.69 30.57 30.07 29.30 29.71 29.93 30.03 31.45 31.67 30.18 30.72 33.25 33.48 33.79 34.09 34.06 35.12 36.88 36.60 35.86 35.34 34.51 34.06 33.92 32.52 32.03 31.42 30.62 31.14 30.43 30.25 29.35 28.80
33.36 31.88 30.00 29.23 29.69 31.17 31.11 29.56 28.82 28.95 29.29 29.07 28.46 27.81 27.15 28.15 28.27 28.20 29.00 29.88 30.55 30.59 31.68 32.65 32.65 32.52 33.73 34.91 35.65 34.84 35.01 34.69 34.19 33.75 33.16 33.39 32.48 32.30 31.60 30.67 30.63 30.47 30.18 30.18
33.15 32.99 31.48 30.52 27.84 29.00 28.93 28.04 27.65 28.33 28.00 26.97 26.60 27.16 27.40 27.30 26.83 27.34 29.46 29.12 29.35 29.77 30.69 30.79 30.51 31.69 33.04 34.61 34.37 33.82 33.86 34.13 34.33 34.08 33.35 33.11 32.56 32.18 31.93 31.86 30.94 30.89 31.04 30.60
32.36 32.38 31.07 29.89 27.72 27.83 27.97 27.32 26.51 26.69 26.76 26.41 25.55 25.25 26.12 26.23 26.02 25.94 25.98 28.09 28.09 28.52 29.82 30.01 30.37 31.30 32.09 32.27 31.54 31.61 32.31 32.52 32.99 33.68 33.63 33.52 33.18 32.94 32.79 32.62 32.54 31.92 31.28 30.92
33.12 31.86 30.46 29.25 27.70 26.78 26.12 27.47 26.50 26.36 26.42 26.14 26.15 25.31 25.28 25.14 25.58 27.65 27.32 26.90 26.88 27.63 27.58 28.11 29.04 29.95 30.26 28.81 28.47 29.02 29.36 29.89 31.08 31.91 32.63 34.65 33.26 33.24 32.94 32.90 32.83 33.18 32.69 32.65
32.96 32.07 29.68 26.90 25.53 25.65 25.99 25.92 25.21 25.11 25.43 25.65 25.78 25.31 25.23 26.26 24.13 25.02 25.13 25.11 25.64 25.79 25.96 26.42 27.53 27.80 27.27 27.23 27.25 27.36 27.68 28.55 29.36 30.16 31.01 32.25 32.53 32.65 32.71 32.73 32.91 33.34 33.61 33.49
30.96 29.88 28.42 27.05 26.64 26.23 25.86 24.62 24.02 24.59 24.34 24.09 24.61 25.04 25.01 25.43 24.16 24.08 24.72 24.90 24.61 24.74 24.24 24.51 25.26 25.83 25.62 25.88 26.27 27.18 27.17 27.36 27.59 27.89 28.88 29.85 31.18 31.71 32.16 32.63 32.98 33.05 33.03 33.10
27.58 28.02 26.02 25.81 27.88 26.49 24.96 24.07 23.22 23.40 23.72 22.60 22.22 24.07 24.33 24.11 23.48 23.89 23.75 22.97 22.95 22.94 23.12 23.66 24.50 24.42 24.68 24.52 25.26 25.44 25.70 26.03 26.63 26.97 27.44 27.72 28.11 29.63 30.38 31.50 32.19 32.66 32.73 32.48

GFSNGP_sfc_wetblb_093.txt.gz
Wetbulb
35.75 37.08 37.12 36.20 36.62 36.92 33.79 36.40 34.99 35.90 36.33 40.53 43.05 43.74 44.50 46.07 46.30 47.07 47.77 48.17 48.76 49.30 49.97 50.35 50.24 50.40 50.44 49.51 48.92 48.49 47.52 47.01 46.11 45.59 45.16 44.99 44.47 44.34 44.45 44.56 44.47 44.46 44.34 44.23
33.04 36.46 36.36 34.38 36.85 37.71 36.99 37.33 37.12 37.21 36.60 43.74 45.05 45.45 44.97 45.58 45.52 45.68 47.22 48.27 49.01 49.58 50.02 49.83 49.88 49.86 49.48 48.54 48.02 47.92 46.94 46.09 45.28 44.55 44.07 43.95 43.72 43.43 43.20 43.12 43.35 43.52 43.20 43.29
30.37 34.24 34.39 30.75 35.41 36.67 37.38 38.72 38.39 34.04 39.06 43.43 42.87 43.53 44.00 45.15 45.61 45.91 47.34 48.61 49.13 49.70 50.06 50.30 50.33 50.21 48.75 48.29 47.87 46.91 46.29 45.54 44.66 44.50 43.91 43.72 43.43 42.81 42.09 42.18 42.43 41.71 41.39 41.43
31.34 32.08 24.54 33.92 38.97 39.07 37.92 38.67 39.85 39.55 40.88 42.39 42.92 45.05 45.98 46.76 45.93 46.44 47.91 48.97 49.98 50.46 50.69 51.25 51.21 50.03 49.64 48.59 46.91 46.15 45.56 44.81 44.56 44.21 43.68 43.35 42.69 41.98 41.02 41.02 40.52 39.80 38.45 39.66
30.04 29.62 31.72 34.66 37.24 36.86 36.06 36.20 40.88 40.08 41.83 42.91 43.98 44.43 43.50 46.77 46.87 46.35 47.78 50.63 51.17 52.12 52.19 51.97 50.77 49.85 48.70 47.25 46.28 45.40 45.01 44.33 44.30 44.19 43.37 42.49 41.20 39.98 39.65 38.36 37.05 36.77 38.18 38.61
32.13 26.68 24.12 34.63 38.81 41.70 41.04 33.34 42.45 42.65 42.08 41.88 42.34 37.87 41.40 44.70 45.38 45.82 46.90 50.65 51.60 52.46 52.53 51.91 50.98 49.68 47.57 46.23 45.48 44.43 44.65 44.52 44.42 43.79 42.97 41.55 40.88 39.16 36.42 37.79 35.77 36.49 35.89 37.78
31.88 29.83 32.20 38.16 40.49 41.84 31.61 34.96 43.75 44.02 42.71 41.75 40.77 42.34 43.88 44.83 44.62 45.48 46.00 46.21 47.49 50.39 50.60 50.89 50.90 48.87 46.36 46.22 45.10 45.61 45.01 44.31 43.60 42.89 41.91 41.52 39.85 37.66 36.11 35.53 34.72 34.33 34.07 35.65
32.39 28.79 25.88 40.51 40.54 36.03 40.83 44.73 45.29 45.40 43.14 42.59 44.00 44.23 43.98 43.99 43.97 44.59 44.60 44.88 45.65 46.34 46.34 46.98 47.35 46.41 45.48 44.64 45.09 44.35 43.68 42.51 41.95 41.60 40.84 39.40 37.43 36.24 35.34 34.08 33.10 32.51 32.69 33.13
34.21 33.79 40.02 41.40 41.19 43.98 44.76 43.79 45.64 45.99 44.30 44.18 43.93 44.02 44.20 44.11 44.19 43.84 44.16 43.96 44.86 45.26 44.45 44.64 45.10 45.64 44.64 44.45 43.59 42.57 41.94 41.35 41.02 40.67 39.53 38.28 36.54 34.76 33.34 32.82 31.72 30.85 31.10 31.81
36.03 39.15 40.64 42.21 43.73 43.98 44.01 45.58 45.41 46.46 46.06 45.96 44.39 44.95 44.70 45.14 44.51 44.38 44.09 43.77 43.89 43.61 43.30 42.84 43.60 43.73 45.07 44.33 43.38 42.25 41.24 41.06 40.65 39.15 37.68 36.94 35.64 34.44 33.01 31.62 30.71 30.66 30.83 31.50
37.79 40.30 41.91 42.92 43.92 43.99 45.27 45.85 45.25 45.97 45.89 46.32 44.50 43.09 45.25 43.42 43.65 42.87 41.80 42.74 42.84 43.03 43.42 43.46 43.08 42.70 43.03 42.30 42.05 40.81 41.25 40.97 39.54 38.29 37.13 35.74 34.59 33.92 33.44 33.34 32.81 31.45 31.71 31.53
34.60 39.73 39.81 41.35 43.24 44.82 44.48 44.57 45.15 44.65 43.65 44.15 45.06 44.21 44.94 43.90 44.14 43.92 43.27 42.89 42.35 41.89 41.47 41.87 41.26 40.64 40.44 40.51 40.40 39.75 39.03 39.65 38.67 36.95 36.72 35.12 33.54 32.89 36.84 35.85 36.46 36.87 36.52 34.48
38.47 41.09 41.31 42.42 43.74 44.50 43.98 43.60 43.69 43.63 43.75 42.26 42.33 43.13 43.14 42.56 41.98 42.63 42.79 42.68 42.24 42.01 42.41 42.47 42.31 41.01 40.55 39.59 39.33 38.73 38.48 38.41 38.21 37.24 36.30 34.19 33.03 32.01 30.71 34.24 37.52 37.72 37.20 34.99
41.76 41.31 41.17 42.52 41.61 42.80 43.29 42.07 41.67 41.38 41.39 41.41 41.41 41.49 41.11 40.66 40.81 40.06 39.21 39.75 40.63 41.37 41.66 41.65 41.30 40.62 40.67 39.93 38.76 37.69 37.72 39.07 36.38 36.69 36.40 34.76 33.38 32.28 32.15 31.77 31.08 31.92 35.62 35.42
39.20 39.68 40.46 42.17 41.98 40.75 41.36 41.20 40.09 39.49 39.68 39.22 39.78 39.13 38.88 38.30 38.21 38.00 38.75 38.59 38.66 40.02 40.66 40.78 40.55 40.45 40.46 39.22 38.15 37.70 36.50 36.11 36.21 35.44 35.00 35.05 33.37 32.33 32.22 32.45 32.62 32.79 32.28 34.03
37.14 38.13 40.32 40.25 40.80 39.94 39.63 39.66 39.26 38.21 38.45 38.05 38.07 37.65 37.43 37.74 37.58 37.71 37.74 37.25 36.19 36.35 37.69 38.15 38.71 40.31 40.58 39.24 38.06 37.03 36.44 36.80 36.47 34.69 33.61 33.25 32.45 31.76 31.53 31.73 31.79 31.08 30.27 29.69
34.08 35.97 37.04 38.54 39.00 38.96 38.68 38.67 38.50 37.92 37.42 36.65 35.88 36.08 36.20 36.07 36.54 35.87 35.73 35.97 35.93 36.08 37.02 37.78 37.26 38.11 38.95 39.38 37.92 36.62 36.80 35.88 37.60 34.77 32.98 32.66 32.23 31.63 31.51 31.10 31.13 31.24 30.97 30.63
35.90 36.69 37.35 36.93 37.57 37.76 37.46 37.52 36.98 36.11 34.72 34.56 35.22 35.22 34.78 33.90 33.05 33.38 33.53 33.81 34.37 35.13 34.28 34.42 35.36 35.34 37.95 38.66 38.21 37.58 36.01 35.24 34.79 35.54 33.61 32.21 32.04 32.10 31.71 31.44 31.55 31.65 31.75 31.27
35.63 35.28 35.64 35.53 36.56 36.98 36.05 34.97 34.50 34.02 33.25 33.11 32.95 32.54 32.91 32.56 32.16 31.99 32.82 33.08 31.79 31.43 31.93 33.46 34.05 34.62 35.01 35.54 36.56 37.20 35.73 35.02 34.38 34.20 34.04 34.24 33.23 32.53 31.74 31.80 31.94 32.23 32.39 31.99
34.41 34.67 34.43 33.38 33.78 34.66 33.34 31.88 31.70 31.50 31.82 31.75 31.53 31.06 30.23 30.16 30.24 29.63 30.56 31.22 30.51 30.28 31.44 32.44 33.08 33.23 33.39 34.31 36.00 35.63 35.60 34.80 34.47 34.25 34.02 33.38 32.93 32.20 32.00 32.30 31.96 32.01 32.17 32.06
33.61 33.21 31.56 30.41 30.57 31.64 31.36 30.30 29.63 29.68 30.00 29.90 28.62 28.59 28.10 29.12 29.21 28.38 28.91 29.17 31.17 30.60 30.55 31.65 31.19 31.13 32.07 33.33 34.38 34.36 33.80 33.72 34.01 34.02 33.58 33.41 33.55 33.09 32.40 31.96 31.29 31.39 31.36 31.65
33.27 33.14 33.17 31.91 30.63 30.60 31.48 29.66 28.74 28.80 28.91 28.41 27.82 27.77 27.64 27.95 27.96 28.01 29.97 29.21 29.31 29.92 29.83 30.89 31.01 30.75 30.83 32.12 31.88 31.69 32.22 32.45 32.89 33.55 33.51 33.35 32.97 32.69 32.72 32.75 32.30 31.74 31.48 31.67
32.77 33.21 33.08 31.47 30.18 28.84 29.56 28.74 28.22 27.41 27.57 27.89 27.29 26.65 26.25 26.97 27.16 25.43 26.40 28.81 28.21 28.34 28.49 29.22 29.84 30.11 30.98 30.29 29.27 28.93 28.99 29.69 30.41 30.95 31.85 32.88 33.29 33.16 33.04 33.03 33.16 33.03 32.62 32.09
33.88 33.45 32.91 32.24 30.91 28.41 27.02 30.25 29.06 28.42 27.50 27.81 27.53 27.56 25.83 25.85 26.99 28.19 29.06 28.00 27.88 27.36 27.15 27.77 28.31 29.08 29.70 28.41 28.07 27.66 27.71 27.86 27.93 28.64 29.85 31.69 31.56 31.93 32.65 32.90 32.60 33.01 33.14 33.29
33.10 32.92 32.93 31.17 29.03 27.20 27.58 28.10 27.10 26.76 26.63 27.19 27.65 27.64 26.74 27.26 25.73 26.63 25.87 26.00 26.65 26.53 25.73 27.42 27.70 27.77 27.09 26.85 26.63 26.57 27.32 27.89 27.77 27.23 27.42 27.69 29.24 30.09 30.94 31.65 32.10 32.51 32.78 33.09
31.62 32.58 33.08 32.47 29.81 28.74 27.97 26.53 25.29 26.26 25.55 24.89 25.98 26.29 26.41 26.46 26.23 25.87 25.47 26.06 25.64 25.85 24.97 25.25 25.48 25.90 25.76 25.58 25.61 25.53 26.17 26.28 26.60 26.76 26.83 26.26 26.97 27.08 27.79 29.10 30.64 31.78 32.26 32.54
29.49 30.54 29.98 28.19 27.66 27.30 27.89 27.04 25.24 24.71 25.37 24.78 23.65 25.06 25.13 25.51 25.28 25.06 24.97 24.09 24.01 23.72 23.80 24.20 24.59 24.96 24.83 24.66 24.49 24.62 24.72 25.15 25.44 24.61 24.76 25.54 25.61 25.89 25.87 26.32 27.54 28.21 29.82 30.67

GFSNGP_sfc_wetblb_096.txt.gz
Wetbulb
34.79 36.18 36.03 34.15 34.20 35.66 31.62 34.19 29.61 33.21 33.85 37.26 37.92 37.31 39.50 41.07 42.92 44.27 44.52 44.72 44.75 44.54 44.52 45.20 45.66 45.92 45.73 44.99 44.52 44.52 43.91 43.08 42.20 41.83 41.85 41.65 41.58 41.48 41.59 41.62 41.62 41.61 41.87 41.54
29.52 36.13 35.58 32.64 36.73 36.52 35.91 35.88 34.84 34.65 33.42 39.16 40.28 41.21 40.57 39.36 42.80 43.16 44.57 45.30 45.56 45.99 45.33 44.68 44.83 45.15 45.30 44.42 44.14 44.31 43.30 42.11 42.05 41.36 41.19 40.81 40.71 40.34 40.30 40.22 40.58 40.89 40.62 40.74
28.93 32.62 32.83 28.62 33.73 35.23 35.61 36.43 36.30 32.19 36.30 39.22 39.32 40.97 40.21 40.82 41.97 42.90 44.02 45.29 45.79 45.52 45.38 45.47 45.40 45.60 44.12 43.81 43.90 43.30 42.67 42.09 41.84 41.63 41.18 40.70 40.57 39.94 39.34 38.90 39.23 38.37 38.44 39.20
25.52 26.62 19.95 30.00 36.10 37.22 36.74 37.76 37.82 37.78 38.42 39.42 39.71 40.77 41.10 41.98 41.28 41.64 44.24 45.58 46.34 46.16 46.12 46.18 46.26 45.50 45.02 44.18 42.88 42.87 41.99 41.56 41.87 41.62 41.05 40.67 40.00 38.94 37.65 37.83 38.97 38.63 35.44 36.83
25.94 24.78 27.89 31.31 34.36 34.04 33.02 34.01 39.24 37.67 39.53 40.49 40.83 40.08 39.50 43.00 42.53 41.54 42.24 45.07 47.00 47.16 46.85 46.73 45.86 45.28 44.31 42.91 42.29 42.29 41.59 41.14 41.66 41.56 40.56 39.81 37.75 37.55 39.01 37.84 36.07 35.28 37.11 36.85
27.13 23.39 21.23 30.67 35.86 39.41 38.03 29.65 40.18 40.87 39.61 38.11 38.65 32.75 35.64 41.19 41.90 42.32 43.34 44.30 45.73 47.32 47.83 46.82 45.53 44.77 43.30 41.99 41.30 41.07 41.79 41.55 41.59 41.30 40.24 38.57 37.50 38.21 35.54 37.23 35.13 36.26 35.68 37.26
27.64 24.84 27.89 35.12 37.71 38.88 26.38 32.62 41.55 41.14 38.72 38.56 36.69 37.56 39.67 41.32 41.59 42.24 42.28 42.34 44.38 46.07 46.29 46.48 45.84 44.22 42.43 41.94 40.81 42.00 42.58 41.77 41.03 40.50 39.31 38.03 36.61 36.70 35.58 35.14 34.86 34.47 34.62 35.80
28.63 24.73 21.69 38.44 37.33 33.71 38.66 41.45 42.49 41.67 38.92 39.37 40.98 41.42 41.42 41.67 41.51 41.89 41.05 42.12 43.55 42.53 42.02 42.79 43.59 43.22 41.70 40.77 41.51 41.60 41.16 40.60 39.65 38.76 39.11 38.15 37.16 35.62 35.31 34.55 33.70 33.15 32.96 32.63
30.48 30.61 36.72 37.36 36.91 39.11 40.58 39.47 41.70 42.38 41.06 41.48 41.66 41.07 41.51 40.86 40.78 40.74 40.69 40.61 41.49 41.15 40.70 40.96 41.93 42.17 40.73 40.38 40.92 40.49 39.58 38.78 38.23 38.49 38.40 38.05 36.49 35.21 33.91 33.64 32.82 31.91 31.53 31.07
32.76 35.72 36.66 38.91 40.21 40.27 40.16 41.63 42.53 43.48 42.97 43.17 41.49 42.02 41.89 42.04 41.21 40.66 40.43 39.69 40.58 40.36 39.70 38.92 40.10 41.00 41.51 41.24 40.80 39.78 38.48 38.05 37.82 36.78 37.55 36.86 35.62 35.06 33.62 32.59 31.88 31.15 30.55 30.37
33.55 37.08 37.20 38.92 39.51 41.09 42.26 43.33 43.08 43.50 43.12 43.71 42.83 42.39 43.13 42.26 42.21 40.55 40.37 39.87 39.54 38.93 38.86 38.84 39.18 39.14 39.19 40.06 40.18 38.67 38.54 39.26 38.46 37.92 37.36 35.56 34.93 34.19 33.67 33.82 33.42 31.69 31.73 31.81
34.09 36.55 35.08 35.96 38.96 41.97 41.27 41.60 42.44 41.93 40.99 41.94 42.65 41.85 41.97 40.51 40.43 40.32 39.61 40.22 39.54 39.03 38.73 39.17 38.78 38.52 39.36 40.05 40.09 39.29 38.65 38.28 37.58 36.40 36.10 35.17 33.81 33.15 37.09 36.57 36.83 37.09 36.36 34.55
34.69 38.25 37.95 39.23 40.23 41.31 40.96 40.78 40.95 41.22 41.57 39.24 39.89 40.40 40.16 38.88 38.76 40.19 38.00 37.86 37.89 38.56 38.98 38.97 38.82 37.89 37.93 38.16 38.98 38.38 37.94 37.89 37.45 36.55 35.68 34.38 33.32 32.34 31.19 34.02 37.86 37.46 37.92 37.97
38.02 38.02 37.43 38.75 37.38 39.92 40.62 39.94 40.39 39.43 39.44 40.38 40.46 39.85 38.80 37.80 37.66 36.69 35.76 36.03 36.32 36.85 38.32 38.51 38.03 37.45 38.01 38.01 37.91 37.68 37.39 39.21 36.13 36.52 35.81 34.64 33.28 32.45 32.21 31.48 31.09 32.30 36.84 37.85
36.03 36.76 36.43 38.48 39.33 38.39 38.80 39.09 37.94 37.78 38.15 38.13 38.56 37.31 36.73 35.97 35.62 35.52 35.68 35.50 35.49 36.19 36.34 36.69 36.69 37.70 38.51 37.64 36.89 37.05 36.77 36.06 36.29 35.09 34.65 34.59 33.01 32.16 32.05 31.87 31.88 31.70 31.27 34.58
35.09 36.38 37.66 37.40 38.15 37.53 36.06 36.39 36.79 36.57 36.78 36.51 35.91 35.29 35.42 35.54 35.50 35.39 35.10 34.88 33.48 33.39 34.95 36.00 36.22 36.58 37.31 37.51 36.63 36.33 36.32 37.14 36.67 34.30 33.83 33.62 32.56 31.64 31.38 31.42 31.64 31.97 30.82 30.67
33.46 32.51 34.33 35.01 36.01 37.99 36.72 37.75 37.68 37.01 35.95 34.21 33.51 34.15 34.32 34.07 34.29 33.11 33.00 33.17 33.31 33.70 35.15 34.33 34.63 35.19 35.79 38.00 37.53 36.23 36.04 35.60 37.75 34.82 33.25 33.01 32.51 31.73 31.65 31.36 31.31 31.54 31.38 32.38
35.39 35.85 36.28 36.50 36.60 37.84 37.10 36.85 36.27 34.88 32.74 33.16 33.46 33.32 32.39 31.37 30.54 30.61 30.94 32.15 33.49 33.69 32.69 32.74 34.15 34.21 35.63 35.60 35.65 36.43 35.91 34.64 34.08 34.21 33.36 32.44 32.34 32.47 32.01 31.53 31.27 31.22 31.64 32.28
34.42 34.65 35.25 35.05 35.27 35.64 35.58 34.86 34.07 33.16 31.45 30.66 30.01 29.45 30.20 29.70 29.21 28.62 29.56 30.91 30.95 27.99 28.68 30.17 32.52 33.59 33.42 33.96 35.44 35.75 34.56 34.15 33.84 33.68 33.54 34.61 33.48 32.67 31.82 31.70 31.68 31.76 32.12 32.03
33.45 33.18 32.65 32.80 32.91 34.03 32.30 32.31 31.50 30.45 30.83 30.15 29.12 28.66 27.39 27.65 27.72 26.67 27.23 27.28 30.16 28.06 28.46 29.12 30.90 30.73 30.82 31.90 33.79 33.51 34.00 33.30 33.52 33.84 33.51 33.24 33.01 32.45 32.24 32.80 32.15 32.03 32.14 32.20
32.75 31.68 31.08 30.13 30.54 31.08 30.10 29.37 28.23 28.25 29.06 28.98 27.06 27.11 26.70 27.51 27.45 25.87 24.59 23.42 25.78 27.30 27.88 29.61 27.55 27.38 27.92 30.59 30.94 31.01 31.05 31.75 32.11 32.47 32.81 33.02 32.92 33.05 32.32 31.93 31.71 31.74 31.75 31.94
31.83 30.68 30.86 31.64 30.22 29.83 31.22 29.64 28.12 27.52 27.83 28.01 27.63 26.88 26.25 25.43 24.89 24.07 24.94 25.51 24.29 29.46 25.38 24.32 24.68 28.53 28.08 30.95 26.02 26.92 28.23 28.48 29.03 30.06 31.09 31.82 32.20 32.20 32.26 32.49 32.24 32.28 31.87 31.87
31.89 31.35 30.78 28.62 27.06 27.51 29.50 29.59 29.37 28.93 27.02 27.18 26.79 26.13 24.75 24.50 24.76 22.80 22.16 24.94 23.61 26.12 23.97 22.88 27.38 29.84 30.20 24.12 23.22 23.18 23.12 24.50 26.81 27.19 27.79 28.71 29.88 30.67 31.52 32.14 32.77 32.89 32.64 32.41
31.85 31.42 30.72 31.20 31.07 28.15 26.43 28.20 28.94 28.27 26.38 25.93 25.79 25.72 24.25 22.94 23.54 23.65 23.37 26.79 27.80 26.96 24.96 24.96 26.62 29.53 29.94 22.88 22.56 22.22 22.05 22.60 25.76 26.18 26.19 27.78 26.75 27.94 28.36 30.05 30.80 31.83 32.05 32.25
32.10 32.35 31.43 29.78 26.07 27.83 27.34 27.09 25.34 25.78 25.53 24.99 25.33 25.59 24.80 24.60 23.13 21.71 21.87 23.08 26.43 25.86 23.48 26.78 28.01 27.94 24.14 23.00 21.94 21.15 20.39 19.54 16.97 25.24 26.16 25.52 25.21 25.08 25.94 26.77 27.55 29.05 30.20 31.51
28.26 29.17 31.23 31.70 31.23 28.27 25.85 24.67 23.21 23.66 23.37 22.61 23.00 24.03 24.11 23.66 22.93 23.67 21.63 23.99 22.78 24.50 20.95 21.13 21.43 21.85 20.75 19.96 19.92 20.28 21.05 20.64 21.67 20.65 21.87 19.66 20.13 23.85 24.45 24.72 24.89 25.77 26.64 28.20
22.40 27.76 22.51 25.41 25.25 24.13 23.45 23.88 23.13 23.01 23.90 22.62 21.81 22.40 22.45 22.62 22.97 23.71 24.57 21.86 21.54 21.42 20.70 20.57 20.39 21.67 21.28 20.80 20.45 20.11 19.27 18.62 22.27 20.27 15.79 16.29 18.89 22.25 23.34 23.40 23.83 24.58 25.28 25.14

GFSNGP_sfc_wetblb_099.txt.gz
Wetbulb
33.47 34.65 34.64 32.61 32.44 34.65 31.13 33.25 30.06 32.76 32.91 35.26 35.52 36.08 36.63 39.04 42.01 42.80 43.60 43.41 43.49 43.41 43.20 43.95 44.28 44.03 43.60 43.32 43.41 43.36 42.68 41.97 41.04 40.85 40.61 40.48 40.39 40.47 40.58 40.55 41.24 40.60 40.56 40.86
26.89 34.40 34.63 32.08 34.67 34.92 35.02 34.92 33.82 34.58 32.43 36.40 37.13 39.05 40.36 38.90 41.57 42.76 43.69 44.21 44.29 44.16 43.45 43.21 43.33 43.20 43.41 42.78 42.87 42.94 41.80 40.90 40.82 40.49 40.19 39.79 39.67 39.50 39.33 39.34 39.53 39.91 39.66 39.87
24.07 30.93 32.17 27.90 32.93 34.98 35.19 35.99 35.99 30.75 34.56 37.65 38.48 40.25 40.45 40.21 41.20 42.07 43.98 44.47 44.61 44.04 43.89 43.87 43.77 43.77 42.58 42.35 42.63 42.07 41.22 40.83 40.58 40.36 40.02 39.55 39.42 39.03 38.42 37.77 37.82 36.88 36.71 37.76
23.69 26.03 20.86 29.60 34.69 36.42 35.95 36.26 36.74 35.89 36.60 38.22 38.09 39.61 39.77 40.78 40.71 40.59 41.52 44.86 44.99 44.52 44.04 44.32 44.39 43.65 42.91 42.60 41.99 41.63 40.64 40.50 40.58 40.40 39.87 39.47 38.70 37.66 36.52 36.27 36.25 36.37 35.97 35.36
23.63 21.80 26.73 30.07 33.63 33.35 32.33 33.05 37.97 36.40 38.18 38.47 39.38 38.16 37.53 40.99 41.09 39.75 40.11 43.62 45.48 46.00 45.17 44.50 44.13 43.77 42.95 41.62 41.37 41.06 40.14 40.04 40.49 40.48 39.54 38.82 37.14 36.04 36.76 38.04 36.85 37.02 36.76 34.46
25.27 21.31 20.42 29.30 34.16 37.16 36.34 28.81 38.64 39.37 37.39 37.15 37.41 32.66 35.24 39.73 40.59 40.79 41.44 42.08 43.14 45.71 46.15 44.58 43.76 43.33 42.46 40.68 40.31 40.28 40.37 40.41 40.62 40.31 39.36 37.70 36.50 35.84 35.88 37.61 35.91 35.63 34.43 35.18
25.42 23.71 26.82 33.33 35.40 37.19 25.92 30.59 41.75 39.23 37.22 37.52 35.97 36.69 38.86 40.36 40.85 40.95 40.89 41.93 43.11 44.27 44.15 44.59 43.96 43.03 41.37 40.48 39.89 41.07 41.50 40.86 40.32 39.74 38.72 37.30 35.46 35.30 36.68 35.65 35.09 34.66 35.06 36.42
25.16 24.17 20.64 37.32 36.77 32.10 36.14 38.93 41.69 39.19 37.37 38.98 39.43 39.88 39.96 40.15 39.73 40.03 39.81 41.17 42.37 41.23 40.89 41.83 42.77 42.38 40.97 39.97 40.80 41.14 40.62 39.81 39.03 38.12 38.52 37.19 35.47 36.18 35.72 35.35 34.52 34.15 34.15 33.73
28.69 28.62 35.31 36.36 35.25 38.30 39.26 38.27 40.58 39.81 39.56 40.35 39.97 39.18 39.87 39.29 39.50 39.54 39.38 39.39 40.30 39.88 39.68 39.92 40.89 41.44 39.71 39.51 40.21 39.67 38.97 38.09 37.42 37.31 36.85 36.36 36.31 35.31 34.52 34.59 33.80 33.07 32.56 32.31
31.31 34.87 35.21 37.57 39.10 39.93 41.11 40.87 41.63 42.27 42.05 42.00 40.49 41.53 40.43 40.06 39.32 39.24 39.11 38.73 39.25 38.98 38.32 38.06 39.13 39.82 40.45 39.91 39.96 39.06 37.58 36.99 36.68 35.86 36.68 37.04 36.38 35.61 34.59 33.55 33.01 32.48 31.72 31.44
32.62 33.95 35.00 37.19 38.27 39.77 40.55 41.74 41.74 41.81 42.55 42.56 43.07 42.39 41.72 40.87 40.88 40.25 39.17 39.20 38.52 37.76 37.62 37.69 38.26 37.91 39.21 39.56 39.29 38.00 37.49 37.90 38.55 38.28 38.37 36.02 35.42 35.09 34.51 34.72 34.25 32.60 32.10 32.27
30.19 34.77 35.06 36.08 38.36 41.24 40.62 40.79 41.41 41.24 39.77 40.93 41.49 40.80 40.36 38.92 39.25 39.07 38.55 38.85 38.71 38.47 37.60 37.53 37.49 37.10 37.61 38.14 38.07 38.05 37.75 38.35 38.06 37.25 36.55 35.35 34.40 34.08 37.67 37.50 37.41 37.93 37.48 34.81
33.77 37.16 37.89 38.62 39.28 39.96 39.99 39.66 39.89 40.62 40.67 39.36 39.47 39.93 39.08 37.89 37.70 38.69 36.07 35.71 35.60 36.26 37.54 37.68 37.49 37.05 37.09 37.27 37.08 36.82 36.41 37.82 37.57 37.08 34.95 35.21 34.18 33.15 31.99 34.15 38.26 38.34 38.27 38.50
35.21 36.76 36.07 37.01 35.50 38.14 39.13 38.73 39.72 39.16 40.02 39.94 39.32 38.95 39.14 37.48 36.09 35.23 34.63 34.10 34.46 34.95 35.94 35.88 36.17 35.69 36.29 36.54 36.04 35.27 35.18 38.65 36.14 36.64 35.95 35.37 34.16 33.02 32.62 31.87 31.68 32.62 37.23 38.02
33.34 34.65 35.30 37.07 38.02 38.47 38.03 38.20 37.01 36.93 37.10 37.38 38.01 37.14 36.68 35.36 34.44 34.30 34.20 34.29 34.41 34.36 34.31 35.23 35.28 34.77 35.87 36.19 35.44 34.49 35.12 36.19 36.25 35.36 34.68 34.99 33.46 32.59 32.37 31.99 31.89 32.06 31.89 34.51
34.72 34.01 34.67 34.89 35.89 37.20 36.41 35.76 35.65 35.50 36.33 36.54 35.99 35.38 35.02 34.85 34.49 33.61 33.19 33.03 32.17 31.95 34.12 34.13 34.24 34.20 34.99 36.07 36.92 36.02 36.32 37.48 37.51 34.36 33.98 33.87 33.27 32.27 31.83 31.60 31.62 31.75 31.81 31.78
32.86 31.83 33.08 33.02 35.06 36.94 37.14 37.43 37.30 36.81 35.40 34.24 33.88 33.85 33.74 32.91 32.39 31.55 31.36 32.05 32.89 34.17 33.26 32.30 32.92 33.99 35.04 35.70 35.23 35.52 36.19 35.78 37.35 35.44 33.63 33.27 32.91 32.34 32.24 31.65 31.47 31.63 32.09 33.11
35.46 34.81 35.68 35.91 35.46 36.26 36.05 35.69 35.16 34.58 33.70 32.50 32.13 31.72 30.75 29.71 28.94 28.54 28.93 30.65 32.39 31.94 29.75 29.66 31.86 32.64 34.05 33.74 34.87 35.36 34.85 34.25 33.99 33.56 33.52 32.71 32.70 32.92 32.34 31.82 31.70 31.49 31.87 32.44
34.03 33.48 33.85 34.55 34.88 35.62 35.09 33.75 33.32 33.19 32.16 31.18 30.09 28.83 28.60 28.19 27.76 27.28 28.12 28.91 28.77 26.91 27.29 28.27 31.31 31.34 30.99 30.90 32.65 32.54 33.34 32.94 32.93 33.28 33.24 34.45 33.84 33.12 31.90 31.78 31.84 31.92 32.03 31.99
33.77 33.59 32.90 32.17 32.31 33.07 31.43 31.71 31.77 30.60 29.97 29.21 28.44 27.57 26.85 26.70 26.98 26.23 26.04 26.76 28.10 27.00 27.27 27.62 28.73 27.85 27.71 28.36 31.84 29.04 31.10 30.92 31.54 32.14 32.63 32.78 32.31 32.24 32.14 32.93 32.24 31.84 31.95 32.07
32.92 32.28 31.64 30.69 28.91 28.64 27.97 27.87 27.84 27.12 28.01 28.13 26.68 26.46 26.44 27.19 27.65 26.61 25.48 24.40 25.95 26.82 27.15 27.67 26.11 26.68 27.31 29.08 28.37 26.79 26.44 26.71 27.89 28.49 29.89 31.07 31.41 32.08 32.22 31.80 31.75 31.75 31.72 31.77
32.18 31.44 31.30 31.11 29.81 29.91 29.29 27.35 27.48 27.86 28.41 28.82 29.18 28.52 27.22 26.37 26.27 25.44 24.96 24.41 24.94 29.07 25.17 23.79 24.52 27.08 27.87 30.17 24.87 24.82 24.86 24.69 24.40 24.69 26.20 27.06 27.28 28.39 29.21 30.76 31.85 32.21 32.12 32.14
32.12 31.90 31.61 30.94 27.77 27.29 26.38 24.72 27.02 28.06 28.58 27.34 26.72 26.58 25.96 25.15 24.61 23.26 21.92 24.30 23.47 25.98 24.24 22.76 26.98 29.63 30.44 23.30 21.59 22.34 22.41 22.30 22.60 24.77 25.32 25.48 25.74 25.91 26.42 27.31 28.33 29.13 30.81 31.83
32.16 31.93 31.59 31.49 31.03 29.05 26.99 27.31 28.75 28.31 28.24 27.58 27.08 26.75 25.40 24.11 23.65 24.59 23.86 26.98 27.74 26.63 25.35 25.00 26.48 29.22 29.51 21.91 20.88 20.09 20.40 20.29 18.68 22.93 25.35 26.90 25.37 24.94 24.66 24.71 25.48 26.38 27.19 27.69
25.71 27.56 31.10 30.28 29.30 28.83 27.55 27.87 27.39 25.50 25.39 25.22 24.90 25.24 26.16 25.75 24.23 23.77 22.90 23.09 26.52 25.46 22.68 25.99 27.48 27.09 22.30 20.31 19.54 20.25 20.16 20.55 20.18 20.44 20.45 19.90 23.21 23.92 23.10 23.15 24.30 24.82 25.49 26.03
25.90 26.48 27.94 30.76 31.04 30.76 30.19 27.08 22.58 22.59 22.62 22.17 22.70 23.48 24.16 23.80 22.74 24.20 22.24 23.98 22.59 24.17 20.50 20.90 21.08 22.11 20.87 20.04 19.96 20.22 19.82 19.15 19.32 18.27 20.41 18.04 17.20 17.00 19.49 21.32 23.26 23.62 23.51 23.98
20.08 26.16 20.44 24.31 25.33 25.50 24.43 23.47 22.01 22.19 24.07 22.70 21.79 22.54 22.30 22.18 22.31 23.41 24.85 22.36 21.03 20.55 19.68 19.74 19.36 20.65 20.31 19.60 19.22 19.07 18.50 18.04 20.50 19.71 16.62 14.10 14.78 15.33 17.57 18.60 19.06 19.54 20.86 23.37

GFSNGP_sfc_wetblb_102.txt.gz
Wetbulb
33.45 33.51 32.61 30.78 30.69 33.28 25.82 31.93 30.37 31.68 32.11 33.00 33.76 33.97 36.94 37.82 40.59 41.05 41.73 42.05 42.51 43.28 43.73 44.19 44.66 44.48 44.05 43.67 43.28 43.16 42.65 42.17 41.29 40.72 40.50 40.25 40.06 39.98 40.02 40.03 39.92 40.01 40.20 40.08
26.40 32.78 33.70 30.77 33.28 33.81 34.05 33.76 34.39 34.99 33.33 37.23 37.11 37.37 37.85 37.11 40.52 41.62 42.21 42.53 42.86 43.55 43.21 43.02 43.29 43.52 43.33 42.53 42.43 42.45 41.52 40.74 40.36 39.94 39.66 39.24 38.98 38.94 38.84 38.68 38.81 39.03 38.76 38.96
23.23 29.90 30.28 25.02 32.87 33.23 34.24 34.58 34.54 31.13 34.40 37.40 37.60 38.98 38.49 38.53 39.54 41.19 42.88 43.51 43.67 43.31 43.78 44.03 43.83 43.75 42.38 42.13 41.80 41.28 40.74 40.10 39.95 39.72 39.34 38.90 38.82 38.48 37.68 37.00 37.17 36.41 36.18 36.86
22.26 25.08 18.91 29.16 34.61 37.06 35.78 35.43 35.69 35.12 36.22 38.52 38.74 38.74 39.77 40.39 39.85 39.19 40.51 43.48 44.22 43.97 43.90 44.33 44.12 43.16 42.46 42.03 41.36 41.00 40.22 39.85 39.79 39.57 39.10 38.63 37.96 37.02 35.93 35.55 35.33 34.96 36.70 35.70
22.68 21.14 25.18 30.68 34.11 33.11 31.80 32.89 37.49 36.29 36.84 37.41 38.90 37.96 38.05 40.91 40.72 40.16 41.11 43.06 43.62 45.14 44.67 44.28 43.68 42.96 42.17 41.11 40.92 40.42 39.72 39.49 39.64 39.68 38.78 37.91 36.65 35.49 35.35 35.20 34.58 37.06 37.15 35.94
24.52 20.44 19.96 28.72 34.09 37.08 35.57 29.73 38.14 38.29 36.00 35.74 36.30 31.72 35.44 39.36 40.00 40.01 40.82 42.25 43.20 45.28 45.51 44.63 43.67 42.80 41.70 40.55 39.97 39.54 39.83 39.86 39.89 39.58 38.68 37.22 36.10 35.08 33.31 35.20 36.80 36.32 35.06 33.95
24.76 24.26 25.77 32.07 34.63 36.30 24.63 29.25 41.35 38.75 36.27 36.88 35.16 35.99 38.17 40.04 40.38 40.08 40.44 41.84 42.29 43.67 43.82 43.87 43.69 43.33 41.78 40.68 40.07 40.98 40.92 40.46 39.80 39.32 38.30 37.38 35.14 36.12 34.03 35.29 35.57 34.94 34.59 35.16
24.30 22.21 20.00 35.64 35.53 31.27 34.81 37.52 40.30 38.26 37.13 38.10 38.30 38.77 39.02 39.14 38.80 39.24 39.16 40.21 41.39 40.47 40.41 41.47 42.34 42.34 40.87 40.29 41.04 41.06 40.82 39.92 39.16 38.37 38.32 36.57 34.61 34.85 34.21 35.81 35.20 34.93 34.82 34.55
27.70 27.61 33.31 35.37 35.02 37.76 38.77 37.33 39.51 38.38 38.35 39.73 39.08 38.58 39.02 38.46 38.32 38.16 38.20 38.64 39.54 39.52 39.97 39.62 40.66 41.49 40.32 40.25 40.51 39.97 39.28 38.35 37.45 36.83 36.42 36.78 36.37 34.00 35.11 35.21 34.51 34.08 33.43 33.24
30.37 33.26 33.41 36.03 37.51 39.14 40.03 40.20 41.10 41.68 40.90 40.47 39.00 41.13 39.86 39.17 38.54 38.11 38.11 37.75 38.19 38.20 37.58 37.52 38.49 39.36 40.33 40.12 39.54 38.66 37.39 36.51 35.92 35.27 34.90 35.91 36.77 35.99 35.12 34.24 33.81 33.12 32.63 32.50
30.73 31.98 33.55 35.02 36.32 39.07 40.03 41.04 40.84 41.39 42.08 42.10 42.36 41.55 41.35 39.79 39.03 39.08 39.01 38.48 37.87 37.49 37.75 37.46 37.67 37.68 39.36 39.39 38.73 37.59 36.85 36.37 37.32 37.87 38.72 36.74 36.11 35.85 35.23 35.54 34.97 33.48 33.46 33.25
29.29 33.82 33.67 35.37 37.89 38.96 39.51 39.24 40.33 40.07 39.50 40.64 42.29 40.17 39.41 38.25 38.03 37.45 36.59 36.92 36.81 37.10 37.00 36.77 36.63 36.66 37.24 37.51 37.33 36.67 37.41 37.25 37.95 37.31 37.66 36.22 35.10 34.90 38.30 38.21 38.15 38.54 38.67 36.25
33.41 34.98 36.73 38.01 38.42 38.27 38.36 38.82 39.22 39.89 39.87 39.39 39.72 40.57 39.66 38.09 37.07 37.87 35.09 34.36 33.92 34.72 36.27 36.49 36.44 35.83 35.51 36.17 36.31 35.78 35.33 35.69 35.46 37.99 36.61 35.61 34.44 33.96 33.05 34.93 38.29 38.93 39.20 38.95
33.13 33.93 33.55 35.33 34.17 36.79 37.39 38.53 39.09 38.41 39.40 40.51 39.54 39.30 38.73 38.02 37.10 35.07 33.42 33.23 33.84 34.65 34.26 34.76 34.59 33.52 34.33 34.90 34.67 34.18 33.81 37.18 34.89 34.39 34.08 35.59 35.04 33.75 33.24 32.42 32.19 32.70 36.29 38.60
31.95 32.92 32.46 34.38 35.66 36.57 37.60 38.06 36.87 36.24 36.33 36.70 37.75 36.93 36.35 35.27 34.27 33.45 32.98 32.82 33.28 33.18 33.78 34.31 33.30 32.67 33.70 34.37 35.14 33.73 33.31 34.08 35.79 35.17 34.82 35.16 34.02 33.23 32.95 32.45 32.30 32.47 32.48 34.44
32.66 35.33 33.45 32.63 34.01 36.58 36.43 35.54 35.35 35.60 36.56 36.52 35.90 35.49 35.54 35.30 33.29 32.01 31.82 32.35 31.37 31.60 32.02 31.95 32.98 32.35 33.81 35.95 35.16 35.66 36.13 37.14 37.44 34.76 34.05 33.89 33.66 32.95 32.56 32.31 32.11 32.08 31.99 32.15
32.46 31.80 33.09 32.74 33.75 35.15 36.56 36.78 36.37 36.23 34.71 34.11 33.88 34.31 33.88 33.20 31.78 30.32 30.40 31.93 33.08 32.81 31.07 30.80 31.07 31.76 34.68 33.61 34.54 34.98 35.37 34.92 37.14 34.74 33.97 33.57 33.20 32.77 32.65 32.34 32.01 31.82 32.16 33.44
35.52 35.03 34.60 34.61 34.66 35.20 36.22 35.65 35.50 34.63 33.54 33.07 33.27 32.56 30.96 29.47 27.98 27.63 28.04 29.85 30.67 29.63 27.90 28.14 29.87 31.93 32.24 30.60 32.40 31.90 33.73 33.12 32.86 32.67 33.05 32.88 32.77 32.94 32.67 32.16 32.08 31.85 32.40 32.71
34.13 33.59 33.66 33.80 34.04 34.68 35.22 33.79 33.50 33.07 32.30 31.95 31.01 30.18 30.08 29.11 27.94 26.71 26.50 28.08 27.78 27.00 26.32 27.24 30.90 29.46 28.23 28.84 31.05 29.02 29.55 30.48 31.83 32.09 32.25 33.67 32.75 32.75 31.99 31.89 31.97 32.10 32.21 32.12
33.80 33.83 33.26 32.52 32.48 32.51 32.12 32.30 32.02 30.85 29.36 28.80 28.85 28.16 27.06 27.13 27.52 26.88 26.48 26.93 28.16 26.58 27.16 27.23 27.22 27.45 27.32 27.93 31.03 27.28 26.97 26.76 27.00 28.26 29.87 31.29 31.72 31.82 31.98 32.87 32.38 31.99 32.05 32.20
33.28 32.82 32.19 31.20 30.63 29.05 26.73 26.86 27.44 27.59 26.84 27.03 26.77 26.65 26.63 27.73 28.40 27.29 25.98 25.76 28.26 27.72 27.66 27.38 25.47 25.54 26.87 28.82 27.34 25.83 25.38 24.80 24.78 24.41 25.13 25.88 27.33 27.72 28.96 30.27 30.92 31.76 31.78 32.13
32.39 31.75 31.67 31.32 30.58 30.04 30.90 27.92 25.66 26.61 27.49 26.93 28.11 29.45 29.04 27.91 27.12 26.18 26.38 25.11 26.17 28.77 25.77 24.28 24.56 26.87 28.09 29.51 24.80 24.33 24.41 24.41 24.07 23.84 23.10 23.32 25.03 25.18 25.23 25.96 26.53 27.68 28.14 29.50
32.15 32.09 32.12 31.53 30.41 27.96 29.18 27.98 28.14 28.56 27.83 27.82 27.24 26.22 26.28 26.13 25.35 23.51 23.02 25.70 25.75 26.38 25.07 24.15 27.10 29.51 30.26 23.58 22.80 23.02 22.60 22.41 22.57 22.33 23.88 25.04 25.15 24.95 24.46 24.21 24.72 25.38 25.01 26.62
29.47 31.31 31.83 32.08 31.56 29.24 23.56 22.93 26.20 29.05 27.69 28.27 28.52 28.07 26.54 25.29 25.67 26.10 25.70 27.92 28.23 27.01 25.29 24.99 26.42 28.65 28.47 22.96 20.87 19.96 21.29 20.74 18.59 15.90 17.21 25.11 22.88 24.16 24.25 23.98 23.14 21.66 23.46 25.02
25.61 24.22 23.24 27.74 29.79 29.77 29.77 28.89 26.94 27.16 26.99 24.71 24.79 24.25 24.59 25.70 25.06 22.92 23.21 23.49 26.97 25.72 23.42 26.02 26.97 26.52 22.54 21.25 18.47 17.15 17.64 14.80 12.17 13.74 13.96 14.33 14.99 16.76 17.59 18.54 19.04 20.64 22.94 24.59
25.02 25.71 26.42 27.36 28.78 30.72 30.52 29.64 28.40 26.79 22.76 21.94 22.31 22.20 22.32 23.50 23.68 25.42 23.83 24.38 22.62 24.07 20.61 20.50 20.04 21.46 20.42 19.61 18.53 18.21 17.80 17.77 18.29 17.51 18.54 15.73 14.93 14.73 16.28 17.32 18.03 18.91 19.56 19.02
18.68 25.38 19.27 23.57 24.88 25.40 25.27 25.29 23.39 23.01 23.89 22.99 22.55 22.81 21.92 21.82 22.39 23.30 24.26 22.56 21.93 20.32 19.32 19.21 18.84 19.96 19.80 19.31 18.94 18.28 16.50 15.83 18.37 16.65 13.39 11.76 12.70 12.58 14.77 15.74 16.17 16.84 17.37 17.78

GFSNGP_sfc_wetblb_105.txt.gz
Wetbulb
33.75 33.38 31.29 30.08 29.99 30.81 23.45 27.16 22.11 29.71 29.57 30.99 32.89 33.95 35.50 36.45 39.53 40.65 40.97 41.14 42.45 42.28 42.03 42.81 43.87 44.03 44.01 43.64 43.83 43.69 43.24 42.73 41.72 41.08 40.59 40.16 39.98 39.88 40.00 40.01 39.69 39.69 39.50 39.06
25.49 31.68 31.95 29.86 31.11 31.39 32.80 32.68 32.77 32.44 30.21 35.28 36.02 35.57 36.65 36.81 39.94 40.77 41.40 41.20 41.70 42.12 42.10 42.26 42.66 43.18 43.38 42.62 42.60 42.92 42.12 41.34 40.85 40.08 39.60 39.22 38.86 38.63 38.64 38.29 38.23 38.31 37.92 38.16
21.63 27.59 29.65 24.26 29.82 30.61 32.94 33.15 33.98 30.54 34.39 36.37 36.89 37.14 36.43 36.94 37.89 37.99 39.36 41.61 41.51 42.10 43.30 43.66 43.35 43.36 42.57 42.21 41.85 41.69 41.20 40.30 39.75 39.47 39.03 38.57 38.31 37.98 37.09 36.58 36.67 35.74 35.39 35.80
22.46 23.91 18.33 28.60 33.99 35.21 33.86 34.43 34.37 34.15 35.14 36.80 36.41 36.99 37.93 38.36 37.67 38.09 38.65 41.36 42.40 42.64 42.56 43.45 44.22 43.41 42.71 42.29 41.71 41.25 40.29 39.67 39.50 39.19 38.54 37.89 37.48 36.57 35.39 35.07 34.85 34.43 36.80 36.65
22.34 20.76 23.87 28.85 33.51 34.02 32.98 32.12 36.96 35.33 35.84 36.15 37.12 37.00 35.81 39.38 39.37 38.87 39.77 41.03 41.94 43.21 43.63 43.68 43.68 43.28 42.28 41.26 40.89 40.59 39.81 39.40 39.45 39.29 38.26 37.28 36.16 34.97 34.65 34.56 33.89 34.04 36.86 36.66
23.76 19.69 19.67 27.64 32.59 35.16 35.17 29.25 37.93 37.51 35.65 35.85 36.19 31.60 34.49 38.59 39.18 39.09 40.16 41.42 42.12 43.10 44.43 43.97 43.03 42.67 41.79 40.65 40.27 39.73 39.69 39.74 39.55 39.22 38.25 36.78 35.82 34.59 33.58 34.38 34.42 35.99 35.77 35.88
23.86 20.99 24.58 30.33 34.42 36.19 24.76 27.30 39.48 38.16 35.89 36.37 34.79 35.52 37.67 39.11 38.90 39.07 39.70 40.78 41.77 42.79 43.02 43.01 43.18 42.64 41.36 40.36 40.02 40.84 40.77 40.18 39.48 38.84 38.08 36.94 34.92 35.37 35.27 32.63 33.49 35.79 35.20 35.51
23.79 21.60 18.48 33.38 34.52 29.67 33.12 37.49 39.39 37.60 36.67 37.14 36.93 37.76 38.22 38.23 37.86 37.97 38.10 39.20 39.98 39.97 40.09 41.08 42.57 42.51 40.90 40.37 40.96 41.17 40.62 39.73 38.96 38.26 38.15 36.63 34.67 35.16 33.01 35.31 35.75 35.55 35.34 33.96
26.09 26.07 32.40 34.49 34.25 36.40 38.27 36.48 38.48 37.35 37.55 38.65 37.99 37.07 37.43 37.35 37.52 37.37 37.33 37.74 38.55 38.91 39.05 39.22 40.32 41.40 40.47 39.95 40.28 39.67 39.12 38.39 37.77 36.84 36.34 35.21 34.00 34.86 35.74 35.68 35.23 34.67 34.10 33.79
29.55 31.06 31.31 33.75 35.49 37.50 38.14 38.04 38.98 39.83 39.65 39.64 37.68 40.34 37.76 37.93 37.55 37.07 37.26 37.03 37.54 37.45 37.71 37.74 38.82 40.42 40.18 39.82 40.02 38.98 37.96 37.11 36.30 35.78 35.22 34.92 36.14 36.20 35.66 35.05 34.51 33.46 33.10 33.02
29.15 30.07 31.03 33.71 35.34 36.19 38.65 39.86 40.25 40.53 41.01 41.43 41.58 41.26 41.06 38.92 37.84 37.46 37.49 38.18 37.74 37.57 37.63 36.58 36.62 36.83 38.11 38.98 39.13 37.91 37.18 36.62 36.19 36.08 36.63 35.39 36.56 36.57 34.96 36.03 35.54 33.90 33.93 33.73
30.70 32.76 32.95 34.53 35.83 38.12 37.61 37.63 38.32 39.16 39.10 41.61 43.22 41.35 39.42 37.90 37.44 36.66 35.27 35.34 35.86 36.31 36.18 36.08 35.26 35.02 35.68 36.69 37.03 36.49 36.35 36.69 36.65 37.20 35.48 35.59 35.43 35.23 38.95 38.80 38.75 39.13 39.20 37.23
32.24 32.35 34.63 35.38 36.60 35.72 35.89 37.32 38.13 38.48 38.24 39.91 40.40 40.52 39.42 37.44 37.18 37.88 34.57 33.92 33.46 34.56 35.06 35.34 34.45 33.51 33.69 34.29 34.70 34.54 33.75 34.21 34.16 36.37 36.73 36.66 35.51 33.96 31.64 35.59 38.98 39.39 39.65 39.80
30.53 31.91 31.99 32.75 31.44 34.68 35.61 36.82 38.06 36.25 37.54 39.44 39.81 39.82 39.09 37.71 36.97 35.39 34.12 33.75 33.92 33.69 33.61 33.49 32.51 31.52 32.33 33.34 33.43 32.88 32.48 36.19 32.61 32.23 32.59 34.62 33.70 32.19 33.44 33.03 33.00 33.36 36.75 38.05
30.02 31.49 31.18 31.99 32.61 33.85 34.70 35.70 34.70 34.98 35.35 35.67 37.57 37.03 36.93 35.78 34.64 33.38 32.85 32.65 33.06 33.15 32.60 32.81 31.61 30.86 32.54 34.43 35.32 35.31 34.33 32.55 32.29 31.74 33.28 33.78 33.38 33.71 33.54 33.09 32.80 33.00 33.00 34.90
31.64 31.75 32.99 32.05 31.99 33.97 35.29 36.79 36.09 35.97 36.36 36.40 35.88 35.30 35.55 35.69 34.33 33.21 32.54 32.30 30.97 31.27 31.12 30.99 32.57 30.64 33.90 34.36 33.28 34.24 35.58 36.48 37.17 34.70 34.21 33.87 33.69 33.21 32.90 32.65 32.66 32.83 32.63 32.65
29.03 28.21 30.81 32.32 33.65 33.34 34.10 36.10 35.65 35.68 34.76 34.25 34.15 34.35 34.49 34.10 32.95 30.93 30.03 31.26 31.47 32.21 30.07 29.00 28.75 29.93 33.63 30.66 32.80 33.20 34.06 33.19 35.63 32.92 33.27 33.41 33.19 32.96 32.87 32.69 32.37 32.43 32.69 33.55
33.04 35.01 34.75 34.35 33.97 33.85 34.23 35.96 35.75 34.95 33.95 33.30 33.90 33.28 31.49 29.93 28.57 28.21 27.88 29.23 29.77 28.19 26.67 26.96 28.54 29.39 29.32 28.44 29.56 28.28 28.45 32.07 32.27 31.84 32.07 32.18 32.59 32.83 32.55 32.21 32.18 32.10 32.49 32.85
32.17 33.86 33.93 33.80 34.23 34.01 34.84 34.69 34.04 33.53 32.98 32.17 31.35 30.11 30.47 30.08 29.16 27.95 27.52 28.05 27.80 26.99 26.09 26.33 29.86 28.85 27.15 27.99 30.33 27.12 26.94 26.88 27.07 28.63 30.46 32.48 32.01 32.05 31.68 31.70 31.80 31.97 32.11 32.09
32.65 34.04 33.70 32.93 32.74 32.26 32.48 32.57 32.58 31.25 30.62 29.96 27.75 28.14 26.47 26.27 27.03 27.20 26.77 26.23 28.03 27.13 27.34 27.27 27.00 26.78 27.31 27.67 30.52 26.41 26.07 25.21 25.11 25.15 25.55 26.40 27.20 28.74 29.33 30.87 31.44 31.58 31.69 31.82
33.28 33.57 32.79 31.95 31.05 30.90 27.77 25.81 26.40 28.67 27.83 25.64 24.71 24.52 24.70 25.72 27.17 28.25 27.60 26.68 28.54 28.70 28.17 28.19 26.24 25.85 26.65 28.78 27.63 25.68 25.36 24.72 24.51 23.84 24.06 24.01 24.40 24.86 24.97 25.57 26.76 27.38 27.97 28.04
32.86 32.10 32.06 31.76 30.99 30.56 30.99 28.95 25.11 24.26 26.39 26.13 25.82 25.80 26.45 26.87 26.30 25.50 27.36 25.94 26.90 29.27 26.83 25.96 25.68 26.79 28.33 29.93 25.68 24.89 24.70 24.26 24.21 23.85 23.35 23.46 23.69 24.28 24.89 25.21 24.83 25.63 25.97 25.51
32.26 32.18 32.26 31.83 31.08 30.50 30.22 29.88 27.67 27.20 27.62 25.91 26.58 26.28 25.32 24.59 24.19 22.64 22.32 26.01 26.70 27.31 26.90 25.77 26.90 29.50 30.25 24.17 23.63 23.44 23.05 22.40 22.34 22.35 21.47 20.88 22.11 21.67 24.34 24.42 24.20 24.55 23.46 20.90
26.49 30.03 30.20 32.03 31.92 30.22 28.33 28.06 27.40 29.20 28.77 26.81 26.21 26.66 26.27 24.68 24.34 25.99 26.27 28.41 29.39 29.00 26.53 26.12 27.04 29.13 29.34 23.55 22.15 21.55 21.56 21.07 19.47 17.36 18.04 22.79 14.58 14.97 16.04 18.92 18.67 18.66 19.38 20.44
25.42 23.42 21.71 21.73 27.14 29.45 30.09 30.05 29.26 27.91 26.77 25.94 26.15 25.73 24.79 24.42 23.93 20.84 20.78 23.91 28.25 27.26 23.63 26.51 27.80 27.68 22.47 20.88 19.30 18.74 18.84 16.37 13.17 15.02 14.06 13.07 13.61 12.69 15.27 15.86 15.68 17.15 18.06 19.36
25.13 25.24 25.72 26.49 27.06 27.17 28.70 30.04 28.75 29.16 28.05 25.95 23.29 22.88 22.33 22.06 22.22 24.22 21.18 23.54 23.05 24.77 23.27 21.47 20.99 21.59 20.32 19.09 18.87 18.86 18.23 17.33 17.20 16.82 17.96 15.60 14.45 14.06 14.97 15.55 15.64 15.96 16.79 16.46
17.68 25.09 17.88 22.62 23.94 24.89 25.12 26.06 24.99 24.91 25.84 24.31 23.02 23.43 22.71 21.25 21.32 22.16 23.71 21.02 21.71 21.69 20.42 20.09 19.51 20.19 19.52 19.53 19.01 17.91 16.59 15.89 18.59 17.90 16.16 14.08 13.43 12.72 13.94 14.72 14.39 15.14 15.58 15.92

GFSNGP_sfc_wetblb_108.txt.gz
Wetbulb
33.15 33.47 31.19 30.29 29.81 30.89 22.61 25.98 20.77 27.74 28.40 30.35 32.45 33.41 34.51 36.69 39.76 40.53 41.03 41.35 41.92 42.10 42.16 42.73 43.48 44.41 44.59 44.04 44.06 43.85 43.19 42.78 41.65 40.89 40.49 40.22 40.06 39.87 39.85 39.74 39.40 39.83 39.04 38.40
25.69 30.10 31.71 29.69 30.88 30.35 31.31 30.79 31.43 29.90 29.98 34.22 35.75 35.64 35.83 35.34 37.19 37.92 39.94 41.10 41.80 43.02 42.04 41.41 42.22 43.94 43.85 43.13 43.18 43.65 42.19 40.84 40.21 39.71 39.41 38.98 38.80 38.61 38.25 38.02 38.18 38.12 37.88 37.73
20.73 26.39 28.31 23.23 27.93 30.72 32.92 32.09 32.60 30.21 32.65 35.62 35.18 36.66 36.14 36.63 37.17 36.48 37.70 40.49 41.76 41.66 42.57 42.48 42.80 43.11 42.31 41.80 42.31 41.84 41.00 39.98 39.57 39.10 38.61 38.38 37.99 37.69 37.03 36.52 36.74 35.65 35.50 35.75
21.24 22.63 17.37 26.65 33.07 33.46 32.77 33.49 33.90 34.35 35.90 37.06 37.45 37.83 37.58 37.90 37.29 37.51 38.17 39.05 40.34 41.10 41.55 42.32 42.87 42.46 41.73 41.43 40.97 40.59 39.50 39.00 39.03 38.81 37.87 37.54 37.28 36.30 34.97 35.59 35.25 35.68 36.59 36.86
21.54 19.76 22.52 28.28 32.03 34.87 33.15 31.57 35.78 33.56 34.78 35.69 36.76 36.45 36.42 39.12 38.50 37.71 38.18 39.54 41.18 42.39 42.73 42.48 42.55 42.02 41.19 40.16 39.84 39.83 38.86 38.77 39.04 38.86 37.53 36.86 36.17 35.40 35.37 34.83 33.78 33.54 35.74 37.01
23.32 18.68 18.64 25.66 31.34 33.86 36.16 29.07 36.84 36.09 34.62 34.05 35.32 30.46 32.84 37.96 39.21 38.78 39.09 39.99 40.71 41.49 43.15 42.92 42.20 41.56 40.74 39.63 39.45 39.02 39.13 39.27 39.20 38.93 37.90 37.40 36.02 35.29 33.84 34.61 34.63 34.06 36.02 36.53
23.33 20.16 23.47 28.94 33.43 35.07 23.35 25.03 38.16 36.98 34.82 35.99 33.92 34.94 36.69 37.81 37.98 38.41 39.02 39.43 40.37 40.88 40.59 41.61 42.10 41.82 40.96 39.99 39.25 40.11 40.28 39.61 38.97 38.77 38.10 37.42 35.21 35.52 35.75 33.36 33.46 35.07 35.87 36.17
23.20 20.49 17.90 32.31 32.64 27.44 31.83 35.60 37.67 36.63 35.75 36.17 35.92 37.22 37.52 37.53 37.03 37.34 37.34 38.25 38.99 38.45 38.41 39.62 41.15 41.63 40.01 39.72 40.81 40.79 40.27 39.60 38.77 37.89 38.11 36.47 34.87 35.83 33.13 33.27 33.48 35.15 35.43 33.88
25.62 25.66 31.60 32.99 33.11 35.09 36.61 35.40 36.26 35.88 36.29 37.59 37.28 36.42 36.61 36.53 37.04 36.99 36.81 36.64 37.32 37.68 37.24 38.19 40.23 41.57 40.25 39.04 40.18 39.89 39.64 39.08 38.42 38.04 37.50 36.31 35.25 34.96 33.84 34.24 35.09 35.53 34.43 33.53
28.56 29.67 30.19 32.05 33.70 35.20 36.53 36.19 37.30 38.31 38.33 38.14 36.66 38.53 37.04 37.18 36.21 36.21 36.69 36.40 36.81 36.39 37.15 37.17 39.20 40.25 40.23 40.21 40.21 39.63 38.66 37.60 36.87 36.13 35.25 34.36 35.04 34.88 34.86 35.42 35.26 33.92 33.41 33.16
27.51 28.36 29.68 32.20 33.38 34.47 36.87 37.77 38.06 38.82 39.22 38.47 39.36 41.02 40.35 38.65 37.49 36.36 36.10 36.17 36.86 36.32 36.94 36.05 35.99 36.43 37.22 38.75 39.77 38.97 38.34 37.60 36.73 36.69 36.87 35.19 35.10 35.06 34.60 36.27 34.74 32.51 33.39 33.85
27.60 31.83 32.17 32.65 35.13 35.24 35.35 36.01 36.75 37.32 38.07 40.42 42.74 42.05 39.87 37.15 36.64 35.20 33.95 33.85 34.62 34.72 34.71 35.19 33.78 33.17 34.19 35.40 36.26 36.68 36.72 36.69 36.62 36.42 35.92 35.61 34.54 35.96 39.27 38.88 39.21 39.58 39.27 36.84
32.00 31.86 33.85 33.89 35.25 33.79 33.91 34.85 35.78 36.29 37.12 39.78 40.39 40.50 38.04 36.57 35.70 37.03 34.12 33.14 32.66 33.36 33.76 33.92 33.22 32.09 32.67 33.46 33.98 33.84 33.22 33.68 33.67 35.58 36.55 36.84 35.81 34.79 34.01 36.18 39.67 39.98 39.92 40.02
30.14 31.37 30.45 31.64 30.82 33.40 34.41 35.68 36.60 34.46 35.65 36.83 39.44 39.62 38.85 37.50 36.73 35.34 34.12 33.98 33.99 33.95 33.48 33.23 32.32 31.09 32.11 33.15 33.24 32.60 32.08 35.71 31.66 31.01 31.11 31.74 31.79 32.42 33.85 33.02 32.86 33.68 37.52 38.80
29.81 31.03 31.10 30.51 30.59 32.38 33.50 34.41 32.79 33.70 33.93 34.28 36.03 36.81 37.01 36.26 35.04 33.72 33.43 33.47 33.66 33.30 32.44 32.61 31.85 30.38 32.58 34.78 33.93 34.07 35.11 35.19 34.44 31.72 30.38 31.92 32.45 33.30 33.06 33.30 33.22 33.42 33.27 35.30
30.94 31.34 31.08 29.72 29.58 31.52 32.31 33.12 33.28 35.92 36.57 36.34 35.60 34.83 35.01 35.04 33.90 33.17 32.92 33.12 32.68 32.23 31.72 30.89 31.31 30.02 33.52 32.77 33.00 33.59 34.67 35.59 35.94 33.67 33.72 33.71 33.55 33.16 33.09 32.96 32.90 32.92 32.73 32.86
29.40 27.96 28.98 28.52 32.46 33.57 34.24 35.02 34.37 34.33 34.77 34.32 34.19 34.82 35.39 34.55 33.65 31.87 31.00 31.67 32.20 31.21 28.74 28.16 28.17 29.36 32.64 29.75 30.39 30.98 29.70 32.12 34.23 32.42 32.21 32.26 32.47 32.49 32.58 32.41 32.16 32.09 32.44 33.59
31.82 32.33 32.94 33.83 33.61 33.61 33.77 35.38 35.87 35.14 34.41 33.88 34.34 33.50 31.53 30.60 29.32 28.75 28.44 28.45 30.51 29.71 28.42 27.58 27.82 29.40 28.16 27.46 28.99 27.59 27.12 27.85 27.73 29.24 31.54 31.56 32.22 32.18 32.04 31.76 31.80 31.74 32.22 32.86
31.88 31.90 32.12 33.72 34.41 34.02 34.41 34.64 34.19 33.79 33.43 32.21 31.50 30.07 30.52 28.36 28.17 27.34 25.95 26.22 27.79 28.05 27.97 27.11 29.10 28.21 27.52 27.64 29.88 26.46 26.22 25.70 25.37 25.39 25.96 27.87 27.62 30.26 30.85 31.21 31.46 31.69 31.80 31.84
30.71 31.86 32.78 33.16 32.90 32.54 32.41 32.93 32.79 31.77 31.31 30.81 29.55 28.94 25.97 25.23 25.47 25.45 24.78 23.78 25.57 28.58 27.92 27.75 27.38 25.79 26.89 27.37 30.15 26.48 25.68 25.15 24.74 24.31 24.39 24.78 24.77 25.44 25.47 26.75 27.49 27.84 28.14 29.52
30.59 31.28 32.18 32.27 31.50 31.17 30.51 27.74 25.10 27.90 28.02 27.64 25.09 24.71 24.07 24.42 25.45 24.60 23.43 23.19 26.32 28.91 28.97 28.94 26.79 25.95 26.02 28.54 28.66 25.88 25.08 24.36 24.41 23.95 23.80 23.75 23.80 24.08 24.09 24.29 24.37 25.05 25.47 25.93
27.38 28.28 31.42 32.11 31.33 30.85 31.24 29.78 26.61 23.97 24.15 25.02 25.50 24.41 24.96 25.58 25.40 24.02 25.35 24.81 25.00 30.79 25.82 25.87 26.20 26.97 27.92 30.59 26.35 25.14 24.74 24.22 23.77 23.97 22.99 23.13 23.54 23.69 23.18 23.41 22.79 24.43 25.24 24.45
24.31 27.31 31.19 32.01 31.20 30.77 30.79 30.39 29.97 28.56 24.97 26.83 25.45 25.95 26.42 25.91 24.15 22.02 21.34 23.41 23.72 27.43 26.44 25.89 27.48 28.99 30.23 25.65 24.30 23.56 23.02 22.59 22.43 22.51 21.37 20.03 21.05 21.58 21.35 21.29 22.53 22.91 21.80 20.84
24.19 26.29 26.30 29.84 32.13 30.40 28.97 29.77 29.33 29.48 28.97 28.62 26.45 25.80 24.76 23.74 24.33 24.94 24.82 28.48 29.69 28.77 26.24 25.68 27.01 29.08 29.93 23.99 22.52 22.01 21.76 21.24 20.28 18.65 18.10 21.83 15.81 16.73 17.78 18.65 18.60 18.90 18.31 18.55
24.50 22.47 20.83 22.30 28.03 28.65 26.32 28.64 29.60 29.12 28.83 26.80 24.94 25.83 26.51 26.55 25.56 22.68 19.41 20.90 27.66 27.05 21.98 27.64 28.86 28.64 23.94 22.12 20.90 19.59 19.16 17.46 13.94 14.98 15.99 15.31 15.69 15.38 16.08 16.07 15.74 16.23 16.03 15.91
24.99 25.02 25.40 25.88 27.46 26.78 26.47 26.56 26.45 28.48 29.16 28.28 27.97 26.96 24.05 22.33 21.73 24.16 20.79 22.89 21.13 24.05 19.96 19.53 20.62 21.98 21.12 20.24 19.47 19.64 19.31 18.68 18.06 16.79 17.83 15.60 14.77 14.33 15.14 15.38 15.27 14.88 15.20 14.79
17.34 24.97 20.52 21.67 23.01 23.88 24.14 24.87 24.23 25.04 26.63 25.25 24.47 24.89 23.96 23.01 21.41 22.16 23.87 21.39 21.22 20.15 18.61 17.88 18.52 20.54 19.88 19.62 19.47 18.55 16.77 16.11 18.53 16.93 14.56 12.64 12.50 12.32 13.80 13.93 14.40 14.90 15.23 15.30

GFSNGP_sfc_wetblb_111.txt.gz
Wetbulb
32.47 33.43 32.73 30.94 31.11 31.80 27.78 28.81 24.82 29.16 29.14 32.24 34.30 35.02 35.83 36.81 38.65 40.02 41.25 42.05 43.23 43.46 44.16 44.68 45.22 45.64 45.57 45.72 46.55 47.13 46.76 46.65 45.39 44.83 44.29 43.91 43.43 43.20 43.17 43.22 42.79 42.38 41.73 41.67
25.76 31.50 30.84 28.79 30.94 31.90 32.61 32.29 31.40 31.47 31.28 36.25 36.84 37.60 37.56 37.02 37.31 37.82 39.48 41.02 41.97 42.99 43.62 43.95 44.79 45.10 44.97 44.92 44.97 45.74 44.87 43.17 42.50 42.26 42.26 41.83 41.59 41.32 41.38 41.19 41.19 41.30 40.97 41.26
21.25 26.78 29.20 23.70 28.25 31.67 33.01 32.93 32.74 29.88 33.51 36.49 35.95 36.64 36.50 37.05 37.80 37.71 38.66 39.61 40.49 41.66 42.54 44.20 44.35 44.63 44.29 44.42 44.86 44.27 43.01 42.11 41.81 41.76 41.15 40.83 40.57 40.48 40.09 39.93 39.84 39.03 39.03 39.64
21.79 23.21 17.69 27.05 33.79 33.55 34.01 33.99 34.09 34.47 35.79 36.36 36.81 37.11 37.78 38.21 37.77 37.92 38.34 39.05 40.31 41.77 42.69 43.40 44.41 43.80 43.27 43.47 43.26 43.44 42.32 41.45 41.27 41.11 40.29 40.09 40.06 39.34 38.71 38.92 38.39 38.41 38.68 38.22
21.97 19.98 23.66 28.74 31.70 34.87 33.90 32.96 36.88 35.14 35.26 36.22 37.22 37.18 36.80 38.91 39.12 38.21 38.42 39.94 41.05 42.08 42.59 43.56 43.92 43.22 42.52 41.94 41.90 41.53 40.86 40.80 40.94 40.72 39.43 39.26 38.40 38.11 38.24 37.88 36.91 37.36 38.75 38.81
23.90 19.05 19.00 27.17 31.65 34.49 35.37 29.57 37.22 36.35 35.52 35.89 35.87 31.13 33.89 37.97 38.40 38.31 39.10 39.81 40.47 41.42 43.05 43.85 43.25 42.75 42.06 41.25 41.28 40.82 40.56 40.69 40.64 40.38 39.71 39.04 38.53 37.54 36.29 37.89 37.32 38.16 38.14 38.80
24.23 20.83 24.12 29.47 32.32 34.76 24.28 27.27 38.94 37.06 35.97 35.91 34.29 35.35 37.35 38.17 38.02 38.29 38.68 38.98 40.46 40.49 40.57 41.68 43.09 42.94 41.74 41.15 41.36 41.66 41.28 40.90 40.32 40.22 39.94 39.05 37.55 37.51 37.10 36.69 36.62 37.83 37.86 38.00
23.29 21.34 18.95 32.74 32.78 28.71 31.58 35.25 38.63 37.86 36.82 37.07 37.18 37.60 37.60 37.88 37.59 37.69 37.58 38.14 39.15 38.98 38.99 40.64 42.49 42.71 41.47 41.44 41.77 41.65 41.10 40.51 40.01 39.76 39.39 37.95 37.35 37.84 36.71 36.64 36.49 37.02 37.15 36.75
25.59 25.84 30.98 33.47 33.68 35.84 37.02 35.75 37.32 37.84 37.97 38.29 38.01 37.53 37.86 37.54 37.49 37.32 37.15 37.35 37.96 38.36 38.57 39.84 41.13 42.26 41.01 39.98 41.25 40.92 40.51 40.02 39.58 38.97 38.77 37.76 37.57 36.64 35.96 35.96 36.18 36.93 36.07 35.83
28.63 29.89 30.27 32.73 34.46 36.02 37.14 37.20 37.79 38.78 38.99 39.02 37.58 38.52 39.26 37.89 36.95 36.92 37.11 36.95 37.51 37.26 37.02 36.90 37.99 39.08 39.72 40.29 40.96 40.70 39.98 39.36 38.89 38.69 38.19 37.68 37.60 37.34 37.04 36.51 36.70 36.11 35.37 35.26
27.00 28.40 30.08 32.44 34.00 34.92 36.76 37.33 37.43 38.55 39.52 39.87 40.09 40.74 40.40 38.98 38.10 36.93 36.30 36.45 36.87 36.72 36.77 35.95 36.39 36.09 36.53 37.39 39.98 39.45 39.29 38.58 38.17 38.05 38.71 37.29 36.99 37.28 37.30 37.95 37.65 35.98 35.98 35.33
27.25 31.55 31.69 32.12 35.58 35.53 35.79 35.75 36.70 37.51 37.66 39.94 42.65 42.05 40.20 38.11 37.31 35.88 34.48 34.42 34.99 34.83 34.75 34.45 34.29 33.73 34.43 35.20 36.47 37.17 37.78 37.94 37.98 37.78 37.49 36.74 36.61 37.10 39.44 39.41 39.75 39.87 39.39 37.75
32.15 32.87 33.77 34.88 34.41 34.56 34.36 35.19 35.97 35.99 36.69 37.95 39.38 40.81 39.43 37.00 35.78 36.64 34.41 33.98 33.81 33.87 34.76 34.18 33.01 32.39 33.26 34.41 34.75 34.29 34.03 34.58 34.83 35.49 36.33 37.63 36.92 36.13 35.22 37.23 40.43 40.57 40.40 40.36
31.36 33.03 31.22 32.10 31.96 32.70 33.76 34.95 36.29 34.73 35.45 36.44 37.84 38.56 38.97 37.52 36.83 35.38 34.08 34.28 34.75 35.03 34.56 33.81 32.73 31.68 33.13 35.07 34.77 34.86 34.84 36.05 34.02 33.55 33.51 33.78 33.91 33.90 34.20 34.43 34.95 35.37 38.22 39.69
30.42 30.17 31.60 31.85 31.67 31.96 32.20 33.54 32.70 33.77 34.23 34.41 35.42 35.41 36.05 35.47 35.01 33.73 33.88 33.98 34.12 33.67 32.98 33.24 32.59 31.19 33.25 34.23 33.70 33.70 34.93 35.32 35.43 34.64 34.38 35.04 34.22 33.82 34.16 34.19 34.04 34.34 34.39 35.90
30.45 30.84 31.03 30.66 31.03 31.60 31.33 31.75 31.03 32.67 34.74 35.42 35.69 35.12 35.43 35.16 34.04 32.82 32.69 33.03 32.84 32.35 32.23 31.54 31.17 30.52 32.34 32.00 32.16 33.14 32.44 34.01 35.16 33.05 32.94 33.11 33.39 33.26 33.25 33.21 33.30 33.40 33.22 33.35
28.94 28.11 28.98 28.94 31.13 31.42 32.20 34.93 35.15 34.40 33.39 33.18 33.58 35.25 35.77 34.96 33.74 32.06 31.62 32.02 33.16 32.50 29.61 28.55 28.70 30.38 30.90 29.17 30.09 29.49 28.61 29.88 32.79 31.66 32.17 32.04 32.23 32.15 32.32 32.15 32.05 32.11 32.34 33.60
31.05 31.52 31.89 31.45 31.02 31.92 33.85 35.46 35.76 35.41 34.80 34.51 34.76 33.88 31.45 31.07 30.61 30.07 28.43 26.72 28.41 29.11 28.69 27.37 28.21 30.53 29.03 28.23 29.73 28.16 27.74 27.63 27.66 27.62 28.56 28.62 31.60 32.05 32.01 31.73 31.78 31.72 32.00 32.36
31.03 31.10 31.28 32.37 32.46 33.64 34.50 34.78 34.81 34.40 34.11 33.15 30.68 29.35 29.98 30.35 29.75 27.67 26.22 25.17 25.59 26.66 27.76 26.87 28.72 28.01 28.66 28.74 30.41 28.25 27.09 26.60 26.21 26.10 26.24 27.69 26.63 27.22 28.08 28.60 29.10 29.41 30.02 31.24
30.38 31.03 31.44 31.75 32.05 33.04 33.18 33.57 33.22 32.73 32.42 30.82 29.32 29.94 29.13 26.94 26.31 25.98 25.16 23.94 24.79 26.07 27.06 27.14 27.50 26.48 26.67 27.81 29.69 28.10 26.31 25.86 25.43 25.43 25.29 25.88 25.02 25.51 25.52 26.06 26.18 25.99 26.39 27.44
29.54 30.11 30.19 30.52 30.26 31.73 31.32 30.13 27.93 26.89 28.58 27.64 26.50 25.66 25.86 24.85 25.28 24.96 26.61 26.17 26.38 28.63 28.49 29.57 26.45 25.96 26.03 27.76 29.42 27.52 26.00 25.11 24.75 24.64 24.35 24.09 24.22 24.64 24.77 24.79 24.98 25.02 25.02 25.86
26.09 27.48 27.89 28.02 28.65 31.02 31.51 30.18 28.06 25.97 24.06 24.76 24.76 23.83 24.11 26.14 25.95 24.88 26.50 26.09 24.92 29.73 25.87 24.61 25.04 26.90 27.11 30.24 27.39 26.13 25.07 24.42 24.13 24.03 23.74 23.27 22.63 22.77 23.43 24.05 24.01 24.63 24.83 25.28
24.58 25.99 28.32 26.10 25.95 27.92 30.52 30.80 30.20 29.53 27.03 25.06 25.07 25.02 25.74 26.34 26.58 24.00 22.72 24.98 24.38 26.54 25.98 24.81 27.05 29.29 30.06 27.50 25.80 24.83 23.97 23.33 23.11 23.02 22.79 21.84 21.55 21.81 21.85 20.90 21.71 22.92 22.19 21.80
23.86 26.44 25.38 28.82 28.12 25.54 24.58 25.76 29.68 30.42 29.24 29.16 28.94 28.43 26.47 25.28 26.29 26.28 26.03 28.91 31.05 29.59 26.28 25.57 26.99 29.62 30.12 25.21 24.94 23.58 22.76 22.11 21.72 21.12 20.70 22.50 20.85 19.90 19.45 19.66 19.64 19.79 19.69 19.70
24.76 22.17 20.23 22.90 27.55 28.54 28.38 25.37 24.36 25.85 26.46 28.65 28.98 28.51 27.81 27.82 27.79 26.18 24.88 22.38 27.35 27.41 23.92 29.32 30.44 30.15 24.04 22.71 22.31 22.28 21.41 20.60 19.66 19.22 19.42 18.93 18.44 17.99 18.16 18.22 18.04 18.17 18.54 18.81
24.59 25.24 25.44 25.82 27.82 28.38 28.62 25.98 25.86 26.27 26.38 26.51 27.42 28.45 28.04 26.82 25.62 25.69 22.21 23.31 21.09 24.27 21.28 19.99 20.83 21.36 19.63 19.07 20.46 20.76 20.74 20.35 21.09 19.31 19.74 18.91 18.09 17.23 16.94 16.91 16.87 16.95 17.34 17.08
17.24 25.99 22.91 22.04 22.76 23.28 23.41 24.25 23.53 24.44 26.19 25.44 24.81 25.38 25.13 24.63 23.25 23.06 23.55 21.19 21.79 21.13 19.85 19.74 19.30 21.22 18.43 18.69 19.12 19.93 19.93 19.18 20.03 18.39 17.54 16.45 15.68 14.67 14.97 15.57 15.60 15.93 15.89 15.75

GFSNGP_sfc_wetblb_117.txt.gz
Wetbulb
35.73 36.42 36.75 35.49 35.60 36.71 34.08 35.88 31.77 33.12 33.48 37.02 39.86 40.79 41.30 42.92 43.48 42.81 43.27 44.32 45.78 46.86 48.09 49.40 50.33 52.05 52.44 52.59 53.89 55.48 55.51 55.08 54.77 54.97 54.49 53.57 53.02 53.69 53.63 54.10 53.14 51.52 49.86 49.45
32.22 36.44 36.84 33.62 36.17 37.01 36.97 37.25 36.41 36.57 35.27 41.49 42.52 43.15 41.82 41.82 42.02 41.54 42.32 44.05 45.44 46.53 48.15 48.59 48.92 49.16 50.77 51.65 52.13 53.76 53.53 52.10 52.12 52.24 51.76 51.24 50.58 50.02 50.04 48.92 48.09 47.96 47.50 47.17
29.68 34.37 34.22 30.98 33.76 35.52 37.06 38.59 38.30 33.67 37.72 42.24 40.37 40.66 41.04 42.21 42.68 42.04 43.01 43.89 44.88 45.88 47.55 48.41 49.13 49.66 48.81 49.75 51.46 50.90 49.98 49.53 49.50 50.16 49.23 49.08 49.10 48.87 48.91 47.78 47.17 46.68 46.56 46.40
31.60 32.85 24.97 33.79 39.95 39.66 38.03 38.57 39.98 39.21 39.93 41.04 41.13 42.48 42.87 43.45 42.84 42.51 43.49 44.17 45.40 46.31 47.48 48.61 49.79 49.31 49.55 49.43 48.97 49.07 48.70 48.72 49.43 48.92 47.92 47.61 47.36 46.23 45.63 45.62 45.40 45.14 45.23 46.04
30.51 29.39 31.46 34.01 37.18 37.38 36.17 35.68 40.16 39.53 40.91 41.52 42.23 44.49 41.49 43.64 44.09 43.65 44.69 45.26 45.84 47.32 48.37 48.89 48.71 49.51 49.34 48.76 48.45 47.74 46.97 46.86 47.51 46.79 45.75 45.80 44.80 44.68 44.76 44.37 43.88 43.57 44.14 44.33
32.37 26.89 24.92 34.17 38.36 41.28 41.29 31.66 41.29 41.71 41.01 41.27 43.18 37.91 38.63 43.27 43.77 43.85 45.05 45.12 45.86 47.38 48.48 48.63 48.59 49.56 48.85 48.18 48.37 47.01 47.04 46.66 47.04 46.94 46.18 45.43 45.94 44.59 44.41 43.51 42.18 43.12 42.85 43.73
32.20 29.62 31.67 37.54 39.70 41.32 30.40 33.74 42.24 42.83 42.49 42.29 39.79 41.24 42.86 44.36 43.64 44.34 44.17 44.44 46.39 46.29 45.74 46.95 48.49 49.25 47.69 47.38 45.54 46.39 46.90 46.41 46.17 46.25 45.79 45.59 44.56 43.64 43.68 42.31 41.84 42.08 41.99 42.82
32.34 29.67 26.48 39.97 39.45 35.07 40.37 44.02 43.69 43.41 43.54 42.72 43.10 43.28 43.90 43.76 43.17 43.16 42.95 43.28 44.99 44.21 43.37 44.01 45.81 47.62 45.20 44.22 46.24 46.59 46.43 45.75 45.45 45.73 44.55 44.35 43.34 42.78 42.84 42.00 41.51 40.98 41.37 41.42
33.77 33.09 38.80 41.04 41.16 42.93 43.72 43.81 43.69 44.19 44.11 44.27 43.48 43.23 43.93 43.29 43.33 42.96 42.97 43.07 43.84 43.42 41.79 41.07 40.72 40.99 39.90 40.52 43.40 45.20 45.84 45.52 45.06 44.85 44.16 44.36 43.39 42.43 42.35 42.82 42.62 41.79 40.75 40.54
35.34 37.08 39.44 41.09 42.66 43.79 44.56 44.13 44.81 45.32 44.86 44.82 43.69 44.18 43.35 43.11 43.07 42.80 42.56 42.28 43.29 42.94 41.63 40.30 39.98 39.31 38.41 38.91 42.52 42.01 41.22 41.27 41.76 43.41 43.77 43.80 43.63 43.68 43.16 42.63 42.44 42.20 40.24 39.57
36.12 38.05 39.45 40.71 42.51 43.56 43.27 43.87 43.88 44.78 45.38 44.53 44.79 44.27 44.32 43.30 42.52 41.95 41.92 41.96 42.22 41.62 40.75 39.94 40.60 40.16 40.57 40.88 41.24 40.21 40.01 39.85 39.64 39.56 39.94 39.30 39.32 40.42 41.02 42.25 42.05 41.44 41.55 41.23
35.81 40.89 41.09 41.65 42.76 43.79 42.63 42.03 42.65 43.44 43.49 44.77 45.35 44.95 44.96 43.54 42.87 41.90 41.02 41.22 40.85 40.92 40.50 39.62 39.57 38.85 39.06 39.77 40.27 40.41 40.27 39.98 39.47 39.60 39.16 38.20 37.82 38.27 40.66 40.79 41.05 41.04 41.03 40.23
40.44 43.35 42.95 43.63 43.12 43.30 42.22 41.90 42.09 42.30 42.97 43.10 44.00 45.00 44.25 42.48 41.13 39.77 40.23 39.92 39.61 39.06 38.86 38.25 37.77 36.94 36.93 37.53 38.25 37.88 37.50 37.67 38.61 39.36 39.09 39.15 39.39 37.05 35.44 38.08 40.85 41.03 41.08 41.16
42.93 41.57 39.11 40.66 39.98 41.80 42.19 41.84 41.63 41.93 42.11 42.39 42.90 43.26 43.35 42.34 40.82 39.67 39.01 38.60 38.60 38.46 38.18 37.79 36.56 35.37 36.18 36.77 36.51 36.58 36.78 36.63 36.81 36.65 36.29 36.19 36.14 36.12 36.56 36.34 36.56 37.03 40.46 41.03
41.28 40.52 42.96 42.75 42.05 40.81 41.43 40.85 40.10 40.23 40.81 40.64 41.45 41.54 41.73 41.01 40.37 39.54 37.99 37.44 37.22 37.22 36.56 36.16 35.57 34.56 35.16 35.56 35.41 35.29 35.28 35.34 35.45 35.59 35.44 35.40 34.82 34.46 34.78 35.05 35.43 35.78 37.22 37.96
41.04 39.33 40.37 39.67 39.62 39.17 38.85 38.78 38.50 39.09 39.35 40.14 40.10 39.43 39.20 39.30 39.19 38.09 37.01 36.23 35.64 35.76 35.87 34.50 33.74 33.84 33.76 34.31 32.99 33.63 33.46 31.76 32.67 34.00 33.24 33.35 33.36 32.96 33.05 33.31 33.57 33.89 34.08 34.30
36.47 35.10 36.95 37.62 38.02 38.15 37.98 39.20 39.05 38.88 38.52 38.47 38.47 38.04 37.24 37.27 36.73 35.62 35.22 35.36 35.13 35.23 35.72 34.41 33.20 33.26 33.54 32.75 32.01 32.46 31.56 30.92 30.88 30.42 30.30 30.37 30.70 32.22 32.43 32.11 32.03 32.29 32.54 33.50
41.36 41.31 40.20 40.17 38.76 38.29 37.82 38.17 38.06 37.94 37.21 37.85 37.46 36.81 35.95 35.35 35.11 35.93 35.55 34.13 31.69 31.29 33.34 33.93 33.80 32.74 32.63 32.02 31.42 31.91 30.95 30.19 29.65 28.98 28.92 28.58 29.23 29.81 29.61 30.47 31.08 31.47 31.89 32.66
39.84 39.79 39.94 39.30 39.59 38.92 38.41 37.65 37.71 37.95 37.50 36.88 35.97 35.03 35.09 34.93 34.63 34.33 33.57 31.26 30.24 29.32 31.32 33.81 32.64 30.20 30.89 31.47 30.68 31.47 30.88 29.62 28.72 28.46 28.52 28.57 28.69 28.38 28.26 28.34 28.42 28.63 29.26 29.30
38.05 38.83 38.48 37.99 38.54 38.03 36.90 37.55 37.74 37.02 36.89 35.86 34.74 33.31 33.20 34.14 33.69 32.57 31.33 29.47 30.47 31.15 32.21 32.28 31.03 30.50 30.29 30.99 30.45 30.17 30.54 29.47 28.38 27.95 27.94 27.64 27.73 27.06 27.46 27.48 27.17 27.01 27.15 27.22
36.74 36.76 36.79 36.56 36.31 36.67 36.59 36.79 35.91 34.96 34.91 33.72 32.67 32.24 32.70 32.98 32.17 30.69 28.76 27.86 31.65 33.08 32.66 32.29 31.32 31.24 31.88 30.16 29.71 29.93 30.49 29.64 28.48 27.75 27.38 26.86 26.74 26.54 26.36 26.37 26.43 26.31 26.32 26.27
35.91 35.31 35.44 35.57 35.04 34.76 35.20 35.09 34.25 33.20 31.83 30.36 30.87 31.13 30.19 29.16 29.39 29.18 30.06 29.55 33.35 33.20 31.43 31.34 31.79 32.15 31.78 30.93 29.36 30.32 30.73 29.32 27.81 27.30 26.74 26.55 26.09 25.50 25.22 25.43 25.50 25.82 25.72 26.13
33.61 34.09 34.55 34.16 33.43 34.22 34.84 34.45 33.79 32.73 31.84 31.54 30.22 29.96 29.38 29.80 30.93 30.18 29.61 33.23 32.74 31.80 30.35 30.40 31.62 31.90 31.81 30.55 29.81 30.28 29.70 28.44 27.37 26.69 26.39 26.47 26.03 25.43 24.71 24.67 24.88 24.33 24.56 24.81
34.29 34.78 34.99 35.10 34.66 33.14 31.68 33.28 32.83 33.29 32.88 32.42 31.85 31.84 31.05 30.47 31.12 32.24 32.40 33.52 33.49 32.66 30.95 31.63 32.15 31.80 31.93 30.60 30.09 29.79 29.35 28.65 27.40 26.58 25.98 26.37 25.10 24.68 24.30 23.70 23.05 23.32 23.43 23.09
34.03 33.85 33.09 32.43 32.17 32.39 32.89 33.18 32.27 31.39 31.42 32.12 32.44 32.88 32.51 33.32 32.09 33.70 33.58 32.91 33.17 32.95 31.76 31.62 31.99 32.32 30.75 30.35 30.07 29.45 28.91 28.26 27.18 26.03 25.06 24.38 23.78 23.51 22.99 22.50 22.21 22.11 22.17 22.22
33.48 33.66 34.03 33.49 33.59 33.72 33.33 32.46 30.54 31.50 31.58 30.95 32.02 32.84 33.23 33.42 32.72 32.43 32.09 32.24 30.73 30.61 29.98 30.23 29.99 29.66 30.36 30.25 29.33 28.48 27.62 26.26 25.52 24.79 24.95 24.12 23.05 22.25 21.95 21.65 21.36 21.02 20.89 21.04
32.39 33.53 32.73 31.56 31.52 31.24 31.32 31.10 30.05 29.62 30.67 30.39 29.96 31.59 31.73 31.32 31.03 30.97 30.65 29.18 28.18 27.87 27.88 28.16 28.30 28.61 28.24 27.53 26.62 26.17 25.43 24.98 25.27 23.86 23.13 22.54 21.75 21.53 21.17 20.50 20.04 20.21 20.22 19.85

GFSNGP_sfc_wetblb_120.txt.gz
Wetbulb
35.31 36.52 35.37 33.94 34.41 34.76 31.73 32.50 28.26 32.01 32.35 34.92 36.95 37.87 38.52 40.28 41.22 41.53 42.41 43.67 45.36 46.26 46.69 47.68 49.41 51.13 51.65 52.50 54.21 55.22 54.78 55.13 54.43 54.69 54.50 54.63 54.18 53.87 53.98 53.65 53.23 52.81 51.56 51.03
30.62 35.16 34.94 32.15 34.66 35.46 35.47 36.14 34.63 35.10 32.84 38.44 39.31 39.74 39.19 39.19 40.14 40.31 41.37 42.83 44.14 45.77 46.36 46.78 47.36 48.94 50.41 51.22 51.99 51.86 50.91 50.46 51.47 51.57 51.09 50.53 51.37 51.05 50.23 49.11 49.63 48.62 47.60 48.15
23.43 31.56 31.51 26.14 33.41 34.78 35.72 36.58 35.47 30.82 35.29 38.68 37.60 37.97 38.14 38.90 40.06 40.50 41.37 42.39 43.37 44.62 45.79 46.52 46.83 47.63 47.92 48.95 49.52 49.08 48.83 48.73 49.14 48.90 48.44 48.24 48.12 47.96 47.33 47.28 48.80 48.05 47.94 45.68
24.88 27.14 20.18 32.38 38.90 38.97 36.31 36.83 37.98 37.13 37.63 38.77 38.03 38.91 39.84 40.70 40.35 40.86 41.58 42.48 43.52 44.60 45.57 46.41 46.97 46.44 46.65 46.75 47.66 47.93 48.02 48.58 49.16 47.99 46.88 46.78 46.57 46.08 46.34 46.45 46.07 46.22 45.54 44.77
24.08 23.44 28.16 32.01 35.11 36.23 35.34 34.14 37.88 36.62 37.80 38.99 39.86 39.75 38.29 40.92 41.67 41.49 41.83 43.31 44.23 45.72 46.08 45.76 45.70 46.61 46.35 45.99 45.64 45.36 45.00 45.96 46.57 46.88 46.18 44.94 43.85 43.55 43.99 43.45 41.38 41.63 43.60 44.25
26.97 22.81 22.09 30.23 35.70 38.71 38.10 29.84 38.67 39.09 38.09 37.90 38.58 32.60 35.45 39.86 40.86 40.87 42.01 43.27 43.46 44.42 45.56 45.62 45.87 46.40 45.35 43.98 43.78 43.74 44.22 44.48 45.12 45.95 45.78 44.66 44.05 43.54 43.06 43.30 42.25 42.41 41.31 41.90
26.67 23.10 27.37 33.82 36.33 38.28 26.08 31.88 39.50 40.17 39.35 38.32 35.68 36.85 39.25 41.09 40.59 40.96 41.53 42.57 42.87 42.37 41.41 41.65 45.21 45.07 43.42 43.19 42.43 43.74 44.34 44.00 43.72 43.80 44.54 44.56 43.75 43.00 42.58 40.86 40.87 39.75 39.98 40.41
26.39 22.79 20.41 36.67 35.87 32.17 37.25 40.24 40.52 40.20 39.99 39.39 39.78 41.15 40.91 40.83 40.27 40.42 39.80 41.12 41.49 39.63 38.84 39.54 41.38 42.27 40.30 39.75 42.37 44.05 44.01 43.52 42.88 41.91 42.55 41.88 39.81 39.60 40.01 39.30 38.77 38.29 38.39 38.50
28.51 28.47 36.30 37.97 37.86 39.85 41.25 40.01 40.47 40.24 40.76 41.48 40.67 40.66 40.72 39.89 39.87 39.91 39.80 39.87 40.41 38.75 37.50 37.50 37.83 38.44 37.77 38.25 41.56 42.27 42.02 41.91 41.83 41.97 41.52 41.61 39.85 38.97 39.00 39.26 38.66 38.04 37.82 37.40
31.27 33.88 35.92 37.98 39.51 40.46 41.59 41.25 42.07 42.27 41.86 41.98 40.62 41.29 39.95 40.01 39.50 39.02 39.05 38.76 39.57 38.59 37.20 36.29 37.00 37.19 36.86 37.80 40.04 40.94 40.46 38.63 39.18 39.92 40.08 39.88 40.38 40.19 39.10 38.62 38.59 38.99 37.78 36.90
31.62 34.50 36.06 38.03 39.86 40.46 40.97 41.73 41.91 42.78 42.82 41.92 42.06 41.76 41.41 40.12 39.06 38.47 38.40 38.47 38.53 37.31 36.25 35.76 36.31 36.13 36.61 37.30 37.93 38.12 38.53 38.89 38.02 38.42 39.53 39.32 39.28 39.50 39.73 39.97 40.30 39.27 39.26 39.23
29.33 35.93 35.72 36.64 39.62 41.50 40.03 40.02 40.48 41.11 41.09 42.40 42.80 42.40 41.98 39.76 38.90 38.07 37.14 37.87 37.66 37.30 36.15 35.70 35.54 35.29 35.74 36.56 36.96 36.57 37.12 36.77 36.49 36.28 36.86 37.78 38.03 38.52 41.13 41.32 41.63 41.73 41.76 40.84
35.60 38.47 38.62 39.48 40.64 41.27 39.43 39.45 39.80 40.06 40.46 40.39 41.09 42.02 41.26 38.96 37.70 38.89 37.08 37.00 36.41 35.91 36.08 37.20 36.86 34.42 34.55 34.99 35.42 35.46 34.53 36.03 36.11 36.24 35.46 35.25 36.42 34.72 34.57 37.61 40.78 41.18 41.42 41.56
38.25 38.48 36.64 37.65 36.55 39.30 39.78 39.75 40.87 39.42 39.41 39.64 40.03 40.85 40.92 39.53 37.99 36.92 36.12 35.77 36.15 36.28 37.45 36.68 34.17 32.89 33.59 34.17 33.99 33.67 33.54 36.49 35.01 33.86 33.62 34.81 34.58 34.19 34.32 33.98 34.04 34.97 39.54 41.01
37.40 36.46 37.64 38.51 38.23 38.15 38.75 38.40 37.46 37.25 37.68 37.78 38.64 38.55 38.95 38.26 37.75 36.15 35.15 35.07 35.22 35.05 34.31 34.05 33.33 32.41 32.97 33.45 33.00 32.26 32.15 33.13 33.09 33.84 33.18 33.34 33.31 33.09 33.33 33.45 33.62 34.22 35.19 37.00
37.34 37.12 37.84 36.71 36.74 36.90 36.75 36.54 35.81 36.24 36.55 36.91 37.19 36.84 36.38 36.18 35.65 34.92 33.95 33.41 32.47 32.12 32.71 32.31 31.70 31.59 31.32 31.72 29.84 30.07 29.76 31.34 30.73 28.53 28.75 28.81 30.43 31.63 31.95 32.23 32.25 32.51 32.77 33.22
33.55 32.61 34.67 35.05 35.89 35.49 35.43 36.16 36.13 36.08 36.04 35.98 35.59 35.67 35.50 36.36 34.40 34.40 35.19 35.06 33.36 32.66 33.02 32.40 30.89 30.88 31.42 30.49 28.96 28.49 27.78 27.45 30.44 26.50 26.48 26.85 26.97 27.40 29.47 30.07 31.05 31.61 31.91 33.03
36.84 36.98 37.06 36.78 35.79 35.32 35.42 35.78 35.52 35.32 34.58 35.13 35.17 34.79 35.84 35.13 34.72 35.26 35.14 31.87 29.46 28.07 28.58 30.35 31.03 30.43 30.24 29.61 28.62 27.78 27.12 26.89 27.04 26.20 26.35 26.10 25.61 26.77 26.24 26.56 27.34 27.82 30.12 31.38
37.10 36.59 36.69 37.09 36.56 35.82 35.26 34.87 34.90 35.13 34.97 34.34 33.28 32.51 34.15 33.87 32.91 32.99 30.33 28.03 27.21 26.13 27.33 29.46 33.22 29.88 27.45 28.66 29.27 27.10 27.28 27.15 26.05 25.47 25.87 27.37 25.22 25.74 24.27 24.74 25.06 25.20 25.70 26.91
35.68 36.43 35.83 35.62 35.90 35.22 34.08 34.74 34.98 34.14 34.19 33.38 32.33 31.12 30.51 32.85 33.03 30.21 28.35 26.46 26.88 27.44 28.08 28.83 28.63 26.81 26.62 27.22 30.56 26.42 26.09 26.66 25.76 24.97 24.85 24.79 24.46 24.06 23.82 25.69 24.94 24.59 24.39 25.57
33.87 34.16 34.23 33.87 33.67 34.17 34.03 33.78 33.23 31.99 31.92 31.08 29.92 29.43 29.21 31.77 30.54 27.33 24.09 22.77 26.01 29.32 29.28 31.10 27.31 27.12 27.36 29.29 28.15 25.01 25.20 26.53 25.97 24.25 23.97 23.55 23.41 23.20 22.23 22.52 23.20 24.18 24.48 25.31
32.03 31.96 31.80 32.43 31.78 30.97 32.18 31.69 30.95 29.45 28.51 27.99 27.34 26.81 29.60 28.44 26.43 24.68 26.15 25.43 25.30 34.02 26.82 25.27 26.11 30.20 28.62 32.19 25.86 24.85 25.83 26.67 25.52 23.62 22.57 22.63 22.00 20.99 19.73 19.76 19.46 22.88 22.92 22.59
29.87 30.48 31.45 30.06 29.09 27.92 29.37 28.22 27.82 27.20 25.70 27.18 27.20 27.19 27.75 27.58 26.54 24.95 25.38 28.44 27.65 30.31 29.12 25.16 29.04 32.21 32.71 27.33 24.19 24.42 24.94 24.47 23.64 22.45 20.70 18.32 18.91 17.13 17.31 17.49 19.55 21.74 19.79 20.72
30.60 31.05 30.95 31.61 30.70 27.48 24.42 24.96 24.79 27.14 28.58 27.02 27.31 27.15 26.25 25.23 25.59 26.40 27.13 32.19 34.13 32.19 27.84 26.89 29.48 33.12 34.04 24.08 24.03 23.47 23.61 23.26 20.78 17.51 17.58 25.07 14.63 15.12 15.74 17.58 18.04 19.81 20.27 21.51
29.42 28.36 27.68 27.10 27.85 28.22 26.40 26.35 25.72 25.58 25.11 24.37 25.75 27.04 27.56 27.58 28.18 26.16 25.23 26.77 32.54 32.65 31.10 33.20 34.42 34.44 30.77 26.34 23.95 23.32 24.08 20.60 16.69 16.07 16.16 14.84 14.87 14.27 15.73 15.98 18.03 19.08 19.63 19.98
29.67 29.96 29.43 29.22 29.10 29.07 28.85 28.49 27.13 27.35 27.62 27.46 28.23 28.36 28.79 28.60 28.25 29.31 26.06 28.56 27.92 29.24 25.10 24.33 24.28 26.06 23.73 23.44 24.26 24.81 22.84 21.34 22.53 19.86 18.49 17.44 16.38 13.90 14.96 16.28 17.57 17.82 18.36 18.27
26.00 31.06 25.28 27.61 28.11 28.32 27.86 27.71 26.46 26.35 27.89 27.18 27.08 27.74 27.69 27.77 27.67 28.31 29.34 26.43 25.97 24.48 23.52 23.54 22.75 24.45 21.24 21.54 21.06 19.98 18.84 18.00 21.26 16.99 15.91 14.59 14.25 13.51 15.37 15.97 15.86 16.48 16.84 17.53